<?xml version='1.0' encoding='UTF-8'?><gpx version="1.1" creator="JPX - https://github.com/jenetics/jpx" xmlns="http://www.topografix.com/GPX/1/1"><trk><trkseg><trkpt lat="41.1647645" lon="-7.8977023"><ele>366.0</ele><time>2026-04-26T07:32:51.865Z</time></trkpt><trkpt lat="41.1647369" lon="-7.8976051"><ele>366.0</ele><time>2026-04-26T07:33:54.872Z</time></trkpt><trkpt lat="41.1647335" lon="-7.8976918"><ele>366.0</ele><time>2026-04-26T07:34:04.876Z</time></trkpt><trkpt lat="41.1647908" lon="-7.8977334"><ele>366.0</ele><time>2026-04-26T07:35:03.865Z</time></trkpt><trkpt lat="41.1647377" lon="-7.8976826"><ele>366.0</ele><time>2026-04-26T07:35:32.859Z</time></trkpt><trkpt lat="41.1646602" lon="-7.8977008"><ele>366.0</ele><time>2026-04-26T07:37:05.867Z</time></trkpt><trkpt lat="41.1645883" lon="-7.8977272"><ele>366.0</ele><time>2026-04-26T07:37:08.867Z</time></trkpt><trkpt lat="41.1644968" lon="-7.8977265"><ele>366.0</ele><time>2026-04-26T07:37:11.856Z</time></trkpt><trkpt lat="41.1644266" lon="-7.8977038"><ele>366.0</ele><time>2026-04-26T07:37:14.863Z</time></trkpt><trkpt lat="41.1643575" lon="-7.8976702"><ele>366.0</ele><time>2026-04-26T07:37:17.865Z</time></trkpt><trkpt lat="41.1643111" lon="-7.8976105"><ele>366.0</ele><time>2026-04-26T07:37:21.86Z</time></trkpt><trkpt lat="41.1643206" lon="-7.8975193"><ele>366.0</ele><time>2026-04-26T07:37:24.857Z</time></trkpt><trkpt lat="41.1643203" lon="-7.8974197"><ele>366.0</ele><time>2026-04-26T07:37:27.866Z</time></trkpt><trkpt lat="41.1643035" lon="-7.897305"><ele>366.0</ele><time>2026-04-26T07:37:30.869Z</time></trkpt><trkpt lat="41.1642784" lon="-7.8972164"><ele>363.20000000000005</ele><time>2026-04-26T07:37:32.857Z</time></trkpt><trkpt lat="41.1642672" lon="-7.8971234"><ele>360.40000000000003</ele><time>2026-04-26T07:37:34.863Z</time></trkpt><trkpt lat="41.1642446" lon="-7.8970191"><ele>357.6</ele><time>2026-04-26T07:37:36.86Z</time></trkpt><trkpt lat="41.1642054" lon="-7.8968983"><ele>354.8</ele><time>2026-04-26T07:37:38.863Z</time></trkpt><trkpt lat="41.164144" lon="-7.8967607"><ele>352.0</ele><time>2026-04-26T07:37:40.86Z</time></trkpt><trkpt lat="41.1640733" lon="-7.8966284"><ele>353.8</ele><time>2026-04-26T07:37:42.86Z</time></trkpt><trkpt lat="41.1640388" lon="-7.8965579"><ele>355.6</ele><time>2026-04-26T07:37:43.869Z</time></trkpt><trkpt lat="41.1639863" lon="-7.8964386"><ele>357.40000000000003</ele><time>2026-04-26T07:37:45.876Z</time></trkpt><trkpt lat="41.1639379" lon="-7.8963364"><ele>359.20000000000005</ele><time>2026-04-26T07:37:47.858Z</time></trkpt><trkpt lat="41.1638714" lon="-7.8962447"><ele>361.0</ele><time>2026-04-26T07:37:49.872Z</time></trkpt><trkpt lat="41.1637798" lon="-7.8961837"><ele>361.0</ele><time>2026-04-26T07:37:51.859Z</time></trkpt><trkpt lat="41.1636711" lon="-7.8961245"><ele>361.0</ele><time>2026-04-26T07:37:53.868Z</time></trkpt><trkpt lat="41.1635628" lon="-7.8960467"><ele>361.0</ele><time>2026-04-26T07:37:55.861Z</time></trkpt><trkpt lat="41.1634791" lon="-7.8959599"><ele>361.0</ele><time>2026-04-26T07:37:57.854Z</time></trkpt><trkpt lat="41.1634474" lon="-7.8958706"><ele>361.0</ele><time>2026-04-26T07:37:59.868Z</time></trkpt><trkpt lat="41.1634342" lon="-7.8957714"><ele>355.4</ele><time>2026-04-26T07:38:01.861Z</time></trkpt><trkpt lat="41.1634253" lon="-7.8956678"><ele>349.8</ele><time>2026-04-26T07:38:03.862Z</time></trkpt><trkpt lat="41.1634338" lon="-7.8955483"><ele>344.2</ele><time>2026-04-26T07:38:05.86Z</time></trkpt><trkpt lat="41.1634749" lon="-7.8954561"><ele>338.59999999999997</ele><time>2026-04-26T07:38:07.861Z</time></trkpt><trkpt lat="41.1635294" lon="-7.8953433"><ele>333.0</ele><time>2026-04-26T07:38:09.871Z</time></trkpt><trkpt lat="41.1635749" lon="-7.8952156"><ele>333.0</ele><time>2026-04-26T07:38:11.867Z</time></trkpt><trkpt lat="41.1636034" lon="-7.8951216"><ele>333.0</ele><time>2026-04-26T07:38:13.873Z</time></trkpt><trkpt lat="41.1636208" lon="-7.8950163"><ele>333.0</ele><time>2026-04-26T07:38:15.872Z</time></trkpt><trkpt lat="41.1636197" lon="-7.8949053"><ele>333.0</ele><time>2026-04-26T07:38:17.861Z</time></trkpt><trkpt lat="41.1636434" lon="-7.8948137"><ele>333.0</ele><time>2026-04-26T07:38:19.864Z</time></trkpt><trkpt lat="41.163686" lon="-7.894721"><ele>333.0</ele><time>2026-04-26T07:38:22.864Z</time></trkpt><trkpt lat="41.1636638" lon="-7.8946358"><ele>329.4</ele><time>2026-04-26T07:38:26.855Z</time></trkpt><trkpt lat="41.1635982" lon="-7.8945213"><ele>325.79999999999995</ele><time>2026-04-26T07:38:28.86Z</time></trkpt><trkpt lat="41.1635325" lon="-7.8943923"><ele>322.2</ele><time>2026-04-26T07:38:30.87Z</time></trkpt><trkpt lat="41.1634979" lon="-7.8943131"><ele>318.6</ele><time>2026-04-26T07:38:31.852Z</time></trkpt><trkpt lat="41.1634597" lon="-7.8942214"><ele>315.0</ele><time>2026-04-26T07:38:32.86Z</time></trkpt><trkpt lat="41.1634222" lon="-7.894126"><ele>314.14285714285717</ele><time>2026-04-26T07:38:33.871Z</time></trkpt><trkpt lat="41.1633913" lon="-7.8940275"><ele>313.2857142857143</ele><time>2026-04-26T07:38:34.868Z</time></trkpt><trkpt lat="41.163362" lon="-7.8939363"><ele>312.42857142857144</ele><time>2026-04-26T07:38:35.86Z</time></trkpt><trkpt lat="41.1633297" lon="-7.8938508"><ele>311.57142857142856</ele><time>2026-04-26T07:38:36.858Z</time></trkpt><trkpt lat="41.1633" lon="-7.8937685"><ele>310.7142857142857</ele><time>2026-04-26T07:38:37.863Z</time></trkpt><trkpt lat="41.1632712" lon="-7.8936876"><ele>309.8571428571429</ele><time>2026-04-26T07:38:38.868Z</time></trkpt><trkpt lat="41.1632358" lon="-7.8936145"><ele>309.0</ele><time>2026-04-26T07:38:39.859Z</time></trkpt><trkpt lat="41.1631957" lon="-7.8935466"><ele>309.0</ele><time>2026-04-26T07:38:40.866Z</time></trkpt><trkpt lat="41.16312" lon="-7.8934254"><ele>309.0</ele><time>2026-04-26T07:38:42.857Z</time></trkpt><trkpt lat="41.1630861" lon="-7.8932943"><ele>309.0</ele><time>2026-04-26T07:38:44.861Z</time></trkpt><trkpt lat="41.1630687" lon="-7.8931479"><ele>309.0</ele><time>2026-04-26T07:38:46.855Z</time></trkpt><trkpt lat="41.1630604" lon="-7.8929974"><ele>309.0</ele><time>2026-04-26T07:38:48.867Z</time></trkpt><trkpt lat="41.1630589" lon="-7.8928269"><ele>303.59999999999997</ele><time>2026-04-26T07:38:50.855Z</time></trkpt><trkpt lat="41.1630571" lon="-7.8927343"><ele>298.2</ele><time>2026-04-26T07:38:51.856Z</time></trkpt><trkpt lat="41.1630575" lon="-7.8926411"><ele>292.79999999999995</ele><time>2026-04-26T07:38:52.866Z</time></trkpt><trkpt lat="41.163061" lon="-7.8925487"><ele>287.4</ele><time>2026-04-26T07:38:53.861Z</time></trkpt><trkpt lat="41.1630515" lon="-7.8923803"><ele>282.0</ele><time>2026-04-26T07:38:55.864Z</time></trkpt><trkpt lat="41.1630278" lon="-7.8922272"><ele>280.3333333333333</ele><time>2026-04-26T07:38:57.857Z</time></trkpt><trkpt lat="41.1629871" lon="-7.8920918"><ele>278.6666666666667</ele><time>2026-04-26T07:38:59.869Z</time></trkpt><trkpt lat="41.1628946" lon="-7.8919876"><ele>277.0</ele><time>2026-04-26T07:39:01.857Z</time></trkpt><trkpt lat="41.1628382" lon="-7.8919391"><ele>275.33333333333337</ele><time>2026-04-26T07:39:02.858Z</time></trkpt><trkpt lat="41.1627842" lon="-7.8918838"><ele>273.6666666666667</ele><time>2026-04-26T07:39:03.866Z</time></trkpt><trkpt lat="41.1627294" lon="-7.8918276"><ele>272.0</ele><time>2026-04-26T07:39:04.861Z</time></trkpt><trkpt lat="41.1626713" lon="-7.8917711"><ele>272.33333333333337</ele><time>2026-04-26T07:39:05.858Z</time></trkpt><trkpt lat="41.1626087" lon="-7.8917135"><ele>272.6666666666667</ele><time>2026-04-26T07:39:06.864Z</time></trkpt><trkpt lat="41.1625477" lon="-7.8916536"><ele>273.0</ele><time>2026-04-26T07:39:07.87Z</time></trkpt><trkpt lat="41.1624863" lon="-7.8915921"><ele>273.3333333333333</ele><time>2026-04-26T07:39:08.86Z</time></trkpt><trkpt lat="41.1624161" lon="-7.8915378"><ele>273.66666666666663</ele><time>2026-04-26T07:39:09.867Z</time></trkpt><trkpt lat="41.1623359" lon="-7.8915061"><ele>274.0</ele><time>2026-04-26T07:39:10.867Z</time></trkpt><trkpt lat="41.1622574" lon="-7.8914774"><ele>271.0</ele><time>2026-04-26T07:39:11.87Z</time></trkpt><trkpt lat="41.162188" lon="-7.8914714"><ele>268.0</ele><time>2026-04-26T07:39:12.86Z</time></trkpt><trkpt lat="41.1620818" lon="-7.891445"><ele>265.0</ele><time>2026-04-26T07:39:14.857Z</time></trkpt><trkpt lat="41.1620664" lon="-7.8913515"><ele>262.0</ele><time>2026-04-26T07:39:16.86Z</time></trkpt><trkpt lat="41.1621581" lon="-7.8912087"><ele>259.0</ele><time>2026-04-26T07:39:18.859Z</time></trkpt><trkpt lat="41.1622149" lon="-7.8911296"><ele>259.0</ele><time>2026-04-26T07:39:19.863Z</time></trkpt><trkpt lat="41.1622677" lon="-7.8910513"><ele>259.0</ele><time>2026-04-26T07:39:20.864Z</time></trkpt><trkpt lat="41.1623146" lon="-7.8909825"><ele>259.0</ele><time>2026-04-26T07:39:21.857Z</time></trkpt><trkpt lat="41.1623707" lon="-7.8908573"><ele>259.0</ele><time>2026-04-26T07:39:23.866Z</time></trkpt><trkpt lat="41.162354" lon="-7.8907597"><ele>259.0</ele><time>2026-04-26T07:39:25.862Z</time></trkpt><trkpt lat="41.1622711" lon="-7.8906873"><ele>259.0</ele><time>2026-04-26T07:39:27.861Z</time></trkpt><trkpt lat="41.1621595" lon="-7.8906131"><ele>260.5</ele><time>2026-04-26T07:39:29.863Z</time></trkpt><trkpt lat="41.1620352" lon="-7.8906421"><ele>262.0</ele><time>2026-04-26T07:39:31.865Z</time></trkpt><trkpt lat="41.1619746" lon="-7.890695"><ele>263.5</ele><time>2026-04-26T07:39:32.866Z</time></trkpt><trkpt lat="41.1619123" lon="-7.8907463"><ele>265.0</ele><time>2026-04-26T07:39:33.859Z</time></trkpt><trkpt lat="41.16185" lon="-7.8907917"><ele>266.5</ele><time>2026-04-26T07:39:34.859Z</time></trkpt><trkpt lat="41.1617818" lon="-7.8908224"><ele>268.0</ele><time>2026-04-26T07:39:35.862Z</time></trkpt><trkpt lat="41.1617184" lon="-7.890835"><ele>268.0</ele><time>2026-04-26T07:39:36.861Z</time></trkpt><trkpt lat="41.1616225" lon="-7.8907946"><ele>268.0</ele><time>2026-04-26T07:39:38.863Z</time></trkpt><trkpt lat="41.1615267" lon="-7.8907443"><ele>268.0</ele><time>2026-04-26T07:39:40.862Z</time></trkpt><trkpt lat="41.1614579" lon="-7.8907301"><ele>268.0</ele><time>2026-04-26T07:39:41.863Z</time></trkpt><trkpt lat="41.1613778" lon="-7.8907211"><ele>268.0</ele><time>2026-04-26T07:39:42.864Z</time></trkpt><trkpt lat="41.1612977" lon="-7.8907188"><ele>268.0</ele><time>2026-04-26T07:39:43.866Z</time></trkpt><trkpt lat="41.1612177" lon="-7.8907227"><ele>269.8333333333333</ele><time>2026-04-26T07:39:44.86Z</time></trkpt><trkpt lat="41.1611411" lon="-7.8907434"><ele>271.66666666666663</ele><time>2026-04-26T07:39:45.86Z</time></trkpt><trkpt lat="41.1610767" lon="-7.8907872"><ele>273.5</ele><time>2026-04-26T07:39:46.857Z</time></trkpt><trkpt lat="41.1610282" lon="-7.8908531"><ele>275.3333333333333</ele><time>2026-04-26T07:39:47.86Z</time></trkpt><trkpt lat="41.1609833" lon="-7.8909241"><ele>277.1666666666667</ele><time>2026-04-26T07:39:48.862Z</time></trkpt><trkpt lat="41.1609531" lon="-7.8910025"><ele>279.0</ele><time>2026-04-26T07:39:49.872Z</time></trkpt><trkpt lat="41.1609086" lon="-7.8911525"><ele>279.0</ele><time>2026-04-26T07:39:51.854Z</time></trkpt><trkpt lat="41.1608603" lon="-7.8913154"><ele>279.0</ele><time>2026-04-26T07:39:53.859Z</time></trkpt><trkpt lat="41.160842" lon="-7.891412"><ele>279.0</ele><time>2026-04-26T07:39:54.859Z</time></trkpt><trkpt lat="41.1608208" lon="-7.8915065"><ele>279.0</ele><time>2026-04-26T07:39:55.859Z</time></trkpt><trkpt lat="41.160803" lon="-7.8915953"><ele>279.0</ele><time>2026-04-26T07:39:56.862Z</time></trkpt><trkpt lat="41.160786" lon="-7.8916823"><ele>279.0</ele><time>2026-04-26T07:39:57.864Z</time></trkpt><trkpt lat="41.1607434" lon="-7.891831"><ele>275.8</ele><time>2026-04-26T07:39:59.87Z</time></trkpt><trkpt lat="41.1606716" lon="-7.8919316"><ele>272.59999999999997</ele><time>2026-04-26T07:40:01.858Z</time></trkpt><trkpt lat="41.160591" lon="-7.8919826"><ele>269.4</ele><time>2026-04-26T07:40:03.859Z</time></trkpt><trkpt lat="41.1604816" lon="-7.8919948"><ele>266.2</ele><time>2026-04-26T07:40:05.868Z</time></trkpt><trkpt lat="41.1603911" lon="-7.8919001"><ele>263.0</ele><time>2026-04-26T07:40:07.852Z</time></trkpt><trkpt lat="41.1603771" lon="-7.8918123"><ele>267.2857142857143</ele><time>2026-04-26T07:40:08.862Z</time></trkpt><trkpt lat="41.1603747" lon="-7.8917216"><ele>271.57142857142856</ele><time>2026-04-26T07:40:09.866Z</time></trkpt><trkpt lat="41.16039" lon="-7.891629"><ele>275.85714285714283</ele><time>2026-04-26T07:40:10.86Z</time></trkpt><trkpt lat="41.1604182" lon="-7.8915362"><ele>280.1428571428571</ele><time>2026-04-26T07:40:11.867Z</time></trkpt><trkpt lat="41.1604552" lon="-7.8914555"><ele>284.42857142857144</ele><time>2026-04-26T07:40:12.86Z</time></trkpt><trkpt lat="41.1605026" lon="-7.8913757"><ele>288.71428571428567</ele><time>2026-04-26T07:40:13.858Z</time></trkpt><trkpt lat="41.1605494" lon="-7.8912973"><ele>293.0</ele><time>2026-04-26T07:40:14.865Z</time></trkpt><trkpt lat="41.1605849" lon="-7.891214"><ele>292.99999999999994</ele><time>2026-04-26T07:40:15.869Z</time></trkpt><trkpt lat="41.1606171" lon="-7.8911327"><ele>293.0</ele><time>2026-04-26T07:40:16.854Z</time></trkpt><trkpt lat="41.160635" lon="-7.8910478"><ele>293.0</ele><time>2026-04-26T07:40:17.854Z</time></trkpt><trkpt lat="41.1606384" lon="-7.8909632"><ele>293.0</ele><time>2026-04-26T07:40:18.864Z</time></trkpt><trkpt lat="41.1606391" lon="-7.8908723"><ele>293.0</ele><time>2026-04-26T07:40:19.869Z</time></trkpt><trkpt lat="41.1606421" lon="-7.8907801"><ele>292.99999999999994</ele><time>2026-04-26T07:40:20.865Z</time></trkpt><trkpt lat="41.1606463" lon="-7.8906866"><ele>293.0</ele><time>2026-04-26T07:40:21.862Z</time></trkpt><trkpt lat="41.1606459" lon="-7.8905862"><ele>295.33333333333337</ele><time>2026-04-26T07:40:22.861Z</time></trkpt><trkpt lat="41.1606464" lon="-7.8904962"><ele>297.6666666666667</ele><time>2026-04-26T07:40:23.858Z</time></trkpt><trkpt lat="41.1606426" lon="-7.8903781"><ele>300.0</ele><time>2026-04-26T07:40:25.857Z</time></trkpt><trkpt lat="41.1606006" lon="-7.8903077"><ele>302.3333333333333</ele><time>2026-04-26T07:40:29.86Z</time></trkpt><trkpt lat="41.1605202" lon="-7.8903741"><ele>304.66666666666663</ele><time>2026-04-26T07:40:32.867Z</time></trkpt><trkpt lat="41.1604927" lon="-7.8904495"><ele>307.0</ele><time>2026-04-26T07:40:34.86Z</time></trkpt><trkpt lat="41.1604766" lon="-7.89054"><ele>307.0</ele><time>2026-04-26T07:40:36.86Z</time></trkpt><trkpt lat="41.1604502" lon="-7.8906801"><ele>307.0</ele><time>2026-04-26T07:40:38.862Z</time></trkpt><trkpt lat="41.1604604" lon="-7.8908059"><ele>307.0</ele><time>2026-04-26T07:40:40.862Z</time></trkpt><trkpt lat="41.1604764" lon="-7.8908875"><ele>307.0</ele><time>2026-04-26T07:40:41.861Z</time></trkpt><trkpt lat="41.1604991" lon="-7.8910416"><ele>307.0</ele><time>2026-04-26T07:40:43.864Z</time></trkpt><trkpt lat="41.1604977" lon="-7.8911832"><ele>304.2</ele><time>2026-04-26T07:40:45.869Z</time></trkpt><trkpt lat="41.160478" lon="-7.8913142"><ele>301.4</ele><time>2026-04-26T07:40:47.858Z</time></trkpt><trkpt lat="41.1604286" lon="-7.8913758"><ele>298.6</ele><time>2026-04-26T07:40:49.864Z</time></trkpt><trkpt lat="41.1603442" lon="-7.8913192"><ele>295.8</ele><time>2026-04-26T07:40:51.867Z</time></trkpt><trkpt lat="41.1603747" lon="-7.8911811"><ele>293.0</ele><time>2026-04-26T07:40:53.869Z</time></trkpt><trkpt lat="41.1603756" lon="-7.8910464"><ele>295.8</ele><time>2026-04-26T07:40:55.865Z</time></trkpt><trkpt lat="41.1603526" lon="-7.8909008"><ele>298.6</ele><time>2026-04-26T07:40:57.853Z</time></trkpt><trkpt lat="41.1603287" lon="-7.8907447"><ele>301.4</ele><time>2026-04-26T07:40:59.86Z</time></trkpt><trkpt lat="41.1603148" lon="-7.8906091"><ele>304.2</ele><time>2026-04-26T07:41:01.852Z</time></trkpt><trkpt lat="41.1602764" lon="-7.8905121"><ele>307.0</ele><time>2026-04-26T07:41:03.869Z</time></trkpt><trkpt lat="41.1601922" lon="-7.8904921"><ele>307.0</ele><time>2026-04-26T07:41:05.861Z</time></trkpt><trkpt lat="41.160097" lon="-7.8904782"><ele>307.0</ele><time>2026-04-26T07:41:07.857Z</time></trkpt><trkpt lat="41.1600171" lon="-7.8904646"><ele>307.0</ele><time>2026-04-26T07:41:09.861Z</time></trkpt><trkpt lat="41.1599485" lon="-7.8904197"><ele>307.0</ele><time>2026-04-26T07:41:12.86Z</time></trkpt><trkpt lat="41.159882" lon="-7.8903825"><ele>307.0</ele><time>2026-04-26T07:41:17.858Z</time></trkpt><trkpt lat="41.1598029" lon="-7.8903475"><ele>307.0</ele><time>2026-04-26T07:41:21.863Z</time></trkpt><trkpt lat="41.1597265" lon="-7.8903306"><ele>307.0</ele><time>2026-04-26T07:41:23.86Z</time></trkpt><trkpt lat="41.1596434" lon="-7.890302"><ele>307.0</ele><time>2026-04-26T07:41:25.863Z</time></trkpt><trkpt lat="41.1595527" lon="-7.8902651"><ele>307.0</ele><time>2026-04-26T07:41:27.868Z</time></trkpt><trkpt lat="41.1594349" lon="-7.8902155"><ele>307.0</ele><time>2026-04-26T07:41:29.864Z</time></trkpt><trkpt lat="41.1593739" lon="-7.8901895"><ele>307.0</ele><time>2026-04-26T07:41:30.858Z</time></trkpt><trkpt lat="41.1592543" lon="-7.890147"><ele>306.99999999999994</ele><time>2026-04-26T07:41:32.854Z</time></trkpt><trkpt lat="41.1591525" lon="-7.8901184"><ele>307.0</ele><time>2026-04-26T07:41:34.868Z</time></trkpt><trkpt lat="41.159135" lon="-7.8902164"><ele>307.0</ele><time>2026-04-26T07:41:42.854Z</time></trkpt><trkpt lat="41.1590724" lon="-7.8902054"><ele>307.0</ele><time>2026-04-26T07:43:51.861Z</time></trkpt><trkpt lat="41.1591159" lon="-7.8902795"><ele>307.0</ele><time>2026-04-26T07:45:52.858Z</time></trkpt><trkpt lat="41.1590901" lon="-7.8902029"><ele>306.99999999999994</ele><time>2026-04-26T07:47:24.86Z</time></trkpt><trkpt lat="41.1591509" lon="-7.8902267"><ele>307.0</ele><time>2026-04-26T07:48:04.855Z</time></trkpt><trkpt lat="41.1590878" lon="-7.8902503"><ele>307.0</ele><time>2026-04-26T07:48:57.852Z</time></trkpt><trkpt lat="41.1590417" lon="-7.8903089"><ele>307.0</ele><time>2026-04-26T07:48:59.854Z</time></trkpt><trkpt lat="41.1590013" lon="-7.8903949"><ele>307.0</ele><time>2026-04-26T07:49:02.854Z</time></trkpt><trkpt lat="41.1589287" lon="-7.890448"><ele>307.0</ele><time>2026-04-26T07:49:06.864Z</time></trkpt><trkpt lat="41.1588622" lon="-7.8903973"><ele>307.0</ele><time>2026-04-26T07:49:10.864Z</time></trkpt><trkpt lat="41.1588324" lon="-7.8903156"><ele>307.0</ele><time>2026-04-26T07:49:13.86Z</time></trkpt><trkpt lat="41.1588881" lon="-7.8901976"><ele>305.6</ele><time>2026-04-26T07:49:16.861Z</time></trkpt><trkpt lat="41.1589572" lon="-7.890112"><ele>304.2</ele><time>2026-04-26T07:49:18.858Z</time></trkpt><trkpt lat="41.1590465" lon="-7.8899645"><ele>302.8</ele><time>2026-04-26T07:49:20.853Z</time></trkpt><trkpt lat="41.1590988" lon="-7.8898741"><ele>301.4</ele><time>2026-04-26T07:49:21.859Z</time></trkpt><trkpt lat="41.1591565" lon="-7.8897754"><ele>300.0</ele><time>2026-04-26T07:49:22.859Z</time></trkpt><trkpt lat="41.1592092" lon="-7.8896741"><ele>300.0</ele><time>2026-04-26T07:49:23.857Z</time></trkpt><trkpt lat="41.1592587" lon="-7.8895814"><ele>300.0</ele><time>2026-04-26T07:49:24.864Z</time></trkpt><trkpt lat="41.1592986" lon="-7.8894897"><ele>300.0</ele><time>2026-04-26T07:49:25.849Z</time></trkpt><trkpt lat="41.1593342" lon="-7.8894005"><ele>300.0</ele><time>2026-04-26T07:49:26.855Z</time></trkpt><trkpt lat="41.1593691" lon="-7.8893077"><ele>300.0</ele><time>2026-04-26T07:49:27.855Z</time></trkpt><trkpt lat="41.1594033" lon="-7.8892119"><ele>300.0</ele><time>2026-04-26T07:49:28.852Z</time></trkpt><trkpt lat="41.1594336" lon="-7.8891099"><ele>299.0</ele><time>2026-04-26T07:49:29.86Z</time></trkpt><trkpt lat="41.1594569" lon="-7.8890027"><ele>298.0</ele><time>2026-04-26T07:49:30.859Z</time></trkpt><trkpt lat="41.1594758" lon="-7.8888909"><ele>297.0</ele><time>2026-04-26T07:49:31.866Z</time></trkpt><trkpt lat="41.1594835" lon="-7.8887746"><ele>296.0</ele><time>2026-04-26T07:49:32.85Z</time></trkpt><trkpt lat="41.1594881" lon="-7.8886603"><ele>295.0</ele><time>2026-04-26T07:49:33.863Z</time></trkpt><trkpt lat="41.159488" lon="-7.8885515"><ele>294.0</ele><time>2026-04-26T07:49:34.854Z</time></trkpt><trkpt lat="41.1594838" lon="-7.8884432"><ele>294.3333333333333</ele><time>2026-04-26T07:49:35.853Z</time></trkpt><trkpt lat="41.1594751" lon="-7.888338"><ele>294.6666666666667</ele><time>2026-04-26T07:49:36.86Z</time></trkpt><trkpt lat="41.1594627" lon="-7.8882289"><ele>295.0</ele><time>2026-04-26T07:49:37.86Z</time></trkpt><trkpt lat="41.1594489" lon="-7.8881202"><ele>295.33333333333337</ele><time>2026-04-26T07:49:38.866Z</time></trkpt><trkpt lat="41.1594384" lon="-7.8880233"><ele>295.6666666666667</ele><time>2026-04-26T07:49:39.855Z</time></trkpt><trkpt lat="41.1594195" lon="-7.8878827"><ele>296.0</ele><time>2026-04-26T07:49:41.859Z</time></trkpt><trkpt lat="41.1594011" lon="-7.8877952"><ele>296.0</ele><time>2026-04-26T07:49:43.859Z</time></trkpt><trkpt lat="41.1593031" lon="-7.8878055"><ele>296.0</ele><time>2026-04-26T07:49:46.864Z</time></trkpt><trkpt lat="41.1592124" lon="-7.8878726"><ele>296.0</ele><time>2026-04-26T07:49:48.86Z</time></trkpt><trkpt lat="41.159123" lon="-7.8879286"><ele>296.0</ele><time>2026-04-26T07:49:50.855Z</time></trkpt><trkpt lat="41.159019" lon="-7.8880296"><ele>296.0</ele><time>2026-04-26T07:49:52.864Z</time></trkpt><trkpt lat="41.1589546" lon="-7.8880661"><ele>294.1666666666667</ele><time>2026-04-26T07:49:53.864Z</time></trkpt><trkpt lat="41.1588847" lon="-7.8881058"><ele>292.33333333333337</ele><time>2026-04-26T07:49:54.851Z</time></trkpt><trkpt lat="41.1588149" lon="-7.8881369"><ele>290.5</ele><time>2026-04-26T07:49:55.855Z</time></trkpt><trkpt lat="41.1587092" lon="-7.8881821"><ele>288.6666666666667</ele><time>2026-04-26T07:49:57.855Z</time></trkpt><trkpt lat="41.1586448" lon="-7.8881834"><ele>286.8333333333333</ele><time>2026-04-26T07:50:01.86Z</time></trkpt><trkpt lat="41.1585984" lon="-7.8881226"><ele>285.0</ele><time>2026-04-26T07:50:08.865Z</time></trkpt><trkpt lat="41.1584938" lon="-7.8880961"><ele>285.0</ele><time>2026-04-26T07:50:13.861Z</time></trkpt><trkpt lat="41.1584012" lon="-7.8880465"><ele>285.0</ele><time>2026-04-26T07:50:15.867Z</time></trkpt><trkpt lat="41.1583023" lon="-7.8880046"><ele>285.0</ele><time>2026-04-26T07:50:17.855Z</time></trkpt><trkpt lat="41.1582405" lon="-7.8879753"><ele>285.0</ele><time>2026-04-26T07:50:24.853Z</time></trkpt><trkpt lat="41.1582017" lon="-7.8878986"><ele>285.0</ele><time>2026-04-26T07:51:14.856Z</time></trkpt><trkpt lat="41.1581366" lon="-7.88787"><ele>285.0</ele><time>2026-04-26T07:51:28.855Z</time></trkpt><trkpt lat="41.1580704" lon="-7.8877923"><ele>282.8333333333333</ele><time>2026-04-26T07:51:31.872Z</time></trkpt><trkpt lat="41.1580083" lon="-7.8876961"><ele>280.6666666666667</ele><time>2026-04-26T07:51:33.854Z</time></trkpt><trkpt lat="41.1579544" lon="-7.8876167"><ele>278.5</ele><time>2026-04-26T07:51:35.858Z</time></trkpt><trkpt lat="41.1579096" lon="-7.8875162"><ele>276.33333333333337</ele><time>2026-04-26T07:51:37.853Z</time></trkpt><trkpt lat="41.1578547" lon="-7.8874346"><ele>274.1666666666667</ele><time>2026-04-26T07:51:39.864Z</time></trkpt><trkpt lat="41.157806" lon="-7.8873571"><ele>272.0</ele><time>2026-04-26T07:51:41.857Z</time></trkpt><trkpt lat="41.1577422" lon="-7.8873053"><ele>271.5</ele><time>2026-04-26T07:51:43.861Z</time></trkpt><trkpt lat="41.1576829" lon="-7.8872695"><ele>271.0</ele><time>2026-04-26T07:51:45.868Z</time></trkpt><trkpt lat="41.1575911" lon="-7.8872192"><ele>270.5</ele><time>2026-04-26T07:51:48.858Z</time></trkpt><trkpt lat="41.1575232" lon="-7.8871688"><ele>270.0</ele><time>2026-04-26T07:51:51.86Z</time></trkpt><trkpt lat="41.1574706" lon="-7.8871174"><ele>269.5</ele><time>2026-04-26T07:51:55.854Z</time></trkpt><trkpt lat="41.1573801" lon="-7.8870425"><ele>269.0</ele><time>2026-04-26T07:51:58.863Z</time></trkpt><trkpt lat="41.1572995" lon="-7.8870245"><ele>266.57142857142856</ele><time>2026-04-26T07:52:00.859Z</time></trkpt><trkpt lat="41.1572301" lon="-7.8869396"><ele>264.14285714285717</ele><time>2026-04-26T07:52:02.852Z</time></trkpt><trkpt lat="41.1571751" lon="-7.8868685"><ele>261.7142857142857</ele><time>2026-04-26T07:52:04.853Z</time></trkpt><trkpt lat="41.1571182" lon="-7.886811"><ele>259.2857142857143</ele><time>2026-04-26T07:52:06.855Z</time></trkpt><trkpt lat="41.1570684" lon="-7.8867571"><ele>256.8571428571429</ele><time>2026-04-26T07:52:08.855Z</time></trkpt><trkpt lat="41.157008" lon="-7.8867124"><ele>254.42857142857144</ele><time>2026-04-26T07:52:10.852Z</time></trkpt><trkpt lat="41.1569459" lon="-7.8866774"><ele>252.0</ele><time>2026-04-26T07:52:12.857Z</time></trkpt><trkpt lat="41.1568841" lon="-7.8866467"><ele>252.0</ele><time>2026-04-26T07:52:14.848Z</time></trkpt><trkpt lat="41.1568152" lon="-7.8866303"><ele>252.0</ele><time>2026-04-26T07:52:16.856Z</time></trkpt><trkpt lat="41.1567369" lon="-7.8866088"><ele>252.0</ele><time>2026-04-26T07:52:18.861Z</time></trkpt><trkpt lat="41.1566649" lon="-7.8865858"><ele>252.0</ele><time>2026-04-26T07:52:20.866Z</time></trkpt><trkpt lat="41.1565994" lon="-7.8865657"><ele>252.0</ele><time>2026-04-26T07:52:22.864Z</time></trkpt><trkpt lat="41.1565251" lon="-7.8865371"><ele>252.0</ele><time>2026-04-26T07:52:25.855Z</time></trkpt><trkpt lat="41.1564633" lon="-7.8865173"><ele>252.0</ele><time>2026-04-26T07:52:31.861Z</time></trkpt><trkpt lat="41.1563907" lon="-7.8865588"><ele>250.2</ele><time>2026-04-26T07:52:41.863Z</time></trkpt><trkpt lat="41.1563026" lon="-7.8865877"><ele>248.39999999999998</ele><time>2026-04-26T07:52:43.855Z</time></trkpt><trkpt lat="41.1561765" lon="-7.8865814"><ele>246.60000000000002</ele><time>2026-04-26T07:52:45.856Z</time></trkpt><trkpt lat="41.1560954" lon="-7.8865581"><ele>244.8</ele><time>2026-04-26T07:52:46.864Z</time></trkpt><trkpt lat="41.1559862" lon="-7.8865449"><ele>243.0</ele><time>2026-04-26T07:52:47.855Z</time></trkpt><trkpt lat="41.1558928" lon="-7.8865726"><ele>243.0</ele><time>2026-04-26T07:52:48.855Z</time></trkpt><trkpt lat="41.1557993" lon="-7.8866042"><ele>243.0</ele><time>2026-04-26T07:52:49.861Z</time></trkpt><trkpt lat="41.155717" lon="-7.8866426"><ele>243.0</ele><time>2026-04-26T07:52:50.857Z</time></trkpt><trkpt lat="41.1556322" lon="-7.8866655"><ele>243.0</ele><time>2026-04-26T07:52:51.85Z</time></trkpt><trkpt lat="41.1555504" lon="-7.8866869"><ele>243.0</ele><time>2026-04-26T07:52:52.854Z</time></trkpt><trkpt lat="41.1554568" lon="-7.8867124"><ele>243.0</ele><time>2026-04-26T07:52:53.857Z</time></trkpt><trkpt lat="41.1553679" lon="-7.8867458"><ele>241.0</ele><time>2026-04-26T07:52:54.859Z</time></trkpt><trkpt lat="41.1552903" lon="-7.8867789"><ele>239.0</ele><time>2026-04-26T07:52:55.849Z</time></trkpt><trkpt lat="41.1552181" lon="-7.8868102"><ele>237.0</ele><time>2026-04-26T07:52:56.853Z</time></trkpt><trkpt lat="41.1551498" lon="-7.8868291"><ele>235.0</ele><time>2026-04-26T07:52:57.862Z</time></trkpt><trkpt lat="41.1550807" lon="-7.886825"><ele>233.0</ele><time>2026-04-26T07:52:58.858Z</time></trkpt><trkpt lat="41.1549577" lon="-7.8868221"><ele>231.0</ele><time>2026-04-26T07:53:00.849Z</time></trkpt><trkpt lat="41.154897" lon="-7.8868575"><ele>228.0</ele><time>2026-04-26T07:53:01.856Z</time></trkpt><trkpt lat="41.154837" lon="-7.8869088"><ele>225.0</ele><time>2026-04-26T07:53:02.849Z</time></trkpt><trkpt lat="41.1547685" lon="-7.8869655"><ele>222.0</ele><time>2026-04-26T07:53:03.859Z</time></trkpt><trkpt lat="41.1546923" lon="-7.8870168"><ele>219.0</ele><time>2026-04-26T07:53:04.857Z</time></trkpt><trkpt lat="41.1546159" lon="-7.8870689"><ele>216.0</ele><time>2026-04-26T07:53:05.855Z</time></trkpt><trkpt lat="41.1545438" lon="-7.8871179"><ele>213.0</ele><time>2026-04-26T07:53:06.86Z</time></trkpt><trkpt lat="41.154478" lon="-7.8871592"><ele>213.0</ele><time>2026-04-26T07:53:07.852Z</time></trkpt><trkpt lat="41.1544153" lon="-7.8871965"><ele>213.0</ele><time>2026-04-26T07:53:08.856Z</time></trkpt><trkpt lat="41.1543127" lon="-7.8872408"><ele>213.0</ele><time>2026-04-26T07:53:10.867Z</time></trkpt><trkpt lat="41.1542541" lon="-7.8872003"><ele>213.0</ele><time>2026-04-26T07:53:12.855Z</time></trkpt><trkpt lat="41.1542635" lon="-7.8870592"><ele>213.0</ele><time>2026-04-26T07:53:14.857Z</time></trkpt><trkpt lat="41.1542683" lon="-7.8869653"><ele>213.0</ele><time>2026-04-26T07:53:15.859Z</time></trkpt><trkpt lat="41.1542679" lon="-7.8868649"><ele>213.0</ele><time>2026-04-26T07:53:16.857Z</time></trkpt><trkpt lat="41.1542672" lon="-7.8867625"><ele>213.0</ele><time>2026-04-26T07:53:17.85Z</time></trkpt><trkpt lat="41.1542661" lon="-7.8866594"><ele>213.0</ele><time>2026-04-26T07:53:18.861Z</time></trkpt><trkpt lat="41.1542636" lon="-7.8865609"><ele>213.0</ele><time>2026-04-26T07:53:19.853Z</time></trkpt><trkpt lat="41.1542611" lon="-7.8864552"><ele>213.0</ele><time>2026-04-26T07:53:20.854Z</time></trkpt><trkpt lat="41.1542455" lon="-7.8863509"><ele>213.0</ele><time>2026-04-26T07:53:21.862Z</time></trkpt><trkpt lat="41.1542217" lon="-7.8862488"><ele>212.16666666666666</ele><time>2026-04-26T07:53:22.854Z</time></trkpt><trkpt lat="41.1541823" lon="-7.886153"><ele>211.33333333333331</ele><time>2026-04-26T07:53:23.856Z</time></trkpt><trkpt lat="41.1541405" lon="-7.8860667"><ele>210.5</ele><time>2026-04-26T07:53:24.856Z</time></trkpt><trkpt lat="41.1540998" lon="-7.8859964"><ele>209.66666666666666</ele><time>2026-04-26T07:53:25.86Z</time></trkpt><trkpt lat="41.1540648" lon="-7.8859085"><ele>208.83333333333331</ele><time>2026-04-26T07:53:27.864Z</time></trkpt><trkpt lat="41.1539879" lon="-7.8858956"><ele>208.0</ele><time>2026-04-26T07:53:32.863Z</time></trkpt><trkpt lat="41.1540103" lon="-7.8857995"><ele>206.66666666666666</ele><time>2026-04-26T07:53:35.854Z</time></trkpt><trkpt lat="41.1540559" lon="-7.8856967"><ele>205.33333333333331</ele><time>2026-04-26T07:53:38.851Z</time></trkpt><trkpt lat="41.1541005" lon="-7.8856293"><ele>204.0</ele><time>2026-04-26T07:53:40.853Z</time></trkpt><trkpt lat="41.154165" lon="-7.8855412"><ele>202.66666666666669</ele><time>2026-04-26T07:53:42.863Z</time></trkpt><trkpt lat="41.1542238" lon="-7.8855107"><ele>201.33333333333334</ele><time>2026-04-26T07:53:43.855Z</time></trkpt><trkpt lat="41.1542851" lon="-7.8854889"><ele>200.0</ele><time>2026-04-26T07:53:44.861Z</time></trkpt><trkpt lat="41.1544118" lon="-7.8854395"><ele>200.00000000000003</ele><time>2026-04-26T07:53:46.855Z</time></trkpt><trkpt lat="41.1544964" lon="-7.8854262"><ele>200.0</ele><time>2026-04-26T07:53:47.86Z</time></trkpt><trkpt lat="41.1545852" lon="-7.88542"><ele>200.0</ele><time>2026-04-26T07:53:48.85Z</time></trkpt><trkpt lat="41.1546752" lon="-7.8854306"><ele>200.0</ele><time>2026-04-26T07:53:49.853Z</time></trkpt><trkpt lat="41.154761" lon="-7.8854494"><ele>200.00000000000003</ele><time>2026-04-26T07:53:50.864Z</time></trkpt><trkpt lat="41.1548561" lon="-7.8854657"><ele>200.0</ele><time>2026-04-26T07:53:51.856Z</time></trkpt><trkpt lat="41.1549498" lon="-7.8854653"><ele>198.4</ele><time>2026-04-26T07:53:52.853Z</time></trkpt><trkpt lat="41.1550373" lon="-7.8854233"><ele>196.8</ele><time>2026-04-26T07:53:53.872Z</time></trkpt><trkpt lat="41.1551209" lon="-7.8853235"><ele>195.2</ele><time>2026-04-26T07:53:54.868Z</time></trkpt><trkpt lat="41.1551789" lon="-7.8851884"><ele>193.6</ele><time>2026-04-26T07:53:55.851Z</time></trkpt><trkpt lat="41.1552195" lon="-7.8850411"><ele>192.0</ele><time>2026-04-26T07:53:56.854Z</time></trkpt><trkpt lat="41.1552563" lon="-7.8848867"><ele>192.0</ele><time>2026-04-26T07:53:57.848Z</time></trkpt><trkpt lat="41.1553068" lon="-7.8847301"><ele>192.0</ele><time>2026-04-26T07:53:58.853Z</time></trkpt><trkpt lat="41.1553617" lon="-7.8845878"><ele>192.0</ele><time>2026-04-26T07:53:59.866Z</time></trkpt><trkpt lat="41.1554338" lon="-7.8844625"><ele>192.0</ele><time>2026-04-26T07:54:00.847Z</time></trkpt><trkpt lat="41.1555224" lon="-7.8843449"><ele>194.0</ele><time>2026-04-26T07:54:01.86Z</time></trkpt><trkpt lat="41.1556131" lon="-7.8842416"><ele>196.0</ele><time>2026-04-26T07:54:02.858Z</time></trkpt><trkpt lat="41.1557033" lon="-7.8841407"><ele>198.0</ele><time>2026-04-26T07:54:03.848Z</time></trkpt><trkpt lat="41.1557868" lon="-7.8840259"><ele>200.0</ele><time>2026-04-26T07:54:04.857Z</time></trkpt><trkpt lat="41.1558628" lon="-7.8838999"><ele>200.0</ele><time>2026-04-26T07:54:05.848Z</time></trkpt><trkpt lat="41.1559341" lon="-7.8837636"><ele>200.0</ele><time>2026-04-26T07:54:06.853Z</time></trkpt><trkpt lat="41.156" lon="-7.8836225"><ele>200.0</ele><time>2026-04-26T07:54:07.858Z</time></trkpt><trkpt lat="41.1560652" lon="-7.8834838"><ele>200.0</ele><time>2026-04-26T07:54:08.854Z</time></trkpt><trkpt lat="41.1561182" lon="-7.8833321"><ele>196.25</ele><time>2026-04-26T07:54:09.855Z</time></trkpt><trkpt lat="41.1561657" lon="-7.8831848"><ele>192.5</ele><time>2026-04-26T07:54:10.853Z</time></trkpt><trkpt lat="41.1562268" lon="-7.8830529"><ele>188.75</ele><time>2026-04-26T07:54:11.858Z</time></trkpt><trkpt lat="41.1563019" lon="-7.8829339"><ele>185.0</ele><time>2026-04-26T07:54:12.864Z</time></trkpt><trkpt lat="41.1563827" lon="-7.8828335"><ele>185.0</ele><time>2026-04-26T07:54:13.854Z</time></trkpt><trkpt lat="41.1564859" lon="-7.8827499"><ele>185.0</ele><time>2026-04-26T07:54:14.863Z</time></trkpt><trkpt lat="41.156606" lon="-7.8826825"><ele>185.0</ele><time>2026-04-26T07:54:15.851Z</time></trkpt><trkpt lat="41.1567321" lon="-7.8826187"><ele>185.0</ele><time>2026-04-26T07:54:16.858Z</time></trkpt><trkpt lat="41.1568571" lon="-7.88255"><ele>185.5</ele><time>2026-04-26T07:54:17.854Z</time></trkpt><trkpt lat="41.1569783" lon="-7.8824781"><ele>186.0</ele><time>2026-04-26T07:54:18.848Z</time></trkpt><trkpt lat="41.1570996" lon="-7.8824103"><ele>186.5</ele><time>2026-04-26T07:54:19.858Z</time></trkpt><trkpt lat="41.1572209" lon="-7.882345"><ele>187.0</ele><time>2026-04-26T07:54:20.86Z</time></trkpt><trkpt lat="41.1573512" lon="-7.8822977"><ele>189.25</ele><time>2026-04-26T07:54:21.858Z</time></trkpt><trkpt lat="41.1574793" lon="-7.8822603"><ele>191.5</ele><time>2026-04-26T07:54:22.856Z</time></trkpt><trkpt lat="41.1576127" lon="-7.882253"><ele>193.75</ele><time>2026-04-26T07:54:23.857Z</time></trkpt><trkpt lat="41.1577435" lon="-7.8822518"><ele>196.0</ele><time>2026-04-26T07:54:24.861Z</time></trkpt><trkpt lat="41.1578661" lon="-7.8822515"><ele>196.0</ele><time>2026-04-26T07:54:25.856Z</time></trkpt><trkpt lat="41.1579832" lon="-7.8822281"><ele>196.0</ele><time>2026-04-26T07:54:26.857Z</time></trkpt><trkpt lat="41.1580924" lon="-7.8821802"><ele>196.0</ele><time>2026-04-26T07:54:27.848Z</time></trkpt><trkpt lat="41.1582032" lon="-7.8821319"><ele>196.0</ele><time>2026-04-26T07:54:28.866Z</time></trkpt><trkpt lat="41.1583168" lon="-7.8820892"><ele>197.20000000000002</ele><time>2026-04-26T07:54:29.848Z</time></trkpt><trkpt lat="41.158433" lon="-7.8820715"><ele>198.4</ele><time>2026-04-26T07:54:30.857Z</time></trkpt><trkpt lat="41.1585459" lon="-7.8820699"><ele>199.6</ele><time>2026-04-26T07:54:31.854Z</time></trkpt><trkpt lat="41.1586495" lon="-7.8820513"><ele>200.8</ele><time>2026-04-26T07:54:32.858Z</time></trkpt><trkpt lat="41.1587344" lon="-7.8820125"><ele>202.0</ele><time>2026-04-26T07:54:33.855Z</time></trkpt><trkpt lat="41.1587945" lon="-7.8819192"><ele>202.0</ele><time>2026-04-26T07:54:34.853Z</time></trkpt><trkpt lat="41.1588262" lon="-7.8817679"><ele>202.0</ele><time>2026-04-26T07:54:35.854Z</time></trkpt><trkpt lat="41.1588221" lon="-7.8815842"><ele>202.0</ele><time>2026-04-26T07:54:36.851Z</time></trkpt><trkpt lat="41.1588029" lon="-7.881395"><ele>202.0</ele><time>2026-04-26T07:54:37.857Z</time></trkpt><trkpt lat="41.1587831" lon="-7.8812102"><ele>197.0</ele><time>2026-04-26T07:54:38.853Z</time></trkpt><trkpt lat="41.1587682" lon="-7.8810346"><ele>192.0</ele><time>2026-04-26T07:54:39.852Z</time></trkpt><trkpt lat="41.1587423" lon="-7.8808708"><ele>187.0</ele><time>2026-04-26T07:54:40.86Z</time></trkpt><trkpt lat="41.1587058" lon="-7.8807295"><ele>182.0</ele><time>2026-04-26T07:54:41.86Z</time></trkpt><trkpt lat="41.1586559" lon="-7.8806207"><ele>181.0</ele><time>2026-04-26T07:54:42.863Z</time></trkpt><trkpt lat="41.1586043" lon="-7.8805268"><ele>180.0</ele><time>2026-04-26T07:54:43.862Z</time></trkpt><trkpt lat="41.158562" lon="-7.8804408"><ele>179.0</ele><time>2026-04-26T07:54:44.859Z</time></trkpt><trkpt lat="41.1585323" lon="-7.8803451"><ele>178.0</ele><time>2026-04-26T07:54:46.855Z</time></trkpt><trkpt lat="41.1585406" lon="-7.8802518"><ele>177.0</ele><time>2026-04-26T08:00:01.854Z</time></trkpt><trkpt lat="41.1586179" lon="-7.8802688"><ele>176.0</ele><time>2026-04-26T08:00:08.861Z</time></trkpt><trkpt lat="41.1586739" lon="-7.8803506"><ele>176.0</ele><time>2026-04-26T08:00:11.869Z</time></trkpt><trkpt lat="41.1587333" lon="-7.8804324"><ele>176.0</ele><time>2026-04-26T08:00:13.851Z</time></trkpt><trkpt lat="41.158771" lon="-7.880513"><ele>176.0</ele><time>2026-04-26T08:00:14.859Z</time></trkpt><trkpt lat="41.1588222" lon="-7.8806106"><ele>176.0</ele><time>2026-04-26T08:00:15.853Z</time></trkpt><trkpt lat="41.1588743" lon="-7.8807158"><ele>176.0</ele><time>2026-04-26T08:00:16.858Z</time></trkpt><trkpt lat="41.1589243" lon="-7.8808151"><ele>176.0</ele><time>2026-04-26T08:00:17.855Z</time></trkpt><trkpt lat="41.1589713" lon="-7.880917"><ele>177.0</ele><time>2026-04-26T08:00:18.849Z</time></trkpt><trkpt lat="41.1589981" lon="-7.8810184"><ele>178.0</ele><time>2026-04-26T08:00:19.86Z</time></trkpt><trkpt lat="41.1590087" lon="-7.8811259"><ele>179.0</ele><time>2026-04-26T08:00:20.852Z</time></trkpt><trkpt lat="41.1590077" lon="-7.881239"><ele>180.0</ele><time>2026-04-26T08:00:21.853Z</time></trkpt><trkpt lat="41.1589915" lon="-7.8813494"><ele>181.0</ele><time>2026-04-26T08:00:22.863Z</time></trkpt><trkpt lat="41.1589683" lon="-7.8814514"><ele>182.0</ele><time>2026-04-26T08:00:23.846Z</time></trkpt><trkpt lat="41.1589537" lon="-7.8815468"><ele>182.0</ele><time>2026-04-26T08:00:24.858Z</time></trkpt><trkpt lat="41.158946" lon="-7.8816333"><ele>182.0</ele><time>2026-04-26T08:00:25.85Z</time></trkpt><trkpt lat="41.1589469" lon="-7.8817945"><ele>182.0</ele><time>2026-04-26T08:00:27.852Z</time></trkpt><trkpt lat="41.1589503" lon="-7.8818803"><ele>182.0</ele><time>2026-04-26T08:00:28.846Z</time></trkpt><trkpt lat="41.1589544" lon="-7.8819746"><ele>182.0</ele><time>2026-04-26T08:00:29.845Z</time></trkpt><trkpt lat="41.1589576" lon="-7.8820795"><ele>182.0</ele><time>2026-04-26T08:00:30.858Z</time></trkpt><trkpt lat="41.1589568" lon="-7.8821894"><ele>185.33333333333331</ele><time>2026-04-26T08:00:31.861Z</time></trkpt><trkpt lat="41.1589554" lon="-7.8823024"><ele>188.66666666666666</ele><time>2026-04-26T08:00:32.856Z</time></trkpt><trkpt lat="41.1589474" lon="-7.8824162"><ele>192.0</ele><time>2026-04-26T08:00:33.849Z</time></trkpt><trkpt lat="41.1589229" lon="-7.8825239"><ele>195.33333333333331</ele><time>2026-04-26T08:00:34.847Z</time></trkpt><trkpt lat="41.1588782" lon="-7.8826168"><ele>198.66666666666666</ele><time>2026-04-26T08:00:35.858Z</time></trkpt><trkpt lat="41.1588119" lon="-7.8826867"><ele>202.0</ele><time>2026-04-26T08:00:36.857Z</time></trkpt><trkpt lat="41.1587325" lon="-7.8827364"><ele>206.6</ele><time>2026-04-26T08:00:37.854Z</time></trkpt><trkpt lat="41.1586464" lon="-7.8827712"><ele>211.2</ele><time>2026-04-26T08:00:38.853Z</time></trkpt><trkpt lat="41.1585566" lon="-7.8828035"><ele>215.8</ele><time>2026-04-26T08:00:39.868Z</time></trkpt><trkpt lat="41.1584646" lon="-7.8828357"><ele>220.4</ele><time>2026-04-26T08:00:40.847Z</time></trkpt><trkpt lat="41.1583741" lon="-7.8828725"><ele>225.0</ele><time>2026-04-26T08:00:41.848Z</time></trkpt><trkpt lat="41.1582824" lon="-7.8829159"><ele>224.66666666666666</ele><time>2026-04-26T08:00:42.857Z</time></trkpt><trkpt lat="41.1581952" lon="-7.8829601"><ele>224.33333333333331</ele><time>2026-04-26T08:00:43.849Z</time></trkpt><trkpt lat="41.1581133" lon="-7.8830027"><ele>224.0</ele><time>2026-04-26T08:00:44.858Z</time></trkpt><trkpt lat="41.158037" lon="-7.8830484"><ele>223.66666666666666</ele><time>2026-04-26T08:00:45.856Z</time></trkpt><trkpt lat="41.1579625" lon="-7.8830929"><ele>223.33333333333331</ele><time>2026-04-26T08:00:46.851Z</time></trkpt><trkpt lat="41.1578885" lon="-7.883141"><ele>223.0</ele><time>2026-04-26T08:00:47.851Z</time></trkpt><trkpt lat="41.1578168" lon="-7.8831904"><ele>222.99999999999997</ele><time>2026-04-26T08:00:48.851Z</time></trkpt><trkpt lat="41.1577487" lon="-7.8832383"><ele>223.0</ele><time>2026-04-26T08:00:49.859Z</time></trkpt><trkpt lat="41.1576884" lon="-7.8832841"><ele>223.0</ele><time>2026-04-26T08:00:50.867Z</time></trkpt><trkpt lat="41.1575842" lon="-7.8833762"><ele>223.0</ele><time>2026-04-26T08:00:52.854Z</time></trkpt><trkpt lat="41.1575383" lon="-7.8834355"><ele>222.99999999999997</ele><time>2026-04-26T08:00:53.855Z</time></trkpt><trkpt lat="41.1574997" lon="-7.883507"><ele>223.0</ele><time>2026-04-26T08:00:54.859Z</time></trkpt><trkpt lat="41.157465" lon="-7.8835854"><ele>223.57142857142856</ele><time>2026-04-26T08:00:55.863Z</time></trkpt><trkpt lat="41.157444" lon="-7.8836686"><ele>224.14285714285714</ele><time>2026-04-26T08:00:56.852Z</time></trkpt><trkpt lat="41.1574269" lon="-7.8837551"><ele>224.71428571428572</ele><time>2026-04-26T08:00:57.856Z</time></trkpt><trkpt lat="41.1573964" lon="-7.883843"><ele>225.28571428571428</ele><time>2026-04-26T08:00:58.856Z</time></trkpt><trkpt lat="41.1573744" lon="-7.8839398"><ele>225.8571428571429</ele><time>2026-04-26T08:00:59.861Z</time></trkpt><trkpt lat="41.1573462" lon="-7.8840332"><ele>226.42857142857144</ele><time>2026-04-26T08:01:00.85Z</time></trkpt><trkpt lat="41.157303" lon="-7.8841161"><ele>227.0</ele><time>2026-04-26T08:01:01.851Z</time></trkpt><trkpt lat="41.1572467" lon="-7.8841862"><ele>227.00000000000003</ele><time>2026-04-26T08:01:02.853Z</time></trkpt><trkpt lat="41.1571863" lon="-7.8842592"><ele>227.0</ele><time>2026-04-26T08:01:03.86Z</time></trkpt><trkpt lat="41.1571252" lon="-7.884327"><ele>227.0</ele><time>2026-04-26T08:01:04.861Z</time></trkpt><trkpt lat="41.157066" lon="-7.8843964"><ele>227.0</ele><time>2026-04-26T08:01:05.866Z</time></trkpt><trkpt lat="41.157005" lon="-7.8844674"><ele>227.00000000000003</ele><time>2026-04-26T08:01:06.849Z</time></trkpt><trkpt lat="41.1569414" lon="-7.8845447"><ele>227.0</ele><time>2026-04-26T08:01:07.854Z</time></trkpt><trkpt lat="41.15688" lon="-7.884611"><ele>229.50000000000003</ele><time>2026-04-26T08:01:08.855Z</time></trkpt><trkpt lat="41.1568177" lon="-7.8846811"><ele>232.0</ele><time>2026-04-26T08:01:09.855Z</time></trkpt><trkpt lat="41.1567584" lon="-7.8847627"><ele>234.5</ele><time>2026-04-26T08:01:10.85Z</time></trkpt><trkpt lat="41.1567093" lon="-7.8848514"><ele>237.0</ele><time>2026-04-26T08:01:11.855Z</time></trkpt><trkpt lat="41.1566669" lon="-7.8849472"><ele>239.50000000000003</ele><time>2026-04-26T08:01:12.853Z</time></trkpt><trkpt lat="41.1566303" lon="-7.8850473"><ele>242.0</ele><time>2026-04-26T08:01:13.855Z</time></trkpt><trkpt lat="41.1565969" lon="-7.8851528"><ele>243.50000000000003</ele><time>2026-04-26T08:01:14.861Z</time></trkpt><trkpt lat="41.1565686" lon="-7.8852611"><ele>245.0</ele><time>2026-04-26T08:01:15.85Z</time></trkpt><trkpt lat="41.156539" lon="-7.8853717"><ele>246.5</ele><time>2026-04-26T08:01:16.847Z</time></trkpt><trkpt lat="41.1565164" lon="-7.8854843"><ele>248.0</ele><time>2026-04-26T08:01:17.851Z</time></trkpt><trkpt lat="41.1564983" lon="-7.8856028"><ele>249.50000000000003</ele><time>2026-04-26T08:01:18.848Z</time></trkpt><trkpt lat="41.1564721" lon="-7.8857245"><ele>251.0</ele><time>2026-04-26T08:01:19.858Z</time></trkpt><trkpt lat="41.1564507" lon="-7.8858472"><ele>249.66666666666669</ele><time>2026-04-26T08:01:20.85Z</time></trkpt><trkpt lat="41.1564316" lon="-7.8859565"><ele>248.33333333333334</ele><time>2026-04-26T08:01:21.852Z</time></trkpt><trkpt lat="41.156415" lon="-7.8860714"><ele>247.0</ele><time>2026-04-26T08:01:22.86Z</time></trkpt><trkpt lat="41.1563995" lon="-7.8861801"><ele>245.66666666666669</ele><time>2026-04-26T08:01:23.851Z</time></trkpt><trkpt lat="41.156397" lon="-7.886282"><ele>244.33333333333334</ele><time>2026-04-26T08:01:24.851Z</time></trkpt><trkpt lat="41.1564023" lon="-7.8863662"><ele>243.0</ele><time>2026-04-26T08:01:25.846Z</time></trkpt><trkpt lat="41.156433" lon="-7.8864761"><ele>243.0</ele><time>2026-04-26T08:01:27.87Z</time></trkpt><trkpt lat="41.1564901" lon="-7.8865545"><ele>243.0</ele><time>2026-04-26T08:01:30.848Z</time></trkpt><trkpt lat="41.156586" lon="-7.8865718"><ele>243.0</ele><time>2026-04-26T08:01:33.861Z</time></trkpt><trkpt lat="41.1566794" lon="-7.8865672"><ele>243.0</ele><time>2026-04-26T08:01:35.851Z</time></trkpt><trkpt lat="41.1567638" lon="-7.8865753"><ele>243.0</ele><time>2026-04-26T08:01:37.846Z</time></trkpt><trkpt lat="41.1568397" lon="-7.886603"><ele>243.0</ele><time>2026-04-26T08:01:39.846Z</time></trkpt><trkpt lat="41.1569269" lon="-7.8866363"><ele>244.28571428571428</ele><time>2026-04-26T08:01:41.852Z</time></trkpt><trkpt lat="41.1570077" lon="-7.8866792"><ele>245.57142857142858</ele><time>2026-04-26T08:01:43.851Z</time></trkpt><trkpt lat="41.1570735" lon="-7.8867257"><ele>246.85714285714286</ele><time>2026-04-26T08:01:45.856Z</time></trkpt><trkpt lat="41.1571351" lon="-7.8867809"><ele>248.14285714285714</ele><time>2026-04-26T08:01:47.851Z</time></trkpt><trkpt lat="41.1571932" lon="-7.8868414"><ele>249.42857142857144</ele><time>2026-04-26T08:01:49.852Z</time></trkpt><trkpt lat="41.1572415" lon="-7.8869005"><ele>250.71428571428572</ele><time>2026-04-26T08:01:51.86Z</time></trkpt><trkpt lat="41.1572801" lon="-7.8869738"><ele>252.0</ele><time>2026-04-26T08:01:53.861Z</time></trkpt><trkpt lat="41.157328" lon="-7.8870302"><ele>254.83333333333334</ele><time>2026-04-26T08:01:55.844Z</time></trkpt><trkpt lat="41.1574008" lon="-7.8870661"><ele>257.6666666666667</ele><time>2026-04-26T08:01:57.856Z</time></trkpt><trkpt lat="41.1574739" lon="-7.8871107"><ele>260.5</ele><time>2026-04-26T08:01:59.853Z</time></trkpt><trkpt lat="41.1575332" lon="-7.8871855"><ele>263.33333333333337</ele><time>2026-04-26T08:02:01.851Z</time></trkpt><trkpt lat="41.1575998" lon="-7.8872491"><ele>266.1666666666667</ele><time>2026-04-26T08:02:03.859Z</time></trkpt><trkpt lat="41.1576638" lon="-7.8872912"><ele>269.0</ele><time>2026-04-26T08:02:05.856Z</time></trkpt><trkpt lat="41.1577297" lon="-7.887306"><ele>269.0</ele><time>2026-04-26T08:02:07.85Z</time></trkpt><trkpt lat="41.1577904" lon="-7.8873513"><ele>269.0</ele><time>2026-04-26T08:02:09.851Z</time></trkpt><trkpt lat="41.1578668" lon="-7.8874136"><ele>269.0</ele><time>2026-04-26T08:02:11.849Z</time></trkpt><trkpt lat="41.1579288" lon="-7.8874898"><ele>269.0</ele><time>2026-04-26T08:02:13.856Z</time></trkpt><trkpt lat="41.1579896" lon="-7.8875827"><ele>269.0</ele><time>2026-04-26T08:02:15.849Z</time></trkpt><trkpt lat="41.1580286" lon="-7.8876643"><ele>269.0</ele><time>2026-04-26T08:02:17.85Z</time></trkpt><trkpt lat="41.1581064" lon="-7.8877548"><ele>269.59999999999997</ele><time>2026-04-26T08:02:19.859Z</time></trkpt><trkpt lat="41.1581681" lon="-7.8878483"><ele>270.2</ele><time>2026-04-26T08:02:21.857Z</time></trkpt><trkpt lat="41.1582372" lon="-7.8879321"><ele>270.79999999999995</ele><time>2026-04-26T08:02:23.85Z</time></trkpt><trkpt lat="41.1583316" lon="-7.8880097"><ele>271.4</ele><time>2026-04-26T08:02:25.852Z</time></trkpt><trkpt lat="41.1584385" lon="-7.8880679"><ele>272.0</ele><time>2026-04-26T08:02:27.849Z</time></trkpt><trkpt lat="41.1585303" lon="-7.8880974"><ele>274.1666666666667</ele><time>2026-04-26T08:02:29.85Z</time></trkpt><trkpt lat="41.1586001" lon="-7.8881216"><ele>276.33333333333337</ele><time>2026-04-26T08:02:38.846Z</time></trkpt><trkpt lat="41.1587093" lon="-7.8881383"><ele>278.5</ele><time>2026-04-26T08:02:41.851Z</time></trkpt><trkpt lat="41.1588217" lon="-7.8881339"><ele>280.6666666666667</ele><time>2026-04-26T08:02:43.85Z</time></trkpt><trkpt lat="41.1588874" lon="-7.8881104"><ele>282.8333333333333</ele><time>2026-04-26T08:02:44.856Z</time></trkpt><trkpt lat="41.158952" lon="-7.8880836"><ele>285.0</ele><time>2026-04-26T08:02:45.855Z</time></trkpt><trkpt lat="41.1590173" lon="-7.8880493"><ele>286.8333333333333</ele><time>2026-04-26T08:02:46.85Z</time></trkpt><trkpt lat="41.1590862" lon="-7.8880051"><ele>288.6666666666667</ele><time>2026-04-26T08:02:47.853Z</time></trkpt><trkpt lat="41.1591458" lon="-7.8879594"><ele>290.5</ele><time>2026-04-26T08:02:48.848Z</time></trkpt><trkpt lat="41.1592496" lon="-7.8878853"><ele>292.33333333333337</ele><time>2026-04-26T08:02:50.854Z</time></trkpt><trkpt lat="41.1593296" lon="-7.8878378"><ele>294.1666666666667</ele><time>2026-04-26T08:02:52.851Z</time></trkpt><trkpt lat="41.1593886" lon="-7.8878079"><ele>296.0</ele><time>2026-04-26T08:02:58.851Z</time></trkpt><trkpt lat="41.1594135" lon="-7.8876943"><ele>296.0</ele><time>2026-04-26T08:03:01.844Z</time></trkpt><trkpt lat="41.1594111" lon="-7.8876013"><ele>296.0</ele><time>2026-04-26T08:03:02.852Z</time></trkpt><trkpt lat="41.1594177" lon="-7.8874963"><ele>296.0</ele><time>2026-04-26T08:03:03.856Z</time></trkpt><trkpt lat="41.159426" lon="-7.8873896"><ele>296.0</ele><time>2026-04-26T08:03:04.851Z</time></trkpt><trkpt lat="41.1594397" lon="-7.8872889"><ele>296.0</ele><time>2026-04-26T08:03:05.86Z</time></trkpt><trkpt lat="41.1594611" lon="-7.8871865"><ele>296.0</ele><time>2026-04-26T08:03:06.86Z</time></trkpt><trkpt lat="41.1594935" lon="-7.8870777"><ele>296.33333333333337</ele><time>2026-04-26T08:03:07.853Z</time></trkpt><trkpt lat="41.1595316" lon="-7.8869736"><ele>296.6666666666667</ele><time>2026-04-26T08:03:08.857Z</time></trkpt><trkpt lat="41.1595744" lon="-7.8868772"><ele>297.0</ele><time>2026-04-26T08:03:09.853Z</time></trkpt><trkpt lat="41.159622" lon="-7.886783"><ele>297.3333333333333</ele><time>2026-04-26T08:03:10.846Z</time></trkpt><trkpt lat="41.159681" lon="-7.8866903"><ele>297.66666666666663</ele><time>2026-04-26T08:03:11.861Z</time></trkpt><trkpt lat="41.1597392" lon="-7.8866068"><ele>298.0</ele><time>2026-04-26T08:03:12.852Z</time></trkpt><trkpt lat="41.1598044" lon="-7.8865333"><ele>300.4</ele><time>2026-04-26T08:03:13.851Z</time></trkpt><trkpt lat="41.1598864" lon="-7.8864745"><ele>302.8</ele><time>2026-04-26T08:03:14.852Z</time></trkpt><trkpt lat="41.1599695" lon="-7.8864327"><ele>305.2</ele><time>2026-04-26T08:03:15.861Z</time></trkpt><trkpt lat="41.1600587" lon="-7.8864048"><ele>307.6</ele><time>2026-04-26T08:03:16.861Z</time></trkpt><trkpt lat="41.1601652" lon="-7.8863942"><ele>310.0</ele><time>2026-04-26T08:03:17.851Z</time></trkpt><trkpt lat="41.1602677" lon="-7.8863808"><ele>310.0</ele><time>2026-04-26T08:03:18.86Z</time></trkpt><trkpt lat="41.1603669" lon="-7.8863801"><ele>310.0</ele><time>2026-04-26T08:03:19.845Z</time></trkpt><trkpt lat="41.1604649" lon="-7.8863948"><ele>310.0</ele><time>2026-04-26T08:03:20.853Z</time></trkpt><trkpt lat="41.1605668" lon="-7.8864295"><ele>310.0</ele><time>2026-04-26T08:03:21.851Z</time></trkpt><trkpt lat="41.1606693" lon="-7.8864893"><ele>310.0</ele><time>2026-04-26T08:03:22.847Z</time></trkpt><trkpt lat="41.1607696" lon="-7.8865758"><ele>309.25</ele><time>2026-04-26T08:03:23.852Z</time></trkpt><trkpt lat="41.1608677" lon="-7.8866744"><ele>308.5</ele><time>2026-04-26T08:03:24.844Z</time></trkpt><trkpt lat="41.1609611" lon="-7.886787"><ele>307.75</ele><time>2026-04-26T08:03:25.856Z</time></trkpt><trkpt lat="41.1610489" lon="-7.8869071"><ele>307.0</ele><time>2026-04-26T08:03:26.851Z</time></trkpt><trkpt lat="41.1611266" lon="-7.887032"><ele>309.0</ele><time>2026-04-26T08:03:27.861Z</time></trkpt><trkpt lat="41.1612025" lon="-7.8871556"><ele>311.0</ele><time>2026-04-26T08:03:28.844Z</time></trkpt><trkpt lat="41.1612783" lon="-7.8872771"><ele>313.0</ele><time>2026-04-26T08:03:29.85Z</time></trkpt><trkpt lat="41.1613511" lon="-7.8873976"><ele>315.0</ele><time>2026-04-26T08:03:30.848Z</time></trkpt><trkpt lat="41.1614228" lon="-7.8875159"><ele>314.0</ele><time>2026-04-26T08:03:31.861Z</time></trkpt><trkpt lat="41.1614882" lon="-7.8876249"><ele>313.0</ele><time>2026-04-26T08:03:32.859Z</time></trkpt><trkpt lat="41.1615555" lon="-7.8877353"><ele>312.0</ele><time>2026-04-26T08:03:33.856Z</time></trkpt><trkpt lat="41.1616248" lon="-7.8878392"><ele>311.0</ele><time>2026-04-26T08:03:34.86Z</time></trkpt><trkpt lat="41.1616954" lon="-7.8879221"><ele>310.0</ele><time>2026-04-26T08:03:35.854Z</time></trkpt><trkpt lat="41.1617629" lon="-7.888001"><ele>309.8333333333333</ele><time>2026-04-26T08:03:36.847Z</time></trkpt><trkpt lat="41.1618224" lon="-7.8880741"><ele>309.66666666666663</ele><time>2026-04-26T08:03:37.846Z</time></trkpt><trkpt lat="41.161876" lon="-7.888143"><ele>309.5</ele><time>2026-04-26T08:03:38.856Z</time></trkpt><trkpt lat="41.1619305" lon="-7.8881939"><ele>309.3333333333333</ele><time>2026-04-26T08:03:39.856Z</time></trkpt><trkpt lat="41.1620173" lon="-7.888269"><ele>309.1666666666667</ele><time>2026-04-26T08:03:41.867Z</time></trkpt><trkpt lat="41.1620574" lon="-7.8883584"><ele>309.0</ele><time>2026-04-26T08:03:43.853Z</time></trkpt><trkpt lat="41.161998" lon="-7.8884817"><ele>309.0</ele><time>2026-04-26T08:03:45.848Z</time></trkpt><trkpt lat="41.1619306" lon="-7.8885307"><ele>309.0</ele><time>2026-04-26T08:03:46.846Z</time></trkpt><trkpt lat="41.1618629" lon="-7.8885663"><ele>309.0</ele><time>2026-04-26T08:03:47.852Z</time></trkpt><trkpt lat="41.1617993" lon="-7.8885858"><ele>309.0</ele><time>2026-04-26T08:03:48.857Z</time></trkpt><trkpt lat="41.1616919" lon="-7.8885381"><ele>309.0</ele><time>2026-04-26T08:03:50.847Z</time></trkpt><trkpt lat="41.1616505" lon="-7.8883807"><ele>309.0</ele><time>2026-04-26T08:03:52.853Z</time></trkpt><trkpt lat="41.1616593" lon="-7.8882809"><ele>309.0</ele><time>2026-04-26T08:03:53.852Z</time></trkpt><trkpt lat="41.1616593" lon="-7.8881808"><ele>309.0</ele><time>2026-04-26T08:03:54.851Z</time></trkpt><trkpt lat="41.1616436" lon="-7.8880872"><ele>309.0</ele><time>2026-04-26T08:03:55.851Z</time></trkpt><trkpt lat="41.1616159" lon="-7.8880099"><ele>309.0</ele><time>2026-04-26T08:03:56.853Z</time></trkpt><trkpt lat="41.1615443" lon="-7.8879003"><ele>309.0</ele><time>2026-04-26T08:03:58.851Z</time></trkpt><trkpt lat="41.1615013" lon="-7.8878359"><ele>309.1666666666667</ele><time>2026-04-26T08:04:00.857Z</time></trkpt><trkpt lat="41.1614783" lon="-7.887757"><ele>309.3333333333333</ele><time>2026-04-26T08:04:03.845Z</time></trkpt><trkpt lat="41.1615254" lon="-7.8876383"><ele>309.5</ele><time>2026-04-26T08:04:06.851Z</time></trkpt><trkpt lat="41.161591" lon="-7.88748"><ele>309.66666666666663</ele><time>2026-04-26T08:04:08.845Z</time></trkpt><trkpt lat="41.1616158" lon="-7.8874004"><ele>309.8333333333333</ele><time>2026-04-26T08:04:09.852Z</time></trkpt><trkpt lat="41.1616327" lon="-7.8873196"><ele>310.0</ele><time>2026-04-26T08:04:10.851Z</time></trkpt><trkpt lat="41.1616867" lon="-7.8871544"><ele>310.8571428571429</ele><time>2026-04-26T08:04:12.85Z</time></trkpt><trkpt lat="41.1617195" lon="-7.8870738"><ele>311.7142857142857</ele><time>2026-04-26T08:04:13.85Z</time></trkpt><trkpt lat="41.1617564" lon="-7.8869955"><ele>312.57142857142856</ele><time>2026-04-26T08:04:14.844Z</time></trkpt><trkpt lat="41.161795" lon="-7.8869181"><ele>313.42857142857144</ele><time>2026-04-26T08:04:15.857Z</time></trkpt><trkpt lat="41.1618323" lon="-7.8868392"><ele>314.2857142857143</ele><time>2026-04-26T08:04:16.855Z</time></trkpt><trkpt lat="41.1618686" lon="-7.8867617"><ele>315.14285714285717</ele><time>2026-04-26T08:04:17.852Z</time></trkpt><trkpt lat="41.161915" lon="-7.8866874"><ele>316.0</ele><time>2026-04-26T08:04:18.85Z</time></trkpt><trkpt lat="41.1619719" lon="-7.8866193"><ele>316.0</ele><time>2026-04-26T08:04:19.852Z</time></trkpt><trkpt lat="41.1620347" lon="-7.8865558"><ele>316.0</ele><time>2026-04-26T08:04:20.856Z</time></trkpt><trkpt lat="41.1620973" lon="-7.8864865"><ele>316.0</ele><time>2026-04-26T08:04:21.848Z</time></trkpt><trkpt lat="41.1621554" lon="-7.88641"><ele>316.0</ele><time>2026-04-26T08:04:22.861Z</time></trkpt><trkpt lat="41.1622092" lon="-7.8863325"><ele>316.0</ele><time>2026-04-26T08:04:23.852Z</time></trkpt><trkpt lat="41.1622589" lon="-7.8862494"><ele>316.0</ele><time>2026-04-26T08:04:24.848Z</time></trkpt><trkpt lat="41.1623024" lon="-7.8861616"><ele>316.0</ele><time>2026-04-26T08:04:25.854Z</time></trkpt><trkpt lat="41.1623432" lon="-7.8860808"><ele>316.0</ele><time>2026-04-26T08:04:26.85Z</time></trkpt><trkpt lat="41.1623856" lon="-7.886008"><ele>316.0</ele><time>2026-04-26T08:04:27.847Z</time></trkpt><trkpt lat="41.1624441" lon="-7.8858807"><ele>316.0</ele><time>2026-04-26T08:04:29.844Z</time></trkpt><trkpt lat="41.1624626" lon="-7.8857697"><ele>316.0</ele><time>2026-04-26T08:04:31.846Z</time></trkpt><trkpt lat="41.1624853" lon="-7.8856693"><ele>316.0</ele><time>2026-04-26T08:04:33.845Z</time></trkpt><trkpt lat="41.1625502" lon="-7.8856554"><ele>319.28571428571433</ele><time>2026-04-26T08:04:35.845Z</time></trkpt><trkpt lat="41.1625955" lon="-7.885774"><ele>322.57142857142856</ele><time>2026-04-26T08:04:37.85Z</time></trkpt><trkpt lat="41.1625951" lon="-7.8858598"><ele>325.8571428571429</ele><time>2026-04-26T08:04:38.852Z</time></trkpt><trkpt lat="41.162586" lon="-7.8859521"><ele>329.14285714285717</ele><time>2026-04-26T08:04:39.854Z</time></trkpt><trkpt lat="41.1625735" lon="-7.8860444"><ele>332.42857142857144</ele><time>2026-04-26T08:04:40.847Z</time></trkpt><trkpt lat="41.1625585" lon="-7.8861355"><ele>335.7142857142857</ele><time>2026-04-26T08:04:41.847Z</time></trkpt><trkpt lat="41.1625438" lon="-7.8862235"><ele>339.0</ele><time>2026-04-26T08:04:42.853Z</time></trkpt><trkpt lat="41.1625263" lon="-7.886314"><ele>339.0</ele><time>2026-04-26T08:04:43.859Z</time></trkpt><trkpt lat="41.1625018" lon="-7.8864047"><ele>339.0</ele><time>2026-04-26T08:04:44.847Z</time></trkpt><trkpt lat="41.162486" lon="-7.8864936"><ele>339.0</ele><time>2026-04-26T08:04:45.856Z</time></trkpt><trkpt lat="41.162477" lon="-7.8865784"><ele>339.0</ele><time>2026-04-26T08:04:46.853Z</time></trkpt><trkpt lat="41.1624708" lon="-7.8866674"><ele>339.0</ele><time>2026-04-26T08:04:47.849Z</time></trkpt><trkpt lat="41.1624749" lon="-7.8867515"><ele>339.0</ele><time>2026-04-26T08:04:48.85Z</time></trkpt><trkpt lat="41.1625116" lon="-7.8869059"><ele>337.6666666666667</ele><time>2026-04-26T08:04:50.851Z</time></trkpt><trkpt lat="41.1625549" lon="-7.8869701"><ele>336.3333333333333</ele><time>2026-04-26T08:04:51.85Z</time></trkpt><trkpt lat="41.1626181" lon="-7.8870179"><ele>335.0</ele><time>2026-04-26T08:04:52.851Z</time></trkpt><trkpt lat="41.162695" lon="-7.8870534"><ele>333.66666666666663</ele><time>2026-04-26T08:04:53.859Z</time></trkpt><trkpt lat="41.162776" lon="-7.8870803"><ele>332.3333333333333</ele><time>2026-04-26T08:04:54.855Z</time></trkpt><trkpt lat="41.1628588" lon="-7.887105"><ele>331.0</ele><time>2026-04-26T08:04:55.853Z</time></trkpt><trkpt lat="41.1629409" lon="-7.8871165"><ele>331.0</ele><time>2026-04-26T08:04:56.85Z</time></trkpt><trkpt lat="41.1630247" lon="-7.8871189"><ele>331.0</ele><time>2026-04-26T08:04:57.851Z</time></trkpt><trkpt lat="41.1631084" lon="-7.8871163"><ele>331.0</ele><time>2026-04-26T08:04:58.848Z</time></trkpt><trkpt lat="41.1631923" lon="-7.8871116"><ele>331.0</ele><time>2026-04-26T08:04:59.855Z</time></trkpt><trkpt lat="41.1632778" lon="-7.8871017"><ele>331.0</ele><time>2026-04-26T08:05:00.85Z</time></trkpt><trkpt lat="41.1633588" lon="-7.8870939"><ele>331.0</ele><time>2026-04-26T08:05:01.849Z</time></trkpt><trkpt lat="41.1634404" lon="-7.8870802"><ele>331.8333333333333</ele><time>2026-04-26T08:05:02.856Z</time></trkpt><trkpt lat="41.1635232" lon="-7.8870623"><ele>332.66666666666663</ele><time>2026-04-26T08:05:03.867Z</time></trkpt><trkpt lat="41.1636045" lon="-7.8870429"><ele>333.5</ele><time>2026-04-26T08:05:04.85Z</time></trkpt><trkpt lat="41.1636888" lon="-7.8870108"><ele>334.3333333333333</ele><time>2026-04-26T08:05:05.852Z</time></trkpt><trkpt lat="41.163771" lon="-7.8869764"><ele>335.1666666666667</ele><time>2026-04-26T08:05:06.848Z</time></trkpt><trkpt lat="41.1638532" lon="-7.8869383"><ele>336.0</ele><time>2026-04-26T08:05:07.855Z</time></trkpt><trkpt lat="41.1639293" lon="-7.8868959"><ele>336.0</ele><time>2026-04-26T08:05:08.857Z</time></trkpt><trkpt lat="41.1640112" lon="-7.8868549"><ele>336.0</ele><time>2026-04-26T08:05:09.857Z</time></trkpt><trkpt lat="41.1640958" lon="-7.8868101"><ele>336.0</ele><time>2026-04-26T08:05:10.845Z</time></trkpt><trkpt lat="41.1641813" lon="-7.8867622"><ele>336.0</ele><time>2026-04-26T08:05:11.852Z</time></trkpt><trkpt lat="41.1642591" lon="-7.8867198"><ele>336.0</ele><time>2026-04-26T08:05:12.851Z</time></trkpt><trkpt lat="41.1643393" lon="-7.8866792"><ele>336.0</ele><time>2026-04-26T08:05:13.845Z</time></trkpt><trkpt lat="41.1644182" lon="-7.8866506"><ele>336.8</ele><time>2026-04-26T08:05:14.86Z</time></trkpt><trkpt lat="41.1645022" lon="-7.8866471"><ele>337.6</ele><time>2026-04-26T08:05:15.853Z</time></trkpt><trkpt lat="41.1645775" lon="-7.886695"><ele>338.4</ele><time>2026-04-26T08:05:16.848Z</time></trkpt><trkpt lat="41.1646505" lon="-7.8867793"><ele>339.2</ele><time>2026-04-26T08:05:17.857Z</time></trkpt><trkpt lat="41.1647275" lon="-7.8868822"><ele>340.0</ele><time>2026-04-26T08:05:18.851Z</time></trkpt><trkpt lat="41.1648105" lon="-7.8869928"><ele>346.5</ele><time>2026-04-26T08:05:19.848Z</time></trkpt><trkpt lat="41.1649036" lon="-7.8871015"><ele>353.0</ele><time>2026-04-26T08:05:20.851Z</time></trkpt><trkpt lat="41.165001" lon="-7.887198"><ele>359.5</ele><time>2026-04-26T08:05:21.847Z</time></trkpt><trkpt lat="41.1650907" lon="-7.887292"><ele>366.0</ele><time>2026-04-26T08:05:22.86Z</time></trkpt><trkpt lat="41.1651772" lon="-7.8873816"><ele>366.0</ele><time>2026-04-26T08:05:23.856Z</time></trkpt><trkpt lat="41.165265" lon="-7.8874699"><ele>366.0</ele><time>2026-04-26T08:05:24.856Z</time></trkpt><trkpt lat="41.1653458" lon="-7.8875577"><ele>366.0</ele><time>2026-04-26T08:05:25.852Z</time></trkpt><trkpt lat="41.1654262" lon="-7.8876401"><ele>366.0</ele><time>2026-04-26T08:05:26.859Z</time></trkpt><trkpt lat="41.1655073" lon="-7.8877201"><ele>366.0</ele><time>2026-04-26T08:05:27.854Z</time></trkpt><trkpt lat="41.1656009" lon="-7.8877959"><ele>367.0</ele><time>2026-04-26T08:05:28.858Z</time></trkpt><trkpt lat="41.1657113" lon="-7.8878526"><ele>368.0</ele><time>2026-04-26T08:05:29.844Z</time></trkpt><trkpt lat="41.1658351" lon="-7.887901"><ele>369.0</ele><time>2026-04-26T08:05:30.848Z</time></trkpt><trkpt lat="41.1659487" lon="-7.887929"><ele>370.0</ele><time>2026-04-26T08:05:31.857Z</time></trkpt><trkpt lat="41.1660548" lon="-7.8879231"><ele>370.0</ele><time>2026-04-26T08:05:32.858Z</time></trkpt><trkpt lat="41.1661636" lon="-7.8878903"><ele>370.0</ele><time>2026-04-26T08:05:33.856Z</time></trkpt><trkpt lat="41.166272" lon="-7.8878437"><ele>370.0</ele><time>2026-04-26T08:05:34.846Z</time></trkpt><trkpt lat="41.1663709" lon="-7.887783"><ele>370.0</ele><time>2026-04-26T08:05:35.852Z</time></trkpt><trkpt lat="41.1664578" lon="-7.8877136"><ele>370.0</ele><time>2026-04-26T08:05:36.857Z</time></trkpt><trkpt lat="41.1665393" lon="-7.887658"><ele>373.5</ele><time>2026-04-26T08:05:37.848Z</time></trkpt><trkpt lat="41.1666215" lon="-7.8876277"><ele>377.0</ele><time>2026-04-26T08:05:38.844Z</time></trkpt><trkpt lat="41.1666943" lon="-7.8876479"><ele>380.5</ele><time>2026-04-26T08:05:39.846Z</time></trkpt><trkpt lat="41.1667465" lon="-7.88772"><ele>384.0</ele><time>2026-04-26T08:05:40.853Z</time></trkpt><trkpt lat="41.1667808" lon="-7.8878213"><ele>387.50000000000006</ele><time>2026-04-26T08:05:41.852Z</time></trkpt><trkpt lat="41.1667949" lon="-7.8879357"><ele>391.0</ele><time>2026-04-26T08:05:42.853Z</time></trkpt><trkpt lat="41.1667937" lon="-7.888043"><ele>391.00000000000006</ele><time>2026-04-26T08:05:43.849Z</time></trkpt><trkpt lat="41.1667824" lon="-7.8881544"><ele>391.0</ele><time>2026-04-26T08:05:44.852Z</time></trkpt><trkpt lat="41.1667732" lon="-7.8882659"><ele>391.0</ele><time>2026-04-26T08:05:45.851Z</time></trkpt><trkpt lat="41.1667722" lon="-7.8883762"><ele>391.0</ele><time>2026-04-26T08:05:46.848Z</time></trkpt><trkpt lat="41.1667836" lon="-7.8884871"><ele>391.00000000000006</ele><time>2026-04-26T08:05:47.863Z</time></trkpt><trkpt lat="41.1668059" lon="-7.8885956"><ele>391.0</ele><time>2026-04-26T08:05:48.846Z</time></trkpt><trkpt lat="41.1668265" lon="-7.8887032"><ele>389.33333333333337</ele><time>2026-04-26T08:05:49.849Z</time></trkpt><trkpt lat="41.1668475" lon="-7.888818"><ele>387.6666666666667</ele><time>2026-04-26T08:05:50.851Z</time></trkpt><trkpt lat="41.1668842" lon="-7.888921"><ele>386.0</ele><time>2026-04-26T08:05:51.857Z</time></trkpt><trkpt lat="41.1669233" lon="-7.8890165"><ele>384.33333333333337</ele><time>2026-04-26T08:05:52.86Z</time></trkpt><trkpt lat="41.1669714" lon="-7.8891123"><ele>382.6666666666667</ele><time>2026-04-26T08:05:53.852Z</time></trkpt><trkpt lat="41.1670297" lon="-7.8892023"><ele>381.0</ele><time>2026-04-26T08:05:54.848Z</time></trkpt><trkpt lat="41.1670914" lon="-7.8892882"><ele>379.6666666666667</ele><time>2026-04-26T08:05:55.852Z</time></trkpt><trkpt lat="41.1671543" lon="-7.8893633"><ele>378.3333333333333</ele><time>2026-04-26T08:05:56.851Z</time></trkpt><trkpt lat="41.1672179" lon="-7.8894294"><ele>377.0</ele><time>2026-04-26T08:05:57.861Z</time></trkpt><trkpt lat="41.1672815" lon="-7.8894921"><ele>375.66666666666663</ele><time>2026-04-26T08:05:58.855Z</time></trkpt><trkpt lat="41.1673558" lon="-7.8895468"><ele>374.3333333333333</ele><time>2026-04-26T08:05:59.844Z</time></trkpt><trkpt lat="41.1674452" lon="-7.8895961"><ele>373.0</ele><time>2026-04-26T08:06:00.848Z</time></trkpt><trkpt lat="41.1675384" lon="-7.8896416"><ele>376.3333333333333</ele><time>2026-04-26T08:06:01.857Z</time></trkpt><trkpt lat="41.1676275" lon="-7.8896877"><ele>379.66666666666663</ele><time>2026-04-26T08:06:02.85Z</time></trkpt><trkpt lat="41.1677082" lon="-7.8897361"><ele>383.0</ele><time>2026-04-26T08:06:03.849Z</time></trkpt><trkpt lat="41.1677841" lon="-7.8897916"><ele>386.3333333333333</ele><time>2026-04-26T08:06:04.853Z</time></trkpt><trkpt lat="41.167858" lon="-7.8898497"><ele>389.6666666666667</ele><time>2026-04-26T08:06:05.854Z</time></trkpt><trkpt lat="41.1679284" lon="-7.8899068"><ele>393.0</ele><time>2026-04-26T08:06:06.852Z</time></trkpt><trkpt lat="41.1679988" lon="-7.8899653"><ele>393.0</ele><time>2026-04-26T08:06:07.848Z</time></trkpt><trkpt lat="41.1680744" lon="-7.8900285"><ele>393.0</ele><time>2026-04-26T08:06:08.847Z</time></trkpt><trkpt lat="41.1681489" lon="-7.8900941"><ele>393.0</ele><time>2026-04-26T08:06:09.847Z</time></trkpt><trkpt lat="41.1682129" lon="-7.8901654"><ele>393.0</ele><time>2026-04-26T08:06:10.853Z</time></trkpt><trkpt lat="41.1682728" lon="-7.8902459"><ele>393.0</ele><time>2026-04-26T08:06:11.859Z</time></trkpt><trkpt lat="41.1683301" lon="-7.8903261"><ele>393.0</ele><time>2026-04-26T08:06:12.856Z</time></trkpt><trkpt lat="41.1683895" lon="-7.8904072"><ele>394.0</ele><time>2026-04-26T08:06:13.852Z</time></trkpt><trkpt lat="41.1684497" lon="-7.890488"><ele>395.0</ele><time>2026-04-26T08:06:14.847Z</time></trkpt><trkpt lat="41.1685102" lon="-7.8905705"><ele>396.0</ele><time>2026-04-26T08:06:15.86Z</time></trkpt><trkpt lat="41.1685699" lon="-7.8906534"><ele>397.0</ele><time>2026-04-26T08:06:16.859Z</time></trkpt><trkpt lat="41.1686309" lon="-7.8907329"><ele>398.0</ele><time>2026-04-26T08:06:17.857Z</time></trkpt><trkpt lat="41.168695" lon="-7.8908034"><ele>399.0</ele><time>2026-04-26T08:06:18.849Z</time></trkpt><trkpt lat="41.1687684" lon="-7.8908635"><ele>399.0</ele><time>2026-04-26T08:06:19.854Z</time></trkpt><trkpt lat="41.1688414" lon="-7.8909075"><ele>399.0</ele><time>2026-04-26T08:06:20.852Z</time></trkpt><trkpt lat="41.1689194" lon="-7.8909157"><ele>399.0</ele><time>2026-04-26T08:06:21.846Z</time></trkpt><trkpt lat="41.1689998" lon="-7.8908792"><ele>399.0</ele><time>2026-04-26T08:06:22.85Z</time></trkpt><trkpt lat="41.1690761" lon="-7.8907988"><ele>399.0</ele><time>2026-04-26T08:06:23.851Z</time></trkpt><trkpt lat="41.1691485" lon="-7.8906916"><ele>399.0</ele><time>2026-04-26T08:06:24.845Z</time></trkpt><trkpt lat="41.1692227" lon="-7.8905736"><ele>400.6</ele><time>2026-04-26T08:06:25.852Z</time></trkpt><trkpt lat="41.1692948" lon="-7.8904565"><ele>402.2</ele><time>2026-04-26T08:06:26.849Z</time></trkpt><trkpt lat="41.1693703" lon="-7.8903633"><ele>403.8</ele><time>2026-04-26T08:06:27.852Z</time></trkpt><trkpt lat="41.1694581" lon="-7.8902897"><ele>405.40000000000003</ele><time>2026-04-26T08:06:28.854Z</time></trkpt><trkpt lat="41.1695461" lon="-7.8902256"><ele>407.0</ele><time>2026-04-26T08:06:29.853Z</time></trkpt><trkpt lat="41.1696289" lon="-7.8901664"><ele>407.0</ele><time>2026-04-26T08:06:30.859Z</time></trkpt><trkpt lat="41.1697275" lon="-7.8901293"><ele>407.0</ele><time>2026-04-26T08:06:31.844Z</time></trkpt><trkpt lat="41.1698265" lon="-7.890115"><ele>407.0</ele><time>2026-04-26T08:06:32.852Z</time></trkpt><trkpt lat="41.1699207" lon="-7.8901133"><ele>407.0</ele><time>2026-04-26T08:06:33.847Z</time></trkpt><trkpt lat="41.1700145" lon="-7.8901092"><ele>407.0</ele><time>2026-04-26T08:06:34.859Z</time></trkpt><trkpt lat="41.1701037" lon="-7.8900926"><ele>410.40000000000003</ele><time>2026-04-26T08:06:35.85Z</time></trkpt><trkpt lat="41.1701926" lon="-7.8900612"><ele>413.8</ele><time>2026-04-26T08:06:36.859Z</time></trkpt><trkpt lat="41.1702832" lon="-7.8900254"><ele>417.2</ele><time>2026-04-26T08:06:37.859Z</time></trkpt><trkpt lat="41.1703711" lon="-7.8899785"><ele>420.6</ele><time>2026-04-26T08:06:38.853Z</time></trkpt><trkpt lat="41.170461" lon="-7.8899318"><ele>424.0</ele><time>2026-04-26T08:06:39.859Z</time></trkpt><trkpt lat="41.1705591" lon="-7.8898727"><ele>424.0</ele><time>2026-04-26T08:06:40.846Z</time></trkpt><trkpt lat="41.1706499" lon="-7.8898025"><ele>424.0</ele><time>2026-04-26T08:06:41.853Z</time></trkpt><trkpt lat="41.170739" lon="-7.8897275"><ele>424.0</ele><time>2026-04-26T08:06:42.845Z</time></trkpt><trkpt lat="41.170817" lon="-7.889659"><ele>424.0</ele><time>2026-04-26T08:06:43.866Z</time></trkpt><trkpt lat="41.1708879" lon="-7.8895927"><ele>424.0</ele><time>2026-04-26T08:06:44.844Z</time></trkpt><trkpt lat="41.1709632" lon="-7.8895143"><ele>423.33333333333337</ele><time>2026-04-26T08:06:45.853Z</time></trkpt><trkpt lat="41.1710354" lon="-7.8894489"><ele>422.6666666666667</ele><time>2026-04-26T08:06:46.849Z</time></trkpt><trkpt lat="41.1710945" lon="-7.8893917"><ele>422.0</ele><time>2026-04-26T08:06:47.851Z</time></trkpt><trkpt lat="41.1711492" lon="-7.8893492"><ele>421.33333333333337</ele><time>2026-04-26T08:06:48.848Z</time></trkpt><trkpt lat="41.171231" lon="-7.8892929"><ele>420.6666666666667</ele><time>2026-04-26T08:06:50.842Z</time></trkpt><trkpt lat="41.1712813" lon="-7.8892377"><ele>420.0</ele><time>2026-04-26T08:06:52.848Z</time></trkpt><trkpt lat="41.1712175" lon="-7.8891677"><ele>423.6666666666667</ele><time>2026-04-26T08:06:54.852Z</time></trkpt><trkpt lat="41.1711485" lon="-7.8891513"><ele>427.33333333333337</ele><time>2026-04-26T08:06:55.85Z</time></trkpt><trkpt lat="41.1710629" lon="-7.8891447"><ele>431.0</ele><time>2026-04-26T08:06:56.85Z</time></trkpt><trkpt lat="41.1709699" lon="-7.8891567"><ele>434.6666666666667</ele><time>2026-04-26T08:06:57.856Z</time></trkpt><trkpt lat="41.1708914" lon="-7.8891549"><ele>438.33333333333337</ele><time>2026-04-26T08:06:58.851Z</time></trkpt><trkpt lat="41.1707786" lon="-7.889164"><ele>442.0</ele><time>2026-04-26T08:06:59.848Z</time></trkpt><trkpt lat="41.1706713" lon="-7.8891726"><ele>444.40000000000003</ele><time>2026-04-26T08:07:00.845Z</time></trkpt><trkpt lat="41.1705656" lon="-7.8891761"><ele>446.80000000000007</ele><time>2026-04-26T08:07:01.844Z</time></trkpt><trkpt lat="41.1704639" lon="-7.8891773"><ele>449.2</ele><time>2026-04-26T08:07:02.847Z</time></trkpt><trkpt lat="41.1703703" lon="-7.8891709"><ele>451.6</ele><time>2026-04-26T08:07:03.848Z</time></trkpt><trkpt lat="41.1702802" lon="-7.8891706"><ele>454.0</ele><time>2026-04-26T08:07:04.855Z</time></trkpt><trkpt lat="41.1701942" lon="-7.889161"><ele>454.00000000000006</ele><time>2026-04-26T08:07:05.854Z</time></trkpt><trkpt lat="41.1700993" lon="-7.8891448"><ele>454.0</ele><time>2026-04-26T08:07:06.848Z</time></trkpt><trkpt lat="41.1700087" lon="-7.8891208"><ele>454.0</ele><time>2026-04-26T08:07:07.859Z</time></trkpt><trkpt lat="41.1699273" lon="-7.889093"><ele>454.0</ele><time>2026-04-26T08:07:08.853Z</time></trkpt><trkpt lat="41.1698614" lon="-7.8890624"><ele>454.00000000000006</ele><time>2026-04-26T08:07:09.853Z</time></trkpt><trkpt lat="41.1697697" lon="-7.888996"><ele>454.0</ele><time>2026-04-26T08:07:11.859Z</time></trkpt><trkpt lat="41.1697988" lon="-7.8888838"><ele>454.00000000000006</ele><time>2026-04-26T08:07:13.852Z</time></trkpt><trkpt lat="41.1698595" lon="-7.8888304"><ele>454.0</ele><time>2026-04-26T08:07:14.846Z</time></trkpt><trkpt lat="41.1699293" lon="-7.8887647"><ele>454.0</ele><time>2026-04-26T08:07:15.849Z</time></trkpt><trkpt lat="41.1699977" lon="-7.888699"><ele>454.0</ele><time>2026-04-26T08:07:16.846Z</time></trkpt><trkpt lat="41.170068" lon="-7.8886374"><ele>454.00000000000006</ele><time>2026-04-26T08:07:17.852Z</time></trkpt><trkpt lat="41.170128" lon="-7.8885744"><ele>454.0</ele><time>2026-04-26T08:07:18.854Z</time></trkpt><trkpt lat="41.170202" lon="-7.8885262"><ele>454.00000000000006</ele><time>2026-04-26T08:07:19.854Z</time></trkpt><trkpt lat="41.1702795" lon="-7.8884675"><ele>454.0</ele><time>2026-04-26T08:07:20.856Z</time></trkpt><trkpt lat="41.1703533" lon="-7.8883973"><ele>454.0</ele><time>2026-04-26T08:07:21.854Z</time></trkpt><trkpt lat="41.1704192" lon="-7.8883358"><ele>454.0</ele><time>2026-04-26T08:07:22.855Z</time></trkpt><trkpt lat="41.1705034" lon="-7.8882755"><ele>454.00000000000006</ele><time>2026-04-26T08:07:23.854Z</time></trkpt><trkpt lat="41.1705844" lon="-7.8882165"><ele>454.0</ele><time>2026-04-26T08:07:24.85Z</time></trkpt><trkpt lat="41.1706413" lon="-7.8881686"><ele>457.50000000000006</ele><time>2026-04-26T08:07:25.846Z</time></trkpt><trkpt lat="41.1706986" lon="-7.8881297"><ele>461.0</ele><time>2026-04-26T08:07:26.849Z</time></trkpt><trkpt lat="41.1707695" lon="-7.8880821"><ele>464.5</ele><time>2026-04-26T08:07:28.848Z</time></trkpt><trkpt lat="41.1707308" lon="-7.8880118"><ele>468.0</ele><time>2026-04-26T08:07:32.85Z</time></trkpt><trkpt lat="41.1705932" lon="-7.8880457"><ele>471.50000000000006</ele><time>2026-04-26T08:07:34.854Z</time></trkpt><trkpt lat="41.1705019" lon="-7.8880722"><ele>475.0</ele><time>2026-04-26T08:07:35.843Z</time></trkpt><trkpt lat="41.1704144" lon="-7.8880986"><ele>476.8</ele><time>2026-04-26T08:07:36.85Z</time></trkpt><trkpt lat="41.1703175" lon="-7.888115"><ele>478.6</ele><time>2026-04-26T08:07:37.846Z</time></trkpt><trkpt lat="41.1702241" lon="-7.8881203"><ele>480.4</ele><time>2026-04-26T08:07:38.85Z</time></trkpt><trkpt lat="41.1701278" lon="-7.8881232"><ele>482.2</ele><time>2026-04-26T08:07:39.849Z</time></trkpt><trkpt lat="41.1700221" lon="-7.888114"><ele>484.0</ele><time>2026-04-26T08:07:40.848Z</time></trkpt><trkpt lat="41.1699278" lon="-7.8880858"><ele>481.2</ele><time>2026-04-26T08:07:41.859Z</time></trkpt><trkpt lat="41.169831" lon="-7.8880446"><ele>478.4</ele><time>2026-04-26T08:07:42.856Z</time></trkpt><trkpt lat="41.1697455" lon="-7.8879978"><ele>475.6</ele><time>2026-04-26T08:07:43.859Z</time></trkpt><trkpt lat="41.1696651" lon="-7.8879419"><ele>472.8</ele><time>2026-04-26T08:07:44.852Z</time></trkpt><trkpt lat="41.1695906" lon="-7.887877"><ele>470.0</ele><time>2026-04-26T08:07:45.85Z</time></trkpt><trkpt lat="41.1695311" lon="-7.8878062"><ele>469.99999999999994</ele><time>2026-04-26T08:07:46.844Z</time></trkpt><trkpt lat="41.1694766" lon="-7.8877338"><ele>470.0</ele><time>2026-04-26T08:07:47.846Z</time></trkpt><trkpt lat="41.169449" lon="-7.8876293"><ele>470.0</ele><time>2026-04-26T08:07:48.847Z</time></trkpt><trkpt lat="41.169439" lon="-7.8875151"><ele>470.0</ele><time>2026-04-26T08:07:49.853Z</time></trkpt><trkpt lat="41.1694329" lon="-7.8873953"><ele>469.99999999999994</ele><time>2026-04-26T08:07:50.848Z</time></trkpt><trkpt lat="41.16942" lon="-7.8872772"><ele>470.0</ele><time>2026-04-26T08:07:51.846Z</time></trkpt><trkpt lat="41.1694156" lon="-7.8871641"><ele>472.8</ele><time>2026-04-26T08:07:52.852Z</time></trkpt><trkpt lat="41.16941" lon="-7.8870443"><ele>475.6</ele><time>2026-04-26T08:07:53.856Z</time></trkpt><trkpt lat="41.1694033" lon="-7.8869134"><ele>478.4</ele><time>2026-04-26T08:07:54.855Z</time></trkpt><trkpt lat="41.1694122" lon="-7.8867792"><ele>481.2</ele><time>2026-04-26T08:07:55.852Z</time></trkpt><trkpt lat="41.1694215" lon="-7.8866499"><ele>484.0</ele><time>2026-04-26T08:07:56.848Z</time></trkpt><trkpt lat="41.1694381" lon="-7.8865318"><ele>484.6666666666667</ele><time>2026-04-26T08:07:57.847Z</time></trkpt><trkpt lat="41.1694473" lon="-7.8864169"><ele>485.33333333333337</ele><time>2026-04-26T08:07:58.847Z</time></trkpt><trkpt lat="41.169453" lon="-7.8863049"><ele>486.0</ele><time>2026-04-26T08:07:59.847Z</time></trkpt><trkpt lat="41.1694548" lon="-7.8861964"><ele>486.66666666666663</ele><time>2026-04-26T08:08:00.853Z</time></trkpt><trkpt lat="41.1694507" lon="-7.886081"><ele>487.3333333333333</ele><time>2026-04-26T08:08:01.847Z</time></trkpt><trkpt lat="41.1694378" lon="-7.8859633"><ele>488.0</ele><time>2026-04-26T08:08:02.852Z</time></trkpt><trkpt lat="41.1694219" lon="-7.8858514"><ele>488.99999999999994</ele><time>2026-04-26T08:08:03.847Z</time></trkpt><trkpt lat="41.1693932" lon="-7.8857367"><ele>490.0</ele><time>2026-04-26T08:08:04.851Z</time></trkpt><trkpt lat="41.1693609" lon="-7.8856298"><ele>491.0</ele><time>2026-04-26T08:08:05.857Z</time></trkpt><trkpt lat="41.1693268" lon="-7.8855279"><ele>492.0</ele><time>2026-04-26T08:08:06.855Z</time></trkpt><trkpt lat="41.1692943" lon="-7.8854381"><ele>492.99999999999994</ele><time>2026-04-26T08:08:07.853Z</time></trkpt><trkpt lat="41.1692659" lon="-7.8853466"><ele>494.0</ele><time>2026-04-26T08:08:08.848Z</time></trkpt><trkpt lat="41.1692219" lon="-7.8852458"><ele>494.0</ele><time>2026-04-26T08:08:10.844Z</time></trkpt><trkpt lat="41.169184" lon="-7.8851558"><ele>494.0</ele><time>2026-04-26T08:08:12.849Z</time></trkpt><trkpt lat="41.1691772" lon="-7.8850623"><ele>494.0</ele><time>2026-04-26T08:08:14.859Z</time></trkpt><trkpt lat="41.1692385" lon="-7.8849645"><ele>494.0</ele><time>2026-04-26T08:08:16.854Z</time></trkpt><trkpt lat="41.169344" lon="-7.884913"><ele>494.0</ele><time>2026-04-26T08:08:18.848Z</time></trkpt><trkpt lat="41.1694648" lon="-7.8849191"><ele>494.8333333333333</ele><time>2026-04-26T08:08:20.848Z</time></trkpt><trkpt lat="41.1695446" lon="-7.8849217"><ele>495.66666666666663</ele><time>2026-04-26T08:08:21.843Z</time></trkpt><trkpt lat="41.169619" lon="-7.884917"><ele>496.5</ele><time>2026-04-26T08:08:22.846Z</time></trkpt><trkpt lat="41.1696978" lon="-7.8849063"><ele>497.33333333333337</ele><time>2026-04-26T08:08:23.857Z</time></trkpt><trkpt lat="41.169777" lon="-7.8848974"><ele>498.1666666666667</ele><time>2026-04-26T08:08:24.852Z</time></trkpt><trkpt lat="41.169859" lon="-7.8848893"><ele>499.0</ele><time>2026-04-26T08:08:25.847Z</time></trkpt><trkpt lat="41.1699414" lon="-7.88488"><ele>503.2</ele><time>2026-04-26T08:08:26.852Z</time></trkpt><trkpt lat="41.1700387" lon="-7.884874"><ele>507.4</ele><time>2026-04-26T08:08:27.847Z</time></trkpt><trkpt lat="41.1701609" lon="-7.8848708"><ele>511.6</ele><time>2026-04-26T08:08:28.859Z</time></trkpt><trkpt lat="41.1702812" lon="-7.8848685"><ele>515.8</ele><time>2026-04-26T08:08:29.845Z</time></trkpt><trkpt lat="41.1703833" lon="-7.8848664"><ele>520.0</ele><time>2026-04-26T08:08:30.849Z</time></trkpt><trkpt lat="41.1704781" lon="-7.8848607"><ele>520.0</ele><time>2026-04-26T08:08:31.846Z</time></trkpt><trkpt lat="41.170577" lon="-7.8848577"><ele>520.0</ele><time>2026-04-26T08:08:32.851Z</time></trkpt><trkpt lat="41.1706736" lon="-7.8848426"><ele>520.0</ele><time>2026-04-26T08:08:33.853Z</time></trkpt><trkpt lat="41.170772" lon="-7.8848285"><ele>520.0</ele><time>2026-04-26T08:08:34.846Z</time></trkpt><trkpt lat="41.1708605" lon="-7.8848158"><ele>520.0</ele><time>2026-04-26T08:08:35.859Z</time></trkpt><trkpt lat="41.1709392" lon="-7.8848098"><ele>525.4</ele><time>2026-04-26T08:08:36.852Z</time></trkpt><trkpt lat="41.1710072" lon="-7.8848153"><ele>530.8</ele><time>2026-04-26T08:08:37.847Z</time></trkpt><trkpt lat="41.171122" lon="-7.8848663"><ele>536.2</ele><time>2026-04-26T08:08:39.849Z</time></trkpt><trkpt lat="41.1712366" lon="-7.8849358"><ele>541.6</ele><time>2026-04-26T08:08:41.854Z</time></trkpt><trkpt lat="41.1712968" lon="-7.8849724"><ele>547.0</ele><time>2026-04-26T08:08:42.858Z</time></trkpt><trkpt lat="41.1713807" lon="-7.885035"><ele>546.0</ele><time>2026-04-26T08:08:44.851Z</time></trkpt><trkpt lat="41.171488" lon="-7.8850993"><ele>545.0</ele><time>2026-04-26T08:08:46.856Z</time></trkpt><trkpt lat="41.1715981" lon="-7.8851088"><ele>544.0</ele><time>2026-04-26T08:08:48.851Z</time></trkpt><trkpt lat="41.1717052" lon="-7.8850208"><ele>543.0</ele><time>2026-04-26T08:08:50.844Z</time></trkpt><trkpt lat="41.1717684" lon="-7.8849631"><ele>542.0</ele><time>2026-04-26T08:08:51.87Z</time></trkpt><trkpt lat="41.171837" lon="-7.8848884"><ele>546.6666666666666</ele><time>2026-04-26T08:08:52.843Z</time></trkpt><trkpt lat="41.1718924" lon="-7.8848007"><ele>551.3333333333333</ele><time>2026-04-26T08:08:53.851Z</time></trkpt><trkpt lat="41.1719329" lon="-7.8847104"><ele>556.0</ele><time>2026-04-26T08:08:54.853Z</time></trkpt><trkpt lat="41.1719943" lon="-7.8846283"><ele>560.6666666666666</ele><time>2026-04-26T08:08:55.853Z</time></trkpt><trkpt lat="41.1720628" lon="-7.8845568"><ele>565.3333333333334</ele><time>2026-04-26T08:08:56.844Z</time></trkpt><trkpt lat="41.1721357" lon="-7.8844876"><ele>570.0</ele><time>2026-04-26T08:08:57.846Z</time></trkpt><trkpt lat="41.172209" lon="-7.8844226"><ele>570.0</ele><time>2026-04-26T08:08:58.845Z</time></trkpt><trkpt lat="41.1722776" lon="-7.8843568"><ele>570.0</ele><time>2026-04-26T08:08:59.844Z</time></trkpt><trkpt lat="41.1723445" lon="-7.884307"><ele>570.0</ele><time>2026-04-26T08:09:00.853Z</time></trkpt><trkpt lat="41.1724137" lon="-7.8842615"><ele>570.0</ele><time>2026-04-26T08:09:01.848Z</time></trkpt><trkpt lat="41.1724814" lon="-7.8842193"><ele>570.0</ele><time>2026-04-26T08:09:02.861Z</time></trkpt><trkpt lat="41.1725489" lon="-7.8841729"><ele>570.0</ele><time>2026-04-26T08:09:03.85Z</time></trkpt><trkpt lat="41.172614" lon="-7.8841191"><ele>573.4285714285714</ele><time>2026-04-26T08:09:04.849Z</time></trkpt><trkpt lat="41.1726755" lon="-7.8840653"><ele>576.8571428571429</ele><time>2026-04-26T08:09:05.852Z</time></trkpt><trkpt lat="41.1727376" lon="-7.8840174"><ele>580.2857142857143</ele><time>2026-04-26T08:09:06.847Z</time></trkpt><trkpt lat="41.1727969" lon="-7.8839771"><ele>583.7142857142858</ele><time>2026-04-26T08:09:07.852Z</time></trkpt><trkpt lat="41.1728621" lon="-7.8839366"><ele>587.1428571428572</ele><time>2026-04-26T08:09:08.853Z</time></trkpt><trkpt lat="41.1729295" lon="-7.8838901"><ele>590.5714285714286</ele><time>2026-04-26T08:09:09.841Z</time></trkpt><trkpt lat="41.1729999" lon="-7.883841"><ele>594.0</ele><time>2026-04-26T08:09:10.853Z</time></trkpt><trkpt lat="41.1730652" lon="-7.8837984"><ele>594.0</ele><time>2026-04-26T08:09:11.86Z</time></trkpt><trkpt lat="41.1731388" lon="-7.8837598"><ele>594.0</ele><time>2026-04-26T08:09:12.844Z</time></trkpt><trkpt lat="41.1732213" lon="-7.8837191"><ele>594.0</ele><time>2026-04-26T08:09:13.842Z</time></trkpt><trkpt lat="41.1732969" lon="-7.8836975"><ele>594.0</ele><time>2026-04-26T08:09:14.852Z</time></trkpt><trkpt lat="41.173418" lon="-7.8836537"><ele>594.0</ele><time>2026-04-26T08:09:16.864Z</time></trkpt><trkpt lat="41.1734873" lon="-7.8836363"><ele>594.0</ele><time>2026-04-26T08:09:17.846Z</time></trkpt><trkpt lat="41.1735555" lon="-7.8836116"><ele>597.0</ele><time>2026-04-26T08:09:18.847Z</time></trkpt><trkpt lat="41.1736214" lon="-7.8835758"><ele>600.0</ele><time>2026-04-26T08:09:19.857Z</time></trkpt><trkpt lat="41.1736947" lon="-7.8835322"><ele>603.0</ele><time>2026-04-26T08:09:20.871Z</time></trkpt><trkpt lat="41.1737602" lon="-7.8834924"><ele>606.0</ele><time>2026-04-26T08:09:21.859Z</time></trkpt><trkpt lat="41.1738249" lon="-7.8834568"><ele>609.0</ele><time>2026-04-26T08:09:22.847Z</time></trkpt><trkpt lat="41.1739241" lon="-7.8833998"><ele>612.0</ele><time>2026-04-26T08:09:24.851Z</time></trkpt><trkpt lat="41.1740093" lon="-7.8834606"><ele>613.8333333333334</ele><time>2026-04-26T08:09:27.85Z</time></trkpt><trkpt lat="41.1740681" lon="-7.883563"><ele>615.6666666666666</ele><time>2026-04-26T08:09:29.845Z</time></trkpt><trkpt lat="41.1741113" lon="-7.8836249"><ele>617.5</ele><time>2026-04-26T08:09:30.856Z</time></trkpt><trkpt lat="41.1741618" lon="-7.8836908"><ele>619.3333333333333</ele><time>2026-04-26T08:09:31.852Z</time></trkpt><trkpt lat="41.1742119" lon="-7.8837543"><ele>621.1666666666666</ele><time>2026-04-26T08:09:32.852Z</time></trkpt><trkpt lat="41.1742647" lon="-7.8838209"><ele>623.0</ele><time>2026-04-26T08:09:33.853Z</time></trkpt><trkpt lat="41.1743245" lon="-7.8838904"><ele>623.0</ele><time>2026-04-26T08:09:34.849Z</time></trkpt><trkpt lat="41.1743726" lon="-7.8839536"><ele>623.0</ele><time>2026-04-26T08:09:35.852Z</time></trkpt><trkpt lat="41.1744448" lon="-7.8840743"><ele>623.0</ele><time>2026-04-26T08:09:37.848Z</time></trkpt><trkpt lat="41.1745235" lon="-7.884184"><ele>623.0</ele><time>2026-04-26T08:09:39.847Z</time></trkpt><trkpt lat="41.1745976" lon="-7.8842993"><ele>623.0</ele><time>2026-04-26T08:09:41.846Z</time></trkpt><trkpt lat="41.1746891" lon="-7.8843966"><ele>623.6</ele><time>2026-04-26T08:09:43.842Z</time></trkpt><trkpt lat="41.1747423" lon="-7.884447"><ele>624.1999999999999</ele><time>2026-04-26T08:09:44.849Z</time></trkpt><trkpt lat="41.1748098" lon="-7.8845084"><ele>624.8</ele><time>2026-04-26T08:09:45.85Z</time></trkpt><trkpt lat="41.1748922" lon="-7.8845945"><ele>625.4</ele><time>2026-04-26T08:09:46.847Z</time></trkpt><trkpt lat="41.1749812" lon="-7.8847111"><ele>626.0</ele><time>2026-04-26T08:09:47.847Z</time></trkpt><trkpt lat="41.1750704" lon="-7.8848608"><ele>626.0</ele><time>2026-04-26T08:09:48.856Z</time></trkpt><trkpt lat="41.1751528" lon="-7.8850251"><ele>626.0</ele><time>2026-04-26T08:09:49.85Z</time></trkpt><trkpt lat="41.1752345" lon="-7.8851915"><ele>626.0</ele><time>2026-04-26T08:09:50.857Z</time></trkpt><trkpt lat="41.1752948" lon="-7.8853397"><ele>626.0</ele><time>2026-04-26T08:09:51.853Z</time></trkpt><trkpt lat="41.1753261" lon="-7.8854702"><ele>623.6</ele><time>2026-04-26T08:09:52.849Z</time></trkpt><trkpt lat="41.1753391" lon="-7.8856126"><ele>621.2</ele><time>2026-04-26T08:09:53.851Z</time></trkpt><trkpt lat="41.1753404" lon="-7.8857519"><ele>618.8</ele><time>2026-04-26T08:09:54.847Z</time></trkpt><trkpt lat="41.175343" lon="-7.8858877"><ele>616.4</ele><time>2026-04-26T08:09:55.848Z</time></trkpt><trkpt lat="41.1753594" lon="-7.8860184"><ele>614.0</ele><time>2026-04-26T08:09:56.85Z</time></trkpt><trkpt lat="41.1753761" lon="-7.8861577"><ele>612.8</ele><time>2026-04-26T08:09:57.856Z</time></trkpt><trkpt lat="41.1753995" lon="-7.8863051"><ele>611.5999999999999</ele><time>2026-04-26T08:09:58.85Z</time></trkpt><trkpt lat="41.1754272" lon="-7.8864528"><ele>610.4</ele><time>2026-04-26T08:09:59.852Z</time></trkpt><trkpt lat="41.1754597" lon="-7.8865927"><ele>609.1999999999999</ele><time>2026-04-26T08:10:00.845Z</time></trkpt><trkpt lat="41.1754889" lon="-7.8867283"><ele>608.0</ele><time>2026-04-26T08:10:01.843Z</time></trkpt><trkpt lat="41.1755182" lon="-7.8868519"><ele>609.6</ele><time>2026-04-26T08:10:02.843Z</time></trkpt><trkpt lat="41.1755553" lon="-7.8869715"><ele>611.1999999999999</ele><time>2026-04-26T08:10:03.848Z</time></trkpt><trkpt lat="41.1756115" lon="-7.8870758"><ele>612.8</ele><time>2026-04-26T08:10:04.857Z</time></trkpt><trkpt lat="41.1756782" lon="-7.8871743"><ele>614.4</ele><time>2026-04-26T08:10:05.855Z</time></trkpt><trkpt lat="41.1757463" lon="-7.8872686"><ele>616.0</ele><time>2026-04-26T08:10:06.848Z</time></trkpt><trkpt lat="41.1758128" lon="-7.887364"><ele>616.0</ele><time>2026-04-26T08:10:07.849Z</time></trkpt><trkpt lat="41.175872" lon="-7.8874732"><ele>616.0</ele><time>2026-04-26T08:10:08.85Z</time></trkpt><trkpt lat="41.1759212" lon="-7.8875933"><ele>616.0</ele><time>2026-04-26T08:10:09.845Z</time></trkpt><trkpt lat="41.1759612" lon="-7.8877258"><ele>616.0</ele><time>2026-04-26T08:10:10.858Z</time></trkpt><trkpt lat="41.1759989" lon="-7.8878683"><ele>616.0</ele><time>2026-04-26T08:10:11.854Z</time></trkpt><trkpt lat="41.1760411" lon="-7.8880147"><ele>614.2</ele><time>2026-04-26T08:10:12.852Z</time></trkpt><trkpt lat="41.1760802" lon="-7.8881554"><ele>612.4000000000001</ele><time>2026-04-26T08:10:13.849Z</time></trkpt><trkpt lat="41.1761228" lon="-7.8882842"><ele>610.6</ele><time>2026-04-26T08:10:14.856Z</time></trkpt><trkpt lat="41.1761605" lon="-7.8884082"><ele>608.8000000000001</ele><time>2026-04-26T08:10:15.852Z</time></trkpt><trkpt lat="41.1761947" lon="-7.8885265"><ele>607.0</ele><time>2026-04-26T08:10:16.852Z</time></trkpt><trkpt lat="41.1762157" lon="-7.8886438"><ele>607.0</ele><time>2026-04-26T08:10:17.85Z</time></trkpt><trkpt lat="41.1762173" lon="-7.8887564"><ele>607.0</ele><time>2026-04-26T08:10:18.846Z</time></trkpt><trkpt lat="41.1762065" lon="-7.8888601"><ele>607.0</ele><time>2026-04-26T08:10:19.851Z</time></trkpt><trkpt lat="41.1761809" lon="-7.888956"><ele>607.0</ele><time>2026-04-26T08:10:20.852Z</time></trkpt><trkpt lat="41.1761334" lon="-7.8890426"><ele>607.0</ele><time>2026-04-26T08:10:21.853Z</time></trkpt><trkpt lat="41.176071" lon="-7.8891287"><ele>607.0</ele><time>2026-04-26T08:10:22.852Z</time></trkpt><trkpt lat="41.1759986" lon="-7.8892125"><ele>608.4</ele><time>2026-04-26T08:10:23.858Z</time></trkpt><trkpt lat="41.1759231" lon="-7.8892997"><ele>609.8000000000001</ele><time>2026-04-26T08:10:24.848Z</time></trkpt><trkpt lat="41.17585" lon="-7.8893957"><ele>611.2</ele><time>2026-04-26T08:10:25.846Z</time></trkpt><trkpt lat="41.1757831" lon="-7.889502"><ele>612.6</ele><time>2026-04-26T08:10:26.85Z</time></trkpt><trkpt lat="41.1757322" lon="-7.889618"><ele>614.0</ele><time>2026-04-26T08:10:27.845Z</time></trkpt><trkpt lat="41.1756939" lon="-7.8897369"><ele>608.0</ele><time>2026-04-26T08:10:28.848Z</time></trkpt><trkpt lat="41.1756664" lon="-7.8898456"><ele>602.0</ele><time>2026-04-26T08:10:29.849Z</time></trkpt><trkpt lat="41.1756445" lon="-7.8899384"><ele>596.0</ele><time>2026-04-26T08:10:30.846Z</time></trkpt><trkpt lat="41.175634" lon="-7.8900804"><ele>590.0</ele><time>2026-04-26T08:10:32.847Z</time></trkpt><trkpt lat="41.1756625" lon="-7.8901962"><ele>584.0</ele><time>2026-04-26T08:10:34.853Z</time></trkpt><trkpt lat="41.1756818" lon="-7.8903263"><ele>589.2</ele><time>2026-04-26T08:10:36.852Z</time></trkpt><trkpt lat="41.1757037" lon="-7.890445"><ele>594.4</ele><time>2026-04-26T08:10:38.85Z</time></trkpt><trkpt lat="41.1757558" lon="-7.8905175"><ele>599.6</ele><time>2026-04-26T08:10:40.853Z</time></trkpt><trkpt lat="41.1758183" lon="-7.8904229"><ele>604.8</ele><time>2026-04-26T08:10:42.846Z</time></trkpt><trkpt lat="41.1758779" lon="-7.8902891"><ele>610.0</ele><time>2026-04-26T08:10:44.849Z</time></trkpt><trkpt lat="41.1759384" lon="-7.8901484"><ele>610.6666666666667</ele><time>2026-04-26T08:10:46.846Z</time></trkpt><trkpt lat="41.175988" lon="-7.8900781"><ele>611.3333333333334</ele><time>2026-04-26T08:10:47.851Z</time></trkpt><trkpt lat="41.1760444" lon="-7.8900078"><ele>612.0</ele><time>2026-04-26T08:10:48.846Z</time></trkpt><trkpt lat="41.1761069" lon="-7.889951"><ele>612.6666666666666</ele><time>2026-04-26T08:10:49.848Z</time></trkpt><trkpt lat="41.1761735" lon="-7.8898966"><ele>613.3333333333333</ele><time>2026-04-26T08:10:50.844Z</time></trkpt><trkpt lat="41.1762445" lon="-7.8898424"><ele>614.0</ele><time>2026-04-26T08:10:51.857Z</time></trkpt><trkpt lat="41.1763089" lon="-7.8897944"><ele>614.0</ele><time>2026-04-26T08:10:52.849Z</time></trkpt><trkpt lat="41.176364" lon="-7.8897496"><ele>614.0</ele><time>2026-04-26T08:10:53.843Z</time></trkpt><trkpt lat="41.1764598" lon="-7.8896677"><ele>614.0</ele><time>2026-04-26T08:10:55.853Z</time></trkpt><trkpt lat="41.1765504" lon="-7.8895893"><ele>614.0</ele><time>2026-04-26T08:10:57.853Z</time></trkpt><trkpt lat="41.1766639" lon="-7.8895384"><ele>614.0</ele><time>2026-04-26T08:10:59.85Z</time></trkpt><trkpt lat="41.1767731" lon="-7.8894937"><ele>618.5</ele><time>2026-04-26T08:11:01.846Z</time></trkpt><trkpt lat="41.1768902" lon="-7.889449"><ele>623.0</ele><time>2026-04-26T08:11:03.854Z</time></trkpt><trkpt lat="41.176999" lon="-7.8893765"><ele>627.5</ele><time>2026-04-26T08:11:05.851Z</time></trkpt><trkpt lat="41.1771127" lon="-7.8892986"><ele>632.0</ele><time>2026-04-26T08:11:07.844Z</time></trkpt><trkpt lat="41.1772255" lon="-7.8892263"><ele>632.2857142857143</ele><time>2026-04-26T08:11:09.846Z</time></trkpt><trkpt lat="41.1772907" lon="-7.8891973"><ele>632.5714285714286</ele><time>2026-04-26T08:11:10.843Z</time></trkpt><trkpt lat="41.1773601" lon="-7.8891718"><ele>632.8571428571429</ele><time>2026-04-26T08:11:11.861Z</time></trkpt><trkpt lat="41.1774266" lon="-7.8891525"><ele>633.1428571428571</ele><time>2026-04-26T08:11:12.852Z</time></trkpt><trkpt lat="41.1774922" lon="-7.8891369"><ele>633.4285714285714</ele><time>2026-04-26T08:11:13.868Z</time></trkpt><trkpt lat="41.1775586" lon="-7.8891248"><ele>633.7142857142858</ele><time>2026-04-26T08:11:14.849Z</time></trkpt><trkpt lat="41.1776224" lon="-7.8891184"><ele>634.0</ele><time>2026-04-26T08:11:15.85Z</time></trkpt><trkpt lat="41.177688" lon="-7.889112"><ele>637.6</ele><time>2026-04-26T08:11:16.845Z</time></trkpt><trkpt lat="41.1777612" lon="-7.8891043"><ele>641.2</ele><time>2026-04-26T08:11:17.848Z</time></trkpt><trkpt lat="41.177838" lon="-7.8890925"><ele>644.8000000000001</ele><time>2026-04-26T08:11:18.845Z</time></trkpt><trkpt lat="41.177926" lon="-7.8890837"><ele>648.4</ele><time>2026-04-26T08:11:19.846Z</time></trkpt><trkpt lat="41.1780289" lon="-7.8890735"><ele>652.0</ele><time>2026-04-26T08:11:20.846Z</time></trkpt><trkpt lat="41.1781446" lon="-7.889056"><ele>654.0</ele><time>2026-04-26T08:11:21.852Z</time></trkpt><trkpt lat="41.1782715" lon="-7.8890358"><ele>656.0</ele><time>2026-04-26T08:11:22.842Z</time></trkpt><trkpt lat="41.1783853" lon="-7.8890205"><ele>658.0</ele><time>2026-04-26T08:11:23.841Z</time></trkpt><trkpt lat="41.178487" lon="-7.8890061"><ele>660.0</ele><time>2026-04-26T08:11:24.85Z</time></trkpt><trkpt lat="41.178585" lon="-7.8889958"><ele>662.0</ele><time>2026-04-26T08:11:25.853Z</time></trkpt><trkpt lat="41.1786738" lon="-7.8889835"><ele>662.0</ele><time>2026-04-26T08:11:26.856Z</time></trkpt><trkpt lat="41.1787558" lon="-7.8889684"><ele>662.0</ele><time>2026-04-26T08:11:27.849Z</time></trkpt><trkpt lat="41.1788329" lon="-7.8889521"><ele>662.0</ele><time>2026-04-26T08:11:28.854Z</time></trkpt><trkpt lat="41.1789081" lon="-7.8889411"><ele>662.0</ele><time>2026-04-26T08:11:29.848Z</time></trkpt><trkpt lat="41.178982" lon="-7.8889281"><ele>662.0</ele><time>2026-04-26T08:11:30.847Z</time></trkpt><trkpt lat="41.1790493" lon="-7.8889107"><ele>662.0</ele><time>2026-04-26T08:11:31.85Z</time></trkpt><trkpt lat="41.1791168" lon="-7.8888916"><ele>662.0</ele><time>2026-04-26T08:11:32.848Z</time></trkpt><trkpt lat="41.1791926" lon="-7.8888732"><ele>663.1666666666666</ele><time>2026-04-26T08:11:33.84Z</time></trkpt><trkpt lat="41.1792701" lon="-7.8888564"><ele>664.3333333333333</ele><time>2026-04-26T08:11:34.845Z</time></trkpt><trkpt lat="41.1793475" lon="-7.8888407"><ele>665.5</ele><time>2026-04-26T08:11:35.846Z</time></trkpt><trkpt lat="41.1794263" lon="-7.8888225"><ele>666.6666666666666</ele><time>2026-04-26T08:11:36.847Z</time></trkpt><trkpt lat="41.1795024" lon="-7.8888005"><ele>667.8333333333334</ele><time>2026-04-26T08:11:37.849Z</time></trkpt><trkpt lat="41.1795761" lon="-7.8887755"><ele>669.0</ele><time>2026-04-26T08:11:38.845Z</time></trkpt><trkpt lat="41.179653" lon="-7.8887516"><ele>669.0</ele><time>2026-04-26T08:11:39.843Z</time></trkpt><trkpt lat="41.1797358" lon="-7.8887277"><ele>669.0</ele><time>2026-04-26T08:11:40.848Z</time></trkpt><trkpt lat="41.1798169" lon="-7.8887101"><ele>669.0</ele><time>2026-04-26T08:11:41.844Z</time></trkpt><trkpt lat="41.1798938" lon="-7.8887008"><ele>669.0</ele><time>2026-04-26T08:11:42.852Z</time></trkpt><trkpt lat="41.1799714" lon="-7.8886976"><ele>669.0</ele><time>2026-04-26T08:11:43.852Z</time></trkpt><trkpt lat="41.1800478" lon="-7.8887085"><ele>669.0</ele><time>2026-04-26T08:11:44.846Z</time></trkpt><trkpt lat="41.1801212" lon="-7.8887427"><ele>671.5</ele><time>2026-04-26T08:11:45.844Z</time></trkpt><trkpt lat="41.1801917" lon="-7.8887887"><ele>674.0</ele><time>2026-04-26T08:11:46.855Z</time></trkpt><trkpt lat="41.1802624" lon="-7.8888311"><ele>676.5</ele><time>2026-04-26T08:11:47.852Z</time></trkpt><trkpt lat="41.1803366" lon="-7.8888836"><ele>679.0</ele><time>2026-04-26T08:11:48.844Z</time></trkpt><trkpt lat="41.1804062" lon="-7.8889427"><ele>681.5</ele><time>2026-04-26T08:11:49.848Z</time></trkpt><trkpt lat="41.1804712" lon="-7.8889991"><ele>684.0</ele><time>2026-04-26T08:11:50.854Z</time></trkpt><trkpt lat="41.1805328" lon="-7.8890533"><ele>684.0</ele><time>2026-04-26T08:11:51.849Z</time></trkpt><trkpt lat="41.1805865" lon="-7.8891123"><ele>684.0</ele><time>2026-04-26T08:11:52.844Z</time></trkpt><trkpt lat="41.1806322" lon="-7.8891771"><ele>684.0</ele><time>2026-04-26T08:11:53.845Z</time></trkpt><trkpt lat="41.1807032" lon="-7.8892796"><ele>684.0</ele><time>2026-04-26T08:11:55.856Z</time></trkpt><trkpt lat="41.1806781" lon="-7.8891497"><ele>684.0</ele><time>2026-04-26T08:12:00.853Z</time></trkpt><trkpt lat="41.1806335" lon="-7.8890834"><ele>684.0</ele><time>2026-04-26T08:12:01.846Z</time></trkpt><trkpt lat="41.1805857" lon="-7.8890237"><ele>684.0</ele><time>2026-04-26T08:12:02.85Z</time></trkpt><trkpt lat="41.1805354" lon="-7.8889677"><ele>684.0</ele><time>2026-04-26T08:12:03.85Z</time></trkpt><trkpt lat="41.1804901" lon="-7.8889072"><ele>684.0</ele><time>2026-04-26T08:12:04.847Z</time></trkpt><trkpt lat="41.180407" lon="-7.888798"><ele>684.0</ele><time>2026-04-26T08:12:06.846Z</time></trkpt><trkpt lat="41.1803186" lon="-7.8886909"><ele>684.0</ele><time>2026-04-26T08:12:08.845Z</time></trkpt><trkpt lat="41.1802423" lon="-7.8886001"><ele>684.0</ele><time>2026-04-26T08:12:10.846Z</time></trkpt><trkpt lat="41.1801554" lon="-7.8885078"><ele>684.0</ele><time>2026-04-26T08:12:12.85Z</time></trkpt><trkpt lat="41.1800543" lon="-7.8884158"><ele>684.0</ele><time>2026-04-26T08:12:14.847Z</time></trkpt><trkpt lat="41.1799975" lon="-7.8883715"><ele>684.0</ele><time>2026-04-26T08:12:15.854Z</time></trkpt><trkpt lat="41.1799388" lon="-7.8883291"><ele>684.0</ele><time>2026-04-26T08:12:16.85Z</time></trkpt><trkpt lat="41.1798755" lon="-7.888289"><ele>684.0</ele><time>2026-04-26T08:12:17.855Z</time></trkpt><trkpt lat="41.1798162" lon="-7.8882527"><ele>685.1428571428571</ele><time>2026-04-26T08:12:18.846Z</time></trkpt><trkpt lat="41.1797566" lon="-7.8882094"><ele>686.2857142857142</ele><time>2026-04-26T08:12:19.853Z</time></trkpt><trkpt lat="41.1796923" lon="-7.8881665"><ele>687.4285714285713</ele><time>2026-04-26T08:12:20.843Z</time></trkpt><trkpt lat="41.1796279" lon="-7.8881214"><ele>688.5714285714286</ele><time>2026-04-26T08:12:21.845Z</time></trkpt><trkpt lat="41.1795614" lon="-7.8880666"><ele>689.7142857142858</ele><time>2026-04-26T08:12:22.847Z</time></trkpt><trkpt lat="41.1794951" lon="-7.8880084"><ele>690.8571428571428</ele><time>2026-04-26T08:12:23.851Z</time></trkpt><trkpt lat="41.1794324" lon="-7.8879509"><ele>692.0</ele><time>2026-04-26T08:12:24.843Z</time></trkpt><trkpt lat="41.1793706" lon="-7.8878911"><ele>692.0</ele><time>2026-04-26T08:12:25.846Z</time></trkpt><trkpt lat="41.1793182" lon="-7.8878356"><ele>692.0</ele><time>2026-04-26T08:12:26.844Z</time></trkpt><trkpt lat="41.1792317" lon="-7.8877355"><ele>692.0</ele><time>2026-04-26T08:12:28.85Z</time></trkpt><trkpt lat="41.179177" lon="-7.8876776"><ele>692.0</ele><time>2026-04-26T08:12:30.852Z</time></trkpt><trkpt lat="41.1792417" lon="-7.8876421"><ele>692.0</ele><time>2026-04-26T08:12:35.847Z</time></trkpt><trkpt lat="41.1793427" lon="-7.8877005"><ele>692.0</ele><time>2026-04-26T08:12:37.857Z</time></trkpt><trkpt lat="41.1794116" lon="-7.8877441"><ele>692.0</ele><time>2026-04-26T08:12:38.856Z</time></trkpt><trkpt lat="41.1794878" lon="-7.8877773"><ele>692.0</ele><time>2026-04-26T08:12:39.848Z</time></trkpt><trkpt lat="41.1795669" lon="-7.8878009"><ele>692.0</ele><time>2026-04-26T08:12:40.858Z</time></trkpt><trkpt lat="41.1796446" lon="-7.8878037"><ele>692.0</ele><time>2026-04-26T08:12:41.848Z</time></trkpt><trkpt lat="41.1797283" lon="-7.8877836"><ele>692.0</ele><time>2026-04-26T08:12:42.853Z</time></trkpt><trkpt lat="41.179816" lon="-7.8877561"><ele>692.0</ele><time>2026-04-26T08:12:43.845Z</time></trkpt><trkpt lat="41.1799105" lon="-7.8877307"><ele>694.0</ele><time>2026-04-26T08:12:44.85Z</time></trkpt><trkpt lat="41.1800031" lon="-7.8877168"><ele>696.0</ele><time>2026-04-26T08:12:45.853Z</time></trkpt><trkpt lat="41.1800936" lon="-7.887711"><ele>698.0</ele><time>2026-04-26T08:12:46.847Z</time></trkpt><trkpt lat="41.1801859" lon="-7.8877169"><ele>700.0</ele><time>2026-04-26T08:12:47.847Z</time></trkpt><trkpt lat="41.1802871" lon="-7.8877292"><ele>702.0</ele><time>2026-04-26T08:12:48.845Z</time></trkpt><trkpt lat="41.1803913" lon="-7.8877395"><ele>702.0</ele><time>2026-04-26T08:12:49.841Z</time></trkpt><trkpt lat="41.1805004" lon="-7.8877551"><ele>702.0</ele><time>2026-04-26T08:12:50.853Z</time></trkpt><trkpt lat="41.1806078" lon="-7.8877719"><ele>702.0</ele><time>2026-04-26T08:12:51.854Z</time></trkpt><trkpt lat="41.1807129" lon="-7.8877887"><ele>702.0</ele><time>2026-04-26T08:12:52.844Z</time></trkpt><trkpt lat="41.1808166" lon="-7.887807"><ele>702.0</ele><time>2026-04-26T08:12:53.849Z</time></trkpt><trkpt lat="41.1809165" lon="-7.8878342"><ele>705.0</ele><time>2026-04-26T08:12:54.847Z</time></trkpt><trkpt lat="41.1810095" lon="-7.8878695"><ele>708.0</ele><time>2026-04-26T08:12:55.847Z</time></trkpt><trkpt lat="41.1810927" lon="-7.8879087"><ele>711.0</ele><time>2026-04-26T08:12:56.846Z</time></trkpt><trkpt lat="41.1811715" lon="-7.8879479"><ele>714.0</ele><time>2026-04-26T08:12:57.848Z</time></trkpt><trkpt lat="41.1812528" lon="-7.888"><ele>717.0</ele><time>2026-04-26T08:12:58.843Z</time></trkpt><trkpt lat="41.181333" lon="-7.8880525"><ele>720.0</ele><time>2026-04-26T08:12:59.858Z</time></trkpt><trkpt lat="41.181411" lon="-7.8880958"><ele>720.0</ele><time>2026-04-26T08:13:00.858Z</time></trkpt><trkpt lat="41.1814965" lon="-7.8881219"><ele>720.0</ele><time>2026-04-26T08:13:01.843Z</time></trkpt><trkpt lat="41.1815939" lon="-7.8881352"><ele>720.0</ele><time>2026-04-26T08:13:02.848Z</time></trkpt><trkpt lat="41.1817036" lon="-7.8881515"><ele>720.0</ele><time>2026-04-26T08:13:03.856Z</time></trkpt><trkpt lat="41.1818178" lon="-7.8881777"><ele>720.0</ele><time>2026-04-26T08:13:04.847Z</time></trkpt><trkpt lat="41.1819372" lon="-7.8882187"><ele>725.25</ele><time>2026-04-26T08:13:05.856Z</time></trkpt><trkpt lat="41.1820539" lon="-7.8882588"><ele>730.5</ele><time>2026-04-26T08:13:06.846Z</time></trkpt><trkpt lat="41.182174" lon="-7.8882958"><ele>735.75</ele><time>2026-04-26T08:13:07.857Z</time></trkpt><trkpt lat="41.1822918" lon="-7.8883296"><ele>741.0</ele><time>2026-04-26T08:13:08.85Z</time></trkpt><trkpt lat="41.1824057" lon="-7.8883562"><ele>739.5999999999999</ele><time>2026-04-26T08:13:09.848Z</time></trkpt><trkpt lat="41.1825158" lon="-7.8883699"><ele>738.2</ele><time>2026-04-26T08:13:10.851Z</time></trkpt><trkpt lat="41.1826245" lon="-7.8883821"><ele>736.8</ele><time>2026-04-26T08:13:11.853Z</time></trkpt><trkpt lat="41.1827314" lon="-7.8883997"><ele>735.4000000000001</ele><time>2026-04-26T08:13:12.853Z</time></trkpt><trkpt lat="41.1828299" lon="-7.888423"><ele>734.0</ele><time>2026-04-26T08:13:13.845Z</time></trkpt><trkpt lat="41.1829263" lon="-7.8884501"><ele>734.0</ele><time>2026-04-26T08:13:14.86Z</time></trkpt><trkpt lat="41.183021" lon="-7.8884753"><ele>734.0</ele><time>2026-04-26T08:13:15.852Z</time></trkpt><trkpt lat="41.1831109" lon="-7.8885014"><ele>734.0</ele><time>2026-04-26T08:13:16.843Z</time></trkpt><trkpt lat="41.1831937" lon="-7.8885289"><ele>734.0</ele><time>2026-04-26T08:13:17.844Z</time></trkpt><trkpt lat="41.1832876" lon="-7.8885635"><ele>734.0</ele><time>2026-04-26T08:13:18.848Z</time></trkpt><trkpt lat="41.1833884" lon="-7.8886092"><ele>738.2</ele><time>2026-04-26T08:13:19.845Z</time></trkpt><trkpt lat="41.1834864" lon="-7.8886733"><ele>742.4000000000001</ele><time>2026-04-26T08:13:20.848Z</time></trkpt><trkpt lat="41.183584" lon="-7.888741"><ele>746.6</ele><time>2026-04-26T08:13:21.844Z</time></trkpt><trkpt lat="41.1836808" lon="-7.8888106"><ele>750.8</ele><time>2026-04-26T08:13:22.847Z</time></trkpt><trkpt lat="41.1837773" lon="-7.8888801"><ele>755.0</ele><time>2026-04-26T08:13:23.842Z</time></trkpt><trkpt lat="41.1838716" lon="-7.8889499"><ele>755.0</ele><time>2026-04-26T08:13:24.859Z</time></trkpt><trkpt lat="41.1839586" lon="-7.8890243"><ele>755.0</ele><time>2026-04-26T08:13:25.844Z</time></trkpt><trkpt lat="41.184038" lon="-7.8890999"><ele>755.0</ele><time>2026-04-26T08:13:26.846Z</time></trkpt><trkpt lat="41.1841167" lon="-7.889167"><ele>755.0</ele><time>2026-04-26T08:13:27.845Z</time></trkpt><trkpt lat="41.184189" lon="-7.8892195"><ele>755.0</ele><time>2026-04-26T08:13:28.853Z</time></trkpt><trkpt lat="41.1842508" lon="-7.8892727"><ele>757.1666666666666</ele><time>2026-04-26T08:13:29.846Z</time></trkpt><trkpt lat="41.1843121" lon="-7.8893457"><ele>759.3333333333333</ele><time>2026-04-26T08:13:30.858Z</time></trkpt><trkpt lat="41.1843662" lon="-7.889437"><ele>761.5</ele><time>2026-04-26T08:13:31.847Z</time></trkpt><trkpt lat="41.1844151" lon="-7.8895419"><ele>763.6666666666666</ele><time>2026-04-26T08:13:32.846Z</time></trkpt><trkpt lat="41.1844615" lon="-7.8896488"><ele>765.8333333333334</ele><time>2026-04-26T08:13:33.843Z</time></trkpt><trkpt lat="41.184504" lon="-7.8897563"><ele>768.0</ele><time>2026-04-26T08:13:34.851Z</time></trkpt><trkpt lat="41.1845425" lon="-7.889867"><ele>768.0</ele><time>2026-04-26T08:13:35.843Z</time></trkpt><trkpt lat="41.1845652" lon="-7.8899876"><ele>768.0</ele><time>2026-04-26T08:13:36.849Z</time></trkpt><trkpt lat="41.1845812" lon="-7.890109"><ele>768.0</ele><time>2026-04-26T08:13:37.849Z</time></trkpt><trkpt lat="41.1845966" lon="-7.8902305"><ele>768.0</ele><time>2026-04-26T08:13:38.848Z</time></trkpt><trkpt lat="41.1845914" lon="-7.8903506"><ele>768.0</ele><time>2026-04-26T08:13:39.849Z</time></trkpt><trkpt lat="41.1845535" lon="-7.8904723"><ele>768.0</ele><time>2026-04-26T08:13:40.844Z</time></trkpt><trkpt lat="41.1845081" lon="-7.8905869"><ele>768.0</ele><time>2026-04-26T08:13:41.846Z</time></trkpt><trkpt lat="41.1844492" lon="-7.8906953"><ele>768.0</ele><time>2026-04-26T08:13:42.848Z</time></trkpt><trkpt lat="41.1843762" lon="-7.8907896"><ele>768.0</ele><time>2026-04-26T08:13:43.848Z</time></trkpt><trkpt lat="41.1842898" lon="-7.8908545"><ele>768.0</ele><time>2026-04-26T08:13:44.843Z</time></trkpt><trkpt lat="41.1842191" lon="-7.8909005"><ele>767.5</ele><time>2026-04-26T08:13:45.847Z</time></trkpt><trkpt lat="41.1841401" lon="-7.890976"><ele>767.0</ele><time>2026-04-26T08:13:47.847Z</time></trkpt><trkpt lat="41.1841217" lon="-7.891081"><ele>766.5</ele><time>2026-04-26T08:13:49.845Z</time></trkpt><trkpt lat="41.1841684" lon="-7.8911745"><ele>766.0</ele><time>2026-04-26T08:13:51.845Z</time></trkpt><trkpt lat="41.1842292" lon="-7.8912382"><ele>765.5</ele><time>2026-04-26T08:13:53.86Z</time></trkpt><trkpt lat="41.1843058" lon="-7.8912594"><ele>765.0</ele><time>2026-04-26T08:13:55.845Z</time></trkpt><trkpt lat="41.1844186" lon="-7.8912258"><ele>765.0</ele><time>2026-04-26T08:13:57.85Z</time></trkpt><trkpt lat="41.1845219" lon="-7.8912065"><ele>765.0</ele><time>2026-04-26T08:13:59.841Z</time></trkpt><trkpt lat="41.1845932" lon="-7.8912137"><ele>765.0</ele><time>2026-04-26T08:14:00.852Z</time></trkpt><trkpt lat="41.1846721" lon="-7.8912353"><ele>765.0</ele><time>2026-04-26T08:14:01.845Z</time></trkpt><trkpt lat="41.1847609" lon="-7.8912706"><ele>765.0</ele><time>2026-04-26T08:14:02.86Z</time></trkpt><trkpt lat="41.1848713" lon="-7.8913164"><ele>769.0</ele><time>2026-04-26T08:14:03.847Z</time></trkpt><trkpt lat="41.1849843" lon="-7.8913585"><ele>773.0</ele><time>2026-04-26T08:14:04.85Z</time></trkpt><trkpt lat="41.1850911" lon="-7.8913972"><ele>777.0</ele><time>2026-04-26T08:14:05.846Z</time></trkpt><trkpt lat="41.1851904" lon="-7.8914273"><ele>781.0</ele><time>2026-04-26T08:14:06.843Z</time></trkpt><trkpt lat="41.1852932" lon="-7.8914444"><ele>785.0</ele><time>2026-04-26T08:14:07.859Z</time></trkpt><trkpt lat="41.1853987" lon="-7.891452"><ele>785.0</ele><time>2026-04-26T08:14:08.85Z</time></trkpt><trkpt lat="41.1855074" lon="-7.8914529"><ele>785.0</ele><time>2026-04-26T08:14:09.854Z</time></trkpt><trkpt lat="41.1856082" lon="-7.8914555"><ele>785.0</ele><time>2026-04-26T08:14:10.856Z</time></trkpt><trkpt lat="41.1856997" lon="-7.8914645"><ele>785.0</ele><time>2026-04-26T08:14:11.848Z</time></trkpt><trkpt lat="41.1857918" lon="-7.8914802"><ele>785.0</ele><time>2026-04-26T08:14:12.846Z</time></trkpt><trkpt lat="41.1858779" lon="-7.8914929"><ele>788.0000000000001</ele><time>2026-04-26T08:14:13.856Z</time></trkpt><trkpt lat="41.1859555" lon="-7.8914916"><ele>791.0</ele><time>2026-04-26T08:14:14.855Z</time></trkpt><trkpt lat="41.186029" lon="-7.8914847"><ele>794.0</ele><time>2026-04-26T08:14:15.844Z</time></trkpt><trkpt lat="41.1860981" lon="-7.8914773"><ele>797.0</ele><time>2026-04-26T08:14:16.843Z</time></trkpt><trkpt lat="41.1862089" lon="-7.8914711"><ele>800.0000000000001</ele><time>2026-04-26T08:14:18.846Z</time></trkpt><trkpt lat="41.1862708" lon="-7.8914271"><ele>803.0</ele><time>2026-04-26T08:14:21.845Z</time></trkpt><trkpt lat="41.1862113" lon="-7.8913172"><ele>803.0000000000001</ele><time>2026-04-26T08:14:23.854Z</time></trkpt><trkpt lat="41.1861693" lon="-7.891243"><ele>803.0</ele><time>2026-04-26T08:14:24.847Z</time></trkpt><trkpt lat="41.1861368" lon="-7.891163"><ele>803.0</ele><time>2026-04-26T08:14:25.851Z</time></trkpt><trkpt lat="41.1861196" lon="-7.8910771"><ele>803.0</ele><time>2026-04-26T08:14:26.842Z</time></trkpt><trkpt lat="41.1861182" lon="-7.8909912"><ele>803.0000000000001</ele><time>2026-04-26T08:14:27.854Z</time></trkpt><trkpt lat="41.1861771" lon="-7.8908451"><ele>803.0</ele><time>2026-04-26T08:14:29.849Z</time></trkpt><trkpt lat="41.1862233" lon="-7.8907864"><ele>803.5</ele><time>2026-04-26T08:14:30.843Z</time></trkpt><trkpt lat="41.1863337" lon="-7.8907323"><ele>804.0</ele><time>2026-04-26T08:14:32.85Z</time></trkpt><trkpt lat="41.1864507" lon="-7.890731"><ele>804.5</ele><time>2026-04-26T08:14:34.847Z</time></trkpt><trkpt lat="41.1865647" lon="-7.8907447"><ele>805.0</ele><time>2026-04-26T08:14:36.846Z</time></trkpt><trkpt lat="41.1866773" lon="-7.8907537"><ele>808.8</ele><time>2026-04-26T08:14:38.843Z</time></trkpt><trkpt lat="41.186746" lon="-7.8907532"><ele>812.6</ele><time>2026-04-26T08:14:39.844Z</time></trkpt><trkpt lat="41.1868442" lon="-7.8907572"><ele>816.4000000000001</ele><time>2026-04-26T08:14:40.853Z</time></trkpt><trkpt lat="41.1869614" lon="-7.8907494"><ele>820.2</ele><time>2026-04-26T08:14:41.851Z</time></trkpt><trkpt lat="41.1870865" lon="-7.8907297"><ele>824.0</ele><time>2026-04-26T08:14:42.85Z</time></trkpt><trkpt lat="41.187229" lon="-7.8906855"><ele>826.0</ele><time>2026-04-26T08:14:43.843Z</time></trkpt><trkpt lat="41.1873939" lon="-7.8906217"><ele>828.0</ele><time>2026-04-26T08:14:44.845Z</time></trkpt><trkpt lat="41.1875547" lon="-7.8905666"><ele>830.0</ele><time>2026-04-26T08:14:45.846Z</time></trkpt><trkpt lat="41.1876997" lon="-7.8905206"><ele>830.0</ele><time>2026-04-26T08:14:46.858Z</time></trkpt><trkpt lat="41.1878344" lon="-7.8904955"><ele>830.0</ele><time>2026-04-26T08:14:47.85Z</time></trkpt><trkpt lat="41.1879484" lon="-7.8905032"><ele>830.0</ele><time>2026-04-26T08:14:48.852Z</time></trkpt><trkpt lat="41.1880417" lon="-7.8905011"><ele>830.0</ele><time>2026-04-26T08:14:49.847Z</time></trkpt><trkpt lat="41.1881502" lon="-7.8904977"><ele>832.4</ele><time>2026-04-26T08:14:50.843Z</time></trkpt><trkpt lat="41.1882518" lon="-7.8904966"><ele>834.8</ele><time>2026-04-26T08:14:51.848Z</time></trkpt><trkpt lat="41.1883596" lon="-7.8904991"><ele>837.2</ele><time>2026-04-26T08:14:52.843Z</time></trkpt><trkpt lat="41.1884764" lon="-7.8904985"><ele>839.6</ele><time>2026-04-26T08:14:53.858Z</time></trkpt><trkpt lat="41.1885829" lon="-7.8904934"><ele>842.0</ele><time>2026-04-26T08:14:54.844Z</time></trkpt><trkpt lat="41.1886829" lon="-7.8904857"><ele>842.0</ele><time>2026-04-26T08:14:55.845Z</time></trkpt><trkpt lat="41.1887817" lon="-7.8904767"><ele>842.0</ele><time>2026-04-26T08:14:56.852Z</time></trkpt><trkpt lat="41.1888762" lon="-7.8904649"><ele>842.0</ele><time>2026-04-26T08:14:57.852Z</time></trkpt><trkpt lat="41.1889684" lon="-7.8904543"><ele>842.0</ele><time>2026-04-26T08:14:58.844Z</time></trkpt><trkpt lat="41.1890627" lon="-7.8904444"><ele>842.0</ele><time>2026-04-26T08:14:59.859Z</time></trkpt><trkpt lat="41.1891571" lon="-7.8904311"><ele>845.4000000000001</ele><time>2026-04-26T08:15:00.844Z</time></trkpt><trkpt lat="41.1892529" lon="-7.890417"><ele>848.8000000000001</ele><time>2026-04-26T08:15:01.843Z</time></trkpt><trkpt lat="41.1893502" lon="-7.8904083"><ele>852.2</ele><time>2026-04-26T08:15:02.851Z</time></trkpt><trkpt lat="41.189447" lon="-7.8903953"><ele>855.6</ele><time>2026-04-26T08:15:03.846Z</time></trkpt><trkpt lat="41.1895457" lon="-7.8903883"><ele>859.0</ele><time>2026-04-26T08:15:04.845Z</time></trkpt><trkpt lat="41.1896458" lon="-7.890377"><ele>859.0</ele><time>2026-04-26T08:15:05.848Z</time></trkpt><trkpt lat="41.1897454" lon="-7.8903541"><ele>859.0000000000001</ele><time>2026-04-26T08:15:06.85Z</time></trkpt><trkpt lat="41.1898517" lon="-7.8903273"><ele>859.0000000000001</ele><time>2026-04-26T08:15:07.852Z</time></trkpt><trkpt lat="41.1899569" lon="-7.8903046"><ele>859.0</ele><time>2026-04-26T08:15:08.844Z</time></trkpt><trkpt lat="41.1900614" lon="-7.8902772"><ele>859.0</ele><time>2026-04-26T08:15:09.846Z</time></trkpt><trkpt lat="41.1901678" lon="-7.890246"><ele>859.75</ele><time>2026-04-26T08:15:10.842Z</time></trkpt><trkpt lat="41.1902823" lon="-7.8902115"><ele>860.5</ele><time>2026-04-26T08:15:11.843Z</time></trkpt><trkpt lat="41.1904055" lon="-7.8901835"><ele>861.25</ele><time>2026-04-26T08:15:12.843Z</time></trkpt><trkpt lat="41.1905362" lon="-7.8901502"><ele>862.0</ele><time>2026-04-26T08:15:13.853Z</time></trkpt><trkpt lat="41.1906633" lon="-7.8901117"><ele>870.25</ele><time>2026-04-26T08:15:14.852Z</time></trkpt><trkpt lat="41.1907856" lon="-7.8900744"><ele>878.5</ele><time>2026-04-26T08:15:15.85Z</time></trkpt><trkpt lat="41.1909026" lon="-7.8900326"><ele>886.75</ele><time>2026-04-26T08:15:16.855Z</time></trkpt><trkpt lat="41.1910174" lon="-7.8899874"><ele>895.0</ele><time>2026-04-26T08:15:17.839Z</time></trkpt><trkpt lat="41.1911296" lon="-7.8899349"><ele>895.0</ele><time>2026-04-26T08:15:18.847Z</time></trkpt><trkpt lat="41.1912415" lon="-7.8898761"><ele>895.0</ele><time>2026-04-26T08:15:19.855Z</time></trkpt><trkpt lat="41.1913555" lon="-7.8898005"><ele>895.0</ele><time>2026-04-26T08:15:20.84Z</time></trkpt><trkpt lat="41.1914729" lon="-7.8897137"><ele>895.0</ele><time>2026-04-26T08:15:21.855Z</time></trkpt><trkpt lat="41.1915802" lon="-7.8896339"><ele>896.4</ele><time>2026-04-26T08:15:22.854Z</time></trkpt><trkpt lat="41.1916742" lon="-7.889566"><ele>897.8</ele><time>2026-04-26T08:15:23.848Z</time></trkpt><trkpt lat="41.1917593" lon="-7.8894919"><ele>899.2</ele><time>2026-04-26T08:15:24.851Z</time></trkpt><trkpt lat="41.1918384" lon="-7.8894123"><ele>900.6</ele><time>2026-04-26T08:15:25.862Z</time></trkpt><trkpt lat="41.1919148" lon="-7.8893374"><ele>902.0</ele><time>2026-04-26T08:15:26.854Z</time></trkpt><trkpt lat="41.191997" lon="-7.8892732"><ele>904.4000000000001</ele><time>2026-04-26T08:15:27.844Z</time></trkpt><trkpt lat="41.1920941" lon="-7.8892176"><ele>906.8000000000001</ele><time>2026-04-26T08:15:28.844Z</time></trkpt><trkpt lat="41.1921984" lon="-7.8891739"><ele>909.2</ele><time>2026-04-26T08:15:29.848Z</time></trkpt><trkpt lat="41.1923041" lon="-7.8891402"><ele>911.6</ele><time>2026-04-26T08:15:30.849Z</time></trkpt><trkpt lat="41.192412" lon="-7.8891117"><ele>914.0</ele><time>2026-04-26T08:15:31.841Z</time></trkpt><trkpt lat="41.1925234" lon="-7.8890842"><ele>915.4000000000001</ele><time>2026-04-26T08:15:32.855Z</time></trkpt><trkpt lat="41.1926253" lon="-7.8890557"><ele>916.8000000000001</ele><time>2026-04-26T08:15:33.855Z</time></trkpt><trkpt lat="41.192724" lon="-7.889031"><ele>918.1999999999999</ele><time>2026-04-26T08:15:34.848Z</time></trkpt><trkpt lat="41.1928182" lon="-7.8890166"><ele>919.5999999999999</ele><time>2026-04-26T08:15:35.844Z</time></trkpt><trkpt lat="41.1929111" lon="-7.8890234"><ele>921.0</ele><time>2026-04-26T08:15:36.844Z</time></trkpt><trkpt lat="41.1930064" lon="-7.8890479"><ele>921.0</ele><time>2026-04-26T08:15:37.862Z</time></trkpt><trkpt lat="41.1931008" lon="-7.8890843"><ele>920.9999999999999</ele><time>2026-04-26T08:15:38.849Z</time></trkpt><trkpt lat="41.1931968" lon="-7.8891286"><ele>920.9999999999999</ele><time>2026-04-26T08:15:39.847Z</time></trkpt><trkpt lat="41.1932954" lon="-7.889177"><ele>921.0</ele><time>2026-04-26T08:15:40.85Z</time></trkpt><trkpt lat="41.1933992" lon="-7.8892296"><ele>921.0</ele><time>2026-04-26T08:15:41.843Z</time></trkpt><trkpt lat="41.1935069" lon="-7.8892786"><ele>921.5</ele><time>2026-04-26T08:15:42.857Z</time></trkpt><trkpt lat="41.1936168" lon="-7.8893285"><ele>922.0</ele><time>2026-04-26T08:15:43.844Z</time></trkpt><trkpt lat="41.1937325" lon="-7.8893744"><ele>922.5</ele><time>2026-04-26T08:15:44.847Z</time></trkpt><trkpt lat="41.193848" lon="-7.8894205"><ele>923.0</ele><time>2026-04-26T08:15:45.851Z</time></trkpt><trkpt lat="41.1939727" lon="-7.889466"><ele>925.5</ele><time>2026-04-26T08:15:46.856Z</time></trkpt><trkpt lat="41.1940994" lon="-7.8895129"><ele>928.0</ele><time>2026-04-26T08:15:47.847Z</time></trkpt><trkpt lat="41.1942292" lon="-7.8895577"><ele>930.5</ele><time>2026-04-26T08:15:48.843Z</time></trkpt><trkpt lat="41.1943627" lon="-7.8896007"><ele>933.0</ele><time>2026-04-26T08:15:49.852Z</time></trkpt><trkpt lat="41.1945077" lon="-7.8896546"><ele>933.0</ele><time>2026-04-26T08:15:50.85Z</time></trkpt><trkpt lat="41.1946534" lon="-7.8897166"><ele>933.0</ele><time>2026-04-26T08:15:51.845Z</time></trkpt><trkpt lat="41.1947706" lon="-7.8897567"><ele>933.0</ele><time>2026-04-26T08:15:52.856Z</time></trkpt><trkpt lat="41.1948997" lon="-7.889799"><ele>933.0</ele><time>2026-04-26T08:15:53.843Z</time></trkpt><trkpt lat="41.1950064" lon="-7.8898466"><ele>934.8</ele><time>2026-04-26T08:15:54.846Z</time></trkpt><trkpt lat="41.1951212" lon="-7.8898981"><ele>936.5999999999999</ele><time>2026-04-26T08:15:55.846Z</time></trkpt><trkpt lat="41.1952229" lon="-7.8899383"><ele>938.4000000000001</ele><time>2026-04-26T08:15:56.847Z</time></trkpt><trkpt lat="41.1953134" lon="-7.8899683"><ele>940.2</ele><time>2026-04-26T08:15:57.852Z</time></trkpt><trkpt lat="41.1954221" lon="-7.8899904"><ele>942.0</ele><time>2026-04-26T08:15:58.847Z</time></trkpt><trkpt lat="41.1955257" lon="-7.8900141"><ele>942.0</ele><time>2026-04-26T08:15:59.845Z</time></trkpt><trkpt lat="41.1956289" lon="-7.890041"><ele>942.0</ele><time>2026-04-26T08:16:00.845Z</time></trkpt><trkpt lat="41.1957325" lon="-7.8900681"><ele>942.0</ele><time>2026-04-26T08:16:01.848Z</time></trkpt><trkpt lat="41.1958424" lon="-7.8900968"><ele>942.0</ele><time>2026-04-26T08:16:02.849Z</time></trkpt><trkpt lat="41.195948" lon="-7.8901143"><ele>942.0</ele><time>2026-04-26T08:16:03.845Z</time></trkpt><trkpt lat="41.196061" lon="-7.8901228"><ele>943.75</ele><time>2026-04-26T08:16:04.841Z</time></trkpt><trkpt lat="41.1961785" lon="-7.8901222"><ele>945.5</ele><time>2026-04-26T08:16:05.859Z</time></trkpt><trkpt lat="41.196293" lon="-7.890114"><ele>947.25</ele><time>2026-04-26T08:16:06.848Z</time></trkpt><trkpt lat="41.1964047" lon="-7.8901008"><ele>949.0</ele><time>2026-04-26T08:16:07.851Z</time></trkpt><trkpt lat="41.1965145" lon="-7.89008"><ele>952.2</ele><time>2026-04-26T08:16:08.846Z</time></trkpt><trkpt lat="41.1966235" lon="-7.890041"><ele>955.4000000000001</ele><time>2026-04-26T08:16:09.845Z</time></trkpt><trkpt lat="41.1967265" lon="-7.8899858"><ele>958.6</ele><time>2026-04-26T08:16:10.854Z</time></trkpt><trkpt lat="41.1968141" lon="-7.8899026"><ele>961.8</ele><time>2026-04-26T08:16:11.846Z</time></trkpt><trkpt lat="41.1968955" lon="-7.8897963"><ele>965.0</ele><time>2026-04-26T08:16:12.84Z</time></trkpt><trkpt lat="41.1969805" lon="-7.8896986"><ele>965.0</ele><time>2026-04-26T08:16:13.843Z</time></trkpt><trkpt lat="41.1970735" lon="-7.8896126"><ele>965.0</ele><time>2026-04-26T08:16:14.845Z</time></trkpt><trkpt lat="41.1971775" lon="-7.8895441"><ele>965.0</ele><time>2026-04-26T08:16:15.858Z</time></trkpt><trkpt lat="41.1972948" lon="-7.8894774"><ele>965.0</ele><time>2026-04-26T08:16:16.848Z</time></trkpt><trkpt lat="41.1974167" lon="-7.8894175"><ele>968.75</ele><time>2026-04-26T08:16:17.842Z</time></trkpt><trkpt lat="41.1975413" lon="-7.8893659"><ele>972.5</ele><time>2026-04-26T08:16:18.846Z</time></trkpt><trkpt lat="41.1976593" lon="-7.8893194"><ele>976.25</ele><time>2026-04-26T08:16:19.839Z</time></trkpt><trkpt lat="41.1977708" lon="-7.8892914"><ele>980.0</ele><time>2026-04-26T08:16:20.842Z</time></trkpt><trkpt lat="41.1978692" lon="-7.889284"><ele>980.0</ele><time>2026-04-26T08:16:21.856Z</time></trkpt><trkpt lat="41.1979553" lon="-7.8892942"><ele>980.0</ele><time>2026-04-26T08:16:22.852Z</time></trkpt><trkpt lat="41.1980344" lon="-7.8893136"><ele>980.0</ele><time>2026-04-26T08:16:23.859Z</time></trkpt><trkpt lat="41.1981102" lon="-7.8893492"><ele>980.0</ele><time>2026-04-26T08:16:24.845Z</time></trkpt><trkpt lat="41.1981799" lon="-7.8894326"><ele>980.0</ele><time>2026-04-26T08:16:25.844Z</time></trkpt><trkpt lat="41.1982478" lon="-7.8895493"><ele>982.6</ele><time>2026-04-26T08:16:26.849Z</time></trkpt><trkpt lat="41.1983142" lon="-7.8896613"><ele>985.2</ele><time>2026-04-26T08:16:27.855Z</time></trkpt><trkpt lat="41.1983815" lon="-7.8897543"><ele>987.8</ele><time>2026-04-26T08:16:28.845Z</time></trkpt><trkpt lat="41.1984553" lon="-7.889833"><ele>990.4</ele><time>2026-04-26T08:16:29.842Z</time></trkpt><trkpt lat="41.1985382" lon="-7.8898882"><ele>993.0</ele><time>2026-04-26T08:16:30.848Z</time></trkpt><trkpt lat="41.1986197" lon="-7.889942"><ele>993.0</ele><time>2026-04-26T08:16:31.846Z</time></trkpt><trkpt lat="41.1987003" lon="-7.8899908"><ele>993.0</ele><time>2026-04-26T08:16:32.855Z</time></trkpt><trkpt lat="41.1987938" lon="-7.8900238"><ele>993.0</ele><time>2026-04-26T08:16:33.852Z</time></trkpt><trkpt lat="41.198893" lon="-7.8900468"><ele>993.0</ele><time>2026-04-26T08:16:34.842Z</time></trkpt><trkpt lat="41.1990009" lon="-7.8900649"><ele>993.0</ele><time>2026-04-26T08:16:35.859Z</time></trkpt><trkpt lat="41.1991123" lon="-7.8900833"><ele>991.5</ele><time>2026-04-26T08:16:36.851Z</time></trkpt><trkpt lat="41.1992265" lon="-7.8900928"><ele>990.0</ele><time>2026-04-26T08:16:37.851Z</time></trkpt><trkpt lat="41.1993505" lon="-7.8900942"><ele>988.5</ele><time>2026-04-26T08:16:38.852Z</time></trkpt><trkpt lat="41.199484" lon="-7.8900877"><ele>987.0</ele><time>2026-04-26T08:16:39.857Z</time></trkpt><trkpt lat="41.1996182" lon="-7.8900762"><ele>990.75</ele><time>2026-04-26T08:16:40.853Z</time></trkpt><trkpt lat="41.1997486" lon="-7.8900679"><ele>994.5</ele><time>2026-04-26T08:16:41.845Z</time></trkpt><trkpt lat="41.1998708" lon="-7.8900513"><ele>998.25</ele><time>2026-04-26T08:16:42.847Z</time></trkpt><trkpt lat="41.1999948" lon="-7.8900408"><ele>1002.0</ele><time>2026-04-26T08:16:43.843Z</time></trkpt><trkpt lat="41.2001227" lon="-7.8900358"><ele>1001.0</ele><time>2026-04-26T08:16:44.866Z</time></trkpt><trkpt lat="41.2002484" lon="-7.8900422"><ele>1000.0</ele><time>2026-04-26T08:16:45.852Z</time></trkpt><trkpt lat="41.2003723" lon="-7.8900632"><ele>999.0</ele><time>2026-04-26T08:16:46.842Z</time></trkpt><trkpt lat="41.2004961" lon="-7.8900933"><ele>998.0</ele><time>2026-04-26T08:16:47.846Z</time></trkpt><trkpt lat="41.2006177" lon="-7.8901215"><ele>1001.5</ele><time>2026-04-26T08:16:48.859Z</time></trkpt><trkpt lat="41.2007325" lon="-7.8901506"><ele>1005.0</ele><time>2026-04-26T08:16:49.849Z</time></trkpt><trkpt lat="41.2008464" lon="-7.8901816"><ele>1008.5</ele><time>2026-04-26T08:16:50.842Z</time></trkpt><trkpt lat="41.200964" lon="-7.8902112"><ele>1012.0</ele><time>2026-04-26T08:16:51.84Z</time></trkpt><trkpt lat="41.2010812" lon="-7.8902308"><ele>1012.0</ele><time>2026-04-26T08:16:52.841Z</time></trkpt><trkpt lat="41.2011988" lon="-7.8902416"><ele>1012.0</ele><time>2026-04-26T08:16:53.846Z</time></trkpt><trkpt lat="41.2013202" lon="-7.8902468"><ele>1012.0</ele><time>2026-04-26T08:16:54.843Z</time></trkpt><trkpt lat="41.2014384" lon="-7.8902479"><ele>1012.0</ele><time>2026-04-26T08:16:55.844Z</time></trkpt><trkpt lat="41.2015481" lon="-7.8902486"><ele>1014.4000000000001</ele><time>2026-04-26T08:16:56.853Z</time></trkpt><trkpt lat="41.2016509" lon="-7.8902511"><ele>1016.8000000000001</ele><time>2026-04-26T08:16:57.85Z</time></trkpt><trkpt lat="41.2017541" lon="-7.8902514"><ele>1019.2</ele><time>2026-04-26T08:16:58.845Z</time></trkpt><trkpt lat="41.2018529" lon="-7.8902554"><ele>1021.6</ele><time>2026-04-26T08:16:59.842Z</time></trkpt><trkpt lat="41.201945" lon="-7.8902678"><ele>1024.0</ele><time>2026-04-26T08:17:00.848Z</time></trkpt><trkpt lat="41.2020334" lon="-7.8902948"><ele>1023.9999999999999</ele><time>2026-04-26T08:17:01.85Z</time></trkpt><trkpt lat="41.2021173" lon="-7.8903387"><ele>1024.0</ele><time>2026-04-26T08:17:02.847Z</time></trkpt><trkpt lat="41.2022095" lon="-7.8903861"><ele>1024.0</ele><time>2026-04-26T08:17:03.848Z</time></trkpt><trkpt lat="41.202296" lon="-7.8904315"><ele>1024.0</ele><time>2026-04-26T08:17:04.846Z</time></trkpt><trkpt lat="41.2023788" lon="-7.8904674"><ele>1023.9999999999999</ele><time>2026-04-26T08:17:05.846Z</time></trkpt><trkpt lat="41.202456" lon="-7.890492"><ele>1024.0</ele><time>2026-04-26T08:17:06.847Z</time></trkpt><trkpt lat="41.2025329" lon="-7.8905037"><ele>1025.0</ele><time>2026-04-26T08:17:07.859Z</time></trkpt><trkpt lat="41.2026142" lon="-7.8905108"><ele>1026.0</ele><time>2026-04-26T08:17:08.849Z</time></trkpt><trkpt lat="41.2026964" lon="-7.8905133"><ele>1027.0</ele><time>2026-04-26T08:17:09.842Z</time></trkpt><trkpt lat="41.2027869" lon="-7.8905162"><ele>1028.0</ele><time>2026-04-26T08:17:10.84Z</time></trkpt><trkpt lat="41.2028798" lon="-7.8905277"><ele>1029.0</ele><time>2026-04-26T08:17:11.858Z</time></trkpt><trkpt lat="41.2029738" lon="-7.890543"><ele>1030.0</ele><time>2026-04-26T08:17:12.85Z</time></trkpt><trkpt lat="41.2030653" lon="-7.8905733"><ele>1030.0</ele><time>2026-04-26T08:17:13.844Z</time></trkpt><trkpt lat="41.2031547" lon="-7.8906131"><ele>1030.0</ele><time>2026-04-26T08:17:14.85Z</time></trkpt><trkpt lat="41.203248" lon="-7.8906599"><ele>1030.0</ele><time>2026-04-26T08:17:15.848Z</time></trkpt><trkpt lat="41.2033419" lon="-7.8907381"><ele>1030.0</ele><time>2026-04-26T08:17:16.853Z</time></trkpt><trkpt lat="41.2034288" lon="-7.8908201"><ele>1030.0</ele><time>2026-04-26T08:17:17.847Z</time></trkpt><trkpt lat="41.2035138" lon="-7.8908955"><ele>1030.1666666666665</ele><time>2026-04-26T08:17:18.844Z</time></trkpt><trkpt lat="41.2035961" lon="-7.8909641"><ele>1030.3333333333333</ele><time>2026-04-26T08:17:19.846Z</time></trkpt><trkpt lat="41.2036656" lon="-7.891021"><ele>1030.5</ele><time>2026-04-26T08:17:20.849Z</time></trkpt><trkpt lat="41.2037352" lon="-7.8910624"><ele>1030.6666666666667</ele><time>2026-04-26T08:17:21.85Z</time></trkpt><trkpt lat="41.2038059" lon="-7.8910844"><ele>1030.8333333333335</ele><time>2026-04-26T08:17:22.85Z</time></trkpt><trkpt lat="41.2038776" lon="-7.8910925"><ele>1031.0</ele><time>2026-04-26T08:17:23.846Z</time></trkpt><trkpt lat="41.2039488" lon="-7.8910949"><ele>1034.2</ele><time>2026-04-26T08:17:24.846Z</time></trkpt><trkpt lat="41.2040558" lon="-7.891039"><ele>1037.3999999999999</ele><time>2026-04-26T08:17:26.855Z</time></trkpt><trkpt lat="41.2041665" lon="-7.8909785"><ele>1040.6</ele><time>2026-04-26T08:17:28.849Z</time></trkpt><trkpt lat="41.2042541" lon="-7.8909279"><ele>1043.8</ele><time>2026-04-26T08:17:30.844Z</time></trkpt><trkpt lat="41.204305" lon="-7.8908638"><ele>1047.0</ele><time>2026-04-26T08:17:32.843Z</time></trkpt><trkpt lat="41.2043171" lon="-7.8907514"><ele>1047.0</ele><time>2026-04-26T08:17:35.849Z</time></trkpt><trkpt lat="41.2042486" lon="-7.8907251"><ele>1047.0</ele><time>2026-04-26T08:17:55.839Z</time></trkpt><trkpt lat="41.204277" lon="-7.8906415"><ele>1047.0</ele><time>2026-04-26T08:17:58.838Z</time></trkpt><trkpt lat="41.2043994" lon="-7.8905754"><ele>1047.0</ele><time>2026-04-26T08:18:00.852Z</time></trkpt><trkpt lat="41.2044883" lon="-7.8905446"><ele>1047.0</ele><time>2026-04-26T08:18:01.846Z</time></trkpt><trkpt lat="41.204575" lon="-7.8905183"><ele>1047.0</ele><time>2026-04-26T08:18:02.844Z</time></trkpt><trkpt lat="41.2046587" lon="-7.8904985"><ele>1047.0</ele><time>2026-04-26T08:18:03.848Z</time></trkpt><trkpt lat="41.2047362" lon="-7.8904598"><ele>1047.0</ele><time>2026-04-26T08:18:04.849Z</time></trkpt><trkpt lat="41.2048035" lon="-7.8904143"><ele>1047.0</ele><time>2026-04-26T08:18:05.853Z</time></trkpt><trkpt lat="41.2048713" lon="-7.8903648"><ele>1047.0</ele><time>2026-04-26T08:18:06.852Z</time></trkpt><trkpt lat="41.2049312" lon="-7.8903048"><ele>1047.0</ele><time>2026-04-26T08:18:07.843Z</time></trkpt><trkpt lat="41.2049936" lon="-7.8902434"><ele>1050.0</ele><time>2026-04-26T08:18:08.852Z</time></trkpt><trkpt lat="41.2050613" lon="-7.8901869"><ele>1053.0</ele><time>2026-04-26T08:18:09.848Z</time></trkpt><trkpt lat="41.2051315" lon="-7.8901379"><ele>1056.0</ele><time>2026-04-26T08:18:10.841Z</time></trkpt><trkpt lat="41.2052015" lon="-7.8900985"><ele>1059.0</ele><time>2026-04-26T08:18:11.856Z</time></trkpt><trkpt lat="41.2052649" lon="-7.8900609"><ele>1062.0</ele><time>2026-04-26T08:18:12.856Z</time></trkpt><trkpt lat="41.2053323" lon="-7.8900231"><ele>1065.0</ele><time>2026-04-26T08:18:13.852Z</time></trkpt><trkpt lat="41.2054037" lon="-7.8899805"><ele>1066.2</ele><time>2026-04-26T08:18:14.847Z</time></trkpt><trkpt lat="41.2054821" lon="-7.8899315"><ele>1067.4</ele><time>2026-04-26T08:18:15.845Z</time></trkpt><trkpt lat="41.2055664" lon="-7.8898739"><ele>1068.6</ele><time>2026-04-26T08:18:16.844Z</time></trkpt><trkpt lat="41.2056552" lon="-7.8898134"><ele>1069.8</ele><time>2026-04-26T08:18:17.844Z</time></trkpt><trkpt lat="41.205748" lon="-7.8897479"><ele>1071.0</ele><time>2026-04-26T08:18:18.853Z</time></trkpt><trkpt lat="41.2058393" lon="-7.8896827"><ele>1074.6666666666667</ele><time>2026-04-26T08:18:19.857Z</time></trkpt><trkpt lat="41.2059247" lon="-7.8896318"><ele>1078.3333333333333</ele><time>2026-04-26T08:18:20.851Z</time></trkpt><trkpt lat="41.2060028" lon="-7.8895925"><ele>1082.0</ele><time>2026-04-26T08:18:21.841Z</time></trkpt><trkpt lat="41.2060736" lon="-7.8895568"><ele>1085.6666666666665</ele><time>2026-04-26T08:18:22.844Z</time></trkpt><trkpt lat="41.2061444" lon="-7.889526"><ele>1089.3333333333333</ele><time>2026-04-26T08:18:23.844Z</time></trkpt><trkpt lat="41.2062208" lon="-7.8895056"><ele>1093.0</ele><time>2026-04-26T08:18:24.852Z</time></trkpt><trkpt lat="41.2063063" lon="-7.8894788"><ele>1093.0</ele><time>2026-04-26T08:18:25.843Z</time></trkpt><trkpt lat="41.2063926" lon="-7.8894605"><ele>1093.0</ele><time>2026-04-26T08:18:26.855Z</time></trkpt><trkpt lat="41.2064737" lon="-7.8894494"><ele>1093.0</ele><time>2026-04-26T08:18:27.842Z</time></trkpt><trkpt lat="41.20655" lon="-7.8894504"><ele>1093.0</ele><time>2026-04-26T08:18:28.839Z</time></trkpt><trkpt lat="41.2066287" lon="-7.8894614"><ele>1093.0</ele><time>2026-04-26T08:18:29.851Z</time></trkpt><trkpt lat="41.2067088" lon="-7.8894713"><ele>1093.0</ele><time>2026-04-26T08:18:30.85Z</time></trkpt><trkpt lat="41.2067891" lon="-7.8894704"><ele>1097.0</ele><time>2026-04-26T08:18:31.839Z</time></trkpt><trkpt lat="41.2068717" lon="-7.889465"><ele>1101.0</ele><time>2026-04-26T08:18:32.847Z</time></trkpt><trkpt lat="41.206955" lon="-7.8894648"><ele>1105.0</ele><time>2026-04-26T08:18:33.848Z</time></trkpt><trkpt lat="41.2070438" lon="-7.8894644"><ele>1109.0</ele><time>2026-04-26T08:18:34.851Z</time></trkpt><trkpt lat="41.2071243" lon="-7.8894655"><ele>1113.0</ele><time>2026-04-26T08:18:35.842Z</time></trkpt><trkpt lat="41.2071943" lon="-7.8894771"><ele>1117.0</ele><time>2026-04-26T08:18:36.846Z</time></trkpt><trkpt lat="41.2072638" lon="-7.8894917"><ele>1121.8333333333333</ele><time>2026-04-26T08:18:37.848Z</time></trkpt><trkpt lat="41.2073708" lon="-7.8895128"><ele>1126.6666666666665</ele><time>2026-04-26T08:18:39.844Z</time></trkpt><trkpt lat="41.2073977" lon="-7.8895985"><ele>1131.5</ele><time>2026-04-26T08:18:44.856Z</time></trkpt><trkpt lat="41.2074279" lon="-7.8897076"><ele>1136.3333333333333</ele><time>2026-04-26T08:20:26.846Z</time></trkpt><trkpt lat="41.2074562" lon="-7.8897836"><ele>1141.1666666666667</ele><time>2026-04-26T08:20:28.844Z</time></trkpt><trkpt lat="41.2075016" lon="-7.8898792"><ele>1146.0</ele><time>2026-04-26T08:20:30.85Z</time></trkpt><trkpt lat="41.2075538" lon="-7.8899816"><ele>1146.0</ele><time>2026-04-26T08:20:32.841Z</time></trkpt><trkpt lat="41.2076003" lon="-7.8900873"><ele>1146.0</ele><time>2026-04-26T08:20:34.856Z</time></trkpt><trkpt lat="41.2076556" lon="-7.8902032"><ele>1146.0</ele><time>2026-04-26T08:20:36.859Z</time></trkpt><trkpt lat="41.2077213" lon="-7.8903427"><ele>1146.0</ele><time>2026-04-26T08:20:38.847Z</time></trkpt><trkpt lat="41.2077558" lon="-7.8904279"><ele>1146.0</ele><time>2026-04-26T08:20:39.847Z</time></trkpt><trkpt lat="41.2077851" lon="-7.8905138"><ele>1145.8333333333333</ele><time>2026-04-26T08:20:40.85Z</time></trkpt><trkpt lat="41.2078177" lon="-7.890603"><ele>1145.6666666666667</ele><time>2026-04-26T08:20:41.853Z</time></trkpt><trkpt lat="41.2078529" lon="-7.8906937"><ele>1145.5</ele><time>2026-04-26T08:20:42.842Z</time></trkpt><trkpt lat="41.2078924" lon="-7.8907836"><ele>1145.3333333333335</ele><time>2026-04-26T08:20:43.854Z</time></trkpt><trkpt lat="41.2079387" lon="-7.8908695"><ele>1145.1666666666667</ele><time>2026-04-26T08:20:44.844Z</time></trkpt><trkpt lat="41.2079961" lon="-7.8909558"><ele>1145.0</ele><time>2026-04-26T08:20:45.842Z</time></trkpt><trkpt lat="41.208049" lon="-7.8910407"><ele>1146.0</ele><time>2026-04-26T08:20:46.839Z</time></trkpt><trkpt lat="41.2080954" lon="-7.8911176"><ele>1147.0</ele><time>2026-04-26T08:20:47.843Z</time></trkpt><trkpt lat="41.2081774" lon="-7.8912317"><ele>1148.0</ele><time>2026-04-26T08:20:49.85Z</time></trkpt><trkpt lat="41.2082524" lon="-7.8913298"><ele>1149.0</ele><time>2026-04-26T08:20:51.848Z</time></trkpt><trkpt lat="41.2082932" lon="-7.8914389"><ele>1150.0</ele><time>2026-04-26T08:20:53.842Z</time></trkpt><trkpt lat="41.2083348" lon="-7.8915506"><ele>1154.3333333333333</ele><time>2026-04-26T08:20:55.852Z</time></trkpt><trkpt lat="41.2083924" lon="-7.8916467"><ele>1158.6666666666665</ele><time>2026-04-26T08:20:57.838Z</time></trkpt><trkpt lat="41.2084575" lon="-7.8917363"><ele>1163.0</ele><time>2026-04-26T08:20:59.844Z</time></trkpt><trkpt lat="41.2085249" lon="-7.8918096"><ele>1167.3333333333333</ele><time>2026-04-26T08:21:01.849Z</time></trkpt><trkpt lat="41.2085907" lon="-7.8918136"><ele>1171.6666666666667</ele><time>2026-04-26T08:21:03.84Z</time></trkpt><trkpt lat="41.2086199" lon="-7.8917102"><ele>1176.0</ele><time>2026-04-26T08:21:05.847Z</time></trkpt><trkpt lat="41.2085996" lon="-7.8915547"><ele>1176.0</ele><time>2026-04-26T08:21:07.841Z</time></trkpt><trkpt lat="41.2085855" lon="-7.8914689"><ele>1176.0</ele><time>2026-04-26T08:21:08.845Z</time></trkpt><trkpt lat="41.2085781" lon="-7.8913738"><ele>1176.0</ele><time>2026-04-26T08:21:09.842Z</time></trkpt><trkpt lat="41.2085761" lon="-7.8912786"><ele>1176.0</ele><time>2026-04-26T08:21:10.845Z</time></trkpt><trkpt lat="41.2085763" lon="-7.891184"><ele>1176.0</ele><time>2026-04-26T08:21:11.844Z</time></trkpt><trkpt lat="41.2085763" lon="-7.89108"><ele>1176.0</ele><time>2026-04-26T08:21:12.848Z</time></trkpt><trkpt lat="41.2085731" lon="-7.8909845"><ele>1176.0</ele><time>2026-04-26T08:21:13.838Z</time></trkpt><trkpt lat="41.2085713" lon="-7.8908824"><ele>1176.1666666666667</ele><time>2026-04-26T08:21:14.86Z</time></trkpt><trkpt lat="41.2085765" lon="-7.890781"><ele>1176.3333333333333</ele><time>2026-04-26T08:21:15.841Z</time></trkpt><trkpt lat="41.2085916" lon="-7.8906807"><ele>1176.5</ele><time>2026-04-26T08:21:16.841Z</time></trkpt><trkpt lat="41.2086105" lon="-7.8905765"><ele>1176.6666666666665</ele><time>2026-04-26T08:21:17.853Z</time></trkpt><trkpt lat="41.2086366" lon="-7.8904794"><ele>1176.8333333333333</ele><time>2026-04-26T08:21:18.85Z</time></trkpt><trkpt lat="41.2086694" lon="-7.8903877"><ele>1177.0</ele><time>2026-04-26T08:21:19.842Z</time></trkpt><trkpt lat="41.2087079" lon="-7.8902943"><ele>1177.0</ele><time>2026-04-26T08:21:20.853Z</time></trkpt><trkpt lat="41.2087526" lon="-7.8902041"><ele>1177.0</ele><time>2026-04-26T08:21:21.848Z</time></trkpt><trkpt lat="41.2087946" lon="-7.8901116"><ele>1177.0</ele><time>2026-04-26T08:21:22.839Z</time></trkpt><trkpt lat="41.2088328" lon="-7.8900239"><ele>1177.0</ele><time>2026-04-26T08:21:23.845Z</time></trkpt><trkpt lat="41.2088716" lon="-7.8899522"><ele>1177.0</ele><time>2026-04-26T08:21:24.848Z</time></trkpt><trkpt lat="41.2089605" lon="-7.8899184"><ele>1177.0</ele><time>2026-04-26T08:21:26.849Z</time></trkpt><trkpt lat="41.2090389" lon="-7.8900457"><ele>1182.3333333333333</ele><time>2026-04-26T08:21:28.848Z</time></trkpt><trkpt lat="41.2090709" lon="-7.8901377"><ele>1187.6666666666665</ele><time>2026-04-26T08:21:29.842Z</time></trkpt><trkpt lat="41.2091056" lon="-7.89024"><ele>1193.0</ele><time>2026-04-26T08:21:30.85Z</time></trkpt><trkpt lat="41.2091447" lon="-7.8903416"><ele>1198.3333333333333</ele><time>2026-04-26T08:21:31.858Z</time></trkpt><trkpt lat="41.2091811" lon="-7.8904365"><ele>1203.6666666666667</ele><time>2026-04-26T08:21:32.842Z</time></trkpt><trkpt lat="41.2092164" lon="-7.8905222"><ele>1209.0</ele><time>2026-04-26T08:21:33.844Z</time></trkpt><trkpt lat="41.209257" lon="-7.8906001"><ele>1209.0</ele><time>2026-04-26T08:21:34.849Z</time></trkpt><trkpt lat="41.2093046" lon="-7.8906667"><ele>1209.0</ele><time>2026-04-26T08:21:35.841Z</time></trkpt><trkpt lat="41.2093605" lon="-7.8907249"><ele>1209.0</ele><time>2026-04-26T08:21:36.844Z</time></trkpt><trkpt lat="41.2094151" lon="-7.8907757"><ele>1209.0</ele><time>2026-04-26T08:21:37.856Z</time></trkpt><trkpt lat="41.209499" lon="-7.8908956"><ele>1209.0</ele><time>2026-04-26T08:21:39.844Z</time></trkpt><trkpt lat="41.2095476" lon="-7.8910442"><ele>1209.0</ele><time>2026-04-26T08:21:41.856Z</time></trkpt><trkpt lat="41.2095763" lon="-7.8911996"><ele>1209.0</ele><time>2026-04-26T08:21:43.856Z</time></trkpt><trkpt lat="41.209592" lon="-7.8913707"><ele>1209.0</ele><time>2026-04-26T08:21:45.839Z</time></trkpt><trkpt lat="41.2095935" lon="-7.8914586"><ele>1209.0</ele><time>2026-04-26T08:21:46.846Z</time></trkpt><trkpt lat="41.2095921" lon="-7.8915468"><ele>1209.0</ele><time>2026-04-26T08:21:47.842Z</time></trkpt><trkpt lat="41.2095966" lon="-7.8916423"><ele>1209.0</ele><time>2026-04-26T08:21:48.841Z</time></trkpt><trkpt lat="41.2095977" lon="-7.8917382"><ele>1209.0</ele><time>2026-04-26T08:21:49.848Z</time></trkpt><trkpt lat="41.209593" lon="-7.8918332"><ele>1209.0</ele><time>2026-04-26T08:21:50.839Z</time></trkpt><trkpt lat="41.2095845" lon="-7.8919359"><ele>1209.0</ele><time>2026-04-26T08:21:51.853Z</time></trkpt><trkpt lat="41.2095725" lon="-7.8920402"><ele>1209.0</ele><time>2026-04-26T08:21:52.845Z</time></trkpt><trkpt lat="41.2095652" lon="-7.892142"><ele>1209.0</ele><time>2026-04-26T08:21:53.849Z</time></trkpt><trkpt lat="41.2095597" lon="-7.8922406"><ele>1210.3333333333333</ele><time>2026-04-26T08:21:54.844Z</time></trkpt><trkpt lat="41.2095521" lon="-7.8923378"><ele>1211.6666666666667</ele><time>2026-04-26T08:21:55.856Z</time></trkpt><trkpt lat="41.2095359" lon="-7.8924344"><ele>1213.0</ele><time>2026-04-26T08:21:56.844Z</time></trkpt><trkpt lat="41.2095153" lon="-7.8925326"><ele>1214.3333333333335</ele><time>2026-04-26T08:21:57.845Z</time></trkpt><trkpt lat="41.2094897" lon="-7.8926325"><ele>1215.6666666666667</ele><time>2026-04-26T08:21:58.84Z</time></trkpt><trkpt lat="41.2094594" lon="-7.8927376"><ele>1217.0</ele><time>2026-04-26T08:21:59.849Z</time></trkpt><trkpt lat="41.2094256" lon="-7.8928401"><ele>1220.4</ele><time>2026-04-26T08:22:00.851Z</time></trkpt><trkpt lat="41.2093926" lon="-7.8929374"><ele>1223.8000000000002</ele><time>2026-04-26T08:22:01.841Z</time></trkpt><trkpt lat="41.2093649" lon="-7.8930304"><ele>1227.2</ele><time>2026-04-26T08:22:02.841Z</time></trkpt><trkpt lat="41.2093152" lon="-7.8931731"><ele>1230.6000000000001</ele><time>2026-04-26T08:22:04.839Z</time></trkpt><trkpt lat="41.2092552" lon="-7.8933028"><ele>1234.0</ele><time>2026-04-26T08:22:06.848Z</time></trkpt><trkpt lat="41.2091979" lon="-7.8934472"><ele>1234.5</ele><time>2026-04-26T08:22:08.84Z</time></trkpt><trkpt lat="41.2091724" lon="-7.8935267"><ele>1235.0</ele><time>2026-04-26T08:22:09.843Z</time></trkpt><trkpt lat="41.2091474" lon="-7.8936144"><ele>1235.5</ele><time>2026-04-26T08:22:10.848Z</time></trkpt><trkpt lat="41.209127" lon="-7.8937013"><ele>1236.0</ele><time>2026-04-26T08:22:11.847Z</time></trkpt><trkpt lat="41.2091031" lon="-7.8938527"><ele>1236.5</ele><time>2026-04-26T08:22:13.847Z</time></trkpt><trkpt lat="41.2091247" lon="-7.8939798"><ele>1237.0</ele><time>2026-04-26T08:22:15.847Z</time></trkpt><trkpt lat="41.2091977" lon="-7.8940494"><ele>1237.0</ele><time>2026-04-26T08:22:17.843Z</time></trkpt><trkpt lat="41.2092935" lon="-7.8940315"><ele>1237.0</ele><time>2026-04-26T08:22:19.847Z</time></trkpt><trkpt lat="41.2094056" lon="-7.8940042"><ele>1237.0</ele><time>2026-04-26T08:22:21.856Z</time></trkpt><trkpt lat="41.2093498" lon="-7.8940635"><ele>1237.0</ele><time>2026-04-26T08:22:30.845Z</time></trkpt><trkpt lat="41.2092857" lon="-7.8941086"><ele>1237.0</ele><time>2026-04-26T08:25:17.845Z</time></trkpt><trkpt lat="41.2092602" lon="-7.8941856"><ele>1237.0</ele><time>2026-04-26T08:25:20.843Z</time></trkpt><trkpt lat="41.2093205" lon="-7.8942294"><ele>1237.0</ele><time>2026-04-26T08:25:26.846Z</time></trkpt><trkpt lat="41.2094079" lon="-7.8941915"><ele>1237.0</ele><time>2026-04-26T08:25:30.848Z</time></trkpt><trkpt lat="41.2094724" lon="-7.8941813"><ele>1237.0</ele><time>2026-04-26T08:25:33.84Z</time></trkpt><trkpt lat="41.2095148" lon="-7.8940981"><ele>1237.0</ele><time>2026-04-26T08:25:46.846Z</time></trkpt><trkpt lat="41.2095514" lon="-7.8940169"><ele>1237.0</ele><time>2026-04-26T08:25:48.851Z</time></trkpt><trkpt lat="41.2095845" lon="-7.8939258"><ele>1237.0</ele><time>2026-04-26T08:25:50.844Z</time></trkpt><trkpt lat="41.2096348" lon="-7.8938207"><ele>1237.0</ele><time>2026-04-26T08:25:52.854Z</time></trkpt><trkpt lat="41.2096899" lon="-7.8937155"><ele>1237.0</ele><time>2026-04-26T08:25:54.842Z</time></trkpt><trkpt lat="41.2097628" lon="-7.8936147"><ele>1237.0</ele><time>2026-04-26T08:25:56.845Z</time></trkpt><trkpt lat="41.2098531" lon="-7.8935185"><ele>1237.0</ele><time>2026-04-26T08:25:58.853Z</time></trkpt><trkpt lat="41.2099471" lon="-7.8934169"><ele>1237.0</ele><time>2026-04-26T08:26:00.84Z</time></trkpt><trkpt lat="41.2099883" lon="-7.8933529"><ele>1239.5714285714284</ele><time>2026-04-26T08:26:01.839Z</time></trkpt><trkpt lat="41.2100292" lon="-7.8932871"><ele>1242.1428571428573</ele><time>2026-04-26T08:26:02.857Z</time></trkpt><trkpt lat="41.2100758" lon="-7.8932226"><ele>1244.7142857142858</ele><time>2026-04-26T08:26:03.839Z</time></trkpt><trkpt lat="41.2101227" lon="-7.8931592"><ele>1247.2857142857142</ele><time>2026-04-26T08:26:04.844Z</time></trkpt><trkpt lat="41.2101606" lon="-7.8930907"><ele>1249.8571428571427</ele><time>2026-04-26T08:26:05.845Z</time></trkpt><trkpt lat="41.2101968" lon="-7.8930165"><ele>1252.4285714285716</ele><time>2026-04-26T08:26:06.842Z</time></trkpt><trkpt lat="41.2102264" lon="-7.8929406"><ele>1255.0</ele><time>2026-04-26T08:26:07.847Z</time></trkpt><trkpt lat="41.2102548" lon="-7.8928627"><ele>1255.0</ele><time>2026-04-26T08:26:08.842Z</time></trkpt><trkpt lat="41.2102821" lon="-7.8927823"><ele>1255.0</ele><time>2026-04-26T08:26:09.842Z</time></trkpt><trkpt lat="41.2103102" lon="-7.8927056"><ele>1255.0</ele><time>2026-04-26T08:26:10.835Z</time></trkpt><trkpt lat="41.2103426" lon="-7.8926278"><ele>1255.0</ele><time>2026-04-26T08:26:11.842Z</time></trkpt><trkpt lat="41.2104166" lon="-7.8925019"><ele>1255.0</ele><time>2026-04-26T08:26:13.839Z</time></trkpt><trkpt lat="41.2105227" lon="-7.8924534"><ele>1255.0</ele><time>2026-04-26T08:26:15.842Z</time></trkpt><trkpt lat="41.2106435" lon="-7.8924505"><ele>1256.6666666666665</ele><time>2026-04-26T08:26:17.843Z</time></trkpt><trkpt lat="41.2107691" lon="-7.8924646"><ele>1258.3333333333333</ele><time>2026-04-26T08:26:19.836Z</time></trkpt><trkpt lat="41.2108335" lon="-7.8924644"><ele>1260.0</ele><time>2026-04-26T08:26:20.837Z</time></trkpt><trkpt lat="41.2109018" lon="-7.8924671"><ele>1261.6666666666667</ele><time>2026-04-26T08:26:21.84Z</time></trkpt><trkpt lat="41.2109711" lon="-7.8924706"><ele>1263.3333333333335</ele><time>2026-04-26T08:26:22.849Z</time></trkpt><trkpt lat="41.2110441" lon="-7.8924729"><ele>1265.0</ele><time>2026-04-26T08:26:23.85Z</time></trkpt><trkpt lat="41.2111293" lon="-7.8924838"><ele>1265.0</ele><time>2026-04-26T08:26:24.845Z</time></trkpt><trkpt lat="41.2112207" lon="-7.8924982"><ele>1265.0</ele><time>2026-04-26T08:26:25.849Z</time></trkpt><trkpt lat="41.2113156" lon="-7.8925051"><ele>1265.0</ele><time>2026-04-26T08:26:26.847Z</time></trkpt><trkpt lat="41.2114034" lon="-7.8924976"><ele>1265.0</ele><time>2026-04-26T08:26:27.841Z</time></trkpt><trkpt lat="41.2114829" lon="-7.8924917"><ele>1265.0</ele><time>2026-04-26T08:26:28.84Z</time></trkpt><trkpt lat="41.2115615" lon="-7.8924962"><ele>1265.0</ele><time>2026-04-26T08:26:29.854Z</time></trkpt><trkpt lat="41.211641" lon="-7.8925113"><ele>1264.1666666666667</ele><time>2026-04-26T08:26:30.835Z</time></trkpt><trkpt lat="41.2117287" lon="-7.8925281"><ele>1263.3333333333335</ele><time>2026-04-26T08:26:31.843Z</time></trkpt><trkpt lat="41.2118109" lon="-7.8925489"><ele>1262.5</ele><time>2026-04-26T08:26:32.843Z</time></trkpt><trkpt lat="41.2118949" lon="-7.8925767"><ele>1261.6666666666667</ele><time>2026-04-26T08:26:33.849Z</time></trkpt><trkpt lat="41.2119701" lon="-7.8926135"><ele>1260.8333333333333</ele><time>2026-04-26T08:26:34.851Z</time></trkpt><trkpt lat="41.2120397" lon="-7.8926635"><ele>1260.0</ele><time>2026-04-26T08:26:35.841Z</time></trkpt><trkpt lat="41.2121109" lon="-7.8927159"><ele>1259.2</ele><time>2026-04-26T08:26:36.852Z</time></trkpt><trkpt lat="41.2121744" lon="-7.8927598"><ele>1258.4</ele><time>2026-04-26T08:26:37.844Z</time></trkpt><trkpt lat="41.2122338" lon="-7.8928032"><ele>1257.6</ele><time>2026-04-26T08:26:38.847Z</time></trkpt><trkpt lat="41.2123331" lon="-7.8928598"><ele>1256.8</ele><time>2026-04-26T08:26:40.845Z</time></trkpt><trkpt lat="41.2124267" lon="-7.8928927"><ele>1256.0</ele><time>2026-04-26T08:26:42.845Z</time></trkpt><trkpt lat="41.2125352" lon="-7.8929093"><ele>1256.0</ele><time>2026-04-26T08:26:44.843Z</time></trkpt><trkpt lat="41.2126562" lon="-7.892912"><ele>1256.0</ele><time>2026-04-26T08:26:46.843Z</time></trkpt><trkpt lat="41.2127724" lon="-7.8929098"><ele>1256.0</ele><time>2026-04-26T08:26:48.847Z</time></trkpt><trkpt lat="41.2128948" lon="-7.8928974"><ele>1256.0</ele><time>2026-04-26T08:26:50.851Z</time></trkpt><trkpt lat="41.2130203" lon="-7.8928826"><ele>1255.9999999999998</ele><time>2026-04-26T08:26:52.842Z</time></trkpt><trkpt lat="41.2130963" lon="-7.8928795"><ele>1256.0</ele><time>2026-04-26T08:26:53.847Z</time></trkpt><trkpt lat="41.2131662" lon="-7.8928728"><ele>1256.0</ele><time>2026-04-26T08:26:54.843Z</time></trkpt><trkpt lat="41.2132363" lon="-7.8928599"><ele>1256.0</ele><time>2026-04-26T08:26:55.843Z</time></trkpt><trkpt lat="41.2133108" lon="-7.8928403"><ele>1256.0</ele><time>2026-04-26T08:26:56.845Z</time></trkpt><trkpt lat="41.213383" lon="-7.8928104"><ele>1255.9999999999998</ele><time>2026-04-26T08:26:57.846Z</time></trkpt><trkpt lat="41.213456" lon="-7.8927739"><ele>1256.0</ele><time>2026-04-26T08:26:58.848Z</time></trkpt><trkpt lat="41.2135263" lon="-7.8927281"><ele>1254.8571428571427</ele><time>2026-04-26T08:26:59.847Z</time></trkpt><trkpt lat="41.2135806" lon="-7.8926801"><ele>1253.7142857142858</ele><time>2026-04-26T08:27:00.844Z</time></trkpt><trkpt lat="41.2136366" lon="-7.8926298"><ele>1252.5714285714284</ele><time>2026-04-26T08:27:01.854Z</time></trkpt><trkpt lat="41.2136955" lon="-7.8925875"><ele>1251.4285714285713</ele><time>2026-04-26T08:27:02.848Z</time></trkpt><trkpt lat="41.213757" lon="-7.892548"><ele>1250.2857142857142</ele><time>2026-04-26T08:27:03.84Z</time></trkpt><trkpt lat="41.2138172" lon="-7.8925016"><ele>1249.142857142857</ele><time>2026-04-26T08:27:04.838Z</time></trkpt><trkpt lat="41.213888" lon="-7.8924547"><ele>1248.0</ele><time>2026-04-26T08:27:05.852Z</time></trkpt><trkpt lat="41.2139652" lon="-7.8924086"><ele>1248.3333333333333</ele><time>2026-04-26T08:27:06.839Z</time></trkpt><trkpt lat="41.2140421" lon="-7.8923577"><ele>1248.6666666666667</ele><time>2026-04-26T08:27:07.84Z</time></trkpt><trkpt lat="41.2141134" lon="-7.8923036"><ele>1249.0</ele><time>2026-04-26T08:27:08.845Z</time></trkpt><trkpt lat="41.2141855" lon="-7.8922552"><ele>1249.3333333333335</ele><time>2026-04-26T08:27:09.848Z</time></trkpt><trkpt lat="41.2142537" lon="-7.8922151"><ele>1249.6666666666667</ele><time>2026-04-26T08:27:10.834Z</time></trkpt><trkpt lat="41.2143222" lon="-7.8921791"><ele>1250.0</ele><time>2026-04-26T08:27:11.838Z</time></trkpt><trkpt lat="41.2143953" lon="-7.8921448"><ele>1250.0000000000002</ele><time>2026-04-26T08:27:12.844Z</time></trkpt><trkpt lat="41.2144637" lon="-7.8921101"><ele>1250.0</ele><time>2026-04-26T08:27:13.839Z</time></trkpt><trkpt lat="41.2145263" lon="-7.8920743"><ele>1250.0</ele><time>2026-04-26T08:27:14.853Z</time></trkpt><trkpt lat="41.2145845" lon="-7.8920365"><ele>1250.0</ele><time>2026-04-26T08:27:15.842Z</time></trkpt><trkpt lat="41.2146437" lon="-7.8919854"><ele>1250.0</ele><time>2026-04-26T08:27:16.845Z</time></trkpt><trkpt lat="41.214703" lon="-7.8919302"><ele>1250.0000000000002</ele><time>2026-04-26T08:27:17.843Z</time></trkpt><trkpt lat="41.2147669" lon="-7.8918737"><ele>1250.0</ele><time>2026-04-26T08:27:18.842Z</time></trkpt><trkpt lat="41.2148349" lon="-7.891818"><ele>1248.6666666666667</ele><time>2026-04-26T08:27:19.85Z</time></trkpt><trkpt lat="41.2149012" lon="-7.8917602"><ele>1247.3333333333335</ele><time>2026-04-26T08:27:20.847Z</time></trkpt><trkpt lat="41.2149685" lon="-7.8917007"><ele>1246.0</ele><time>2026-04-26T08:27:21.859Z</time></trkpt><trkpt lat="41.2150317" lon="-7.8916318"><ele>1244.6666666666667</ele><time>2026-04-26T08:27:22.84Z</time></trkpt><trkpt lat="41.2150991" lon="-7.8915587"><ele>1243.3333333333333</ele><time>2026-04-26T08:27:23.839Z</time></trkpt><trkpt lat="41.2151584" lon="-7.8914862"><ele>1242.0</ele><time>2026-04-26T08:27:24.847Z</time></trkpt><trkpt lat="41.2152192" lon="-7.8914152"><ele>1242.0</ele><time>2026-04-26T08:27:25.843Z</time></trkpt><trkpt lat="41.2152825" lon="-7.8913384"><ele>1242.0</ele><time>2026-04-26T08:27:26.854Z</time></trkpt><trkpt lat="41.2153458" lon="-7.891265"><ele>1242.0</ele><time>2026-04-26T08:27:27.849Z</time></trkpt><trkpt lat="41.2154059" lon="-7.8911955"><ele>1242.0</ele><time>2026-04-26T08:27:28.84Z</time></trkpt><trkpt lat="41.2154606" lon="-7.89113"><ele>1242.0</ele><time>2026-04-26T08:27:29.841Z</time></trkpt><trkpt lat="41.215518" lon="-7.89107"><ele>1242.0</ele><time>2026-04-26T08:27:30.844Z</time></trkpt><trkpt lat="41.215577" lon="-7.8910047"><ele>1242.0</ele><time>2026-04-26T08:27:31.849Z</time></trkpt><trkpt lat="41.2156335" lon="-7.8909353"><ele>1242.0</ele><time>2026-04-26T08:27:32.846Z</time></trkpt><trkpt lat="41.2156898" lon="-7.8908575"><ele>1242.0</ele><time>2026-04-26T08:27:33.839Z</time></trkpt><trkpt lat="41.2157495" lon="-7.8907752"><ele>1242.0</ele><time>2026-04-26T08:27:34.853Z</time></trkpt><trkpt lat="41.2158114" lon="-7.8906899"><ele>1242.0</ele><time>2026-04-26T08:27:35.854Z</time></trkpt><trkpt lat="41.2158718" lon="-7.8906035"><ele>1242.0</ele><time>2026-04-26T08:27:36.84Z</time></trkpt><trkpt lat="41.2159366" lon="-7.8905114"><ele>1239.6</ele><time>2026-04-26T08:27:37.843Z</time></trkpt><trkpt lat="41.215997" lon="-7.8904161"><ele>1237.2</ele><time>2026-04-26T08:27:38.85Z</time></trkpt><trkpt lat="41.2160533" lon="-7.890319"><ele>1234.8</ele><time>2026-04-26T08:27:39.844Z</time></trkpt><trkpt lat="41.2161082" lon="-7.890221"><ele>1232.4</ele><time>2026-04-26T08:27:40.845Z</time></trkpt><trkpt lat="41.2161595" lon="-7.8901277"><ele>1230.0</ele><time>2026-04-26T08:27:41.84Z</time></trkpt><trkpt lat="41.2162147" lon="-7.8900391"><ele>1228.8</ele><time>2026-04-26T08:27:42.848Z</time></trkpt><trkpt lat="41.2162781" lon="-7.8899467"><ele>1227.6</ele><time>2026-04-26T08:27:43.851Z</time></trkpt><trkpt lat="41.2163508" lon="-7.8898621"><ele>1226.4</ele><time>2026-04-26T08:27:44.854Z</time></trkpt><trkpt lat="41.2164375" lon="-7.8897842"><ele>1225.2</ele><time>2026-04-26T08:27:45.847Z</time></trkpt><trkpt lat="41.2165301" lon="-7.8897072"><ele>1224.0</ele><time>2026-04-26T08:27:46.837Z</time></trkpt><trkpt lat="41.2166248" lon="-7.8896313"><ele>1223.4</ele><time>2026-04-26T08:27:47.85Z</time></trkpt><trkpt lat="41.2167135" lon="-7.8895633"><ele>1222.8000000000002</ele><time>2026-04-26T08:27:48.839Z</time></trkpt><trkpt lat="41.2168053" lon="-7.889505"><ele>1222.1999999999998</ele><time>2026-04-26T08:27:49.838Z</time></trkpt><trkpt lat="41.216896" lon="-7.8894551"><ele>1221.6</ele><time>2026-04-26T08:27:50.836Z</time></trkpt><trkpt lat="41.2169878" lon="-7.8894366"><ele>1221.0</ele><time>2026-04-26T08:27:51.839Z</time></trkpt><trkpt lat="41.2170756" lon="-7.8894298"><ele>1221.0</ele><time>2026-04-26T08:27:52.845Z</time></trkpt><trkpt lat="41.2171642" lon="-7.8894271"><ele>1221.0</ele><time>2026-04-26T08:27:53.847Z</time></trkpt><trkpt lat="41.21725" lon="-7.8894284"><ele>1221.0</ele><time>2026-04-26T08:27:54.84Z</time></trkpt><trkpt lat="41.2173366" lon="-7.8894281"><ele>1221.0</ele><time>2026-04-26T08:27:55.851Z</time></trkpt><trkpt lat="41.2174257" lon="-7.8894278"><ele>1221.0</ele><time>2026-04-26T08:27:56.839Z</time></trkpt><trkpt lat="41.2175123" lon="-7.8894273"><ele>1221.0</ele><time>2026-04-26T08:27:57.837Z</time></trkpt><trkpt lat="41.2175959" lon="-7.8894293"><ele>1218.6666666666667</ele><time>2026-04-26T08:27:58.84Z</time></trkpt><trkpt lat="41.2176759" lon="-7.8894372"><ele>1216.3333333333333</ele><time>2026-04-26T08:27:59.838Z</time></trkpt><trkpt lat="41.2177561" lon="-7.8894429"><ele>1214.0</ele><time>2026-04-26T08:28:00.842Z</time></trkpt><trkpt lat="41.2178381" lon="-7.8894466"><ele>1211.6666666666665</ele><time>2026-04-26T08:28:01.835Z</time></trkpt><trkpt lat="41.2179202" lon="-7.8894467"><ele>1209.3333333333333</ele><time>2026-04-26T08:28:02.843Z</time></trkpt><trkpt lat="41.218002" lon="-7.8894384"><ele>1207.0</ele><time>2026-04-26T08:28:03.84Z</time></trkpt><trkpt lat="41.2180871" lon="-7.8894266"><ele>1207.142857142857</ele><time>2026-04-26T08:28:04.838Z</time></trkpt><trkpt lat="41.2181706" lon="-7.8894087"><ele>1207.2857142857142</ele><time>2026-04-26T08:28:05.84Z</time></trkpt><trkpt lat="41.2182448" lon="-7.8893853"><ele>1207.4285714285716</ele><time>2026-04-26T08:28:06.836Z</time></trkpt><trkpt lat="41.2183133" lon="-7.889361"><ele>1207.5714285714284</ele><time>2026-04-26T08:28:07.837Z</time></trkpt><trkpt lat="41.2183838" lon="-7.8893355"><ele>1207.7142857142858</ele><time>2026-04-26T08:28:08.837Z</time></trkpt><trkpt lat="41.2184521" lon="-7.8893044"><ele>1207.857142857143</ele><time>2026-04-26T08:28:09.836Z</time></trkpt><trkpt lat="41.2185182" lon="-7.8892668"><ele>1208.0</ele><time>2026-04-26T08:28:10.836Z</time></trkpt><trkpt lat="41.2185834" lon="-7.8892284"><ele>1208.0</ele><time>2026-04-26T08:28:11.838Z</time></trkpt><trkpt lat="41.2186515" lon="-7.8891951"><ele>1208.0</ele><time>2026-04-26T08:28:12.838Z</time></trkpt><trkpt lat="41.2187187" lon="-7.8891602"><ele>1208.0</ele><time>2026-04-26T08:28:13.835Z</time></trkpt><trkpt lat="41.2187927" lon="-7.8891324"><ele>1208.0</ele><time>2026-04-26T08:28:14.84Z</time></trkpt><trkpt lat="41.2188669" lon="-7.889098"><ele>1208.0</ele><time>2026-04-26T08:28:15.839Z</time></trkpt><trkpt lat="41.2189436" lon="-7.8890574"><ele>1208.0</ele><time>2026-04-26T08:28:16.835Z</time></trkpt><trkpt lat="41.2190211" lon="-7.8890056"><ele>1203.8333333333335</ele><time>2026-04-26T08:28:17.835Z</time></trkpt><trkpt lat="41.2190917" lon="-7.8889517"><ele>1199.6666666666667</ele><time>2026-04-26T08:28:18.836Z</time></trkpt><trkpt lat="41.2191625" lon="-7.8888938"><ele>1195.5</ele><time>2026-04-26T08:28:19.835Z</time></trkpt><trkpt lat="41.219234" lon="-7.888836"><ele>1191.3333333333333</ele><time>2026-04-26T08:28:20.839Z</time></trkpt><trkpt lat="41.2193067" lon="-7.8887776"><ele>1187.1666666666665</ele><time>2026-04-26T08:28:21.838Z</time></trkpt><trkpt lat="41.2193796" lon="-7.8887149"><ele>1183.0</ele><time>2026-04-26T08:28:22.843Z</time></trkpt><trkpt lat="41.219455" lon="-7.8886418"><ele>1183.0</ele><time>2026-04-26T08:28:23.836Z</time></trkpt><trkpt lat="41.2195338" lon="-7.8885701"><ele>1183.0</ele><time>2026-04-26T08:28:24.84Z</time></trkpt><trkpt lat="41.2196134" lon="-7.8884949"><ele>1183.0</ele><time>2026-04-26T08:28:25.837Z</time></trkpt><trkpt lat="41.2196953" lon="-7.8884131"><ele>1183.0</ele><time>2026-04-26T08:28:26.836Z</time></trkpt><trkpt lat="41.2197781" lon="-7.8883288"><ele>1183.0</ele><time>2026-04-26T08:28:27.856Z</time></trkpt><trkpt lat="41.2198587" lon="-7.8882445"><ele>1182.4</ele><time>2026-04-26T08:28:28.841Z</time></trkpt><trkpt lat="41.2199398" lon="-7.8881617"><ele>1181.8</ele><time>2026-04-26T08:28:29.837Z</time></trkpt><trkpt lat="41.2200157" lon="-7.8880819"><ele>1181.2</ele><time>2026-04-26T08:28:30.837Z</time></trkpt><trkpt lat="41.2200827" lon="-7.8880027"><ele>1180.6</ele><time>2026-04-26T08:28:31.835Z</time></trkpt><trkpt lat="41.2201399" lon="-7.8879146"><ele>1180.0</ele><time>2026-04-26T08:28:32.844Z</time></trkpt><trkpt lat="41.2201932" lon="-7.8878198"><ele>1180.0</ele><time>2026-04-26T08:28:33.834Z</time></trkpt><trkpt lat="41.2202334" lon="-7.8877186"><ele>1180.0</ele><time>2026-04-26T08:28:34.835Z</time></trkpt><trkpt lat="41.2202696" lon="-7.8876198"><ele>1180.0</ele><time>2026-04-26T08:28:35.843Z</time></trkpt><trkpt lat="41.2203102" lon="-7.8875252"><ele>1180.0</ele><time>2026-04-26T08:28:36.848Z</time></trkpt><trkpt lat="41.2203584" lon="-7.8874414"><ele>1180.0</ele><time>2026-04-26T08:28:37.845Z</time></trkpt><trkpt lat="41.2204236" lon="-7.8873839"><ele>1180.0</ele><time>2026-04-26T08:28:38.845Z</time></trkpt><trkpt lat="41.2204978" lon="-7.8873466"><ele>1180.0</ele><time>2026-04-26T08:28:39.838Z</time></trkpt><trkpt lat="41.2205754" lon="-7.8873186"><ele>1180.0</ele><time>2026-04-26T08:28:40.854Z</time></trkpt><trkpt lat="41.2206594" lon="-7.8873092"><ele>1180.0</ele><time>2026-04-26T08:28:41.852Z</time></trkpt><trkpt lat="41.2207471" lon="-7.8873242"><ele>1180.0</ele><time>2026-04-26T08:28:42.842Z</time></trkpt><trkpt lat="41.2208422" lon="-7.8873586"><ele>1180.0</ele><time>2026-04-26T08:28:43.84Z</time></trkpt><trkpt lat="41.2209407" lon="-7.8874022"><ele>1180.0</ele><time>2026-04-26T08:28:44.849Z</time></trkpt><trkpt lat="41.2210424" lon="-7.8874497"><ele>1180.0</ele><time>2026-04-26T08:28:45.837Z</time></trkpt><trkpt lat="41.2211525" lon="-7.8875057"><ele>1180.0</ele><time>2026-04-26T08:28:46.839Z</time></trkpt><trkpt lat="41.2212647" lon="-7.88756"><ele>1180.0</ele><time>2026-04-26T08:28:47.84Z</time></trkpt><trkpt lat="41.221379" lon="-7.8876013"><ele>1175.2</ele><time>2026-04-26T08:28:48.846Z</time></trkpt><trkpt lat="41.2214916" lon="-7.887622"><ele>1170.4</ele><time>2026-04-26T08:28:49.835Z</time></trkpt><trkpt lat="41.2216094" lon="-7.8876344"><ele>1165.6</ele><time>2026-04-26T08:28:50.836Z</time></trkpt><trkpt lat="41.2217184" lon="-7.8876385"><ele>1160.8</ele><time>2026-04-26T08:28:51.838Z</time></trkpt><trkpt lat="41.2218264" lon="-7.8876336"><ele>1156.0</ele><time>2026-04-26T08:28:52.841Z</time></trkpt><trkpt lat="41.2219335" lon="-7.887626"><ele>1156.0</ele><time>2026-04-26T08:28:53.843Z</time></trkpt><trkpt lat="41.2220373" lon="-7.8876209"><ele>1156.0</ele><time>2026-04-26T08:28:54.846Z</time></trkpt><trkpt lat="41.2221462" lon="-7.8876208"><ele>1156.0</ele><time>2026-04-26T08:28:55.846Z</time></trkpt><trkpt lat="41.2222549" lon="-7.8876236"><ele>1156.0</ele><time>2026-04-26T08:28:56.847Z</time></trkpt><trkpt lat="41.2223595" lon="-7.8876113"><ele>1156.0</ele><time>2026-04-26T08:28:57.852Z</time></trkpt><trkpt lat="41.2224631" lon="-7.8875861"><ele>1160.3999999999999</ele><time>2026-04-26T08:28:58.841Z</time></trkpt><trkpt lat="41.2225643" lon="-7.8875543"><ele>1164.8</ele><time>2026-04-26T08:28:59.839Z</time></trkpt><trkpt lat="41.2226591" lon="-7.8875143"><ele>1169.1999999999998</ele><time>2026-04-26T08:29:00.836Z</time></trkpt><trkpt lat="41.2227498" lon="-7.887471"><ele>1173.6</ele><time>2026-04-26T08:29:01.833Z</time></trkpt><trkpt lat="41.2228262" lon="-7.8874154"><ele>1178.0</ele><time>2026-04-26T08:29:02.84Z</time></trkpt><trkpt lat="41.2229035" lon="-7.8873441"><ele>1178.0</ele><time>2026-04-26T08:29:03.84Z</time></trkpt><trkpt lat="41.2229846" lon="-7.8872594"><ele>1178.0</ele><time>2026-04-26T08:29:04.839Z</time></trkpt><trkpt lat="41.2230678" lon="-7.8871793"><ele>1178.0</ele><time>2026-04-26T08:29:05.846Z</time></trkpt><trkpt lat="41.2231539" lon="-7.8871084"><ele>1178.0</ele><time>2026-04-26T08:29:06.838Z</time></trkpt><trkpt lat="41.2232426" lon="-7.8870455"><ele>1178.0</ele><time>2026-04-26T08:29:07.845Z</time></trkpt><trkpt lat="41.2233286" lon="-7.8869874"><ele>1178.2</ele><time>2026-04-26T08:29:08.848Z</time></trkpt><trkpt lat="41.2234107" lon="-7.8869282"><ele>1178.4</ele><time>2026-04-26T08:29:09.843Z</time></trkpt><trkpt lat="41.2234945" lon="-7.8868643"><ele>1178.6000000000001</ele><time>2026-04-26T08:29:10.847Z</time></trkpt><trkpt lat="41.2235716" lon="-7.8867857"><ele>1178.8</ele><time>2026-04-26T08:29:11.836Z</time></trkpt><trkpt lat="41.2236366" lon="-7.8866902"><ele>1179.0</ele><time>2026-04-26T08:29:12.838Z</time></trkpt><trkpt lat="41.2236954" lon="-7.8865822"><ele>1179.0</ele><time>2026-04-26T08:29:13.84Z</time></trkpt><trkpt lat="41.2237559" lon="-7.8864698"><ele>1179.0</ele><time>2026-04-26T08:29:14.838Z</time></trkpt><trkpt lat="41.2238178" lon="-7.8863564"><ele>1179.0</ele><time>2026-04-26T08:29:15.843Z</time></trkpt><trkpt lat="41.2238782" lon="-7.8862537"><ele>1179.0</ele><time>2026-04-26T08:29:16.845Z</time></trkpt><trkpt lat="41.2239483" lon="-7.8861669"><ele>1179.0</ele><time>2026-04-26T08:29:17.841Z</time></trkpt><trkpt lat="41.2240175" lon="-7.886121"><ele>1176.9999999999998</ele><time>2026-04-26T08:29:18.841Z</time></trkpt><trkpt lat="41.2240881" lon="-7.8860944"><ele>1175.0</ele><time>2026-04-26T08:29:19.847Z</time></trkpt><trkpt lat="41.2241562" lon="-7.8860636"><ele>1173.0</ele><time>2026-04-26T08:29:20.851Z</time></trkpt><trkpt lat="41.2242217" lon="-7.8860161"><ele>1171.0</ele><time>2026-04-26T08:29:21.838Z</time></trkpt><trkpt lat="41.2242828" lon="-7.8859566"><ele>1169.0</ele><time>2026-04-26T08:29:22.847Z</time></trkpt><trkpt lat="41.2243387" lon="-7.8858918"><ele>1166.9999999999998</ele><time>2026-04-26T08:29:23.839Z</time></trkpt><trkpt lat="41.2243945" lon="-7.8858224"><ele>1165.0</ele><time>2026-04-26T08:29:24.839Z</time></trkpt><trkpt lat="41.2244492" lon="-7.8857488"><ele>1165.0</ele><time>2026-04-26T08:29:25.837Z</time></trkpt><trkpt lat="41.2245056" lon="-7.8856774"><ele>1165.0</ele><time>2026-04-26T08:29:26.84Z</time></trkpt><trkpt lat="41.2245659" lon="-7.8856057"><ele>1165.0</ele><time>2026-04-26T08:29:27.843Z</time></trkpt><trkpt lat="41.2246274" lon="-7.8855292"><ele>1165.0</ele><time>2026-04-26T08:29:28.845Z</time></trkpt><trkpt lat="41.2246858" lon="-7.8854525"><ele>1165.0</ele><time>2026-04-26T08:29:29.841Z</time></trkpt><trkpt lat="41.2247441" lon="-7.8853743"><ele>1165.0</ele><time>2026-04-26T08:29:30.841Z</time></trkpt><trkpt lat="41.2248038" lon="-7.8852948"><ele>1162.1666666666665</ele><time>2026-04-26T08:29:31.844Z</time></trkpt><trkpt lat="41.2248658" lon="-7.8852151"><ele>1159.3333333333333</ele><time>2026-04-26T08:29:32.846Z</time></trkpt><trkpt lat="41.2249313" lon="-7.8851408"><ele>1156.5</ele><time>2026-04-26T08:29:33.85Z</time></trkpt><trkpt lat="41.2250015" lon="-7.8850692"><ele>1153.6666666666667</ele><time>2026-04-26T08:29:34.843Z</time></trkpt><trkpt lat="41.2250713" lon="-7.8849977"><ele>1150.8333333333335</ele><time>2026-04-26T08:29:35.841Z</time></trkpt><trkpt lat="41.2251421" lon="-7.8849394"><ele>1148.0</ele><time>2026-04-26T08:29:36.841Z</time></trkpt><trkpt lat="41.2252183" lon="-7.8848841"><ele>1148.0</ele><time>2026-04-26T08:29:37.839Z</time></trkpt><trkpt lat="41.2252883" lon="-7.8848207"><ele>1148.0</ele><time>2026-04-26T08:29:38.847Z</time></trkpt><trkpt lat="41.2253556" lon="-7.8847548"><ele>1148.0</ele><time>2026-04-26T08:29:39.856Z</time></trkpt><trkpt lat="41.2254189" lon="-7.8846851"><ele>1148.0</ele><time>2026-04-26T08:29:40.839Z</time></trkpt><trkpt lat="41.2254766" lon="-7.8846255"><ele>1148.0</ele><time>2026-04-26T08:29:41.843Z</time></trkpt><trkpt lat="41.225541" lon="-7.8845788"><ele>1148.0</ele><time>2026-04-26T08:29:42.844Z</time></trkpt><trkpt lat="41.2256102" lon="-7.8845327"><ele>1143.8333333333335</ele><time>2026-04-26T08:29:43.838Z</time></trkpt><trkpt lat="41.2256851" lon="-7.8844967"><ele>1139.6666666666667</ele><time>2026-04-26T08:29:44.84Z</time></trkpt><trkpt lat="41.2257631" lon="-7.8844719"><ele>1135.5</ele><time>2026-04-26T08:29:45.841Z</time></trkpt><trkpt lat="41.2258444" lon="-7.8844613"><ele>1131.3333333333333</ele><time>2026-04-26T08:29:46.843Z</time></trkpt><trkpt lat="41.2259268" lon="-7.8844785"><ele>1127.1666666666665</ele><time>2026-04-26T08:29:47.838Z</time></trkpt><trkpt lat="41.2260052" lon="-7.8845161"><ele>1123.0</ele><time>2026-04-26T08:29:48.838Z</time></trkpt><trkpt lat="41.2260775" lon="-7.8845692"><ele>1123.0</ele><time>2026-04-26T08:29:49.844Z</time></trkpt><trkpt lat="41.2261489" lon="-7.8846247"><ele>1123.0</ele><time>2026-04-26T08:29:50.843Z</time></trkpt><trkpt lat="41.2262209" lon="-7.8846779"><ele>1123.0</ele><time>2026-04-26T08:29:51.84Z</time></trkpt><trkpt lat="41.2262935" lon="-7.8847229"><ele>1123.0</ele><time>2026-04-26T08:29:52.836Z</time></trkpt><trkpt lat="41.2263657" lon="-7.8847583"><ele>1123.0</ele><time>2026-04-26T08:29:53.852Z</time></trkpt><trkpt lat="41.2264351" lon="-7.8847854"><ele>1123.0</ele><time>2026-04-26T08:29:54.841Z</time></trkpt><trkpt lat="41.2265136" lon="-7.8848012"><ele>1121.3333333333333</ele><time>2026-04-26T08:29:55.846Z</time></trkpt><trkpt lat="41.2265961" lon="-7.8848161"><ele>1119.6666666666665</ele><time>2026-04-26T08:29:56.838Z</time></trkpt><trkpt lat="41.2266764" lon="-7.8848249"><ele>1118.0</ele><time>2026-04-26T08:29:57.844Z</time></trkpt><trkpt lat="41.2267525" lon="-7.8848268"><ele>1116.3333333333333</ele><time>2026-04-26T08:29:58.837Z</time></trkpt><trkpt lat="41.2268256" lon="-7.8848303"><ele>1114.6666666666667</ele><time>2026-04-26T08:29:59.84Z</time></trkpt><trkpt lat="41.226947" lon="-7.8847951"><ele>1113.0</ele><time>2026-04-26T08:30:01.84Z</time></trkpt><trkpt lat="41.2270478" lon="-7.8847637"><ele>1113.0</ele><time>2026-04-26T08:30:03.836Z</time></trkpt><trkpt lat="41.2271404" lon="-7.8847524"><ele>1113.0</ele><time>2026-04-26T08:30:05.845Z</time></trkpt><trkpt lat="41.2272172" lon="-7.8847596"><ele>1113.0</ele><time>2026-04-26T08:30:08.844Z</time></trkpt><trkpt lat="41.2272865" lon="-7.8847659"><ele>1113.0</ele><time>2026-04-26T08:30:19.84Z</time></trkpt><trkpt lat="41.2273536" lon="-7.8847169"><ele>1113.0</ele><time>2026-04-26T08:30:21.847Z</time></trkpt><trkpt lat="41.2274314" lon="-7.8846824"><ele>1113.0</ele><time>2026-04-26T08:30:23.84Z</time></trkpt><trkpt lat="41.227503" lon="-7.8846229"><ele>1111.4</ele><time>2026-04-26T08:30:26.844Z</time></trkpt><trkpt lat="41.2275707" lon="-7.8845831"><ele>1109.8</ele><time>2026-04-26T08:30:29.837Z</time></trkpt><trkpt lat="41.2276498" lon="-7.8845761"><ele>1108.2</ele><time>2026-04-26T08:30:33.839Z</time></trkpt><trkpt lat="41.2277435" lon="-7.8845254"><ele>1106.6</ele><time>2026-04-26T08:30:36.851Z</time></trkpt><trkpt lat="41.2278372" lon="-7.884489"><ele>1105.0</ele><time>2026-04-26T08:30:38.843Z</time></trkpt><trkpt lat="41.2279391" lon="-7.8844467"><ele>1105.0</ele><time>2026-04-26T08:30:40.839Z</time></trkpt><trkpt lat="41.2280365" lon="-7.8843964"><ele>1105.0</ele><time>2026-04-26T08:30:42.841Z</time></trkpt><trkpt lat="41.2280899" lon="-7.8843451"><ele>1105.0</ele><time>2026-04-26T08:30:43.837Z</time></trkpt><trkpt lat="41.2281468" lon="-7.8843048"><ele>1105.0</ele><time>2026-04-26T08:30:44.841Z</time></trkpt><trkpt lat="41.2282395" lon="-7.8842367"><ele>1105.0</ele><time>2026-04-26T08:30:46.85Z</time></trkpt><trkpt lat="41.2283134" lon="-7.8841876"><ele>1105.0</ele><time>2026-04-26T08:30:48.837Z</time></trkpt><trkpt lat="41.2283809" lon="-7.8841585"><ele>1111.0</ele><time>2026-04-26T08:30:50.843Z</time></trkpt><trkpt lat="41.2284436" lon="-7.8841334"><ele>1117.0</ele><time>2026-04-26T08:30:52.845Z</time></trkpt><trkpt lat="41.2285032" lon="-7.8840791"><ele>1123.0</ele><time>2026-04-26T08:30:54.845Z</time></trkpt><trkpt lat="41.2285329" lon="-7.8839978"><ele>1129.0</ele><time>2026-04-26T08:30:56.84Z</time></trkpt><trkpt lat="41.2285329" lon="-7.8838687"><ele>1135.0</ele><time>2026-04-26T08:30:59.851Z</time></trkpt><trkpt lat="41.2285409" lon="-7.883761"><ele>1141.0</ele><time>2026-04-26T08:31:01.851Z</time></trkpt><trkpt lat="41.2285684" lon="-7.8836645"><ele>1141.0</ele><time>2026-04-26T08:31:03.844Z</time></trkpt><trkpt lat="41.2286008" lon="-7.8835659"><ele>1141.0</ele><time>2026-04-26T08:31:05.834Z</time></trkpt><trkpt lat="41.2286253" lon="-7.8834691"><ele>1141.0</ele><time>2026-04-26T08:31:07.838Z</time></trkpt><trkpt lat="41.2286418" lon="-7.8833747"><ele>1141.0</ele><time>2026-04-26T08:31:09.84Z</time></trkpt><trkpt lat="41.2286661" lon="-7.8832743"><ele>1141.0</ele><time>2026-04-26T08:31:12.836Z</time></trkpt><trkpt lat="41.2287417" lon="-7.8833167"><ele>1141.0</ele><time>2026-04-26T08:33:19.837Z</time></trkpt><trkpt lat="41.2288268" lon="-7.8833378"><ele>1143.0</ele><time>2026-04-26T08:33:23.839Z</time></trkpt><trkpt lat="41.228903" lon="-7.8833315"><ele>1145.0</ele><time>2026-04-26T08:33:25.853Z</time></trkpt><trkpt lat="41.2289899" lon="-7.8833112"><ele>1147.0</ele><time>2026-04-26T08:33:27.835Z</time></trkpt><trkpt lat="41.2290801" lon="-7.8832931"><ele>1149.0</ele><time>2026-04-26T08:33:29.848Z</time></trkpt><trkpt lat="41.2292051" lon="-7.8832893"><ele>1151.0</ele><time>2026-04-26T08:33:31.839Z</time></trkpt><trkpt lat="41.2293149" lon="-7.8832472"><ele>1154.6</ele><time>2026-04-26T08:33:33.846Z</time></trkpt><trkpt lat="41.2293794" lon="-7.8832363"><ele>1158.1999999999998</ele><time>2026-04-26T08:33:34.841Z</time></trkpt><trkpt lat="41.2294934" lon="-7.8832218"><ele>1161.8000000000002</ele><time>2026-04-26T08:33:36.84Z</time></trkpt><trkpt lat="41.2295929" lon="-7.8832064"><ele>1165.4</ele><time>2026-04-26T08:33:38.838Z</time></trkpt><trkpt lat="41.2296921" lon="-7.8832119"><ele>1169.0</ele><time>2026-04-26T08:33:40.841Z</time></trkpt><trkpt lat="41.2297937" lon="-7.883198"><ele>1171.6000000000001</ele><time>2026-04-26T08:33:42.837Z</time></trkpt><trkpt lat="41.2298883" lon="-7.8831756"><ele>1174.2</ele><time>2026-04-26T08:33:44.839Z</time></trkpt><trkpt lat="41.2299856" lon="-7.8831555"><ele>1176.8000000000002</ele><time>2026-04-26T08:33:46.834Z</time></trkpt><trkpt lat="41.2300883" lon="-7.883103"><ele>1179.4</ele><time>2026-04-26T08:33:48.846Z</time></trkpt><trkpt lat="41.2301931" lon="-7.8830388"><ele>1182.0</ele><time>2026-04-26T08:33:50.832Z</time></trkpt><trkpt lat="41.2302759" lon="-7.8829659"><ele>1182.0</ele><time>2026-04-26T08:33:52.843Z</time></trkpt><trkpt lat="41.2303306" lon="-7.8828406"><ele>1182.0</ele><time>2026-04-26T08:33:54.841Z</time></trkpt><trkpt lat="41.2303429" lon="-7.8826863"><ele>1182.0</ele><time>2026-04-26T08:33:56.845Z</time></trkpt><trkpt lat="41.2303262" lon="-7.882544"><ele>1182.0</ele><time>2026-04-26T08:33:58.838Z</time></trkpt><trkpt lat="41.2302849" lon="-7.8824104"><ele>1182.0</ele><time>2026-04-26T08:34:00.842Z</time></trkpt><trkpt lat="41.2302434" lon="-7.8823144"><ele>1185.3333333333333</ele><time>2026-04-26T08:34:02.848Z</time></trkpt><trkpt lat="41.2302513" lon="-7.8822112"><ele>1188.6666666666667</ele><time>2026-04-26T08:34:05.839Z</time></trkpt><trkpt lat="41.2303207" lon="-7.8821697"><ele>1192.0</ele><time>2026-04-26T08:34:07.835Z</time></trkpt><trkpt lat="41.2303925" lon="-7.8821228"><ele>1195.3333333333335</ele><time>2026-04-26T08:34:09.837Z</time></trkpt><trkpt lat="41.2304721" lon="-7.8820537"><ele>1198.6666666666667</ele><time>2026-04-26T08:34:11.841Z</time></trkpt><trkpt lat="41.2305486" lon="-7.8819626"><ele>1202.0</ele><time>2026-04-26T08:34:13.84Z</time></trkpt><trkpt lat="41.2306375" lon="-7.8818586"><ele>1203.5714285714284</ele><time>2026-04-26T08:34:15.84Z</time></trkpt><trkpt lat="41.2306859" lon="-7.8818035"><ele>1205.1428571428573</ele><time>2026-04-26T08:34:16.841Z</time></trkpt><trkpt lat="41.2307299" lon="-7.8817396"><ele>1206.7142857142858</ele><time>2026-04-26T08:34:17.84Z</time></trkpt><trkpt lat="41.2307716" lon="-7.8816717"><ele>1208.2857142857142</ele><time>2026-04-26T08:34:18.843Z</time></trkpt><trkpt lat="41.2308202" lon="-7.8816044"><ele>1209.8571428571427</ele><time>2026-04-26T08:34:19.838Z</time></trkpt><trkpt lat="41.2308731" lon="-7.881529"><ele>1211.4285714285716</ele><time>2026-04-26T08:34:20.843Z</time></trkpt><trkpt lat="41.2309299" lon="-7.8814555"><ele>1213.0</ele><time>2026-04-26T08:34:21.839Z</time></trkpt><trkpt lat="41.2309873" lon="-7.8813836"><ele>1215.5</ele><time>2026-04-26T08:34:22.852Z</time></trkpt><trkpt lat="41.2310449" lon="-7.881315"><ele>1218.0</ele><time>2026-04-26T08:34:23.839Z</time></trkpt><trkpt lat="41.2310973" lon="-7.8812508"><ele>1220.5</ele><time>2026-04-26T08:34:24.84Z</time></trkpt><trkpt lat="41.23119" lon="-7.8811408"><ele>1223.0</ele><time>2026-04-26T08:34:26.849Z</time></trkpt><trkpt lat="41.2312334" lon="-7.8810798"><ele>1225.5</ele><time>2026-04-26T08:34:27.84Z</time></trkpt><trkpt lat="41.2312767" lon="-7.8810123"><ele>1228.0</ele><time>2026-04-26T08:34:28.843Z</time></trkpt><trkpt lat="41.2313105" lon="-7.8809365"><ele>1228.7142857142856</ele><time>2026-04-26T08:34:29.84Z</time></trkpt><trkpt lat="41.2313442" lon="-7.8808631"><ele>1229.4285714285713</ele><time>2026-04-26T08:34:30.836Z</time></trkpt><trkpt lat="41.2313819" lon="-7.8807937"><ele>1230.142857142857</ele><time>2026-04-26T08:34:31.848Z</time></trkpt><trkpt lat="41.2314271" lon="-7.8807249"><ele>1230.8571428571427</ele><time>2026-04-26T08:34:32.836Z</time></trkpt><trkpt lat="41.2314876" lon="-7.8806535"><ele>1231.5714285714284</ele><time>2026-04-26T08:34:33.848Z</time></trkpt><trkpt lat="41.2315378" lon="-7.8805891"><ele>1232.2857142857142</ele><time>2026-04-26T08:34:34.832Z</time></trkpt><trkpt lat="41.2315804" lon="-7.8805233"><ele>1233.0</ele><time>2026-04-26T08:34:35.843Z</time></trkpt><trkpt lat="41.2316175" lon="-7.8804513"><ele>1236.8333333333333</ele><time>2026-04-26T08:34:36.844Z</time></trkpt><trkpt lat="41.2316508" lon="-7.880363"><ele>1240.6666666666667</ele><time>2026-04-26T08:34:37.847Z</time></trkpt><trkpt lat="41.2316809" lon="-7.8802664"><ele>1244.5</ele><time>2026-04-26T08:34:38.841Z</time></trkpt><trkpt lat="41.2317125" lon="-7.8801734"><ele>1248.3333333333335</ele><time>2026-04-26T08:34:39.837Z</time></trkpt><trkpt lat="41.2317471" lon="-7.8800842"><ele>1252.1666666666667</ele><time>2026-04-26T08:34:40.838Z</time></trkpt><trkpt lat="41.2317842" lon="-7.8799974"><ele>1256.0</ele><time>2026-04-26T08:34:41.844Z</time></trkpt><trkpt lat="41.2318238" lon="-7.8799177"><ele>1257.8333333333335</ele><time>2026-04-26T08:34:42.845Z</time></trkpt><trkpt lat="41.2318675" lon="-7.8798448"><ele>1259.6666666666667</ele><time>2026-04-26T08:34:43.84Z</time></trkpt><trkpt lat="41.2319196" lon="-7.8797772"><ele>1261.5</ele><time>2026-04-26T08:34:44.847Z</time></trkpt><trkpt lat="41.2319697" lon="-7.8797019"><ele>1263.3333333333333</ele><time>2026-04-26T08:34:45.852Z</time></trkpt><trkpt lat="41.2320122" lon="-7.8796182"><ele>1265.1666666666665</ele><time>2026-04-26T08:34:46.838Z</time></trkpt><trkpt lat="41.2320549" lon="-7.8795281"><ele>1267.0</ele><time>2026-04-26T08:34:47.839Z</time></trkpt><trkpt lat="41.232105" lon="-7.8794346"><ele>1267.0</ele><time>2026-04-26T08:34:48.845Z</time></trkpt><trkpt lat="41.2321659" lon="-7.8793208"><ele>1267.0</ele><time>2026-04-26T08:34:49.834Z</time></trkpt><trkpt lat="41.2322378" lon="-7.8791832"><ele>1267.0</ele><time>2026-04-26T08:34:50.847Z</time></trkpt><trkpt lat="41.2323116" lon="-7.8790505"><ele>1267.0</ele><time>2026-04-26T08:34:51.842Z</time></trkpt><trkpt lat="41.2323837" lon="-7.878928"><ele>1269.5</ele><time>2026-04-26T08:34:52.836Z</time></trkpt><trkpt lat="41.2324488" lon="-7.8788202"><ele>1272.0</ele><time>2026-04-26T08:34:53.833Z</time></trkpt><trkpt lat="41.2325062" lon="-7.8787335"><ele>1274.5</ele><time>2026-04-26T08:34:54.849Z</time></trkpt><trkpt lat="41.2325847" lon="-7.878671"><ele>1277.0</ele><time>2026-04-26T08:34:56.835Z</time></trkpt><trkpt lat="41.2325737" lon="-7.8787581"><ele>1279.5</ele><time>2026-04-26T08:38:04.842Z</time></trkpt><trkpt lat="41.2326298" lon="-7.8788207"><ele>1282.0</ele><time>2026-04-26T08:38:07.844Z</time></trkpt><trkpt lat="41.2326833" lon="-7.8788988"><ele>1282.0</ele><time>2026-04-26T08:38:10.838Z</time></trkpt><trkpt lat="41.2327371" lon="-7.8789816"><ele>1282.0</ele><time>2026-04-26T08:38:13.849Z</time></trkpt><trkpt lat="41.2327819" lon="-7.8790423"><ele>1282.0</ele><time>2026-04-26T08:38:16.852Z</time></trkpt><trkpt lat="41.2328281" lon="-7.8791205"><ele>1282.0</ele><time>2026-04-26T08:38:21.837Z</time></trkpt><trkpt lat="41.232894" lon="-7.8791642"><ele>1282.0</ele><time>2026-04-26T08:38:25.84Z</time></trkpt><trkpt lat="41.2329448" lon="-7.8792235"><ele>1282.0</ele><time>2026-04-26T08:38:48.839Z</time></trkpt><trkpt lat="41.2330462" lon="-7.879322"><ele>1282.8333333333333</ele><time>2026-04-26T08:38:50.847Z</time></trkpt><trkpt lat="41.2331153" lon="-7.8793834"><ele>1283.6666666666665</ele><time>2026-04-26T08:38:51.838Z</time></trkpt><trkpt lat="41.2331872" lon="-7.8794366"><ele>1284.5</ele><time>2026-04-26T08:38:52.841Z</time></trkpt><trkpt lat="41.233259" lon="-7.8794871"><ele>1285.3333333333333</ele><time>2026-04-26T08:38:53.839Z</time></trkpt><trkpt lat="41.2333438" lon="-7.8795333"><ele>1286.1666666666667</ele><time>2026-04-26T08:38:54.84Z</time></trkpt><trkpt lat="41.233429" lon="-7.8795658"><ele>1287.0</ele><time>2026-04-26T08:38:55.836Z</time></trkpt><trkpt lat="41.2335106" lon="-7.8795905"><ele>1287.0</ele><time>2026-04-26T08:38:56.837Z</time></trkpt><trkpt lat="41.2335947" lon="-7.8796253"><ele>1287.0</ele><time>2026-04-26T08:38:57.841Z</time></trkpt><trkpt lat="41.2336781" lon="-7.8796605"><ele>1287.0</ele><time>2026-04-26T08:38:58.834Z</time></trkpt><trkpt lat="41.2337607" lon="-7.8796948"><ele>1287.0</ele><time>2026-04-26T08:38:59.832Z</time></trkpt><trkpt lat="41.2338381" lon="-7.8797228"><ele>1287.0</ele><time>2026-04-26T08:39:00.843Z</time></trkpt><trkpt lat="41.2339088" lon="-7.8797548"><ele>1287.0</ele><time>2026-04-26T08:39:01.841Z</time></trkpt><trkpt lat="41.2339795" lon="-7.8797882"><ele>1290.6</ele><time>2026-04-26T08:39:02.835Z</time></trkpt><trkpt lat="41.23404" lon="-7.8798243"><ele>1294.1999999999998</ele><time>2026-04-26T08:39:03.836Z</time></trkpt><trkpt lat="41.2341426" lon="-7.8798947"><ele>1297.8</ele><time>2026-04-26T08:39:05.846Z</time></trkpt><trkpt lat="41.2342469" lon="-7.8799785"><ele>1301.4</ele><time>2026-04-26T08:39:07.837Z</time></trkpt><trkpt lat="41.2342996" lon="-7.8800252"><ele>1305.0</ele><time>2026-04-26T08:39:08.837Z</time></trkpt><trkpt lat="41.2343806" lon="-7.8801183"><ele>1305.0</ele><time>2026-04-26T08:39:10.837Z</time></trkpt><trkpt lat="41.2344658" lon="-7.8801792"><ele>1305.0</ele><time>2026-04-26T08:39:12.847Z</time></trkpt><trkpt lat="41.2345473" lon="-7.8802084"><ele>1305.0</ele><time>2026-04-26T08:39:14.831Z</time></trkpt><trkpt lat="41.2346235" lon="-7.8802298"><ele>1305.0</ele><time>2026-04-26T08:39:16.836Z</time></trkpt><trkpt lat="41.2347033" lon="-7.8802675"><ele>1305.0</ele><time>2026-04-26T08:39:18.839Z</time></trkpt><trkpt lat="41.2347844" lon="-7.8802747"><ele>1305.0</ele><time>2026-04-26T08:39:20.844Z</time></trkpt><trkpt lat="41.234878" lon="-7.8802496"><ele>1310.3333333333333</ele><time>2026-04-26T08:39:22.84Z</time></trkpt><trkpt lat="41.2349429" lon="-7.8802013"><ele>1315.6666666666667</ele><time>2026-04-26T08:39:24.839Z</time></trkpt><trkpt lat="41.2350002" lon="-7.8801226"><ele>1321.0</ele><time>2026-04-26T08:39:26.847Z</time></trkpt><trkpt lat="41.2350607" lon="-7.880009"><ele>1326.3333333333335</ele><time>2026-04-26T08:39:28.835Z</time></trkpt><trkpt lat="41.2351275" lon="-7.8799175"><ele>1331.6666666666667</ele><time>2026-04-26T08:39:30.842Z</time></trkpt><trkpt lat="41.2351783" lon="-7.8798456"><ele>1337.0</ele><time>2026-04-26T08:39:32.835Z</time></trkpt><trkpt lat="41.2352409" lon="-7.879782"><ele>1338.1666666666667</ele><time>2026-04-26T08:39:35.836Z</time></trkpt><trkpt lat="41.2353193" lon="-7.8797746"><ele>1339.3333333333335</ele><time>2026-04-26T08:49:26.829Z</time></trkpt><trkpt lat="41.235421" lon="-7.879783"><ele>1340.5</ele><time>2026-04-26T08:49:28.836Z</time></trkpt><trkpt lat="41.2354901" lon="-7.8797983"><ele>1341.6666666666667</ele><time>2026-04-26T08:49:29.835Z</time></trkpt><trkpt lat="41.2355751" lon="-7.8798237"><ele>1342.8333333333333</ele><time>2026-04-26T08:49:30.836Z</time></trkpt><trkpt lat="41.2356525" lon="-7.8798612"><ele>1344.0</ele><time>2026-04-26T08:49:31.83Z</time></trkpt><trkpt lat="41.2357732" lon="-7.8798941"><ele>1347.8333333333333</ele><time>2026-04-26T08:49:33.833Z</time></trkpt><trkpt lat="41.2358202" lon="-7.8799675"><ele>1351.6666666666667</ele><time>2026-04-26T08:49:35.836Z</time></trkpt><trkpt lat="41.235887" lon="-7.8799746"><ele>1355.5</ele><time>2026-04-26T08:49:37.833Z</time></trkpt><trkpt lat="41.2359537" lon="-7.8799937"><ele>1359.3333333333335</ele><time>2026-04-26T08:49:39.839Z</time></trkpt><trkpt lat="41.2360542" lon="-7.8800029"><ele>1363.1666666666667</ele><time>2026-04-26T08:49:41.835Z</time></trkpt><trkpt lat="41.2361723" lon="-7.880006"><ele>1367.0</ele><time>2026-04-26T08:49:43.833Z</time></trkpt><trkpt lat="41.236298" lon="-7.880018"><ele>1367.0</ele><time>2026-04-26T08:49:45.83Z</time></trkpt><trkpt lat="41.2363735" lon="-7.880019"><ele>1367.0</ele><time>2026-04-26T08:49:46.835Z</time></trkpt><trkpt lat="41.2364558" lon="-7.8800091"><ele>1367.0</ele><time>2026-04-26T08:49:47.828Z</time></trkpt><trkpt lat="41.2365391" lon="-7.8799806"><ele>1367.0</ele><time>2026-04-26T08:49:48.837Z</time></trkpt><trkpt lat="41.236602" lon="-7.8799442"><ele>1367.0</ele><time>2026-04-26T08:49:49.83Z</time></trkpt><trkpt lat="41.2366775" lon="-7.8798855"><ele>1367.0</ele><time>2026-04-26T08:49:51.833Z</time></trkpt><trkpt lat="41.2367486" lon="-7.8798439"><ele>1369.4285714285716</ele><time>2026-04-26T08:49:57.827Z</time></trkpt><trkpt lat="41.2368318" lon="-7.8798234"><ele>1371.8571428571427</ele><time>2026-04-26T08:50:09.827Z</time></trkpt><trkpt lat="41.2368833" lon="-7.8797684"><ele>1374.2857142857142</ele><time>2026-04-26T08:50:22.829Z</time></trkpt><trkpt lat="41.2368468" lon="-7.8796723"><ele>1376.7142857142858</ele><time>2026-04-26T08:50:26.83Z</time></trkpt><trkpt lat="41.236809" lon="-7.8795924"><ele>1379.1428571428573</ele><time>2026-04-26T08:50:29.831Z</time></trkpt><trkpt lat="41.2367633" lon="-7.8795251"><ele>1381.5714285714284</ele><time>2026-04-26T08:50:34.839Z</time></trkpt><trkpt lat="41.2368008" lon="-7.8794479"><ele>1384.0</ele><time>2026-04-26T08:50:40.834Z</time></trkpt><trkpt lat="41.2368393" lon="-7.8795318"><ele>1384.0</ele><time>2026-04-26T08:56:04.827Z</time></trkpt><trkpt lat="41.2368639" lon="-7.8796296"><ele>1384.0</ele><time>2026-04-26T08:56:07.837Z</time></trkpt><trkpt lat="41.2369184" lon="-7.8797028"><ele>1384.0</ele><time>2026-04-26T08:56:11.828Z</time></trkpt><trkpt lat="41.236998" lon="-7.8797132"><ele>1384.0</ele><time>2026-04-26T08:56:15.826Z</time></trkpt><trkpt lat="41.2370662" lon="-7.8796945"><ele>1384.0</ele><time>2026-04-26T08:56:18.832Z</time></trkpt><trkpt lat="41.2371377" lon="-7.8796769"><ele>1384.0</ele><time>2026-04-26T08:56:21.832Z</time></trkpt><trkpt lat="41.2372098" lon="-7.8796575"><ele>1384.0</ele><time>2026-04-26T08:56:24.828Z</time></trkpt><trkpt lat="41.2372873" lon="-7.8796509"><ele>1384.0</ele><time>2026-04-26T08:56:27.83Z</time></trkpt><trkpt lat="41.2373639" lon="-7.8796467"><ele>1384.0</ele><time>2026-04-26T08:56:30.83Z</time></trkpt><trkpt lat="41.2374356" lon="-7.879654"><ele>1384.0</ele><time>2026-04-26T08:56:33.831Z</time></trkpt><trkpt lat="41.2375203" lon="-7.8796436"><ele>1384.0</ele><time>2026-04-26T08:56:36.832Z</time></trkpt><trkpt lat="41.2375846" lon="-7.8796281"><ele>1384.0</ele><time>2026-04-26T08:56:38.831Z</time></trkpt><trkpt lat="41.23765" lon="-7.8796168"><ele>1384.0</ele><time>2026-04-26T08:56:40.829Z</time></trkpt><trkpt lat="41.2377263" lon="-7.8796035"><ele>1383.2</ele><time>2026-04-26T08:56:42.829Z</time></trkpt><trkpt lat="41.2378302" lon="-7.8795556"><ele>1382.4</ele><time>2026-04-26T08:56:44.829Z</time></trkpt><trkpt lat="41.2379343" lon="-7.8795455"><ele>1381.6</ele><time>2026-04-26T08:56:46.828Z</time></trkpt><trkpt lat="41.2380222" lon="-7.8795355"><ele>1380.8</ele><time>2026-04-26T08:56:48.836Z</time></trkpt><trkpt lat="41.2381043" lon="-7.8795249"><ele>1380.0</ele><time>2026-04-26T08:56:50.84Z</time></trkpt><trkpt lat="41.2381757" lon="-7.8795304"><ele>1378.5714285714287</ele><time>2026-04-26T08:56:52.826Z</time></trkpt><trkpt lat="41.23826" lon="-7.8795132"><ele>1377.142857142857</ele><time>2026-04-26T08:56:55.832Z</time></trkpt><trkpt lat="41.2383525" lon="-7.8794896"><ele>1375.7142857142858</ele><time>2026-04-26T08:56:58.83Z</time></trkpt><trkpt lat="41.2384165" lon="-7.8794753"><ele>1374.2857142857142</ele><time>2026-04-26T08:57:00.834Z</time></trkpt><trkpt lat="41.2384782" lon="-7.8794483"><ele>1372.857142857143</ele><time>2026-04-26T08:57:02.835Z</time></trkpt><trkpt lat="41.2385425" lon="-7.8794305"><ele>1371.4285714285713</ele><time>2026-04-26T08:57:04.831Z</time></trkpt><trkpt lat="41.238605" lon="-7.8794062"><ele>1370.0</ele><time>2026-04-26T08:57:06.829Z</time></trkpt><trkpt lat="41.2386673" lon="-7.8793885"><ele>1370.0</ele><time>2026-04-26T08:57:08.841Z</time></trkpt><trkpt lat="41.2387577" lon="-7.879378"><ele>1370.0</ele><time>2026-04-26T08:57:11.826Z</time></trkpt><trkpt lat="41.2388361" lon="-7.8793637"><ele>1370.0</ele><time>2026-04-26T08:57:14.829Z</time></trkpt><trkpt lat="41.2389175" lon="-7.8793529"><ele>1370.0</ele><time>2026-04-26T08:57:17.828Z</time></trkpt><trkpt lat="41.2389978" lon="-7.8793377"><ele>1370.0</ele><time>2026-04-26T08:57:20.829Z</time></trkpt><trkpt lat="41.2390654" lon="-7.8793291"><ele>1370.0</ele><time>2026-04-26T08:57:22.834Z</time></trkpt><trkpt lat="41.239139" lon="-7.8793178"><ele>1370.4</ele><time>2026-04-26T08:57:24.833Z</time></trkpt><trkpt lat="41.2392165" lon="-7.8793047"><ele>1370.8</ele><time>2026-04-26T08:57:26.833Z</time></trkpt><trkpt lat="41.2392987" lon="-7.879291"><ele>1371.1999999999998</ele><time>2026-04-26T08:57:28.83Z</time></trkpt><trkpt lat="41.239377" lon="-7.8792691"><ele>1371.6</ele><time>2026-04-26T08:57:30.845Z</time></trkpt><trkpt lat="41.2394634" lon="-7.8792413"><ele>1372.0</ele><time>2026-04-26T08:57:32.828Z</time></trkpt><trkpt lat="41.2396111" lon="-7.8791956"><ele>1372.0</ele><time>2026-04-26T08:57:34.828Z</time></trkpt><trkpt lat="41.2396968" lon="-7.879169"><ele>1372.0</ele><time>2026-04-26T08:57:35.834Z</time></trkpt><trkpt lat="41.2397728" lon="-7.8791484"><ele>1372.0</ele><time>2026-04-26T08:57:36.835Z</time></trkpt><trkpt lat="41.2398829" lon="-7.8791348"><ele>1372.0</ele><time>2026-04-26T08:57:38.835Z</time></trkpt><trkpt lat="41.2399691" lon="-7.8791497"><ele>1372.0</ele><time>2026-04-26T08:57:40.833Z</time></trkpt><trkpt lat="41.2400307" lon="-7.8791899"><ele>1372.0</ele><time>2026-04-26T08:57:42.829Z</time></trkpt><trkpt lat="41.2400916" lon="-7.8792383"><ele>1372.5714285714287</ele><time>2026-04-26T08:57:44.824Z</time></trkpt><trkpt lat="41.2401527" lon="-7.8792833"><ele>1373.142857142857</ele><time>2026-04-26T08:57:46.831Z</time></trkpt><trkpt lat="41.2402187" lon="-7.8793206"><ele>1373.7142857142858</ele><time>2026-04-26T08:57:48.833Z</time></trkpt><trkpt lat="41.2402832" lon="-7.8793339"><ele>1374.2857142857142</ele><time>2026-04-26T08:57:50.831Z</time></trkpt><trkpt lat="41.2403489" lon="-7.8793433"><ele>1374.857142857143</ele><time>2026-04-26T08:57:52.833Z</time></trkpt><trkpt lat="41.2404192" lon="-7.8793563"><ele>1375.4285714285716</ele><time>2026-04-26T08:57:54.828Z</time></trkpt><trkpt lat="41.2404883" lon="-7.8793581"><ele>1376.0</ele><time>2026-04-26T08:57:56.839Z</time></trkpt><trkpt lat="41.2405536" lon="-7.8793286"><ele>1374.8333333333335</ele><time>2026-04-26T08:57:58.827Z</time></trkpt><trkpt lat="41.2405905" lon="-7.8792289"><ele>1373.6666666666667</ele><time>2026-04-26T08:58:01.838Z</time></trkpt><trkpt lat="41.2405609" lon="-7.8791345"><ele>1372.5</ele><time>2026-04-26T08:58:03.833Z</time></trkpt><trkpt lat="41.2405197" lon="-7.8790369"><ele>1371.3333333333333</ele><time>2026-04-26T08:58:05.838Z</time></trkpt><trkpt lat="41.2404789" lon="-7.8789404"><ele>1370.1666666666665</ele><time>2026-04-26T08:58:07.832Z</time></trkpt><trkpt lat="41.2404376" lon="-7.8788282"><ele>1369.0</ele><time>2026-04-26T08:58:09.832Z</time></trkpt><trkpt lat="41.240397" lon="-7.8787216"><ele>1369.0</ele><time>2026-04-26T08:58:11.838Z</time></trkpt><trkpt lat="41.240356" lon="-7.8786116"><ele>1369.0</ele><time>2026-04-26T08:58:13.828Z</time></trkpt><trkpt lat="41.240333" lon="-7.8784953"><ele>1369.0</ele><time>2026-04-26T08:58:15.833Z</time></trkpt><trkpt lat="41.2403442" lon="-7.8783742"><ele>1369.0</ele><time>2026-04-26T08:58:17.832Z</time></trkpt><trkpt lat="41.2404042" lon="-7.8782517"><ele>1369.0</ele><time>2026-04-26T08:58:19.838Z</time></trkpt><trkpt lat="41.2404711" lon="-7.878201"><ele>1366.6666666666665</ele><time>2026-04-26T08:58:20.834Z</time></trkpt><trkpt lat="41.2405502" lon="-7.8781573"><ele>1364.3333333333333</ele><time>2026-04-26T08:58:21.831Z</time></trkpt><trkpt lat="41.24063" lon="-7.8781029"><ele>1362.0</ele><time>2026-04-26T08:58:22.835Z</time></trkpt><trkpt lat="41.240702" lon="-7.8780478"><ele>1359.6666666666667</ele><time>2026-04-26T08:58:23.83Z</time></trkpt><trkpt lat="41.240767" lon="-7.8779888"><ele>1357.3333333333335</ele><time>2026-04-26T08:58:24.836Z</time></trkpt><trkpt lat="41.24083" lon="-7.8779259"><ele>1355.0</ele><time>2026-04-26T08:58:25.826Z</time></trkpt><trkpt lat="41.2408915" lon="-7.8778664"><ele>1353.2857142857144</ele><time>2026-04-26T08:58:26.825Z</time></trkpt><trkpt lat="41.2409509" lon="-7.8778092"><ele>1351.5714285714287</ele><time>2026-04-26T08:58:27.828Z</time></trkpt><trkpt lat="41.2410069" lon="-7.8777521"><ele>1349.857142857143</ele><time>2026-04-26T08:58:28.827Z</time></trkpt><trkpt lat="41.2410678" lon="-7.8777019"><ele>1348.1428571428573</ele><time>2026-04-26T08:58:29.835Z</time></trkpt><trkpt lat="41.2411329" lon="-7.8776539"><ele>1346.4285714285716</ele><time>2026-04-26T08:58:30.835Z</time></trkpt><trkpt lat="41.2412046" lon="-7.8776154"><ele>1344.7142857142858</ele><time>2026-04-26T08:58:31.829Z</time></trkpt><trkpt lat="41.2412834" lon="-7.8775921"><ele>1343.0</ele><time>2026-04-26T08:58:32.837Z</time></trkpt><trkpt lat="41.2413658" lon="-7.8775735"><ele>1342.0</ele><time>2026-04-26T08:58:33.827Z</time></trkpt><trkpt lat="41.2414468" lon="-7.8775563"><ele>1341.0</ele><time>2026-04-26T08:58:34.838Z</time></trkpt><trkpt lat="41.2415226" lon="-7.8775411"><ele>1340.0</ele><time>2026-04-26T08:58:35.833Z</time></trkpt><trkpt lat="41.241598" lon="-7.8775331"><ele>1339.0</ele><time>2026-04-26T08:58:36.838Z</time></trkpt><trkpt lat="41.2416742" lon="-7.8775292"><ele>1338.0</ele><time>2026-04-26T08:58:37.84Z</time></trkpt><trkpt lat="41.2417495" lon="-7.8775271"><ele>1337.0</ele><time>2026-04-26T08:58:38.834Z</time></trkpt><trkpt lat="41.2418309" lon="-7.8775225"><ele>1337.0</ele><time>2026-04-26T08:58:39.828Z</time></trkpt><trkpt lat="41.2419266" lon="-7.8775234"><ele>1337.0</ele><time>2026-04-26T08:58:40.834Z</time></trkpt><trkpt lat="41.2420297" lon="-7.877523"><ele>1337.0</ele><time>2026-04-26T08:58:41.834Z</time></trkpt><trkpt lat="41.2421348" lon="-7.8775234"><ele>1337.0</ele><time>2026-04-26T08:58:42.829Z</time></trkpt><trkpt lat="41.2422422" lon="-7.8775178"><ele>1337.0</ele><time>2026-04-26T08:58:43.832Z</time></trkpt><trkpt lat="41.2423482" lon="-7.8775126"><ele>1336.3999999999999</ele><time>2026-04-26T08:58:44.824Z</time></trkpt><trkpt lat="41.2424543" lon="-7.8775041"><ele>1335.8</ele><time>2026-04-26T08:58:45.826Z</time></trkpt><trkpt lat="41.2425527" lon="-7.8774896"><ele>1335.2</ele><time>2026-04-26T08:58:46.829Z</time></trkpt><trkpt lat="41.2426508" lon="-7.8774815"><ele>1334.6</ele><time>2026-04-26T08:58:47.835Z</time></trkpt><trkpt lat="41.2427443" lon="-7.8774816"><ele>1334.0</ele><time>2026-04-26T08:58:48.829Z</time></trkpt><trkpt lat="41.2428333" lon="-7.8774849"><ele>1334.0</ele><time>2026-04-26T08:58:49.834Z</time></trkpt><trkpt lat="41.2429254" lon="-7.877482"><ele>1334.0</ele><time>2026-04-26T08:58:50.827Z</time></trkpt><trkpt lat="41.2430194" lon="-7.877479"><ele>1334.0</ele><time>2026-04-26T08:58:51.826Z</time></trkpt><trkpt lat="41.243105" lon="-7.8774693"><ele>1334.0</ele><time>2026-04-26T08:58:52.833Z</time></trkpt><trkpt lat="41.2431875" lon="-7.8774461"><ele>1334.0</ele><time>2026-04-26T08:58:53.834Z</time></trkpt><trkpt lat="41.2432652" lon="-7.8774101"><ele>1334.0</ele><time>2026-04-26T08:58:54.825Z</time></trkpt><trkpt lat="41.243342" lon="-7.8773759"><ele>1334.1428571428573</ele><time>2026-04-26T08:58:55.83Z</time></trkpt><trkpt lat="41.243416" lon="-7.8773608"><ele>1334.2857142857142</ele><time>2026-04-26T08:58:56.828Z</time></trkpt><trkpt lat="41.2434865" lon="-7.8773738"><ele>1334.4285714285716</ele><time>2026-04-26T08:58:57.834Z</time></trkpt><trkpt lat="41.2435521" lon="-7.8774035"><ele>1334.5714285714287</ele><time>2026-04-26T08:58:58.83Z</time></trkpt><trkpt lat="41.2436188" lon="-7.8774466"><ele>1334.7142857142858</ele><time>2026-04-26T08:58:59.836Z</time></trkpt><trkpt lat="41.2436838" lon="-7.8774977"><ele>1334.857142857143</ele><time>2026-04-26T08:59:00.83Z</time></trkpt><trkpt lat="41.2437494" lon="-7.8775504"><ele>1335.0</ele><time>2026-04-26T08:59:01.835Z</time></trkpt><trkpt lat="41.2438124" lon="-7.8776057"><ele>1334.3333333333333</ele><time>2026-04-26T08:59:02.83Z</time></trkpt><trkpt lat="41.243863" lon="-7.8776762"><ele>1333.6666666666667</ele><time>2026-04-26T08:59:03.826Z</time></trkpt><trkpt lat="41.2438967" lon="-7.8777559"><ele>1333.0</ele><time>2026-04-26T08:59:04.826Z</time></trkpt><trkpt lat="41.2439234" lon="-7.8778349"><ele>1332.3333333333335</ele><time>2026-04-26T08:59:05.833Z</time></trkpt><trkpt lat="41.2439553" lon="-7.8779194"><ele>1331.6666666666667</ele><time>2026-04-26T08:59:06.837Z</time></trkpt><trkpt lat="41.2439913" lon="-7.8779893"><ele>1331.0</ele><time>2026-04-26T08:59:07.835Z</time></trkpt><trkpt lat="41.2440756" lon="-7.8780966"><ele>1332.1666666666667</ele><time>2026-04-26T08:59:09.838Z</time></trkpt><trkpt lat="41.24416" lon="-7.8782247"><ele>1333.3333333333335</ele><time>2026-04-26T08:59:11.828Z</time></trkpt><trkpt lat="41.2441991" lon="-7.8782981"><ele>1334.5</ele><time>2026-04-26T08:59:12.826Z</time></trkpt><trkpt lat="41.244232" lon="-7.8783782"><ele>1335.6666666666667</ele><time>2026-04-26T08:59:13.836Z</time></trkpt><trkpt lat="41.2442638" lon="-7.8784628"><ele>1336.8333333333333</ele><time>2026-04-26T08:59:14.836Z</time></trkpt><trkpt lat="41.2442979" lon="-7.8785426"><ele>1338.0</ele><time>2026-04-26T08:59:15.828Z</time></trkpt><trkpt lat="41.2443353" lon="-7.8786258"><ele>1338.0</ele><time>2026-04-26T08:59:16.826Z</time></trkpt><trkpt lat="41.2443778" lon="-7.8787036"><ele>1338.0</ele><time>2026-04-26T08:59:17.832Z</time></trkpt><trkpt lat="41.2444332" lon="-7.8787803"><ele>1338.0</ele><time>2026-04-26T08:59:18.833Z</time></trkpt><trkpt lat="41.2444948" lon="-7.8788414"><ele>1338.0</ele><time>2026-04-26T08:59:19.832Z</time></trkpt><trkpt lat="41.2445587" lon="-7.8788985"><ele>1338.0</ele><time>2026-04-26T08:59:20.832Z</time></trkpt><trkpt lat="41.244622" lon="-7.8789483"><ele>1338.0</ele><time>2026-04-26T08:59:21.834Z</time></trkpt><trkpt lat="41.2446835" lon="-7.8790098"><ele>1338.0</ele><time>2026-04-26T08:59:22.834Z</time></trkpt><trkpt lat="41.2447309" lon="-7.8790739"><ele>1338.0</ele><time>2026-04-26T08:59:23.834Z</time></trkpt><trkpt lat="41.2447839" lon="-7.8791395"><ele>1338.0</ele><time>2026-04-26T08:59:24.832Z</time></trkpt><trkpt lat="41.2448341" lon="-7.8792055"><ele>1338.0</ele><time>2026-04-26T08:59:25.833Z</time></trkpt><trkpt lat="41.244885" lon="-7.8792753"><ele>1338.0</ele><time>2026-04-26T08:59:26.829Z</time></trkpt><trkpt lat="41.2449317" lon="-7.8793462"><ele>1338.0</ele><time>2026-04-26T08:59:27.831Z</time></trkpt><trkpt lat="41.2449805" lon="-7.8794198"><ele>1338.0</ele><time>2026-04-26T08:59:28.83Z</time></trkpt><trkpt lat="41.245027" lon="-7.8795055"><ele>1339.6666666666667</ele><time>2026-04-26T08:59:29.834Z</time></trkpt><trkpt lat="41.245071" lon="-7.8795951"><ele>1341.3333333333333</ele><time>2026-04-26T08:59:30.839Z</time></trkpt><trkpt lat="41.2451165" lon="-7.8796872"><ele>1343.0</ele><time>2026-04-26T08:59:31.828Z</time></trkpt><trkpt lat="41.2451671" lon="-7.8797824"><ele>1344.6666666666665</ele><time>2026-04-26T08:59:32.84Z</time></trkpt><trkpt lat="41.245221" lon="-7.8798782"><ele>1346.3333333333333</ele><time>2026-04-26T08:59:33.834Z</time></trkpt><trkpt lat="41.2452725" lon="-7.8799732"><ele>1348.0</ele><time>2026-04-26T08:59:34.833Z</time></trkpt><trkpt lat="41.2453219" lon="-7.8800663"><ele>1347.3333333333333</ele><time>2026-04-26T08:59:35.836Z</time></trkpt><trkpt lat="41.245371" lon="-7.8801615"><ele>1346.6666666666665</ele><time>2026-04-26T08:59:36.83Z</time></trkpt><trkpt lat="41.2454137" lon="-7.8802526"><ele>1346.0</ele><time>2026-04-26T08:59:37.829Z</time></trkpt><trkpt lat="41.245464" lon="-7.8803369"><ele>1345.3333333333333</ele><time>2026-04-26T08:59:38.839Z</time></trkpt><trkpt lat="41.2455134" lon="-7.8804222"><ele>1344.6666666666667</ele><time>2026-04-26T08:59:39.831Z</time></trkpt><trkpt lat="41.24556" lon="-7.8805065"><ele>1344.0</ele><time>2026-04-26T08:59:40.834Z</time></trkpt><trkpt lat="41.2456051" lon="-7.8805919"><ele>1346.0</ele><time>2026-04-26T08:59:41.836Z</time></trkpt><trkpt lat="41.2456502" lon="-7.8806828"><ele>1348.0</ele><time>2026-04-26T08:59:42.835Z</time></trkpt><trkpt lat="41.2457022" lon="-7.8807741"><ele>1350.0</ele><time>2026-04-26T08:59:43.837Z</time></trkpt><trkpt lat="41.2457514" lon="-7.880857"><ele>1352.0</ele><time>2026-04-26T08:59:44.83Z</time></trkpt><trkpt lat="41.2458027" lon="-7.88093"><ele>1354.0</ele><time>2026-04-26T08:59:45.828Z</time></trkpt><trkpt lat="41.2458539" lon="-7.8809955"><ele>1356.0</ele><time>2026-04-26T08:59:46.838Z</time></trkpt><trkpt lat="41.2459221" lon="-7.8810602"><ele>1356.0</ele><time>2026-04-26T08:59:48.825Z</time></trkpt><trkpt lat="41.2459857" lon="-7.8810026"><ele>1356.0</ele><time>2026-04-26T08:59:50.833Z</time></trkpt><trkpt lat="41.2460444" lon="-7.8809471"><ele>1356.0</ele><time>2026-04-26T08:59:52.832Z</time></trkpt><trkpt lat="41.2461185" lon="-7.8809094"><ele>1356.0</ele><time>2026-04-26T08:59:54.83Z</time></trkpt><trkpt lat="41.2461966" lon="-7.8808975"><ele>1356.0</ele><time>2026-04-26T08:59:56.829Z</time></trkpt><trkpt lat="41.2462721" lon="-7.8809028"><ele>1356.0</ele><time>2026-04-26T08:59:58.83Z</time></trkpt><trkpt lat="41.2463351" lon="-7.8809351"><ele>1356.0</ele><time>2026-04-26T09:00:00.836Z</time></trkpt><trkpt lat="41.246398" lon="-7.880994"><ele>1356.0</ele><time>2026-04-26T09:00:02.83Z</time></trkpt><trkpt lat="41.2464672" lon="-7.8810585"><ele>1356.0</ele><time>2026-04-26T09:00:04.827Z</time></trkpt><trkpt lat="41.2465332" lon="-7.8811148"><ele>1356.0</ele><time>2026-04-26T09:00:06.83Z</time></trkpt><trkpt lat="41.2465929" lon="-7.8811783"><ele>1356.0</ele><time>2026-04-26T09:00:08.828Z</time></trkpt><trkpt lat="41.2466382" lon="-7.8812694"><ele>1356.0</ele><time>2026-04-26T09:00:10.83Z</time></trkpt><trkpt lat="41.2466937" lon="-7.8813697"><ele>1357.8</ele><time>2026-04-26T09:00:12.829Z</time></trkpt><trkpt lat="41.2467587" lon="-7.8814732"><ele>1359.6</ele><time>2026-04-26T09:00:14.828Z</time></trkpt><trkpt lat="41.2468245" lon="-7.881581"><ele>1361.4</ele><time>2026-04-26T09:00:16.834Z</time></trkpt><trkpt lat="41.2468805" lon="-7.8816967"><ele>1363.2</ele><time>2026-04-26T09:00:18.827Z</time></trkpt><trkpt lat="41.2469116" lon="-7.8818305"><ele>1365.0</ele><time>2026-04-26T09:00:20.834Z</time></trkpt><trkpt lat="41.2469358" lon="-7.881972"><ele>1365.0</ele><time>2026-04-26T09:00:22.843Z</time></trkpt><trkpt lat="41.2469987" lon="-7.8821112"><ele>1365.0</ele><time>2026-04-26T09:00:24.826Z</time></trkpt><trkpt lat="41.2470363" lon="-7.8821837"><ele>1365.0</ele><time>2026-04-26T09:00:25.836Z</time></trkpt><trkpt lat="41.2470718" lon="-7.8822587"><ele>1365.0</ele><time>2026-04-26T09:00:26.834Z</time></trkpt><trkpt lat="41.2471369" lon="-7.8823879"><ele>1365.0</ele><time>2026-04-26T09:00:28.829Z</time></trkpt><trkpt lat="41.2472042" lon="-7.8825116"><ele>1363.6</ele><time>2026-04-26T09:00:30.83Z</time></trkpt><trkpt lat="41.2472742" lon="-7.8826359"><ele>1362.2</ele><time>2026-04-26T09:00:32.832Z</time></trkpt><trkpt lat="41.2473531" lon="-7.8827606"><ele>1360.8000000000002</ele><time>2026-04-26T09:00:34.825Z</time></trkpt><trkpt lat="41.2474319" lon="-7.8828837"><ele>1359.4</ele><time>2026-04-26T09:00:36.838Z</time></trkpt><trkpt lat="41.2474773" lon="-7.8829481"><ele>1358.0</ele><time>2026-04-26T09:00:37.83Z</time></trkpt><trkpt lat="41.2475255" lon="-7.8830123"><ele>1361.2</ele><time>2026-04-26T09:00:38.834Z</time></trkpt><trkpt lat="41.2475727" lon="-7.8830757"><ele>1364.4</ele><time>2026-04-26T09:00:39.829Z</time></trkpt><trkpt lat="41.2476497" lon="-7.8831925"><ele>1367.6000000000001</ele><time>2026-04-26T09:00:41.83Z</time></trkpt><trkpt lat="41.2477288" lon="-7.883301"><ele>1370.8000000000002</ele><time>2026-04-26T09:00:43.829Z</time></trkpt><trkpt lat="41.247792" lon="-7.8833909"><ele>1374.0</ele><time>2026-04-26T09:00:45.836Z</time></trkpt><trkpt lat="41.2478639" lon="-7.8834636"><ele>1375.0</ele><time>2026-04-26T09:00:47.839Z</time></trkpt><trkpt lat="41.2479159" lon="-7.883524"><ele>1376.0</ele><time>2026-04-26T09:00:49.826Z</time></trkpt><trkpt lat="41.2479571" lon="-7.8836313"><ele>1377.0</ele><time>2026-04-26T09:00:51.832Z</time></trkpt><trkpt lat="41.2479932" lon="-7.8837659"><ele>1378.0</ele><time>2026-04-26T09:00:53.835Z</time></trkpt><trkpt lat="41.2480255" lon="-7.88392"><ele>1379.0</ele><time>2026-04-26T09:00:55.841Z</time></trkpt><trkpt lat="41.248047" lon="-7.8840014"><ele>1379.0</ele><time>2026-04-26T09:00:56.831Z</time></trkpt><trkpt lat="41.2480716" lon="-7.8840817"><ele>1379.0</ele><time>2026-04-26T09:00:57.828Z</time></trkpt><trkpt lat="41.2480973" lon="-7.8841594"><ele>1379.0</ele><time>2026-04-26T09:00:58.827Z</time></trkpt><trkpt lat="41.2481372" lon="-7.8843039"><ele>1379.0</ele><time>2026-04-26T09:01:00.84Z</time></trkpt><trkpt lat="41.248174" lon="-7.8844517"><ele>1379.0</ele><time>2026-04-26T09:01:02.827Z</time></trkpt><trkpt lat="41.2482209" lon="-7.884593"><ele>1383.6</ele><time>2026-04-26T09:01:04.835Z</time></trkpt><trkpt lat="41.2482532" lon="-7.884729"><ele>1388.2</ele><time>2026-04-26T09:01:06.832Z</time></trkpt><trkpt lat="41.2482781" lon="-7.8848614"><ele>1392.8</ele><time>2026-04-26T09:01:08.833Z</time></trkpt><trkpt lat="41.2482474" lon="-7.8849999"><ele>1397.3999999999999</ele><time>2026-04-26T09:01:10.829Z</time></trkpt><trkpt lat="41.2482401" lon="-7.8851533"><ele>1402.0</ele><time>2026-04-26T09:01:12.836Z</time></trkpt><trkpt lat="41.2482502" lon="-7.8853118"><ele>1402.6</ele><time>2026-04-26T09:01:14.831Z</time></trkpt><trkpt lat="41.2482637" lon="-7.8854606"><ele>1403.1999999999998</ele><time>2026-04-26T09:01:16.837Z</time></trkpt><trkpt lat="41.2482767" lon="-7.8856166"><ele>1403.8</ele><time>2026-04-26T09:01:18.827Z</time></trkpt><trkpt lat="41.2482966" lon="-7.8857816"><ele>1404.4</ele><time>2026-04-26T09:01:20.83Z</time></trkpt><trkpt lat="41.24832" lon="-7.8858661"><ele>1405.0</ele><time>2026-04-26T09:01:21.83Z</time></trkpt><trkpt lat="41.2483488" lon="-7.8859524"><ele>1405.0</ele><time>2026-04-26T09:01:22.832Z</time></trkpt><trkpt lat="41.2483699" lon="-7.8860366"><ele>1405.0</ele><time>2026-04-26T09:01:23.83Z</time></trkpt><trkpt lat="41.2484168" lon="-7.8861696"><ele>1405.0</ele><time>2026-04-26T09:01:25.835Z</time></trkpt><trkpt lat="41.2484563" lon="-7.886287"><ele>1405.0</ele><time>2026-04-26T09:01:27.831Z</time></trkpt><trkpt lat="41.248488" lon="-7.8863984"><ele>1405.0</ele><time>2026-04-26T09:01:29.829Z</time></trkpt><trkpt lat="41.2484845" lon="-7.8864923"><ele>1405.0</ele><time>2026-04-26T09:01:31.828Z</time></trkpt><trkpt lat="41.2484321" lon="-7.8865454"><ele>1405.0</ele><time>2026-04-26T09:01:33.827Z</time></trkpt><trkpt lat="41.2483654" lon="-7.8865848"><ele>1405.0</ele><time>2026-04-26T09:01:35.826Z</time></trkpt><trkpt lat="41.2483025" lon="-7.8866179"><ele>1405.0</ele><time>2026-04-26T09:01:37.833Z</time></trkpt><trkpt lat="41.2482551" lon="-7.8866754"><ele>1405.0</ele><time>2026-04-26T09:01:39.826Z</time></trkpt><trkpt lat="41.2482403" lon="-7.8867667"><ele>1405.0</ele><time>2026-04-26T09:01:41.829Z</time></trkpt><trkpt lat="41.2482387" lon="-7.8868727"><ele>1405.0</ele><time>2026-04-26T09:01:43.833Z</time></trkpt><trkpt lat="41.248238" lon="-7.8869668"><ele>1405.0</ele><time>2026-04-26T09:01:45.829Z</time></trkpt><trkpt lat="41.248257" lon="-7.8870759"><ele>1404.3333333333333</ele><time>2026-04-26T09:01:48.833Z</time></trkpt><trkpt lat="41.248319" lon="-7.8871436"><ele>1403.6666666666665</ele><time>2026-04-26T09:01:51.834Z</time></trkpt><trkpt lat="41.2483985" lon="-7.8871853"><ele>1403.0</ele><time>2026-04-26T09:01:54.825Z</time></trkpt><trkpt lat="41.2484629" lon="-7.887259"><ele>1402.3333333333333</ele><time>2026-04-26T09:01:57.839Z</time></trkpt><trkpt lat="41.2485139" lon="-7.8873439"><ele>1401.6666666666667</ele><time>2026-04-26T09:02:00.834Z</time></trkpt><trkpt lat="41.2485577" lon="-7.88742"><ele>1401.0</ele><time>2026-04-26T09:02:03.831Z</time></trkpt><trkpt lat="41.2485081" lon="-7.8873445"><ele>1401.0</ele><time>2026-04-26T09:10:10.834Z</time></trkpt><trkpt lat="41.2484619" lon="-7.8872536"><ele>1401.0</ele><time>2026-04-26T09:10:13.827Z</time></trkpt><trkpt lat="41.2484167" lon="-7.8871951"><ele>1401.0</ele><time>2026-04-26T09:10:15.822Z</time></trkpt><trkpt lat="41.2483529" lon="-7.8871695"><ele>1401.0</ele><time>2026-04-26T09:10:18.822Z</time></trkpt><trkpt lat="41.2482787" lon="-7.8871313"><ele>1401.0</ele><time>2026-04-26T09:10:21.823Z</time></trkpt><trkpt lat="41.2482009" lon="-7.8871172"><ele>1401.0</ele><time>2026-04-26T09:10:24.83Z</time></trkpt><trkpt lat="41.2481607" lon="-7.887192"><ele>1401.0</ele><time>2026-04-26T09:10:27.827Z</time></trkpt><trkpt lat="41.2481734" lon="-7.8872908"><ele>1401.0</ele><time>2026-04-26T09:10:31.826Z</time></trkpt><trkpt lat="41.2481826" lon="-7.8873963"><ele>1401.0</ele><time>2026-04-26T09:10:35.83Z</time></trkpt><trkpt lat="41.2481827" lon="-7.8875064"><ele>1401.0</ele><time>2026-04-26T09:10:38.826Z</time></trkpt><trkpt lat="41.2481564" lon="-7.8875965"><ele>1401.0</ele><time>2026-04-26T09:10:40.83Z</time></trkpt><trkpt lat="41.2481404" lon="-7.8876934"><ele>1401.0</ele><time>2026-04-26T09:10:42.829Z</time></trkpt><trkpt lat="41.2481314" lon="-7.8877883"><ele>1401.0</ele><time>2026-04-26T09:10:44.821Z</time></trkpt><trkpt lat="41.2481305" lon="-7.8878972"><ele>1399.5</ele><time>2026-04-26T09:10:47.821Z</time></trkpt><trkpt lat="41.2481349" lon="-7.8880069"><ele>1398.0</ele><time>2026-04-26T09:10:51.829Z</time></trkpt><trkpt lat="41.2481567" lon="-7.8881144"><ele>1396.5</ele><time>2026-04-26T09:10:54.827Z</time></trkpt><trkpt lat="41.2481816" lon="-7.8882168"><ele>1395.0</ele><time>2026-04-26T09:10:58.823Z</time></trkpt><trkpt lat="41.248206" lon="-7.8883197"><ele>1393.5</ele><time>2026-04-26T09:11:01.828Z</time></trkpt><trkpt lat="41.248237" lon="-7.8883955"><ele>1392.0</ele><time>2026-04-26T09:11:04.826Z</time></trkpt><trkpt lat="41.2482607" lon="-7.888478"><ele>1389.5</ele><time>2026-04-26T09:11:07.831Z</time></trkpt><trkpt lat="41.2483002" lon="-7.888565"><ele>1387.0</ele><time>2026-04-26T09:11:12.823Z</time></trkpt><trkpt lat="41.2483526" lon="-7.8886242"><ele>1384.5</ele><time>2026-04-26T09:11:15.828Z</time></trkpt><trkpt lat="41.2482705" lon="-7.8886524"><ele>1382.0</ele><time>2026-04-26T09:11:24.829Z</time></trkpt><trkpt lat="41.2482027" lon="-7.8886628"><ele>1379.5</ele><time>2026-04-26T09:11:26.827Z</time></trkpt><trkpt lat="41.2481303" lon="-7.8887126"><ele>1377.0</ele><time>2026-04-26T09:11:29.826Z</time></trkpt><trkpt lat="41.2481215" lon="-7.8888129"><ele>1377.0</ele><time>2026-04-26T09:11:33.827Z</time></trkpt><trkpt lat="41.2481674" lon="-7.8888708"><ele>1377.0</ele><time>2026-04-26T09:11:36.824Z</time></trkpt><trkpt lat="41.2482332" lon="-7.888901"><ele>1377.0</ele><time>2026-04-26T09:11:39.823Z</time></trkpt><trkpt lat="41.248268" lon="-7.888981"><ele>1377.0</ele><time>2026-04-26T09:11:42.823Z</time></trkpt><trkpt lat="41.2482882" lon="-7.8890778"><ele>1377.0</ele><time>2026-04-26T09:11:44.82Z</time></trkpt><trkpt lat="41.2483368" lon="-7.8891572"><ele>1377.0</ele><time>2026-04-26T09:11:46.817Z</time></trkpt><trkpt lat="41.2483533" lon="-7.8892423"><ele>1377.0</ele><time>2026-04-26T09:11:49.829Z</time></trkpt><trkpt lat="41.2482678" lon="-7.8892438"><ele>1377.0</ele><time>2026-04-26T09:11:53.829Z</time></trkpt><trkpt lat="41.2482054" lon="-7.8892293"><ele>1377.0</ele><time>2026-04-26T09:11:55.822Z</time></trkpt><trkpt lat="41.2481195" lon="-7.8891979"><ele>1377.0</ele><time>2026-04-26T09:11:58.825Z</time></trkpt><trkpt lat="41.2480608" lon="-7.889166"><ele>1377.0</ele><time>2026-04-26T09:12:14.819Z</time></trkpt><trkpt lat="41.2479986" lon="-7.8891269"><ele>1377.0</ele><time>2026-04-26T09:12:17.822Z</time></trkpt><trkpt lat="41.247937" lon="-7.8891092"><ele>1377.0</ele><time>2026-04-26T09:12:19.826Z</time></trkpt><trkpt lat="41.2478749" lon="-7.8891398"><ele>1377.0</ele><time>2026-04-26T09:12:22.821Z</time></trkpt><trkpt lat="41.247874" lon="-7.8892294"><ele>1371.6666666666667</ele><time>2026-04-26T09:12:26.823Z</time></trkpt><trkpt lat="41.247936" lon="-7.8892864"><ele>1366.3333333333333</ele><time>2026-04-26T09:12:30.82Z</time></trkpt><trkpt lat="41.2479524" lon="-7.8893881"><ele>1361.0</ele><time>2026-04-26T09:12:34.826Z</time></trkpt><trkpt lat="41.2479083" lon="-7.8894579"><ele>1355.6666666666665</ele><time>2026-04-26T09:12:38.821Z</time></trkpt><trkpt lat="41.2478613" lon="-7.8895408"><ele>1350.3333333333333</ele><time>2026-04-26T09:12:41.825Z</time></trkpt><trkpt lat="41.2478299" lon="-7.8896189"><ele>1345.0</ele><time>2026-04-26T09:12:44.826Z</time></trkpt><trkpt lat="41.247809" lon="-7.8897256"><ele>1345.0</ele><time>2026-04-26T09:12:47.823Z</time></trkpt><trkpt lat="41.2478175" lon="-7.8898351"><ele>1345.0</ele><time>2026-04-26T09:12:50.823Z</time></trkpt><trkpt lat="41.2478413" lon="-7.8899304"><ele>1345.0</ele><time>2026-04-26T09:12:53.822Z</time></trkpt><trkpt lat="41.2478629" lon="-7.8900483"><ele>1345.0</ele><time>2026-04-26T09:12:56.822Z</time></trkpt><trkpt lat="41.2478718" lon="-7.8901506"><ele>1345.0</ele><time>2026-04-26T09:12:58.821Z</time></trkpt><trkpt lat="41.2478705" lon="-7.8902491"><ele>1345.0</ele><time>2026-04-26T09:13:00.82Z</time></trkpt><trkpt lat="41.2478818" lon="-7.8903323"><ele>1342.6666666666665</ele><time>2026-04-26T09:13:02.822Z</time></trkpt><trkpt lat="41.2478989" lon="-7.890455"><ele>1340.3333333333333</ele><time>2026-04-26T09:13:05.819Z</time></trkpt><trkpt lat="41.247917" lon="-7.8905392"><ele>1338.0</ele><time>2026-04-26T09:13:07.823Z</time></trkpt><trkpt lat="41.2479525" lon="-7.8906261"><ele>1335.6666666666667</ele><time>2026-04-26T09:13:09.825Z</time></trkpt><trkpt lat="41.247986" lon="-7.8907196"><ele>1333.3333333333335</ele><time>2026-04-26T09:13:11.823Z</time></trkpt><trkpt lat="41.2480024" lon="-7.8908192"><ele>1331.0</ele><time>2026-04-26T09:13:13.828Z</time></trkpt><trkpt lat="41.2480183" lon="-7.8909142"><ele>1330.0</ele><time>2026-04-26T09:13:15.825Z</time></trkpt><trkpt lat="41.2480317" lon="-7.8910066"><ele>1329.0</ele><time>2026-04-26T09:13:17.822Z</time></trkpt><trkpt lat="41.248043" lon="-7.8911036"><ele>1328.0</ele><time>2026-04-26T09:13:19.823Z</time></trkpt><trkpt lat="41.2480664" lon="-7.8912146"><ele>1327.0</ele><time>2026-04-26T09:13:22.821Z</time></trkpt><trkpt lat="41.2481" lon="-7.8913149"><ele>1326.0</ele><time>2026-04-26T09:13:25.826Z</time></trkpt><trkpt lat="41.2481328" lon="-7.8914274"><ele>1325.0</ele><time>2026-04-26T09:13:28.829Z</time></trkpt><trkpt lat="41.2481596" lon="-7.8915106"><ele>1325.0</ele><time>2026-04-26T09:13:30.824Z</time></trkpt><trkpt lat="41.248183" lon="-7.8915948"><ele>1325.0</ele><time>2026-04-26T09:13:32.828Z</time></trkpt><trkpt lat="41.2482053" lon="-7.891675"><ele>1325.0</ele><time>2026-04-26T09:13:34.816Z</time></trkpt><trkpt lat="41.2482445" lon="-7.8917831"><ele>1325.0</ele><time>2026-04-26T09:13:37.826Z</time></trkpt><trkpt lat="41.2482639" lon="-7.891896"><ele>1325.0</ele><time>2026-04-26T09:13:40.823Z</time></trkpt><trkpt lat="41.2482731" lon="-7.891988"><ele>1325.0</ele><time>2026-04-26T09:13:42.823Z</time></trkpt><trkpt lat="41.2483195" lon="-7.8920843"><ele>1323.1666666666667</ele><time>2026-04-26T09:13:45.822Z</time></trkpt><trkpt lat="41.2483626" lon="-7.8921779"><ele>1321.3333333333335</ele><time>2026-04-26T09:13:48.827Z</time></trkpt><trkpt lat="41.2483828" lon="-7.8922878"><ele>1319.5</ele><time>2026-04-26T09:13:51.826Z</time></trkpt><trkpt lat="41.2483755" lon="-7.8923726"><ele>1317.6666666666667</ele><time>2026-04-26T09:13:53.823Z</time></trkpt><trkpt lat="41.2484247" lon="-7.8924798"><ele>1315.8333333333333</ele><time>2026-04-26T09:13:56.821Z</time></trkpt><trkpt lat="41.248473" lon="-7.8925535"><ele>1314.0</ele><time>2026-04-26T09:13:58.821Z</time></trkpt><trkpt lat="41.2485227" lon="-7.8926426"><ele>1313.0</ele><time>2026-04-26T09:14:00.827Z</time></trkpt><trkpt lat="41.2485608" lon="-7.8927597"><ele>1312.0</ele><time>2026-04-26T09:14:02.82Z</time></trkpt><trkpt lat="41.2485777" lon="-7.8928905"><ele>1311.0</ele><time>2026-04-26T09:14:04.822Z</time></trkpt><trkpt lat="41.2485881" lon="-7.8930279"><ele>1310.0</ele><time>2026-04-26T09:14:06.82Z</time></trkpt><trkpt lat="41.2485943" lon="-7.8931631"><ele>1309.0</ele><time>2026-04-26T09:14:08.827Z</time></trkpt><trkpt lat="41.2485978" lon="-7.8933079"><ele>1309.1666666666665</ele><time>2026-04-26T09:14:10.823Z</time></trkpt><trkpt lat="41.2485894" lon="-7.8934551"><ele>1309.3333333333333</ele><time>2026-04-26T09:14:12.823Z</time></trkpt><trkpt lat="41.2485894" lon="-7.8935393"><ele>1309.5</ele><time>2026-04-26T09:14:13.823Z</time></trkpt><trkpt lat="41.2485934" lon="-7.8936238"><ele>1309.6666666666667</ele><time>2026-04-26T09:14:14.825Z</time></trkpt><trkpt lat="41.2486045" lon="-7.8937831"><ele>1309.8333333333335</ele><time>2026-04-26T09:14:16.819Z</time></trkpt><trkpt lat="41.2486028" lon="-7.893869"><ele>1310.0</ele><time>2026-04-26T09:14:17.827Z</time></trkpt><trkpt lat="41.2485986" lon="-7.8939558"><ele>1310.0</ele><time>2026-04-26T09:14:18.823Z</time></trkpt><trkpt lat="41.2485877" lon="-7.8941199"><ele>1310.0</ele><time>2026-04-26T09:14:20.826Z</time></trkpt><trkpt lat="41.2485746" lon="-7.8942783"><ele>1310.0</ele><time>2026-04-26T09:14:22.823Z</time></trkpt><trkpt lat="41.2485752" lon="-7.8944378"><ele>1310.0</ele><time>2026-04-26T09:14:24.82Z</time></trkpt><trkpt lat="41.2485537" lon="-7.8945948"><ele>1310.857142857143</ele><time>2026-04-26T09:14:26.825Z</time></trkpt><trkpt lat="41.2485307" lon="-7.894678"><ele>1311.7142857142858</ele><time>2026-04-26T09:14:27.828Z</time></trkpt><trkpt lat="41.248501" lon="-7.894764"><ele>1312.5714285714284</ele><time>2026-04-26T09:14:28.825Z</time></trkpt><trkpt lat="41.2484656" lon="-7.8948499"><ele>1313.4285714285716</ele><time>2026-04-26T09:14:29.827Z</time></trkpt><trkpt lat="41.2484317" lon="-7.894932"><ele>1314.2857142857142</ele><time>2026-04-26T09:14:30.828Z</time></trkpt><trkpt lat="41.2483803" lon="-7.8950083"><ele>1315.142857142857</ele><time>2026-04-26T09:14:31.823Z</time></trkpt><trkpt lat="41.2483229" lon="-7.8950702"><ele>1316.0</ele><time>2026-04-26T09:14:32.827Z</time></trkpt><trkpt lat="41.2482621" lon="-7.8951112"><ele>1316.6666666666667</ele><time>2026-04-26T09:14:33.822Z</time></trkpt><trkpt lat="41.2481996" lon="-7.895135"><ele>1317.3333333333335</ele><time>2026-04-26T09:14:34.821Z</time></trkpt><trkpt lat="41.2481331" lon="-7.8951491"><ele>1318.0</ele><time>2026-04-26T09:14:35.823Z</time></trkpt><trkpt lat="41.2480666" lon="-7.8951589"><ele>1318.6666666666667</ele><time>2026-04-26T09:14:36.818Z</time></trkpt><trkpt lat="41.2480019" lon="-7.8951678"><ele>1319.3333333333333</ele><time>2026-04-26T09:14:37.828Z</time></trkpt><trkpt lat="41.2479376" lon="-7.8951775"><ele>1320.0</ele><time>2026-04-26T09:14:38.822Z</time></trkpt><trkpt lat="41.2478173" lon="-7.8952175"><ele>1317.8</ele><time>2026-04-26T09:14:40.833Z</time></trkpt><trkpt lat="41.24771" lon="-7.8952653"><ele>1315.6</ele><time>2026-04-26T09:14:42.823Z</time></trkpt><trkpt lat="41.247657" lon="-7.8953365"><ele>1313.4</ele><time>2026-04-26T09:14:44.821Z</time></trkpt><trkpt lat="41.247616" lon="-7.8954317"><ele>1311.2</ele><time>2026-04-26T09:14:46.828Z</time></trkpt><trkpt lat="41.2475446" lon="-7.8955122"><ele>1309.0</ele><time>2026-04-26T09:14:48.82Z</time></trkpt><trkpt lat="41.247484" lon="-7.8956138"><ele>1309.0</ele><time>2026-04-26T09:14:50.832Z</time></trkpt><trkpt lat="41.2474013" lon="-7.8957015"><ele>1309.0</ele><time>2026-04-26T09:14:52.824Z</time></trkpt><trkpt lat="41.2472956" lon="-7.8957752"><ele>1309.0</ele><time>2026-04-26T09:14:54.82Z</time></trkpt><trkpt lat="41.2471793" lon="-7.895838"><ele>1309.0</ele><time>2026-04-26T09:14:56.828Z</time></trkpt><trkpt lat="41.2471046" lon="-7.8958542"><ele>1309.0</ele><time>2026-04-26T09:14:57.827Z</time></trkpt><trkpt lat="41.2470252" lon="-7.8958653"><ele>1307.0</ele><time>2026-04-26T09:14:58.825Z</time></trkpt><trkpt lat="41.2469426" lon="-7.895868"><ele>1305.0</ele><time>2026-04-26T09:14:59.826Z</time></trkpt><trkpt lat="41.2468587" lon="-7.8958627"><ele>1303.0</ele><time>2026-04-26T09:15:00.824Z</time></trkpt><trkpt lat="41.2467769" lon="-7.8958457"><ele>1301.0</ele><time>2026-04-26T09:15:01.823Z</time></trkpt><trkpt lat="41.2466958" lon="-7.8958284"><ele>1299.0</ele><time>2026-04-26T09:15:02.824Z</time></trkpt><trkpt lat="41.2466244" lon="-7.895804"><ele>1297.0</ele><time>2026-04-26T09:15:03.833Z</time></trkpt><trkpt lat="41.2465099" lon="-7.8957822"><ele>1294.0</ele><time>2026-04-26T09:15:05.821Z</time></trkpt><trkpt lat="41.2464003" lon="-7.8957929"><ele>1291.0</ele><time>2026-04-26T09:15:07.823Z</time></trkpt><trkpt lat="41.2462945" lon="-7.8958092"><ele>1288.0</ele><time>2026-04-26T09:15:09.822Z</time></trkpt><trkpt lat="41.246204" lon="-7.8958671"><ele>1285.0</ele><time>2026-04-26T09:15:11.822Z</time></trkpt><trkpt lat="41.2461192" lon="-7.895979"><ele>1282.0</ele><time>2026-04-26T09:15:13.822Z</time></trkpt><trkpt lat="41.2460769" lon="-7.8960478"><ele>1281.6666666666665</ele><time>2026-04-26T09:15:14.827Z</time></trkpt><trkpt lat="41.246036" lon="-7.8961209"><ele>1281.3333333333333</ele><time>2026-04-26T09:15:15.83Z</time></trkpt><trkpt lat="41.2459939" lon="-7.8961998"><ele>1281.0</ele><time>2026-04-26T09:15:16.824Z</time></trkpt><trkpt lat="41.2459437" lon="-7.8962898"><ele>1280.6666666666667</ele><time>2026-04-26T09:15:17.829Z</time></trkpt><trkpt lat="41.2458902" lon="-7.8963783"><ele>1280.3333333333335</ele><time>2026-04-26T09:15:18.819Z</time></trkpt><trkpt lat="41.2458301" lon="-7.8964681"><ele>1280.0</ele><time>2026-04-26T09:15:19.827Z</time></trkpt><trkpt lat="41.2457726" lon="-7.8965557"><ele>1280.0</ele><time>2026-04-26T09:15:20.827Z</time></trkpt><trkpt lat="41.245716" lon="-7.8966534"><ele>1280.0</ele><time>2026-04-26T09:15:21.826Z</time></trkpt><trkpt lat="41.2456667" lon="-7.8967551"><ele>1280.0</ele><time>2026-04-26T09:15:22.819Z</time></trkpt><trkpt lat="41.2456159" lon="-7.8968524"><ele>1280.0</ele><time>2026-04-26T09:15:23.827Z</time></trkpt><trkpt lat="41.2455705" lon="-7.8969468"><ele>1280.0</ele><time>2026-04-26T09:15:24.821Z</time></trkpt><trkpt lat="41.2455288" lon="-7.8970564"><ele>1280.0</ele><time>2026-04-26T09:15:25.825Z</time></trkpt><trkpt lat="41.2454844" lon="-7.8971677"><ele>1277.8</ele><time>2026-04-26T09:15:26.828Z</time></trkpt><trkpt lat="41.2454324" lon="-7.8972684"><ele>1275.6</ele><time>2026-04-26T09:15:27.82Z</time></trkpt><trkpt lat="41.2453679" lon="-7.8973704"><ele>1273.4</ele><time>2026-04-26T09:15:28.822Z</time></trkpt><trkpt lat="41.2453012" lon="-7.8974769"><ele>1271.2</ele><time>2026-04-26T09:15:29.82Z</time></trkpt><trkpt lat="41.2452244" lon="-7.8975782"><ele>1269.0</ele><time>2026-04-26T09:15:30.829Z</time></trkpt><trkpt lat="41.2451403" lon="-7.8976703"><ele>1268.6000000000001</ele><time>2026-04-26T09:15:31.823Z</time></trkpt><trkpt lat="41.2450597" lon="-7.897764"><ele>1268.2</ele><time>2026-04-26T09:15:32.826Z</time></trkpt><trkpt lat="41.2449818" lon="-7.8978599"><ele>1267.8000000000002</ele><time>2026-04-26T09:15:33.827Z</time></trkpt><trkpt lat="41.2449049" lon="-7.8979545"><ele>1267.4</ele><time>2026-04-26T09:15:34.827Z</time></trkpt><trkpt lat="41.2448288" lon="-7.8980442"><ele>1267.0</ele><time>2026-04-26T09:15:35.825Z</time></trkpt><trkpt lat="41.2447566" lon="-7.8981283"><ele>1267.0</ele><time>2026-04-26T09:15:36.825Z</time></trkpt><trkpt lat="41.2446927" lon="-7.8982151"><ele>1267.0</ele><time>2026-04-26T09:15:37.822Z</time></trkpt><trkpt lat="41.244632" lon="-7.8982998"><ele>1267.0</ele><time>2026-04-26T09:15:38.822Z</time></trkpt><trkpt lat="41.2445723" lon="-7.8983792"><ele>1267.0</ele><time>2026-04-26T09:15:39.819Z</time></trkpt><trkpt lat="41.2445187" lon="-7.898453"><ele>1267.0</ele><time>2026-04-26T09:15:40.819Z</time></trkpt><trkpt lat="41.2444666" lon="-7.8985254"><ele>1267.0</ele><time>2026-04-26T09:15:41.821Z</time></trkpt><trkpt lat="41.244417" lon="-7.8985938"><ele>1265.7142857142858</ele><time>2026-04-26T09:15:42.823Z</time></trkpt><trkpt lat="41.2443736" lon="-7.8986594"><ele>1264.4285714285716</ele><time>2026-04-26T09:15:43.826Z</time></trkpt><trkpt lat="41.2443362" lon="-7.8987284"><ele>1263.142857142857</ele><time>2026-04-26T09:15:44.823Z</time></trkpt><trkpt lat="41.2443006" lon="-7.8988016"><ele>1261.857142857143</ele><time>2026-04-26T09:15:45.819Z</time></trkpt><trkpt lat="41.2442639" lon="-7.8988756"><ele>1260.5714285714287</ele><time>2026-04-26T09:15:46.825Z</time></trkpt><trkpt lat="41.2442309" lon="-7.8989494"><ele>1259.2857142857142</ele><time>2026-04-26T09:15:47.827Z</time></trkpt><trkpt lat="41.2441917" lon="-7.8990212"><ele>1258.0</ele><time>2026-04-26T09:15:48.822Z</time></trkpt><trkpt lat="41.2441525" lon="-7.8990928"><ele>1258.0</ele><time>2026-04-26T09:15:49.823Z</time></trkpt><trkpt lat="41.2441131" lon="-7.8991653"><ele>1258.0</ele><time>2026-04-26T09:15:50.826Z</time></trkpt><trkpt lat="41.2440608" lon="-7.8992342"><ele>1258.0</ele><time>2026-04-26T09:15:51.824Z</time></trkpt><trkpt lat="41.2440046" lon="-7.899297"><ele>1258.0</ele><time>2026-04-26T09:15:52.828Z</time></trkpt><trkpt lat="41.2439465" lon="-7.8993545"><ele>1258.0</ele><time>2026-04-26T09:15:53.831Z</time></trkpt><trkpt lat="41.2438908" lon="-7.899411"><ele>1258.0</ele><time>2026-04-26T09:15:54.818Z</time></trkpt><trkpt lat="41.2438361" lon="-7.8994583"><ele>1258.0</ele><time>2026-04-26T09:15:55.824Z</time></trkpt><trkpt lat="41.2437381" lon="-7.8995384"><ele>1256.1666666666665</ele><time>2026-04-26T09:15:57.821Z</time></trkpt><trkpt lat="41.2436582" lon="-7.8995946"><ele>1254.3333333333333</ele><time>2026-04-26T09:15:59.821Z</time></trkpt><trkpt lat="41.2435893" lon="-7.8996389"><ele>1252.5</ele><time>2026-04-26T09:16:03.828Z</time></trkpt><trkpt lat="41.243555" lon="-7.8997196"><ele>1250.6666666666667</ele><time>2026-04-26T09:16:06.822Z</time></trkpt><trkpt lat="41.2435264" lon="-7.8997981"><ele>1248.8333333333335</ele><time>2026-04-26T09:16:08.821Z</time></trkpt><trkpt lat="41.2434867" lon="-7.8998898"><ele>1247.0</ele><time>2026-04-26T09:16:10.819Z</time></trkpt><trkpt lat="41.2434223" lon="-7.8999939"><ele>1244.0</ele><time>2026-04-26T09:16:12.821Z</time></trkpt><trkpt lat="41.2433377" lon="-7.9000964"><ele>1241.0</ele><time>2026-04-26T09:16:14.823Z</time></trkpt><trkpt lat="41.2432474" lon="-7.9002011"><ele>1238.0</ele><time>2026-04-26T09:16:16.82Z</time></trkpt><trkpt lat="41.2431471" lon="-7.9002953"><ele>1235.0</ele><time>2026-04-26T09:16:18.816Z</time></trkpt><trkpt lat="41.2430905" lon="-7.9003374"><ele>1232.0</ele><time>2026-04-26T09:16:19.828Z</time></trkpt><trkpt lat="41.243031" lon="-7.9003672"><ele>1229.0</ele><time>2026-04-26T09:16:20.822Z</time></trkpt><trkpt lat="41.2429217" lon="-7.9004083"><ele>1226.0</ele><time>2026-04-26T09:16:22.817Z</time></trkpt><trkpt lat="41.2428312" lon="-7.9004326"><ele>1223.0</ele><time>2026-04-26T09:16:24.821Z</time></trkpt><trkpt lat="41.2427494" lon="-7.9004711"><ele>1220.0</ele><time>2026-04-26T09:16:26.817Z</time></trkpt><trkpt lat="41.2426542" lon="-7.900492"><ele>1217.0</ele><time>2026-04-26T09:16:28.823Z</time></trkpt><trkpt lat="41.2425753" lon="-7.9004958"><ele>1217.0</ele><time>2026-04-26T09:16:30.822Z</time></trkpt><trkpt lat="41.2424887" lon="-7.9004778"><ele>1217.0</ele><time>2026-04-26T09:16:33.825Z</time></trkpt><trkpt lat="41.2424213" lon="-7.9004546"><ele>1217.0</ele><time>2026-04-26T09:16:36.821Z</time></trkpt><trkpt lat="41.2423688" lon="-7.9003995"><ele>1217.0</ele><time>2026-04-26T09:16:40.821Z</time></trkpt><trkpt lat="41.2423041" lon="-7.9003944"><ele>1217.0</ele><time>2026-04-26T09:16:46.824Z</time></trkpt><trkpt lat="41.2423138" lon="-7.9005011"><ele>1217.0</ele><time>2026-04-26T09:16:52.817Z</time></trkpt><trkpt lat="41.2423269" lon="-7.9006014"><ele>1217.0</ele><time>2026-04-26T09:16:54.827Z</time></trkpt><trkpt lat="41.2422887" lon="-7.9006847"><ele>1214.4285714285713</ele><time>2026-04-26T09:17:13.82Z</time></trkpt><trkpt lat="41.2422184" lon="-7.9007147"><ele>1211.857142857143</ele><time>2026-04-26T09:17:16.82Z</time></trkpt><trkpt lat="41.24214" lon="-7.9007105"><ele>1209.2857142857142</ele><time>2026-04-26T09:17:18.815Z</time></trkpt><trkpt lat="41.2420704" lon="-7.9007018"><ele>1206.7142857142858</ele><time>2026-04-26T09:17:21.831Z</time></trkpt><trkpt lat="41.2420056" lon="-7.9006885"><ele>1204.142857142857</ele><time>2026-04-26T09:17:24.833Z</time></trkpt><trkpt lat="41.2419361" lon="-7.9006653"><ele>1201.5714285714287</ele><time>2026-04-26T09:17:26.82Z</time></trkpt><trkpt lat="41.2418721" lon="-7.9006482"><ele>1199.0</ele><time>2026-04-26T09:17:28.827Z</time></trkpt><trkpt lat="41.2418097" lon="-7.9006357"><ele>1199.0</ele><time>2026-04-26T09:17:30.822Z</time></trkpt><trkpt lat="41.2417385" lon="-7.9006219"><ele>1199.0</ele><time>2026-04-26T09:17:33.818Z</time></trkpt><trkpt lat="41.2416664" lon="-7.9005885"><ele>1199.0</ele><time>2026-04-26T09:17:36.82Z</time></trkpt><trkpt lat="41.2415935" lon="-7.9005575"><ele>1199.0</ele><time>2026-04-26T09:17:39.823Z</time></trkpt><trkpt lat="41.2414986" lon="-7.9006102"><ele>1199.0</ele><time>2026-04-26T09:17:42.831Z</time></trkpt><trkpt lat="41.2413948" lon="-7.9006958"><ele>1196.6666666666667</ele><time>2026-04-26T09:17:44.825Z</time></trkpt><trkpt lat="41.2413297" lon="-7.9007287"><ele>1194.3333333333335</ele><time>2026-04-26T09:17:45.826Z</time></trkpt><trkpt lat="41.2412634" lon="-7.9007689"><ele>1192.0</ele><time>2026-04-26T09:17:46.821Z</time></trkpt><trkpt lat="41.2412066" lon="-7.9008105"><ele>1189.6666666666667</ele><time>2026-04-26T09:17:47.827Z</time></trkpt><trkpt lat="41.2411152" lon="-7.9008881"><ele>1187.3333333333333</ele><time>2026-04-26T09:17:49.82Z</time></trkpt><trkpt lat="41.2410382" lon="-7.9009449"><ele>1185.0</ele><time>2026-04-26T09:17:51.824Z</time></trkpt><trkpt lat="41.2409611" lon="-7.9009976"><ele>1184.3333333333333</ele><time>2026-04-26T09:17:54.824Z</time></trkpt><trkpt lat="41.2409323" lon="-7.9010981"><ele>1183.6666666666667</ele><time>2026-04-26T09:18:03.826Z</time></trkpt><trkpt lat="41.24089" lon="-7.9011817"><ele>1183.0</ele><time>2026-04-26T09:18:06.82Z</time></trkpt><trkpt lat="41.2408429" lon="-7.9012442"><ele>1182.3333333333335</ele><time>2026-04-26T09:18:08.827Z</time></trkpt><trkpt lat="41.2407684" lon="-7.9012664"><ele>1181.6666666666667</ele><time>2026-04-26T09:18:11.827Z</time></trkpt><trkpt lat="41.2406927" lon="-7.9011942"><ele>1181.0</ele><time>2026-04-26T09:18:14.823Z</time></trkpt><trkpt lat="41.2406596" lon="-7.9011095"><ele>1181.0</ele><time>2026-04-26T09:18:16.826Z</time></trkpt><trkpt lat="41.2406701" lon="-7.9010186"><ele>1181.0</ele><time>2026-04-26T09:18:18.824Z</time></trkpt><trkpt lat="41.2406845" lon="-7.9009364"><ele>1181.0</ele><time>2026-04-26T09:18:21.817Z</time></trkpt><trkpt lat="41.2407016" lon="-7.9008076"><ele>1181.0</ele><time>2026-04-26T09:18:37.83Z</time></trkpt><trkpt lat="41.2407195" lon="-7.9006413"><ele>1181.0</ele><time>2026-04-26T09:18:39.828Z</time></trkpt><trkpt lat="41.240725" lon="-7.9005495"><ele>1181.0</ele><time>2026-04-26T09:18:40.82Z</time></trkpt><trkpt lat="41.2407316" lon="-7.9004545"><ele>1181.3333333333335</ele><time>2026-04-26T09:18:41.821Z</time></trkpt><trkpt lat="41.2407279" lon="-7.9003595"><ele>1181.6666666666667</ele><time>2026-04-26T09:18:42.825Z</time></trkpt><trkpt lat="41.2407186" lon="-7.9002542"><ele>1182.0</ele><time>2026-04-26T09:18:43.826Z</time></trkpt><trkpt lat="41.2407105" lon="-7.900153"><ele>1182.3333333333333</ele><time>2026-04-26T09:18:44.826Z</time></trkpt><trkpt lat="41.2407038" lon="-7.9000473"><ele>1182.6666666666665</ele><time>2026-04-26T09:18:45.82Z</time></trkpt><trkpt lat="41.2406908" lon="-7.8999438"><ele>1183.0</ele><time>2026-04-26T09:18:46.821Z</time></trkpt><trkpt lat="41.2406757" lon="-7.899844"><ele>1183.0</ele><time>2026-04-26T09:18:47.826Z</time></trkpt><trkpt lat="41.2406624" lon="-7.8997372"><ele>1183.0</ele><time>2026-04-26T09:18:48.825Z</time></trkpt><trkpt lat="41.2406327" lon="-7.8996365"><ele>1183.0</ele><time>2026-04-26T09:18:49.825Z</time></trkpt><trkpt lat="41.2405948" lon="-7.8995358"><ele>1183.0</ele><time>2026-04-26T09:18:50.821Z</time></trkpt><trkpt lat="41.2405543" lon="-7.8994355"><ele>1183.0</ele><time>2026-04-26T09:18:51.827Z</time></trkpt><trkpt lat="41.2405059" lon="-7.8993347"><ele>1183.0</ele><time>2026-04-26T09:18:52.824Z</time></trkpt><trkpt lat="41.2404503" lon="-7.8992304"><ele>1179.0</ele><time>2026-04-26T09:18:53.824Z</time></trkpt><trkpt lat="41.2403945" lon="-7.8991294"><ele>1175.0</ele><time>2026-04-26T09:18:54.823Z</time></trkpt><trkpt lat="41.2403459" lon="-7.8990288"><ele>1171.0</ele><time>2026-04-26T09:18:55.819Z</time></trkpt><trkpt lat="41.2403021" lon="-7.8989281"><ele>1167.0</ele><time>2026-04-26T09:18:56.819Z</time></trkpt><trkpt lat="41.240267" lon="-7.8988313"><ele>1163.0</ele><time>2026-04-26T09:18:57.824Z</time></trkpt><trkpt lat="41.2402337" lon="-7.8987329"><ele>1159.0</ele><time>2026-04-26T09:18:58.827Z</time></trkpt><trkpt lat="41.2401986" lon="-7.8986338"><ele>1159.0</ele><time>2026-04-26T09:18:59.82Z</time></trkpt><trkpt lat="41.2401648" lon="-7.8985432"><ele>1159.0</ele><time>2026-04-26T09:19:00.828Z</time></trkpt><trkpt lat="41.2401316" lon="-7.8984502"><ele>1159.0</ele><time>2026-04-26T09:19:01.819Z</time></trkpt><trkpt lat="41.2400961" lon="-7.8983591"><ele>1159.0</ele><time>2026-04-26T09:19:02.827Z</time></trkpt><trkpt lat="41.2400644" lon="-7.8982726"><ele>1159.0</ele><time>2026-04-26T09:19:03.819Z</time></trkpt><trkpt lat="41.2400307" lon="-7.8981675"><ele>1159.0</ele><time>2026-04-26T09:19:04.818Z</time></trkpt><trkpt lat="41.2399973" lon="-7.8980558"><ele>1159.5</ele><time>2026-04-26T09:19:05.821Z</time></trkpt><trkpt lat="41.2399614" lon="-7.8979445"><ele>1160.0</ele><time>2026-04-26T09:19:06.827Z</time></trkpt><trkpt lat="41.2399247" lon="-7.8978411"><ele>1160.5</ele><time>2026-04-26T09:19:07.827Z</time></trkpt><trkpt lat="41.239883" lon="-7.8977377"><ele>1161.0</ele><time>2026-04-26T09:19:08.821Z</time></trkpt><trkpt lat="41.2398435" lon="-7.8976324"><ele>1161.5</ele><time>2026-04-26T09:19:09.82Z</time></trkpt><trkpt lat="41.2398069" lon="-7.8975245"><ele>1162.0</ele><time>2026-04-26T09:19:10.828Z</time></trkpt><trkpt lat="41.239773" lon="-7.897412"><ele>1158.0</ele><time>2026-04-26T09:19:11.819Z</time></trkpt><trkpt lat="41.2397416" lon="-7.8973004"><ele>1154.0</ele><time>2026-04-26T09:19:12.817Z</time></trkpt><trkpt lat="41.239709" lon="-7.8971878"><ele>1150.0</ele><time>2026-04-26T09:19:13.823Z</time></trkpt><trkpt lat="41.239676" lon="-7.8970793"><ele>1146.0</ele><time>2026-04-26T09:19:14.818Z</time></trkpt><trkpt lat="41.2396426" lon="-7.896975"><ele>1142.0</ele><time>2026-04-26T09:19:15.82Z</time></trkpt><trkpt lat="41.2396115" lon="-7.8968715"><ele>1138.0</ele><time>2026-04-26T09:19:16.821Z</time></trkpt><trkpt lat="41.2395807" lon="-7.8967601"><ele>1138.1666666666665</ele><time>2026-04-26T09:19:17.82Z</time></trkpt><trkpt lat="41.2395576" lon="-7.8966531"><ele>1138.3333333333333</ele><time>2026-04-26T09:19:18.824Z</time></trkpt><trkpt lat="41.2395355" lon="-7.8965474"><ele>1138.5</ele><time>2026-04-26T09:19:19.825Z</time></trkpt><trkpt lat="41.2395198" lon="-7.8964467"><ele>1138.6666666666667</ele><time>2026-04-26T09:19:20.829Z</time></trkpt><trkpt lat="41.239499" lon="-7.8963449"><ele>1138.8333333333335</ele><time>2026-04-26T09:19:21.821Z</time></trkpt><trkpt lat="41.239481" lon="-7.8962404"><ele>1139.0</ele><time>2026-04-26T09:19:22.825Z</time></trkpt><trkpt lat="41.2394774" lon="-7.8961369"><ele>1139.0</ele><time>2026-04-26T09:19:23.827Z</time></trkpt><trkpt lat="41.2394803" lon="-7.8960344"><ele>1139.0</ele><time>2026-04-26T09:19:24.823Z</time></trkpt><trkpt lat="41.2394898" lon="-7.8959445"><ele>1139.0</ele><time>2026-04-26T09:19:25.818Z</time></trkpt><trkpt lat="41.2395364" lon="-7.8957792"><ele>1139.0</ele><time>2026-04-26T09:19:27.824Z</time></trkpt><trkpt lat="41.2395806" lon="-7.8957011"><ele>1139.0</ele><time>2026-04-26T09:19:28.821Z</time></trkpt><trkpt lat="41.2396364" lon="-7.8956453"><ele>1139.0</ele><time>2026-04-26T09:19:29.824Z</time></trkpt><trkpt lat="41.2396999" lon="-7.8955975"><ele>1138.7142857142858</ele><time>2026-04-26T09:19:30.818Z</time></trkpt><trkpt lat="41.2397606" lon="-7.8955497"><ele>1138.4285714285716</ele><time>2026-04-26T09:19:31.818Z</time></trkpt><trkpt lat="41.2398137" lon="-7.8954921"><ele>1138.142857142857</ele><time>2026-04-26T09:19:32.82Z</time></trkpt><trkpt lat="41.2398564" lon="-7.8954179"><ele>1137.857142857143</ele><time>2026-04-26T09:19:33.821Z</time></trkpt><trkpt lat="41.2398873" lon="-7.8953358"><ele>1137.5714285714284</ele><time>2026-04-26T09:19:34.821Z</time></trkpt><trkpt lat="41.2398981" lon="-7.8952475"><ele>1137.2857142857142</ele><time>2026-04-26T09:19:35.832Z</time></trkpt><trkpt lat="41.2398817" lon="-7.8951621"><ele>1137.0</ele><time>2026-04-26T09:19:36.816Z</time></trkpt><trkpt lat="41.2398622" lon="-7.8950661"><ele>1136.6</ele><time>2026-04-26T09:19:37.823Z</time></trkpt><trkpt lat="41.2398318" lon="-7.894954"><ele>1136.2</ele><time>2026-04-26T09:19:38.82Z</time></trkpt><trkpt lat="41.2397903" lon="-7.8948446"><ele>1135.8</ele><time>2026-04-26T09:19:39.829Z</time></trkpt><trkpt lat="41.2397492" lon="-7.894731"><ele>1135.4</ele><time>2026-04-26T09:19:40.82Z</time></trkpt><trkpt lat="41.2397174" lon="-7.8946149"><ele>1135.0</ele><time>2026-04-26T09:19:41.817Z</time></trkpt><trkpt lat="41.2396898" lon="-7.8945112"><ele>1135.0</ele><time>2026-04-26T09:19:42.827Z</time></trkpt><trkpt lat="41.239656" lon="-7.8944132"><ele>1135.0</ele><time>2026-04-26T09:19:43.834Z</time></trkpt><trkpt lat="41.2396244" lon="-7.8943076"><ele>1135.0</ele><time>2026-04-26T09:19:44.817Z</time></trkpt><trkpt lat="41.2395989" lon="-7.8941966"><ele>1135.0</ele><time>2026-04-26T09:19:45.823Z</time></trkpt><trkpt lat="41.2395705" lon="-7.8940861"><ele>1135.0</ele><time>2026-04-26T09:19:46.824Z</time></trkpt><trkpt lat="41.2395521" lon="-7.893972"><ele>1135.0</ele><time>2026-04-26T09:19:47.816Z</time></trkpt><trkpt lat="41.2395339" lon="-7.8938432"><ele>1135.8333333333333</ele><time>2026-04-26T09:19:48.829Z</time></trkpt><trkpt lat="41.2395147" lon="-7.8937159"><ele>1136.6666666666665</ele><time>2026-04-26T09:19:49.819Z</time></trkpt><trkpt lat="41.2394944" lon="-7.8935975"><ele>1137.5</ele><time>2026-04-26T09:19:50.822Z</time></trkpt><trkpt lat="41.2394716" lon="-7.8934796"><ele>1138.3333333333333</ele><time>2026-04-26T09:19:51.83Z</time></trkpt><trkpt lat="41.2394609" lon="-7.8933672"><ele>1139.1666666666667</ele><time>2026-04-26T09:19:52.816Z</time></trkpt><trkpt lat="41.2394548" lon="-7.8932746"><ele>1140.0</ele><time>2026-04-26T09:19:53.824Z</time></trkpt><trkpt lat="41.239455" lon="-7.8931725"><ele>1140.5714285714284</ele><time>2026-04-26T09:19:55.826Z</time></trkpt><trkpt lat="41.2394656" lon="-7.8930839"><ele>1141.142857142857</ele><time>2026-04-26T09:20:15.824Z</time></trkpt><trkpt lat="41.2394538" lon="-7.8929975"><ele>1141.7142857142858</ele><time>2026-04-26T09:20:19.824Z</time></trkpt><trkpt lat="41.239447" lon="-7.8929077"><ele>1142.2857142857142</ele><time>2026-04-26T09:20:21.825Z</time></trkpt><trkpt lat="41.2394852" lon="-7.8928019"><ele>1142.857142857143</ele><time>2026-04-26T09:20:24.818Z</time></trkpt><trkpt lat="41.2395457" lon="-7.8927569"><ele>1143.4285714285713</ele><time>2026-04-26T09:20:27.822Z</time></trkpt><trkpt lat="41.2395667" lon="-7.892837"><ele>1144.0</ele><time>2026-04-26T09:20:32.825Z</time></trkpt><trkpt lat="41.2396161" lon="-7.8929128"><ele>1144.0</ele><time>2026-04-26T09:20:59.828Z</time></trkpt><trkpt lat="41.2397397" lon="-7.8928879"><ele>1144.0</ele><time>2026-04-26T09:21:01.82Z</time></trkpt><trkpt lat="41.2398161" lon="-7.8928791"><ele>1144.0</ele><time>2026-04-26T09:21:02.822Z</time></trkpt><trkpt lat="41.2398848" lon="-7.8928684"><ele>1144.0</ele><time>2026-04-26T09:21:03.821Z</time></trkpt><trkpt lat="41.2399502" lon="-7.8928682"><ele>1144.0</ele><time>2026-04-26T09:21:04.818Z</time></trkpt><trkpt lat="41.2400128" lon="-7.8928795"><ele>1144.0</ele><time>2026-04-26T09:21:05.82Z</time></trkpt><trkpt lat="41.2401141" lon="-7.8928642"><ele>1148.6666666666665</ele><time>2026-04-26T09:21:07.825Z</time></trkpt><trkpt lat="41.2402321" lon="-7.8928049"><ele>1153.3333333333333</ele><time>2026-04-26T09:21:09.817Z</time></trkpt><trkpt lat="41.2403043" lon="-7.892779"><ele>1158.0</ele><time>2026-04-26T09:21:10.82Z</time></trkpt><trkpt lat="41.2403843" lon="-7.8927491"><ele>1162.6666666666667</ele><time>2026-04-26T09:21:11.831Z</time></trkpt><trkpt lat="41.2404543" lon="-7.8927237"><ele>1167.3333333333335</ele><time>2026-04-26T09:21:12.821Z</time></trkpt><trkpt lat="41.2405209" lon="-7.8927054"><ele>1172.0</ele><time>2026-04-26T09:21:13.819Z</time></trkpt><trkpt lat="41.240585" lon="-7.8926917"><ele>1177.2</ele><time>2026-04-26T09:21:14.821Z</time></trkpt><trkpt lat="41.2407022" lon="-7.8926748"><ele>1182.4</ele><time>2026-04-26T09:21:16.82Z</time></trkpt><trkpt lat="41.2408088" lon="-7.8926612"><ele>1187.6</ele><time>2026-04-26T09:21:18.822Z</time></trkpt><trkpt lat="41.2409037" lon="-7.8926182"><ele>1192.8</ele><time>2026-04-26T09:21:20.818Z</time></trkpt><trkpt lat="41.2409783" lon="-7.892603"><ele>1198.0</ele><time>2026-04-26T09:21:22.819Z</time></trkpt><trkpt lat="41.24106" lon="-7.8925972"><ele>1199.1666666666665</ele><time>2026-04-26T09:21:24.821Z</time></trkpt><trkpt lat="41.2411862" lon="-7.8925427"><ele>1200.3333333333333</ele><time>2026-04-26T09:21:26.824Z</time></trkpt><trkpt lat="41.2412576" lon="-7.8925037"><ele>1201.5</ele><time>2026-04-26T09:21:27.823Z</time></trkpt><trkpt lat="41.2413303" lon="-7.8924586"><ele>1202.6666666666667</ele><time>2026-04-26T09:21:28.821Z</time></trkpt><trkpt lat="41.2413936" lon="-7.8924054"><ele>1203.8333333333335</ele><time>2026-04-26T09:21:29.826Z</time></trkpt><trkpt lat="41.2414491" lon="-7.8923572"><ele>1205.0</ele><time>2026-04-26T09:21:30.822Z</time></trkpt><trkpt lat="41.2415099" lon="-7.8923068"><ele>1208.8333333333335</ele><time>2026-04-26T09:21:31.825Z</time></trkpt><trkpt lat="41.2415797" lon="-7.8922401"><ele>1212.6666666666667</ele><time>2026-04-26T09:21:32.82Z</time></trkpt><trkpt lat="41.2416533" lon="-7.8921775"><ele>1216.5</ele><time>2026-04-26T09:21:33.821Z</time></trkpt><trkpt lat="41.2417259" lon="-7.89213"><ele>1220.3333333333333</ele><time>2026-04-26T09:21:34.819Z</time></trkpt><trkpt lat="41.2417912" lon="-7.8920835"><ele>1224.1666666666665</ele><time>2026-04-26T09:21:35.819Z</time></trkpt><trkpt lat="41.2418516" lon="-7.8920191"><ele>1228.0</ele><time>2026-04-26T09:21:36.822Z</time></trkpt><trkpt lat="41.2419103" lon="-7.8919536"><ele>1228.0</ele><time>2026-04-26T09:21:37.828Z</time></trkpt><trkpt lat="41.2419683" lon="-7.8918948"><ele>1228.0</ele><time>2026-04-26T09:21:38.821Z</time></trkpt><trkpt lat="41.2420298" lon="-7.8918245"><ele>1228.0</ele><time>2026-04-26T09:21:39.822Z</time></trkpt><trkpt lat="41.2420871" lon="-7.8917462"><ele>1228.0</ele><time>2026-04-26T09:21:40.828Z</time></trkpt><trkpt lat="41.242133" lon="-7.8916835"><ele>1228.0</ele><time>2026-04-26T09:21:41.821Z</time></trkpt><trkpt lat="41.242219" lon="-7.8915792"><ele>1228.0</ele><time>2026-04-26T09:21:43.818Z</time></trkpt><trkpt lat="41.2422647" lon="-7.8915007"><ele>1232.1666666666665</ele><time>2026-04-26T09:21:45.824Z</time></trkpt><trkpt lat="41.2423094" lon="-7.8914403"><ele>1236.3333333333333</ele><time>2026-04-26T09:21:48.819Z</time></trkpt><trkpt lat="41.2423127" lon="-7.8915314"><ele>1240.5</ele><time>2026-04-26T09:22:06.821Z</time></trkpt><trkpt lat="41.2423455" lon="-7.8914242"><ele>1244.6666666666667</ele><time>2026-04-26T09:22:11.821Z</time></trkpt><trkpt lat="41.24242" lon="-7.8913302"><ele>1248.8333333333335</ele><time>2026-04-26T09:22:13.825Z</time></trkpt><trkpt lat="41.2425016" lon="-7.89123"><ele>1253.0</ele><time>2026-04-26T09:22:15.817Z</time></trkpt><trkpt lat="41.2425762" lon="-7.8911393"><ele>1253.0</ele><time>2026-04-26T09:22:17.828Z</time></trkpt><trkpt lat="41.2426589" lon="-7.8910185"><ele>1253.0</ele><time>2026-04-26T09:22:19.821Z</time></trkpt><trkpt lat="41.2427593" lon="-7.8909114"><ele>1253.0</ele><time>2026-04-26T09:22:21.825Z</time></trkpt><trkpt lat="41.2428164" lon="-7.89087"><ele>1253.0</ele><time>2026-04-26T09:22:22.82Z</time></trkpt><trkpt lat="41.2428751" lon="-7.890831"><ele>1253.0</ele><time>2026-04-26T09:22:23.824Z</time></trkpt><trkpt lat="41.2429344" lon="-7.8907817"><ele>1253.6666666666667</ele><time>2026-04-26T09:22:24.819Z</time></trkpt><trkpt lat="41.242984" lon="-7.8907263"><ele>1254.3333333333335</ele><time>2026-04-26T09:22:25.82Z</time></trkpt><trkpt lat="41.2430745" lon="-7.8906142"><ele>1255.0</ele><time>2026-04-26T09:22:27.824Z</time></trkpt><trkpt lat="41.2431231" lon="-7.8905584"><ele>1255.6666666666667</ele><time>2026-04-26T09:22:28.824Z</time></trkpt><trkpt lat="41.2431752" lon="-7.8905053"><ele>1256.3333333333333</ele><time>2026-04-26T09:22:29.821Z</time></trkpt><trkpt lat="41.2432359" lon="-7.8904584"><ele>1257.0</ele><time>2026-04-26T09:22:30.825Z</time></trkpt><trkpt lat="41.2433011" lon="-7.890413"><ele>1257.8333333333333</ele><time>2026-04-26T09:22:31.823Z</time></trkpt><trkpt lat="41.2433699" lon="-7.8903676"><ele>1258.6666666666667</ele><time>2026-04-26T09:22:32.824Z</time></trkpt><trkpt lat="41.2434458" lon="-7.890317"><ele>1259.5</ele><time>2026-04-26T09:22:33.827Z</time></trkpt><trkpt lat="41.2435213" lon="-7.8902682"><ele>1260.3333333333335</ele><time>2026-04-26T09:22:34.822Z</time></trkpt><trkpt lat="41.2435997" lon="-7.8902279"><ele>1261.1666666666667</ele><time>2026-04-26T09:22:35.82Z</time></trkpt><trkpt lat="41.2436921" lon="-7.8901947"><ele>1262.0</ele><time>2026-04-26T09:22:36.817Z</time></trkpt><trkpt lat="41.2437817" lon="-7.8901641"><ele>1262.0</ele><time>2026-04-26T09:22:37.82Z</time></trkpt><trkpt lat="41.243866" lon="-7.8901297"><ele>1262.0</ele><time>2026-04-26T09:22:38.813Z</time></trkpt><trkpt lat="41.2439464" lon="-7.8900902"><ele>1262.0</ele><time>2026-04-26T09:22:39.818Z</time></trkpt><trkpt lat="41.2440201" lon="-7.8900521"><ele>1262.0</ele><time>2026-04-26T09:22:40.821Z</time></trkpt><trkpt lat="41.2440909" lon="-7.8900103"><ele>1262.0</ele><time>2026-04-26T09:22:41.823Z</time></trkpt><trkpt lat="41.2441543" lon="-7.8899689"><ele>1262.0</ele><time>2026-04-26T09:22:42.832Z</time></trkpt><trkpt lat="41.244213" lon="-7.8899265"><ele>1265.0</ele><time>2026-04-26T09:22:43.831Z</time></trkpt><trkpt lat="41.2442773" lon="-7.8898928"><ele>1268.0</ele><time>2026-04-26T09:22:44.818Z</time></trkpt><trkpt lat="41.2443446" lon="-7.8898574"><ele>1271.0</ele><time>2026-04-26T09:22:45.822Z</time></trkpt><trkpt lat="41.2444175" lon="-7.8898242"><ele>1274.0</ele><time>2026-04-26T09:22:46.827Z</time></trkpt><trkpt lat="41.244497" lon="-7.8897933"><ele>1277.0</ele><time>2026-04-26T09:22:47.819Z</time></trkpt><trkpt lat="41.2445692" lon="-7.8897715"><ele>1280.0</ele><time>2026-04-26T09:22:48.82Z</time></trkpt><trkpt lat="41.2446366" lon="-7.8897572"><ele>1283.0</ele><time>2026-04-26T09:22:49.82Z</time></trkpt><trkpt lat="41.2447032" lon="-7.8897444"><ele>1285.8333333333335</ele><time>2026-04-26T09:22:50.817Z</time></trkpt><trkpt lat="41.2448278" lon="-7.8897242"><ele>1288.6666666666667</ele><time>2026-04-26T09:22:52.814Z</time></trkpt><trkpt lat="41.2448931" lon="-7.8897176"><ele>1291.5</ele><time>2026-04-26T09:22:53.824Z</time></trkpt><trkpt lat="41.244961" lon="-7.8897168"><ele>1294.3333333333333</ele><time>2026-04-26T09:22:54.817Z</time></trkpt><trkpt lat="41.2450321" lon="-7.8897186"><ele>1297.1666666666665</ele><time>2026-04-26T09:22:55.822Z</time></trkpt><trkpt lat="41.2451009" lon="-7.889724"><ele>1300.0</ele><time>2026-04-26T09:22:56.821Z</time></trkpt><trkpt lat="41.2451759" lon="-7.8897445"><ele>1300.0</ele><time>2026-04-26T09:22:57.819Z</time></trkpt><trkpt lat="41.2452492" lon="-7.8897762"><ele>1300.0</ele><time>2026-04-26T09:22:58.821Z</time></trkpt><trkpt lat="41.2453236" lon="-7.8897895"><ele>1300.0</ele><time>2026-04-26T09:22:59.818Z</time></trkpt><trkpt lat="41.2453991" lon="-7.8897936"><ele>1300.0</ele><time>2026-04-26T09:23:00.826Z</time></trkpt><trkpt lat="41.2454825" lon="-7.8897946"><ele>1300.0</ele><time>2026-04-26T09:23:01.823Z</time></trkpt><trkpt lat="41.2455704" lon="-7.8897872"><ele>1300.0</ele><time>2026-04-26T09:23:02.816Z</time></trkpt><trkpt lat="41.2456584" lon="-7.8897889"><ele>1301.6666666666665</ele><time>2026-04-26T09:23:03.823Z</time></trkpt><trkpt lat="41.2457438" lon="-7.8897883"><ele>1303.3333333333333</ele><time>2026-04-26T09:23:04.819Z</time></trkpt><trkpt lat="41.2458294" lon="-7.8897875"><ele>1305.0</ele><time>2026-04-26T09:23:05.818Z</time></trkpt><trkpt lat="41.2459157" lon="-7.8897791"><ele>1306.6666666666667</ele><time>2026-04-26T09:23:06.818Z</time></trkpt><trkpt lat="41.2459971" lon="-7.8897616"><ele>1308.3333333333335</ele><time>2026-04-26T09:23:07.82Z</time></trkpt><trkpt lat="41.2460768" lon="-7.8897245"><ele>1310.0</ele><time>2026-04-26T09:23:08.82Z</time></trkpt><trkpt lat="41.2461571" lon="-7.8896847"><ele>1310.0</ele><time>2026-04-26T09:23:09.825Z</time></trkpt><trkpt lat="41.2462269" lon="-7.8896156"><ele>1310.0</ele><time>2026-04-26T09:23:10.822Z</time></trkpt><trkpt lat="41.2462881" lon="-7.8895528"><ele>1310.0</ele><time>2026-04-26T09:23:11.819Z</time></trkpt><trkpt lat="41.2463564" lon="-7.8895099"><ele>1310.0</ele><time>2026-04-26T09:23:12.824Z</time></trkpt><trkpt lat="41.2464247" lon="-7.889467"><ele>1310.0</ele><time>2026-04-26T09:23:13.827Z</time></trkpt><trkpt lat="41.2464929" lon="-7.8894177"><ele>1310.0</ele><time>2026-04-26T09:23:14.823Z</time></trkpt><trkpt lat="41.2465729" lon="-7.8893707"><ele>1313.4</ele><time>2026-04-26T09:23:15.823Z</time></trkpt><trkpt lat="41.246661" lon="-7.8893206"><ele>1316.8</ele><time>2026-04-26T09:23:16.828Z</time></trkpt><trkpt lat="41.2467301" lon="-7.8892664"><ele>1320.1999999999998</ele><time>2026-04-26T09:23:17.829Z</time></trkpt><trkpt lat="41.246783" lon="-7.8891334"><ele>1323.6</ele><time>2026-04-26T09:23:19.821Z</time></trkpt><trkpt lat="41.2467924" lon="-7.8890031"><ele>1327.0</ele><time>2026-04-26T09:23:21.824Z</time></trkpt><trkpt lat="41.2467981" lon="-7.8889138"><ele>1328.3333333333333</ele><time>2026-04-26T09:23:23.819Z</time></trkpt><trkpt lat="41.2467592" lon="-7.888836"><ele>1329.6666666666665</ele><time>2026-04-26T09:25:27.819Z</time></trkpt><trkpt lat="41.2467561" lon="-7.8887515"><ele>1331.0</ele><time>2026-04-26T09:25:29.817Z</time></trkpt><trkpt lat="41.2467516" lon="-7.8886371"><ele>1332.3333333333333</ele><time>2026-04-26T09:25:31.819Z</time></trkpt><trkpt lat="41.2467546" lon="-7.8884924"><ele>1333.6666666666667</ele><time>2026-04-26T09:25:33.819Z</time></trkpt><trkpt lat="41.2467459" lon="-7.8883427"><ele>1335.0</ele><time>2026-04-26T09:25:35.818Z</time></trkpt><trkpt lat="41.2467439" lon="-7.888211"><ele>1335.6</ele><time>2026-04-26T09:25:37.823Z</time></trkpt><trkpt lat="41.2467329" lon="-7.8880585"><ele>1336.2</ele><time>2026-04-26T09:25:39.835Z</time></trkpt><trkpt lat="41.246737" lon="-7.8878895"><ele>1336.8000000000002</ele><time>2026-04-26T09:25:41.82Z</time></trkpt><trkpt lat="41.2467369" lon="-7.8877994"><ele>1337.4</ele><time>2026-04-26T09:25:42.81Z</time></trkpt><trkpt lat="41.2467386" lon="-7.8877026"><ele>1338.0</ele><time>2026-04-26T09:25:43.818Z</time></trkpt><trkpt lat="41.2467416" lon="-7.8876043"><ele>1338.3333333333333</ele><time>2026-04-26T09:25:44.814Z</time></trkpt><trkpt lat="41.2467461" lon="-7.8874998"><ele>1338.6666666666667</ele><time>2026-04-26T09:25:45.828Z</time></trkpt><trkpt lat="41.2467513" lon="-7.8873917"><ele>1339.0</ele><time>2026-04-26T09:25:46.83Z</time></trkpt><trkpt lat="41.2467498" lon="-7.8872902"><ele>1339.3333333333335</ele><time>2026-04-26T09:25:47.816Z</time></trkpt><trkpt lat="41.2467483" lon="-7.8871934"><ele>1339.6666666666667</ele><time>2026-04-26T09:25:48.818Z</time></trkpt><trkpt lat="41.2467411" lon="-7.8870972"><ele>1340.0</ele><time>2026-04-26T09:25:49.822Z</time></trkpt><trkpt lat="41.246734" lon="-7.8869938"><ele>1340.0</ele><time>2026-04-26T09:25:50.818Z</time></trkpt><trkpt lat="41.2467328" lon="-7.8868859"><ele>1340.0</ele><time>2026-04-26T09:25:51.819Z</time></trkpt><trkpt lat="41.2467257" lon="-7.8867753"><ele>1340.0</ele><time>2026-04-26T09:25:52.815Z</time></trkpt><trkpt lat="41.2467172" lon="-7.8866556"><ele>1340.0</ele><time>2026-04-26T09:25:53.821Z</time></trkpt><trkpt lat="41.2467098" lon="-7.8865291"><ele>1340.0</ele><time>2026-04-26T09:25:54.824Z</time></trkpt><trkpt lat="41.2467059" lon="-7.8863944"><ele>1340.4</ele><time>2026-04-26T09:25:55.823Z</time></trkpt><trkpt lat="41.2466974" lon="-7.8862508"><ele>1340.8</ele><time>2026-04-26T09:25:56.819Z</time></trkpt><trkpt lat="41.2466872" lon="-7.8861061"><ele>1341.1999999999998</ele><time>2026-04-26T09:25:57.825Z</time></trkpt><trkpt lat="41.2466773" lon="-7.8859664"><ele>1341.6</ele><time>2026-04-26T09:25:58.829Z</time></trkpt><trkpt lat="41.2466678" lon="-7.8858229"><ele>1342.0</ele><time>2026-04-26T09:25:59.822Z</time></trkpt><trkpt lat="41.2466594" lon="-7.8856827"><ele>1343.5</ele><time>2026-04-26T09:26:00.817Z</time></trkpt><trkpt lat="41.2466489" lon="-7.8855444"><ele>1345.0</ele><time>2026-04-26T09:26:01.817Z</time></trkpt><trkpt lat="41.2466411" lon="-7.8853981"><ele>1346.5</ele><time>2026-04-26T09:26:02.824Z</time></trkpt><trkpt lat="41.2466264" lon="-7.8852474"><ele>1348.0</ele><time>2026-04-26T09:26:03.813Z</time></trkpt><trkpt lat="41.2466105" lon="-7.8850846"><ele>1349.0</ele><time>2026-04-26T09:26:04.817Z</time></trkpt><trkpt lat="41.2465913" lon="-7.8849205"><ele>1350.0</ele><time>2026-04-26T09:26:05.825Z</time></trkpt><trkpt lat="41.2465777" lon="-7.8847502"><ele>1351.0</ele><time>2026-04-26T09:26:06.816Z</time></trkpt><trkpt lat="41.2465685" lon="-7.8845813"><ele>1352.0</ele><time>2026-04-26T09:26:07.815Z</time></trkpt><trkpt lat="41.2465549" lon="-7.8844152"><ele>1352.0</ele><time>2026-04-26T09:26:08.818Z</time></trkpt><trkpt lat="41.2465446" lon="-7.8842642"><ele>1352.0</ele><time>2026-04-26T09:26:09.817Z</time></trkpt><trkpt lat="41.2465359" lon="-7.884114"><ele>1352.0</ele><time>2026-04-26T09:26:10.822Z</time></trkpt><trkpt lat="41.2465281" lon="-7.883974"><ele>1352.0</ele><time>2026-04-26T09:26:11.819Z</time></trkpt><trkpt lat="41.2465176" lon="-7.8838296"><ele>1352.0</ele><time>2026-04-26T09:26:12.818Z</time></trkpt><trkpt lat="41.246505" lon="-7.8836928"><ele>1352.1999999999998</ele><time>2026-04-26T09:26:13.819Z</time></trkpt><trkpt lat="41.2464928" lon="-7.8835625"><ele>1352.4</ele><time>2026-04-26T09:26:14.825Z</time></trkpt><trkpt lat="41.2464872" lon="-7.8834381"><ele>1352.6</ele><time>2026-04-26T09:26:15.824Z</time></trkpt><trkpt lat="41.2464839" lon="-7.8833202"><ele>1352.8000000000002</ele><time>2026-04-26T09:26:16.82Z</time></trkpt><trkpt lat="41.2464767" lon="-7.8831962"><ele>1353.0</ele><time>2026-04-26T09:26:17.814Z</time></trkpt><trkpt lat="41.2464748" lon="-7.8830813"><ele>1354.0</ele><time>2026-04-26T09:26:18.819Z</time></trkpt><trkpt lat="41.2464731" lon="-7.882967"><ele>1355.0</ele><time>2026-04-26T09:26:19.826Z</time></trkpt><trkpt lat="41.246468" lon="-7.8828505"><ele>1356.0</ele><time>2026-04-26T09:26:20.818Z</time></trkpt><trkpt lat="41.2464605" lon="-7.8827268"><ele>1357.0</ele><time>2026-04-26T09:26:21.813Z</time></trkpt><trkpt lat="41.2464375" lon="-7.8825944"><ele>1358.0</ele><time>2026-04-26T09:26:22.825Z</time></trkpt><trkpt lat="41.246406" lon="-7.882457"><ele>1355.4</ele><time>2026-04-26T09:26:23.822Z</time></trkpt><trkpt lat="41.2463651" lon="-7.8823293"><ele>1352.8000000000002</ele><time>2026-04-26T09:26:24.817Z</time></trkpt><trkpt lat="41.2463263" lon="-7.8821946"><ele>1350.2</ele><time>2026-04-26T09:26:25.817Z</time></trkpt><trkpt lat="41.246286" lon="-7.88207"><ele>1347.6</ele><time>2026-04-26T09:26:26.816Z</time></trkpt><trkpt lat="41.2462469" lon="-7.8819411"><ele>1345.0</ele><time>2026-04-26T09:26:27.825Z</time></trkpt><trkpt lat="41.2462086" lon="-7.8818143"><ele>1347.2</ele><time>2026-04-26T09:26:28.823Z</time></trkpt><trkpt lat="41.2461666" lon="-7.8816849"><ele>1349.4</ele><time>2026-04-26T09:26:29.823Z</time></trkpt><trkpt lat="41.2461251" lon="-7.8815518"><ele>1351.6</ele><time>2026-04-26T09:26:30.814Z</time></trkpt><trkpt lat="41.2460872" lon="-7.8814255"><ele>1353.8</ele><time>2026-04-26T09:26:31.82Z</time></trkpt><trkpt lat="41.2460451" lon="-7.8813035"><ele>1356.0</ele><time>2026-04-26T09:26:32.819Z</time></trkpt><trkpt lat="41.2460121" lon="-7.8811934"><ele>1356.0</ele><time>2026-04-26T09:26:33.817Z</time></trkpt><trkpt lat="41.24598" lon="-7.8811102"><ele>1356.0</ele><time>2026-04-26T09:26:34.814Z</time></trkpt><trkpt lat="41.2459379" lon="-7.880994"><ele>1356.0</ele><time>2026-04-26T09:26:36.822Z</time></trkpt><trkpt lat="41.2459112" lon="-7.8808882"><ele>1356.0</ele><time>2026-04-26T09:26:39.816Z</time></trkpt><trkpt lat="41.2459795" lon="-7.8808416"><ele>1356.0</ele><time>2026-04-26T09:26:41.821Z</time></trkpt><trkpt lat="41.2460732" lon="-7.880838"><ele>1356.0</ele><time>2026-04-26T09:26:43.814Z</time></trkpt><trkpt lat="41.2461594" lon="-7.8808495"><ele>1356.0</ele><time>2026-04-26T09:26:45.823Z</time></trkpt><trkpt lat="41.2462354" lon="-7.8808679"><ele>1356.0</ele><time>2026-04-26T09:26:47.82Z</time></trkpt><trkpt lat="41.2463067" lon="-7.8809014"><ele>1356.0</ele><time>2026-04-26T09:26:49.823Z</time></trkpt><trkpt lat="41.2463604" lon="-7.8809577"><ele>1356.0</ele><time>2026-04-26T09:26:51.817Z</time></trkpt><trkpt lat="41.2464229" lon="-7.8810184"><ele>1356.0</ele><time>2026-04-26T09:26:53.816Z</time></trkpt><trkpt lat="41.2465024" lon="-7.8810727"><ele>1356.0</ele><time>2026-04-26T09:26:55.825Z</time></trkpt><trkpt lat="41.246579" lon="-7.881158"><ele>1358.1999999999998</ele><time>2026-04-26T09:26:57.824Z</time></trkpt><trkpt lat="41.2466555" lon="-7.8812608"><ele>1360.3999999999999</ele><time>2026-04-26T09:26:59.824Z</time></trkpt><trkpt lat="41.2466972" lon="-7.8813242"><ele>1362.6</ele><time>2026-04-26T09:27:00.819Z</time></trkpt><trkpt lat="41.2467803" lon="-7.8814487"><ele>1364.8</ele><time>2026-04-26T09:27:02.82Z</time></trkpt><trkpt lat="41.2468511" lon="-7.8815481"><ele>1367.0</ele><time>2026-04-26T09:27:04.815Z</time></trkpt><trkpt lat="41.2469412" lon="-7.8815815"><ele>1367.0</ele><time>2026-04-26T09:27:06.817Z</time></trkpt><trkpt lat="41.2470363" lon="-7.8816359"><ele>1367.0</ele><time>2026-04-26T09:27:08.827Z</time></trkpt><trkpt lat="41.2471146" lon="-7.881716"><ele>1367.0</ele><time>2026-04-26T09:27:10.814Z</time></trkpt><trkpt lat="41.2471901" lon="-7.8817921"><ele>1367.0</ele><time>2026-04-26T09:27:12.819Z</time></trkpt><trkpt lat="41.2472775" lon="-7.8817679"><ele>1367.0</ele><time>2026-04-26T09:27:14.821Z</time></trkpt><trkpt lat="41.2473686" lon="-7.8816892"><ele>1367.8</ele><time>2026-04-26T09:27:16.826Z</time></trkpt><trkpt lat="41.2474676" lon="-7.8815955"><ele>1368.6</ele><time>2026-04-26T09:27:18.819Z</time></trkpt><trkpt lat="41.2475621" lon="-7.8814906"><ele>1369.3999999999999</ele><time>2026-04-26T09:27:20.825Z</time></trkpt><trkpt lat="41.2476243" lon="-7.8814285"><ele>1370.1999999999998</ele><time>2026-04-26T09:27:21.825Z</time></trkpt><trkpt lat="41.2476849" lon="-7.8813586"><ele>1371.0</ele><time>2026-04-26T09:27:22.813Z</time></trkpt><trkpt lat="41.2477399" lon="-7.8812901"><ele>1371.0</ele><time>2026-04-26T09:27:23.819Z</time></trkpt><trkpt lat="41.247788" lon="-7.8812044"><ele>1371.0</ele><time>2026-04-26T09:27:24.816Z</time></trkpt><trkpt lat="41.247832" lon="-7.8811277"><ele>1371.0</ele><time>2026-04-26T09:27:25.816Z</time></trkpt><trkpt lat="41.2478766" lon="-7.8810434"><ele>1371.0</ele><time>2026-04-26T09:27:26.813Z</time></trkpt><trkpt lat="41.2479127" lon="-7.8809524"><ele>1371.0</ele><time>2026-04-26T09:27:27.812Z</time></trkpt><trkpt lat="41.2479424" lon="-7.8808548"><ele>1371.0</ele><time>2026-04-26T09:27:28.818Z</time></trkpt><trkpt lat="41.2479721" lon="-7.8807498"><ele>1368.857142857143</ele><time>2026-04-26T09:27:29.82Z</time></trkpt><trkpt lat="41.2479883" lon="-7.8806452"><ele>1366.7142857142858</ele><time>2026-04-26T09:27:30.816Z</time></trkpt><trkpt lat="41.2480036" lon="-7.8805431"><ele>1364.5714285714284</ele><time>2026-04-26T09:27:31.812Z</time></trkpt><trkpt lat="41.2480189" lon="-7.8804474"><ele>1362.4285714285716</ele><time>2026-04-26T09:27:32.826Z</time></trkpt><trkpt lat="41.2480288" lon="-7.8803543"><ele>1360.2857142857144</ele><time>2026-04-26T09:27:33.818Z</time></trkpt><trkpt lat="41.2480287" lon="-7.8802603"><ele>1358.142857142857</ele><time>2026-04-26T09:27:34.826Z</time></trkpt><trkpt lat="41.2480243" lon="-7.8801617"><ele>1356.0</ele><time>2026-04-26T09:27:35.815Z</time></trkpt><trkpt lat="41.248014" lon="-7.8800443"><ele>1353.6666666666667</ele><time>2026-04-26T09:27:36.814Z</time></trkpt><trkpt lat="41.2480092" lon="-7.8799223"><ele>1351.3333333333333</ele><time>2026-04-26T09:27:37.815Z</time></trkpt><trkpt lat="41.2480025" lon="-7.8798052"><ele>1349.0</ele><time>2026-04-26T09:27:38.817Z</time></trkpt><trkpt lat="41.2479996" lon="-7.8796932"><ele>1346.6666666666665</ele><time>2026-04-26T09:27:39.816Z</time></trkpt><trkpt lat="41.2479958" lon="-7.879581"><ele>1344.3333333333333</ele><time>2026-04-26T09:27:40.826Z</time></trkpt><trkpt lat="41.2479891" lon="-7.879477"><ele>1342.0</ele><time>2026-04-26T09:27:41.814Z</time></trkpt><trkpt lat="41.247989" lon="-7.8793711"><ele>1342.0</ele><time>2026-04-26T09:27:42.817Z</time></trkpt><trkpt lat="41.2479981" lon="-7.879272"><ele>1342.0</ele><time>2026-04-26T09:27:43.816Z</time></trkpt><trkpt lat="41.2480164" lon="-7.8791861"><ele>1342.0</ele><time>2026-04-26T09:27:44.817Z</time></trkpt><trkpt lat="41.2480368" lon="-7.8790604"><ele>1342.0</ele><time>2026-04-26T09:27:46.815Z</time></trkpt><trkpt lat="41.2479581" lon="-7.8790106"><ele>1342.0</ele><time>2026-04-26T09:27:49.817Z</time></trkpt><trkpt lat="41.2478978" lon="-7.8790778"><ele>1342.0</ele><time>2026-04-26T09:27:51.82Z</time></trkpt><trkpt lat="41.247887" lon="-7.8791825"><ele>1342.0</ele><time>2026-04-26T09:27:54.823Z</time></trkpt><trkpt lat="41.2478538" lon="-7.8792814"><ele>1342.0</ele><time>2026-04-26T09:27:57.824Z</time></trkpt><trkpt lat="41.2478231" lon="-7.8793885"><ele>1342.0</ele><time>2026-04-26T09:27:59.818Z</time></trkpt><trkpt lat="41.2477769" lon="-7.8795054"><ele>1342.0</ele><time>2026-04-26T09:28:01.819Z</time></trkpt><trkpt lat="41.2477445" lon="-7.8795825"><ele>1342.0</ele><time>2026-04-26T09:28:02.818Z</time></trkpt><trkpt lat="41.2477107" lon="-7.8796632"><ele>1342.0</ele><time>2026-04-26T09:28:03.819Z</time></trkpt><trkpt lat="41.2476656" lon="-7.8797471"><ele>1342.0</ele><time>2026-04-26T09:28:04.815Z</time></trkpt><trkpt lat="41.2475993" lon="-7.8798877"><ele>1342.0</ele><time>2026-04-26T09:28:06.816Z</time></trkpt><trkpt lat="41.2475608" lon="-7.8799666"><ele>1342.0</ele><time>2026-04-26T09:28:07.817Z</time></trkpt><trkpt lat="41.247488" lon="-7.880092"><ele>1342.0</ele><time>2026-04-26T09:28:09.815Z</time></trkpt><trkpt lat="41.2474205" lon="-7.8802024"><ele>1342.0</ele><time>2026-04-26T09:28:11.823Z</time></trkpt><trkpt lat="41.2473616" lon="-7.8802511"><ele>1343.6</ele><time>2026-04-26T09:28:13.82Z</time></trkpt><trkpt lat="41.2472808" lon="-7.8801613"><ele>1345.1999999999998</ele><time>2026-04-26T09:28:15.815Z</time></trkpt><trkpt lat="41.2472096" lon="-7.8800282"><ele>1346.8</ele><time>2026-04-26T09:28:17.825Z</time></trkpt><trkpt lat="41.2471516" lon="-7.8799426"><ele>1348.4</ele><time>2026-04-26T09:28:18.817Z</time></trkpt><trkpt lat="41.2470926" lon="-7.8798453"><ele>1350.0</ele><time>2026-04-26T09:28:19.809Z</time></trkpt><trkpt lat="41.2470206" lon="-7.8797458"><ele>1350.0</ele><time>2026-04-26T09:28:20.811Z</time></trkpt><trkpt lat="41.2469427" lon="-7.8796573"><ele>1350.0</ele><time>2026-04-26T09:28:21.827Z</time></trkpt><trkpt lat="41.2468772" lon="-7.8795799"><ele>1350.0</ele><time>2026-04-26T09:28:22.821Z</time></trkpt><trkpt lat="41.2468153" lon="-7.879499"><ele>1350.0</ele><time>2026-04-26T09:28:23.823Z</time></trkpt><trkpt lat="41.2467481" lon="-7.8794261"><ele>1350.0</ele><time>2026-04-26T09:28:24.819Z</time></trkpt><trkpt lat="41.2466896" lon="-7.8793462"><ele>1350.0</ele><time>2026-04-26T09:28:25.815Z</time></trkpt><trkpt lat="41.2466288" lon="-7.8792612"><ele>1348.1666666666667</ele><time>2026-04-26T09:28:26.825Z</time></trkpt><trkpt lat="41.2465789" lon="-7.8791704"><ele>1346.3333333333333</ele><time>2026-04-26T09:28:27.816Z</time></trkpt><trkpt lat="41.2465388" lon="-7.8790645"><ele>1344.5</ele><time>2026-04-26T09:28:28.813Z</time></trkpt><trkpt lat="41.2464899" lon="-7.8789715"><ele>1342.6666666666665</ele><time>2026-04-26T09:28:29.823Z</time></trkpt><trkpt lat="41.246436" lon="-7.8788893"><ele>1340.8333333333333</ele><time>2026-04-26T09:28:30.826Z</time></trkpt><trkpt lat="41.2463794" lon="-7.8788403"><ele>1339.0</ele><time>2026-04-26T09:28:31.817Z</time></trkpt><trkpt lat="41.2463053" lon="-7.8788394"><ele>1339.0</ele><time>2026-04-26T09:28:32.816Z</time></trkpt><trkpt lat="41.2462242" lon="-7.8788316"><ele>1339.0</ele><time>2026-04-26T09:28:33.817Z</time></trkpt><trkpt lat="41.2461363" lon="-7.8788195"><ele>1339.0</ele><time>2026-04-26T09:28:34.813Z</time></trkpt><trkpt lat="41.2460595" lon="-7.8788135"><ele>1339.0</ele><time>2026-04-26T09:28:35.821Z</time></trkpt><trkpt lat="41.2459847" lon="-7.8787991"><ele>1339.0</ele><time>2026-04-26T09:28:36.814Z</time></trkpt><trkpt lat="41.2459124" lon="-7.8787709"><ele>1339.0</ele><time>2026-04-26T09:28:37.816Z</time></trkpt><trkpt lat="41.2458353" lon="-7.8787252"><ele>1339.0</ele><time>2026-04-26T09:28:38.814Z</time></trkpt><trkpt lat="41.2457527" lon="-7.8786711"><ele>1339.0</ele><time>2026-04-26T09:28:39.813Z</time></trkpt><trkpt lat="41.2456787" lon="-7.8786008"><ele>1339.0</ele><time>2026-04-26T09:28:40.818Z</time></trkpt><trkpt lat="41.2456034" lon="-7.878517"><ele>1339.0</ele><time>2026-04-26T09:28:41.817Z</time></trkpt><trkpt lat="41.2455216" lon="-7.8784268"><ele>1339.0</ele><time>2026-04-26T09:28:42.822Z</time></trkpt><trkpt lat="41.2454474" lon="-7.8783247"><ele>1336.25</ele><time>2026-04-26T09:28:43.82Z</time></trkpt><trkpt lat="41.2453766" lon="-7.8782219"><ele>1333.5</ele><time>2026-04-26T09:28:44.819Z</time></trkpt><trkpt lat="41.2453038" lon="-7.8781098"><ele>1330.75</ele><time>2026-04-26T09:28:45.828Z</time></trkpt><trkpt lat="41.2452334" lon="-7.8779809"><ele>1328.0</ele><time>2026-04-26T09:28:46.811Z</time></trkpt><trkpt lat="41.2451681" lon="-7.8778452"><ele>1328.0</ele><time>2026-04-26T09:28:47.821Z</time></trkpt><trkpt lat="41.2451026" lon="-7.877693"><ele>1328.0</ele><time>2026-04-26T09:28:48.823Z</time></trkpt><trkpt lat="41.2450386" lon="-7.8775296"><ele>1328.0</ele><time>2026-04-26T09:28:49.815Z</time></trkpt><trkpt lat="41.2449728" lon="-7.8773684"><ele>1328.0</ele><time>2026-04-26T09:28:50.82Z</time></trkpt><trkpt lat="41.2449115" lon="-7.8772008"><ele>1321.0</ele><time>2026-04-26T09:28:51.819Z</time></trkpt><trkpt lat="41.2448611" lon="-7.8770487"><ele>1314.0</ele><time>2026-04-26T09:28:52.82Z</time></trkpt><trkpt lat="41.2448104" lon="-7.8768993"><ele>1307.0</ele><time>2026-04-26T09:28:53.822Z</time></trkpt><trkpt lat="41.2447602" lon="-7.8767647"><ele>1300.0</ele><time>2026-04-26T09:28:54.817Z</time></trkpt><trkpt lat="41.2447079" lon="-7.8766547"><ele>1298.0</ele><time>2026-04-26T09:28:55.818Z</time></trkpt><trkpt lat="41.2446537" lon="-7.8765497"><ele>1296.0</ele><time>2026-04-26T09:28:56.825Z</time></trkpt><trkpt lat="41.2445859" lon="-7.8764497"><ele>1294.0</ele><time>2026-04-26T09:28:57.816Z</time></trkpt><trkpt lat="41.2445117" lon="-7.876363"><ele>1292.0</ele><time>2026-04-26T09:28:58.818Z</time></trkpt><trkpt lat="41.2444342" lon="-7.8762947"><ele>1290.0</ele><time>2026-04-26T09:28:59.82Z</time></trkpt><trkpt lat="41.2443559" lon="-7.8762526"><ele>1290.0</ele><time>2026-04-26T09:29:00.819Z</time></trkpt><trkpt lat="41.2442753" lon="-7.8762323"><ele>1290.0</ele><time>2026-04-26T09:29:01.809Z</time></trkpt><trkpt lat="41.2441879" lon="-7.8762201"><ele>1290.0</ele><time>2026-04-26T09:29:02.813Z</time></trkpt><trkpt lat="41.2441043" lon="-7.8761978"><ele>1290.0</ele><time>2026-04-26T09:29:03.813Z</time></trkpt><trkpt lat="41.2440321" lon="-7.8761567"><ele>1290.0</ele><time>2026-04-26T09:29:04.816Z</time></trkpt><trkpt lat="41.2439633" lon="-7.8761003"><ele>1290.0</ele><time>2026-04-26T09:29:05.825Z</time></trkpt><trkpt lat="41.243887" lon="-7.8760405"><ele>1292.4</ele><time>2026-04-26T09:29:06.818Z</time></trkpt><trkpt lat="41.2438195" lon="-7.8759595"><ele>1294.8</ele><time>2026-04-26T09:29:07.816Z</time></trkpt><trkpt lat="41.2437636" lon="-7.8758351"><ele>1297.1999999999998</ele><time>2026-04-26T09:29:08.822Z</time></trkpt><trkpt lat="41.2437273" lon="-7.8756797"><ele>1299.6</ele><time>2026-04-26T09:29:09.815Z</time></trkpt><trkpt lat="41.243718" lon="-7.8755251"><ele>1302.0</ele><time>2026-04-26T09:29:10.817Z</time></trkpt><trkpt lat="41.2437151" lon="-7.8753653"><ele>1302.0</ele><time>2026-04-26T09:29:11.816Z</time></trkpt><trkpt lat="41.2437281" lon="-7.8752206"><ele>1302.0</ele><time>2026-04-26T09:29:12.813Z</time></trkpt><trkpt lat="41.2437365" lon="-7.8750801"><ele>1302.0</ele><time>2026-04-26T09:29:13.816Z</time></trkpt><trkpt lat="41.2437445" lon="-7.8749404"><ele>1302.0</ele><time>2026-04-26T09:29:14.82Z</time></trkpt><trkpt lat="41.2437563" lon="-7.8748064"><ele>1302.0</ele><time>2026-04-26T09:29:15.816Z</time></trkpt><trkpt lat="41.2437703" lon="-7.8746769"><ele>1297.3999999999999</ele><time>2026-04-26T09:29:16.818Z</time></trkpt><trkpt lat="41.2437804" lon="-7.8745563"><ele>1292.8</ele><time>2026-04-26T09:29:17.813Z</time></trkpt><trkpt lat="41.2438013" lon="-7.8744349"><ele>1288.2</ele><time>2026-04-26T09:29:18.815Z</time></trkpt><trkpt lat="41.2438251" lon="-7.8743135"><ele>1283.6</ele><time>2026-04-26T09:29:19.814Z</time></trkpt><trkpt lat="41.2438546" lon="-7.8741905"><ele>1279.0</ele><time>2026-04-26T09:29:20.818Z</time></trkpt><trkpt lat="41.2438881" lon="-7.8740693"><ele>1276.2</ele><time>2026-04-26T09:29:21.821Z</time></trkpt><trkpt lat="41.2439195" lon="-7.8739516"><ele>1273.4</ele><time>2026-04-26T09:29:22.814Z</time></trkpt><trkpt lat="41.2439555" lon="-7.8738356"><ele>1270.6</ele><time>2026-04-26T09:29:23.811Z</time></trkpt><trkpt lat="41.2439868" lon="-7.8737066"><ele>1267.8</ele><time>2026-04-26T09:29:24.821Z</time></trkpt><trkpt lat="41.2440281" lon="-7.8735897"><ele>1265.0</ele><time>2026-04-26T09:29:25.813Z</time></trkpt><trkpt lat="41.2440693" lon="-7.8734733"><ele>1257.5</ele><time>2026-04-26T09:29:26.823Z</time></trkpt><trkpt lat="41.2441144" lon="-7.8733624"><ele>1250.0</ele><time>2026-04-26T09:29:27.819Z</time></trkpt><trkpt lat="41.2441583" lon="-7.8732636"><ele>1242.5</ele><time>2026-04-26T09:29:28.817Z</time></trkpt><trkpt lat="41.2442069" lon="-7.8731691"><ele>1235.0</ele><time>2026-04-26T09:29:29.815Z</time></trkpt><trkpt lat="41.2442615" lon="-7.8730826"><ele>1227.5</ele><time>2026-04-26T09:29:30.821Z</time></trkpt><trkpt lat="41.2443104" lon="-7.8729918"><ele>1220.0</ele><time>2026-04-26T09:29:31.816Z</time></trkpt><trkpt lat="41.2443538" lon="-7.8729048"><ele>1220.0</ele><time>2026-04-26T09:29:32.817Z</time></trkpt><trkpt lat="41.2443933" lon="-7.8728178"><ele>1220.0</ele><time>2026-04-26T09:29:33.824Z</time></trkpt><trkpt lat="41.244423" lon="-7.8727205"><ele>1220.0</ele><time>2026-04-26T09:29:34.818Z</time></trkpt><trkpt lat="41.2444515" lon="-7.8726189"><ele>1220.0</ele><time>2026-04-26T09:29:35.819Z</time></trkpt><trkpt lat="41.2444855" lon="-7.8725189"><ele>1220.0</ele><time>2026-04-26T09:29:36.814Z</time></trkpt><trkpt lat="41.2445237" lon="-7.8724262"><ele>1220.0</ele><time>2026-04-26T09:29:37.819Z</time></trkpt><trkpt lat="41.2445547" lon="-7.872336"><ele>1220.5</ele><time>2026-04-26T09:29:38.825Z</time></trkpt><trkpt lat="41.2445754" lon="-7.8722484"><ele>1221.0</ele><time>2026-04-26T09:29:39.817Z</time></trkpt><trkpt lat="41.2445868" lon="-7.8721575"><ele>1221.5</ele><time>2026-04-26T09:29:40.822Z</time></trkpt><trkpt lat="41.2445978" lon="-7.872065"><ele>1222.0</ele><time>2026-04-26T09:29:41.816Z</time></trkpt><trkpt lat="41.24461" lon="-7.8719814"><ele>1222.5</ele><time>2026-04-26T09:29:42.818Z</time></trkpt><trkpt lat="41.2446285" lon="-7.8718979"><ele>1223.0</ele><time>2026-04-26T09:29:43.816Z</time></trkpt><trkpt lat="41.2446756" lon="-7.871746"><ele>1223.0</ele><time>2026-04-26T09:29:45.819Z</time></trkpt><trkpt lat="41.2447325" lon="-7.8715922"><ele>1223.0</ele><time>2026-04-26T09:29:47.81Z</time></trkpt><trkpt lat="41.2447708" lon="-7.8715166"><ele>1223.0</ele><time>2026-04-26T09:29:48.812Z</time></trkpt><trkpt lat="41.2448096" lon="-7.8714362"><ele>1223.0</ele><time>2026-04-26T09:29:49.814Z</time></trkpt><trkpt lat="41.2448435" lon="-7.8713548"><ele>1223.0</ele><time>2026-04-26T09:29:50.815Z</time></trkpt><trkpt lat="41.244865" lon="-7.8712723"><ele>1223.0</ele><time>2026-04-26T09:29:51.816Z</time></trkpt><trkpt lat="41.2448915" lon="-7.8711881"><ele>1216.5714285714284</ele><time>2026-04-26T09:29:52.823Z</time></trkpt><trkpt lat="41.244914" lon="-7.8711025"><ele>1210.1428571428573</ele><time>2026-04-26T09:29:53.813Z</time></trkpt><trkpt lat="41.2449382" lon="-7.8710118"><ele>1203.7142857142858</ele><time>2026-04-26T09:29:54.828Z</time></trkpt><trkpt lat="41.244968" lon="-7.8709205"><ele>1197.2857142857142</ele><time>2026-04-26T09:29:55.813Z</time></trkpt><trkpt lat="41.2449929" lon="-7.8708245"><ele>1190.8571428571427</ele><time>2026-04-26T09:29:56.816Z</time></trkpt><trkpt lat="41.2450192" lon="-7.8707336"><ele>1184.4285714285713</ele><time>2026-04-26T09:29:57.816Z</time></trkpt><trkpt lat="41.2450504" lon="-7.8706489"><ele>1178.0</ele><time>2026-04-26T09:29:58.813Z</time></trkpt><trkpt lat="41.2450832" lon="-7.8705574"><ele>1178.0</ele><time>2026-04-26T09:29:59.831Z</time></trkpt><trkpt lat="41.2451107" lon="-7.8704599"><ele>1178.0</ele><time>2026-04-26T09:30:00.816Z</time></trkpt><trkpt lat="41.2451347" lon="-7.8703543"><ele>1178.0</ele><time>2026-04-26T09:30:01.815Z</time></trkpt><trkpt lat="41.2451601" lon="-7.87025"><ele>1178.0</ele><time>2026-04-26T09:30:02.809Z</time></trkpt><trkpt lat="41.2451894" lon="-7.8701406"><ele>1178.0</ele><time>2026-04-26T09:30:03.814Z</time></trkpt><trkpt lat="41.2452176" lon="-7.8700329"><ele>1178.0</ele><time>2026-04-26T09:30:04.818Z</time></trkpt><trkpt lat="41.2452421" lon="-7.8699273"><ele>1177.0</ele><time>2026-04-26T09:30:05.815Z</time></trkpt><trkpt lat="41.2452585" lon="-7.869821"><ele>1176.0</ele><time>2026-04-26T09:30:06.822Z</time></trkpt><trkpt lat="41.245273" lon="-7.8697162"><ele>1175.0</ele><time>2026-04-26T09:30:07.814Z</time></trkpt><trkpt lat="41.2452914" lon="-7.8696118"><ele>1174.0</ele><time>2026-04-26T09:30:08.813Z</time></trkpt><trkpt lat="41.2453072" lon="-7.8695081"><ele>1173.0</ele><time>2026-04-26T09:30:09.816Z</time></trkpt><trkpt lat="41.2453089" lon="-7.869407"><ele>1172.0</ele><time>2026-04-26T09:30:10.818Z</time></trkpt><trkpt lat="41.2453007" lon="-7.8693071"><ele>1169.9999999999998</ele><time>2026-04-26T09:30:11.821Z</time></trkpt><trkpt lat="41.2452837" lon="-7.8692134"><ele>1168.0</ele><time>2026-04-26T09:30:12.821Z</time></trkpt><trkpt lat="41.2452532" lon="-7.8691324"><ele>1166.0</ele><time>2026-04-26T09:30:13.817Z</time></trkpt><trkpt lat="41.245207" lon="-7.8690611"><ele>1164.0</ele><time>2026-04-26T09:30:14.819Z</time></trkpt><trkpt lat="41.245136" lon="-7.8690082"><ele>1162.0</ele><time>2026-04-26T09:30:15.821Z</time></trkpt><trkpt lat="41.245061" lon="-7.8689608"><ele>1159.9999999999998</ele><time>2026-04-26T09:30:16.816Z</time></trkpt><trkpt lat="41.2449941" lon="-7.8689212"><ele>1158.0</ele><time>2026-04-26T09:30:17.818Z</time></trkpt><trkpt lat="41.2449294" lon="-7.8688974"><ele>1158.0</ele><time>2026-04-26T09:30:18.815Z</time></trkpt><trkpt lat="41.2448297" lon="-7.8688864"><ele>1158.0</ele><time>2026-04-26T09:30:20.819Z</time></trkpt><trkpt lat="41.244765" lon="-7.8688851"><ele>1158.0</ele><time>2026-04-26T09:30:36.817Z</time></trkpt><trkpt lat="41.2447869" lon="-7.8687969"><ele>1158.0</ele><time>2026-04-26T09:38:28.819Z</time></trkpt><trkpt lat="41.2448692" lon="-7.868747"><ele>1158.0</ele><time>2026-04-26T09:38:30.81Z</time></trkpt><trkpt lat="41.2449768" lon="-7.8686787"><ele>1158.0</ele><time>2026-04-26T09:38:32.817Z</time></trkpt><trkpt lat="41.2450459" lon="-7.8686236"><ele>1158.0</ele><time>2026-04-26T09:38:33.811Z</time></trkpt><trkpt lat="41.2451172" lon="-7.8685712"><ele>1158.0</ele><time>2026-04-26T09:38:34.818Z</time></trkpt><trkpt lat="41.2451862" lon="-7.8685184"><ele>1158.0</ele><time>2026-04-26T09:38:35.814Z</time></trkpt><trkpt lat="41.2452641" lon="-7.8684673"><ele>1158.0</ele><time>2026-04-26T09:38:36.831Z</time></trkpt><trkpt lat="41.2453426" lon="-7.868439"><ele>1158.0</ele><time>2026-04-26T09:38:37.811Z</time></trkpt><trkpt lat="41.2454191" lon="-7.8684106"><ele>1158.0</ele><time>2026-04-26T09:38:38.811Z</time></trkpt><trkpt lat="41.2454892" lon="-7.8683881"><ele>1153.3333333333333</ele><time>2026-04-26T09:38:39.814Z</time></trkpt><trkpt lat="41.2455542" lon="-7.8683674"><ele>1148.6666666666667</ele><time>2026-04-26T09:38:40.812Z</time></trkpt><trkpt lat="41.2456654" lon="-7.8683411"><ele>1144.0</ele><time>2026-04-26T09:38:42.815Z</time></trkpt><trkpt lat="41.2457587" lon="-7.8683231"><ele>1139.3333333333335</ele><time>2026-04-26T09:38:44.813Z</time></trkpt><trkpt lat="41.2458358" lon="-7.8683076"><ele>1134.6666666666667</ele><time>2026-04-26T09:38:46.813Z</time></trkpt><trkpt lat="41.2459195" lon="-7.8682917"><ele>1130.0</ele><time>2026-04-26T09:38:48.815Z</time></trkpt><trkpt lat="41.2460169" lon="-7.8682947"><ele>1130.0</ele><time>2026-04-26T09:38:50.809Z</time></trkpt><trkpt lat="41.2461199" lon="-7.868311"><ele>1130.0</ele><time>2026-04-26T09:38:52.817Z</time></trkpt><trkpt lat="41.2462225" lon="-7.8683468"><ele>1130.0</ele><time>2026-04-26T09:38:54.81Z</time></trkpt><trkpt lat="41.2463195" lon="-7.868396"><ele>1130.0</ele><time>2026-04-26T09:38:56.816Z</time></trkpt><trkpt lat="41.2464064" lon="-7.8684358"><ele>1130.0</ele><time>2026-04-26T09:38:58.813Z</time></trkpt><trkpt lat="41.2464838" lon="-7.8684256"><ele>1126.6</ele><time>2026-04-26T09:39:00.821Z</time></trkpt><trkpt lat="41.2465373" lon="-7.8683242"><ele>1123.2</ele><time>2026-04-26T09:39:02.813Z</time></trkpt><trkpt lat="41.2465711" lon="-7.8682033"><ele>1119.8</ele><time>2026-04-26T09:39:04.811Z</time></trkpt><trkpt lat="41.2465982" lon="-7.8680918"><ele>1116.4</ele><time>2026-04-26T09:39:06.811Z</time></trkpt><trkpt lat="41.2466319" lon="-7.867983"><ele>1113.0</ele><time>2026-04-26T09:39:08.812Z</time></trkpt><trkpt lat="41.246664" lon="-7.8678762"><ele>1113.0</ele><time>2026-04-26T09:39:10.811Z</time></trkpt><trkpt lat="41.246697" lon="-7.8677674"><ele>1113.0</ele><time>2026-04-26T09:39:12.811Z</time></trkpt><trkpt lat="41.2467289" lon="-7.8676495"><ele>1113.0</ele><time>2026-04-26T09:39:14.818Z</time></trkpt><trkpt lat="41.2467569" lon="-7.8675147"><ele>1113.0</ele><time>2026-04-26T09:39:16.818Z</time></trkpt><trkpt lat="41.246776" lon="-7.8673645"><ele>1113.0</ele><time>2026-04-26T09:39:18.818Z</time></trkpt><trkpt lat="41.2467778" lon="-7.86728"><ele>1112.4285714285713</ele><time>2026-04-26T09:39:19.815Z</time></trkpt><trkpt lat="41.2467773" lon="-7.8671935"><ele>1111.857142857143</ele><time>2026-04-26T09:39:20.819Z</time></trkpt><trkpt lat="41.24678" lon="-7.8671051"><ele>1111.2857142857142</ele><time>2026-04-26T09:39:21.809Z</time></trkpt><trkpt lat="41.246782" lon="-7.8670114"><ele>1110.7142857142858</ele><time>2026-04-26T09:39:22.815Z</time></trkpt><trkpt lat="41.2467838" lon="-7.8669223"><ele>1110.142857142857</ele><time>2026-04-26T09:39:23.82Z</time></trkpt><trkpt lat="41.2467869" lon="-7.866827"><ele>1109.5714285714284</ele><time>2026-04-26T09:39:24.814Z</time></trkpt><trkpt lat="41.2467947" lon="-7.8667335"><ele>1109.0</ele><time>2026-04-26T09:39:25.818Z</time></trkpt><trkpt lat="41.2468112" lon="-7.8666353"><ele>1107.142857142857</ele><time>2026-04-26T09:39:26.813Z</time></trkpt><trkpt lat="41.2468277" lon="-7.8665386"><ele>1105.2857142857142</ele><time>2026-04-26T09:39:27.812Z</time></trkpt><trkpt lat="41.2468378" lon="-7.8664422"><ele>1103.4285714285716</ele><time>2026-04-26T09:39:28.807Z</time></trkpt><trkpt lat="41.2468555" lon="-7.8663456"><ele>1101.5714285714284</ele><time>2026-04-26T09:39:29.82Z</time></trkpt><trkpt lat="41.2468706" lon="-7.8662545"><ele>1099.7142857142858</ele><time>2026-04-26T09:39:30.814Z</time></trkpt><trkpt lat="41.2468891" lon="-7.8661693"><ele>1097.857142857143</ele><time>2026-04-26T09:39:31.814Z</time></trkpt><trkpt lat="41.2469127" lon="-7.8660811"><ele>1096.0</ele><time>2026-04-26T09:39:32.82Z</time></trkpt><trkpt lat="41.2469359" lon="-7.8659966"><ele>1094.0000000000002</ele><time>2026-04-26T09:39:33.81Z</time></trkpt><trkpt lat="41.2469575" lon="-7.8659131"><ele>1092.0</ele><time>2026-04-26T09:39:34.823Z</time></trkpt><trkpt lat="41.2469782" lon="-7.8658306"><ele>1090.0</ele><time>2026-04-26T09:39:35.813Z</time></trkpt><trkpt lat="41.2470014" lon="-7.8657389"><ele>1088.0</ele><time>2026-04-26T09:39:36.817Z</time></trkpt><trkpt lat="41.2470278" lon="-7.8656529"><ele>1086.0</ele><time>2026-04-26T09:39:37.81Z</time></trkpt><trkpt lat="41.2470589" lon="-7.8655621"><ele>1084.0000000000002</ele><time>2026-04-26T09:39:38.811Z</time></trkpt><trkpt lat="41.2470888" lon="-7.8654766"><ele>1082.0</ele><time>2026-04-26T09:39:39.819Z</time></trkpt><trkpt lat="41.2471153" lon="-7.8653897"><ele>1082.0</ele><time>2026-04-26T09:39:40.822Z</time></trkpt><trkpt lat="41.2471403" lon="-7.8653119"><ele>1082.0</ele><time>2026-04-26T09:39:41.811Z</time></trkpt><trkpt lat="41.2472153" lon="-7.8651864"><ele>1082.0</ele><time>2026-04-26T09:39:43.809Z</time></trkpt><trkpt lat="41.2473255" lon="-7.86512"><ele>1082.0</ele><time>2026-04-26T09:39:45.81Z</time></trkpt><trkpt lat="41.2473926" lon="-7.8651103"><ele>1082.0</ele><time>2026-04-26T09:39:46.813Z</time></trkpt><trkpt lat="41.2474575" lon="-7.8651162"><ele>1082.0</ele><time>2026-04-26T09:39:47.814Z</time></trkpt><trkpt lat="41.2475262" lon="-7.8651368"><ele>1083.3333333333335</ele><time>2026-04-26T09:39:48.812Z</time></trkpt><trkpt lat="41.2475962" lon="-7.8651663"><ele>1084.6666666666667</ele><time>2026-04-26T09:39:49.812Z</time></trkpt><trkpt lat="41.2476721" lon="-7.8652022"><ele>1086.0</ele><time>2026-04-26T09:39:50.816Z</time></trkpt><trkpt lat="41.2477578" lon="-7.8652324"><ele>1087.3333333333333</ele><time>2026-04-26T09:39:51.814Z</time></trkpt><trkpt lat="41.2478533" lon="-7.8652713"><ele>1088.6666666666665</ele><time>2026-04-26T09:39:52.81Z</time></trkpt><trkpt lat="41.2479505" lon="-7.8653162"><ele>1090.0</ele><time>2026-04-26T09:39:53.809Z</time></trkpt><trkpt lat="41.2480415" lon="-7.8653673"><ele>1090.0</ele><time>2026-04-26T09:39:54.813Z</time></trkpt><trkpt lat="41.2481265" lon="-7.8654243"><ele>1090.0</ele><time>2026-04-26T09:39:55.811Z</time></trkpt><trkpt lat="41.2482037" lon="-7.8654776"><ele>1090.0</ele><time>2026-04-26T09:39:56.815Z</time></trkpt><trkpt lat="41.2482702" lon="-7.8655356"><ele>1090.0</ele><time>2026-04-26T09:39:57.812Z</time></trkpt><trkpt lat="41.2483355" lon="-7.8655942"><ele>1090.0</ele><time>2026-04-26T09:39:58.813Z</time></trkpt><trkpt lat="41.2483912" lon="-7.8656528"><ele>1090.0</ele><time>2026-04-26T09:39:59.824Z</time></trkpt><trkpt lat="41.248443" lon="-7.8657044"><ele>1087.1666666666665</ele><time>2026-04-26T09:40:00.811Z</time></trkpt><trkpt lat="41.2485098" lon="-7.8658084"><ele>1084.3333333333333</ele><time>2026-04-26T09:40:02.821Z</time></trkpt><trkpt lat="41.2485626" lon="-7.8659205"><ele>1081.5</ele><time>2026-04-26T09:40:04.81Z</time></trkpt><trkpt lat="41.2486187" lon="-7.8660097"><ele>1078.6666666666667</ele><time>2026-04-26T09:40:06.814Z</time></trkpt><trkpt lat="41.2486809" lon="-7.8660443"><ele>1075.8333333333335</ele><time>2026-04-26T09:40:08.817Z</time></trkpt><trkpt lat="41.2487298" lon="-7.8659915"><ele>1073.0</ele><time>2026-04-26T09:40:10.811Z</time></trkpt><trkpt lat="41.2487505" lon="-7.8658594"><ele>1072.4285714285713</ele><time>2026-04-26T09:40:12.821Z</time></trkpt><trkpt lat="41.2487501" lon="-7.8657685"><ele>1071.8571428571427</ele><time>2026-04-26T09:40:13.83Z</time></trkpt><trkpt lat="41.2487431" lon="-7.8656725"><ele>1071.2857142857142</ele><time>2026-04-26T09:40:14.814Z</time></trkpt><trkpt lat="41.2487357" lon="-7.8655779"><ele>1070.7142857142858</ele><time>2026-04-26T09:40:15.814Z</time></trkpt><trkpt lat="41.2487206" lon="-7.8654836"><ele>1070.1428571428573</ele><time>2026-04-26T09:40:16.819Z</time></trkpt><trkpt lat="41.2486966" lon="-7.8653859"><ele>1069.5714285714287</ele><time>2026-04-26T09:40:17.806Z</time></trkpt><trkpt lat="41.2486682" lon="-7.8652866"><ele>1069.0</ele><time>2026-04-26T09:40:18.81Z</time></trkpt><trkpt lat="41.2486353" lon="-7.8651933"><ele>1066.5</ele><time>2026-04-26T09:40:19.816Z</time></trkpt><trkpt lat="41.2485965" lon="-7.8651033"><ele>1064.0</ele><time>2026-04-26T09:40:20.812Z</time></trkpt><trkpt lat="41.2485533" lon="-7.8650075"><ele>1061.5</ele><time>2026-04-26T09:40:21.818Z</time></trkpt><trkpt lat="41.2485143" lon="-7.8649109"><ele>1059.0</ele><time>2026-04-26T09:40:22.815Z</time></trkpt><trkpt lat="41.2484757" lon="-7.8648122"><ele>1056.5</ele><time>2026-04-26T09:40:23.814Z</time></trkpt><trkpt lat="41.2484331" lon="-7.8647293"><ele>1054.0</ele><time>2026-04-26T09:40:24.812Z</time></trkpt><trkpt lat="41.2483875" lon="-7.8646655"><ele>1054.0000000000002</ele><time>2026-04-26T09:40:25.816Z</time></trkpt><trkpt lat="41.2483486" lon="-7.8645908"><ele>1054.0</ele><time>2026-04-26T09:40:26.813Z</time></trkpt><trkpt lat="41.248301" lon="-7.8645212"><ele>1054.0</ele><time>2026-04-26T09:40:27.814Z</time></trkpt><trkpt lat="41.2482466" lon="-7.8644504"><ele>1054.0</ele><time>2026-04-26T09:40:28.806Z</time></trkpt><trkpt lat="41.2482" lon="-7.8643752"><ele>1054.0</ele><time>2026-04-26T09:40:29.817Z</time></trkpt><trkpt lat="41.2481423" lon="-7.8642962"><ele>1054.0000000000002</ele><time>2026-04-26T09:40:30.813Z</time></trkpt><trkpt lat="41.2481022" lon="-7.8642185"><ele>1054.0</ele><time>2026-04-26T09:40:31.809Z</time></trkpt><trkpt lat="41.2480669" lon="-7.8641381"><ele>1054.0</ele><time>2026-04-26T09:40:32.812Z</time></trkpt><trkpt lat="41.2480386" lon="-7.864044"><ele>1054.0</ele><time>2026-04-26T09:40:33.808Z</time></trkpt><trkpt lat="41.2480025" lon="-7.8639443"><ele>1054.0</ele><time>2026-04-26T09:40:34.813Z</time></trkpt><trkpt lat="41.247961" lon="-7.8638417"><ele>1054.0</ele><time>2026-04-26T09:40:35.806Z</time></trkpt><trkpt lat="41.2479191" lon="-7.8637342"><ele>1054.0</ele><time>2026-04-26T09:40:36.81Z</time></trkpt><trkpt lat="41.2478711" lon="-7.8636306"><ele>1054.0</ele><time>2026-04-26T09:40:37.812Z</time></trkpt><trkpt lat="41.247816" lon="-7.8635404"><ele>1054.0</ele><time>2026-04-26T09:40:38.813Z</time></trkpt><trkpt lat="41.2477623" lon="-7.8634493"><ele>1054.0</ele><time>2026-04-26T09:40:39.812Z</time></trkpt><trkpt lat="41.2477185" lon="-7.8633697"><ele>1054.0</ele><time>2026-04-26T09:40:40.811Z</time></trkpt><trkpt lat="41.247661" lon="-7.8632902"><ele>1054.0</ele><time>2026-04-26T09:40:42.817Z</time></trkpt><trkpt lat="41.2476563" lon="-7.8632025"><ele>1054.0</ele><time>2026-04-26T09:40:56.808Z</time></trkpt><trkpt lat="41.2476633" lon="-7.863105"><ele>1054.0</ele><time>2026-04-26T09:41:01.808Z</time></trkpt><trkpt lat="41.2476315" lon="-7.8630061"><ele>1050.0000000000002</ele><time>2026-04-26T09:41:05.81Z</time></trkpt><trkpt lat="41.24763" lon="-7.8628955"><ele>1046.0</ele><time>2026-04-26T09:41:10.808Z</time></trkpt><trkpt lat="41.2476296" lon="-7.862805"><ele>1042.0</ele><time>2026-04-26T09:41:17.813Z</time></trkpt><trkpt lat="41.2476583" lon="-7.8627148"><ele>1038.0</ele><time>2026-04-26T09:41:21.813Z</time></trkpt><trkpt lat="41.2476674" lon="-7.8626255"><ele>1034.0</ele><time>2026-04-26T09:41:24.808Z</time></trkpt><trkpt lat="41.2477059" lon="-7.862536"><ele>1030.0000000000002</ele><time>2026-04-26T09:41:27.809Z</time></trkpt><trkpt lat="41.2477342" lon="-7.862451"><ele>1026.0</ele><time>2026-04-26T09:41:30.81Z</time></trkpt><trkpt lat="41.2477493" lon="-7.8623514"><ele>1022.1666666666666</ele><time>2026-04-26T09:41:34.808Z</time></trkpt><trkpt lat="41.247738" lon="-7.8622434"><ele>1018.3333333333333</ele><time>2026-04-26T09:41:39.812Z</time></trkpt><trkpt lat="41.2477741" lon="-7.8621507"><ele>1014.5</ele><time>2026-04-26T09:41:42.815Z</time></trkpt><trkpt lat="41.247807" lon="-7.8620362"><ele>1010.6666666666666</ele><time>2026-04-26T09:41:45.813Z</time></trkpt><trkpt lat="41.2478176" lon="-7.8619493"><ele>1006.8333333333333</ele><time>2026-04-26T09:41:47.81Z</time></trkpt><trkpt lat="41.2478148" lon="-7.8618576"><ele>1003.0</ele><time>2026-04-26T09:41:50.812Z</time></trkpt><trkpt lat="41.2478418" lon="-7.8617574"><ele>997.9999999999999</ele><time>2026-04-26T09:41:55.807Z</time></trkpt><trkpt lat="41.2478333" lon="-7.8616504"><ele>993.0</ele><time>2026-04-26T09:41:59.807Z</time></trkpt><trkpt lat="41.2478377" lon="-7.861534"><ele>988.0</ele><time>2026-04-26T09:42:02.812Z</time></trkpt><trkpt lat="41.247868" lon="-7.861426"><ele>983.0</ele><time>2026-04-26T09:42:05.815Z</time></trkpt><trkpt lat="41.2479105" lon="-7.8613162"><ele>977.9999999999999</ele><time>2026-04-26T09:42:08.818Z</time></trkpt><trkpt lat="41.2479453" lon="-7.8612093"><ele>973.0</ele><time>2026-04-26T09:42:11.81Z</time></trkpt><trkpt lat="41.2479725" lon="-7.8611236"><ele>973.0</ele><time>2026-04-26T09:42:14.814Z</time></trkpt><trkpt lat="41.2479883" lon="-7.8610374"><ele>973.0</ele><time>2026-04-26T09:42:18.806Z</time></trkpt><trkpt lat="41.2479614" lon="-7.86095"><ele>973.0</ele><time>2026-04-26T09:42:22.806Z</time></trkpt><trkpt lat="41.2479779" lon="-7.861031"><ele>973.0</ele><time>2026-04-26T09:42:39.807Z</time></trkpt><trkpt lat="41.2479547" lon="-7.8609437"><ele>973.0</ele><time>2026-04-26T09:43:19.815Z</time></trkpt><trkpt lat="41.2479645" lon="-7.8608298"><ele>973.0</ele><time>2026-04-26T09:43:22.814Z</time></trkpt><trkpt lat="41.2479811" lon="-7.8607158"><ele>973.0</ele><time>2026-04-26T09:43:24.813Z</time></trkpt><trkpt lat="41.2479528" lon="-7.860626"><ele>968.5</ele><time>2026-04-26T09:43:25.808Z</time></trkpt><trkpt lat="41.2479103" lon="-7.8605082"><ele>964.0</ele><time>2026-04-26T09:43:26.807Z</time></trkpt><trkpt lat="41.2478774" lon="-7.8603528"><ele>959.5</ele><time>2026-04-26T09:43:27.805Z</time></trkpt><trkpt lat="41.2478269" lon="-7.8601887"><ele>955.0</ele><time>2026-04-26T09:43:28.818Z</time></trkpt><trkpt lat="41.247777" lon="-7.8600375"><ele>950.5</ele><time>2026-04-26T09:43:29.806Z</time></trkpt><trkpt lat="41.2477207" lon="-7.8598792"><ele>946.0</ele><time>2026-04-26T09:43:30.814Z</time></trkpt><trkpt lat="41.2476878" lon="-7.8597325"><ele>941.5</ele><time>2026-04-26T09:43:31.82Z</time></trkpt><trkpt lat="41.2476663" lon="-7.8595919"><ele>937.0</ele><time>2026-04-26T09:43:32.806Z</time></trkpt><trkpt lat="41.2476259" lon="-7.8594627"><ele>937.0</ele><time>2026-04-26T09:43:33.816Z</time></trkpt><trkpt lat="41.2475794" lon="-7.8593363"><ele>937.0</ele><time>2026-04-26T09:43:34.813Z</time></trkpt><trkpt lat="41.2475423" lon="-7.8592057"><ele>937.0</ele><time>2026-04-26T09:43:35.812Z</time></trkpt><trkpt lat="41.2475046" lon="-7.8590782"><ele>937.0</ele><time>2026-04-26T09:43:36.814Z</time></trkpt><trkpt lat="41.2474658" lon="-7.8589407"><ele>937.0</ele><time>2026-04-26T09:43:37.814Z</time></trkpt><trkpt lat="41.2474252" lon="-7.8587989"><ele>935.0</ele><time>2026-04-26T09:43:38.807Z</time></trkpt><trkpt lat="41.247384" lon="-7.8586561"><ele>933.0</ele><time>2026-04-26T09:43:39.806Z</time></trkpt><trkpt lat="41.2473446" lon="-7.8585161"><ele>931.0</ele><time>2026-04-26T09:43:40.816Z</time></trkpt><trkpt lat="41.2473039" lon="-7.8583814"><ele>929.0</ele><time>2026-04-26T09:43:41.81Z</time></trkpt><trkpt lat="41.2472605" lon="-7.8582486"><ele>927.0</ele><time>2026-04-26T09:43:42.807Z</time></trkpt><trkpt lat="41.2472248" lon="-7.8581285"><ele>921.1666666666666</ele><time>2026-04-26T09:43:43.813Z</time></trkpt><trkpt lat="41.2472023" lon="-7.8580334"><ele>915.3333333333333</ele><time>2026-04-26T09:43:44.806Z</time></trkpt><trkpt lat="41.2471869" lon="-7.857926"><ele>909.5</ele><time>2026-04-26T09:43:46.816Z</time></trkpt><trkpt lat="41.2472146" lon="-7.8580069"><ele>903.6666666666666</ele><time>2026-04-26T09:44:14.824Z</time></trkpt><trkpt lat="41.2471782" lon="-7.858088"><ele>897.8333333333333</ele><time>2026-04-26T09:45:30.812Z</time></trkpt><trkpt lat="41.2472339" lon="-7.8580422"><ele>892.0</ele><time>2026-04-26T09:45:39.818Z</time></trkpt><trkpt lat="41.2471962" lon="-7.8579258"><ele>891.9999999999999</ele><time>2026-04-26T09:45:48.805Z</time></trkpt><trkpt lat="41.2471855" lon="-7.8578022"><ele>892.0</ele><time>2026-04-26T09:45:50.816Z</time></trkpt><trkpt lat="41.2471938" lon="-7.8577128"><ele>892.0</ele><time>2026-04-26T09:45:51.808Z</time></trkpt><trkpt lat="41.2471979" lon="-7.8576127"><ele>892.0</ele><time>2026-04-26T09:45:52.809Z</time></trkpt><trkpt lat="41.2472093" lon="-7.8574951"><ele>891.9999999999999</ele><time>2026-04-26T09:45:53.808Z</time></trkpt><trkpt lat="41.247238" lon="-7.8573616"><ele>892.0</ele><time>2026-04-26T09:45:55.809Z</time></trkpt><trkpt lat="41.2472713" lon="-7.8572123"><ele>891.8333333333333</ele><time>2026-04-26T09:45:57.816Z</time></trkpt><trkpt lat="41.2473346" lon="-7.8570755"><ele>891.6666666666666</ele><time>2026-04-26T09:45:59.808Z</time></trkpt><trkpt lat="41.2473782" lon="-7.8570116"><ele>891.5</ele><time>2026-04-26T09:46:00.811Z</time></trkpt><trkpt lat="41.2474287" lon="-7.8569519"><ele>891.3333333333333</ele><time>2026-04-26T09:46:01.805Z</time></trkpt><trkpt lat="41.2474836" lon="-7.856881"><ele>891.1666666666666</ele><time>2026-04-26T09:46:02.805Z</time></trkpt><trkpt lat="41.2475312" lon="-7.8567977"><ele>891.0</ele><time>2026-04-26T09:46:03.815Z</time></trkpt><trkpt lat="41.2475841" lon="-7.8567149"><ele>891.0</ele><time>2026-04-26T09:46:04.805Z</time></trkpt><trkpt lat="41.2476342" lon="-7.8566313"><ele>891.0</ele><time>2026-04-26T09:46:05.808Z</time></trkpt><trkpt lat="41.2476879" lon="-7.8565464"><ele>891.0</ele><time>2026-04-26T09:46:06.816Z</time></trkpt><trkpt lat="41.2477468" lon="-7.8564629"><ele>891.0</ele><time>2026-04-26T09:46:07.807Z</time></trkpt><trkpt lat="41.2478091" lon="-7.8563744"><ele>891.0</ele><time>2026-04-26T09:46:08.808Z</time></trkpt><trkpt lat="41.2478679" lon="-7.8562817"><ele>891.0</ele><time>2026-04-26T09:46:09.816Z</time></trkpt><trkpt lat="41.2479245" lon="-7.8561934"><ele>891.0</ele><time>2026-04-26T09:46:10.808Z</time></trkpt><trkpt lat="41.2479825" lon="-7.8561019"><ele>891.0</ele><time>2026-04-26T09:46:11.808Z</time></trkpt><trkpt lat="41.2480391" lon="-7.8560109"><ele>891.0</ele><time>2026-04-26T09:46:12.806Z</time></trkpt><trkpt lat="41.2480938" lon="-7.8559156"><ele>891.0</ele><time>2026-04-26T09:46:13.814Z</time></trkpt><trkpt lat="41.248142" lon="-7.8558186"><ele>891.0</ele><time>2026-04-26T09:46:14.815Z</time></trkpt><trkpt lat="41.2481882" lon="-7.8557116"><ele>891.0</ele><time>2026-04-26T09:46:15.811Z</time></trkpt><trkpt lat="41.2482311" lon="-7.8556031"><ele>888.1999999999999</ele><time>2026-04-26T09:46:16.807Z</time></trkpt><trkpt lat="41.2482782" lon="-7.8554963"><ele>885.3999999999999</ele><time>2026-04-26T09:46:17.809Z</time></trkpt><trkpt lat="41.248315" lon="-7.8553811"><ele>882.6</ele><time>2026-04-26T09:46:18.81Z</time></trkpt><trkpt lat="41.2483435" lon="-7.8552633"><ele>879.8</ele><time>2026-04-26T09:46:19.807Z</time></trkpt><trkpt lat="41.2483783" lon="-7.8551362"><ele>877.0</ele><time>2026-04-26T09:46:20.806Z</time></trkpt><trkpt lat="41.2484095" lon="-7.855012"><ele>874.8333333333333</ele><time>2026-04-26T09:46:21.809Z</time></trkpt><trkpt lat="41.248424" lon="-7.8548866"><ele>872.6666666666666</ele><time>2026-04-26T09:46:22.808Z</time></trkpt><trkpt lat="41.2484452" lon="-7.854758"><ele>870.5</ele><time>2026-04-26T09:46:23.811Z</time></trkpt><trkpt lat="41.2484638" lon="-7.8546312"><ele>868.3333333333333</ele><time>2026-04-26T09:46:24.807Z</time></trkpt><trkpt lat="41.2484798" lon="-7.8545248"><ele>866.1666666666666</ele><time>2026-04-26T09:46:25.811Z</time></trkpt><trkpt lat="41.2485002" lon="-7.8544295"><ele>864.0</ele><time>2026-04-26T09:46:26.818Z</time></trkpt><trkpt lat="41.2485029" lon="-7.8543314"><ele>862.3333333333334</ele><time>2026-04-26T09:46:27.812Z</time></trkpt><trkpt lat="41.2485175" lon="-7.8542477"><ele>860.6666666666667</ele><time>2026-04-26T09:46:28.809Z</time></trkpt><trkpt lat="41.2485169" lon="-7.8541147"><ele>859.0</ele><time>2026-04-26T09:46:30.813Z</time></trkpt><trkpt lat="41.2485031" lon="-7.854033"><ele>857.3333333333334</ele><time>2026-04-26T09:46:32.806Z</time></trkpt><trkpt lat="41.2484248" lon="-7.8540758"><ele>855.6666666666667</ele><time>2026-04-26T09:46:47.812Z</time></trkpt><trkpt lat="41.2483502" lon="-7.8541068"><ele>854.0</ele><time>2026-04-26T09:46:49.802Z</time></trkpt><trkpt lat="41.24828" lon="-7.854151"><ele>854.0</ele><time>2026-04-26T09:46:51.821Z</time></trkpt><trkpt lat="41.2482041" lon="-7.8542478"><ele>854.0</ele><time>2026-04-26T09:46:56.815Z</time></trkpt><trkpt lat="41.2481148" lon="-7.8543553"><ele>854.0</ele><time>2026-04-26T09:46:58.808Z</time></trkpt><trkpt lat="41.2480352" lon="-7.8544551"><ele>854.0</ele><time>2026-04-26T09:47:00.809Z</time></trkpt><trkpt lat="41.2479596" lon="-7.8545802"><ele>853.75</ele><time>2026-04-26T09:47:02.807Z</time></trkpt><trkpt lat="41.2478872" lon="-7.8547064"><ele>853.5</ele><time>2026-04-26T09:47:04.816Z</time></trkpt><trkpt lat="41.2478176" lon="-7.8548197"><ele>853.25</ele><time>2026-04-26T09:47:06.811Z</time></trkpt><trkpt lat="41.2477578" lon="-7.854938"><ele>853.0</ele><time>2026-04-26T09:47:08.813Z</time></trkpt><trkpt lat="41.2476697" lon="-7.8550631"><ele>853.8333333333333</ele><time>2026-04-26T09:47:10.817Z</time></trkpt><trkpt lat="41.2476223" lon="-7.8551339"><ele>854.6666666666666</ele><time>2026-04-26T09:47:11.808Z</time></trkpt><trkpt lat="41.2475706" lon="-7.8552056"><ele>855.5</ele><time>2026-04-26T09:47:12.805Z</time></trkpt><trkpt lat="41.2475093" lon="-7.8552852"><ele>856.3333333333333</ele><time>2026-04-26T09:47:13.815Z</time></trkpt><trkpt lat="41.2474373" lon="-7.8553686"><ele>857.1666666666666</ele><time>2026-04-26T09:47:14.804Z</time></trkpt><trkpt lat="41.2473573" lon="-7.8554414"><ele>858.0</ele><time>2026-04-26T09:47:15.81Z</time></trkpt><trkpt lat="41.2472712" lon="-7.8555131"><ele>858.0</ele><time>2026-04-26T09:47:16.804Z</time></trkpt><trkpt lat="41.2471848" lon="-7.855576"><ele>858.0</ele><time>2026-04-26T09:47:17.812Z</time></trkpt><trkpt lat="41.247109" lon="-7.8556254"><ele>858.0</ele><time>2026-04-26T09:47:18.822Z</time></trkpt><trkpt lat="41.2470277" lon="-7.855655"><ele>858.0</ele><time>2026-04-26T09:47:19.805Z</time></trkpt><trkpt lat="41.246944" lon="-7.8556593"><ele>858.0</ele><time>2026-04-26T09:47:20.809Z</time></trkpt><trkpt lat="41.2468693" lon="-7.8556618"><ele>858.0</ele><time>2026-04-26T09:47:21.806Z</time></trkpt><trkpt lat="41.2467914" lon="-7.8556529"><ele>858.0</ele><time>2026-04-26T09:47:22.808Z</time></trkpt><trkpt lat="41.2467255" lon="-7.8556484"><ele>858.0</ele><time>2026-04-26T09:47:23.812Z</time></trkpt><trkpt lat="41.2466226" lon="-7.8556889"><ele>858.0</ele><time>2026-04-26T09:47:25.805Z</time></trkpt><trkpt lat="41.2465613" lon="-7.8557729"><ele>858.0</ele><time>2026-04-26T09:47:27.81Z</time></trkpt><trkpt lat="41.2465106" lon="-7.8558818"><ele>858.0</ele><time>2026-04-26T09:47:29.804Z</time></trkpt><trkpt lat="41.2465021" lon="-7.8560504"><ele>860.1666666666666</ele><time>2026-04-26T09:47:31.806Z</time></trkpt><trkpt lat="41.2464916" lon="-7.8561491"><ele>862.3333333333333</ele><time>2026-04-26T09:47:32.806Z</time></trkpt><trkpt lat="41.2464825" lon="-7.8562437"><ele>864.5</ele><time>2026-04-26T09:47:33.808Z</time></trkpt><trkpt lat="41.2464657" lon="-7.8563346"><ele>866.6666666666666</ele><time>2026-04-26T09:47:34.806Z</time></trkpt><trkpt lat="41.2464403" lon="-7.8565042"><ele>868.8333333333333</ele><time>2026-04-26T09:47:36.81Z</time></trkpt><trkpt lat="41.2464242" lon="-7.8565917"><ele>871.0</ele><time>2026-04-26T09:47:37.813Z</time></trkpt><trkpt lat="41.24641" lon="-7.8566755"><ele>865.1666666666666</ele><time>2026-04-26T09:47:38.808Z</time></trkpt><trkpt lat="41.2463776" lon="-7.856833"><ele>859.3333333333333</ele><time>2026-04-26T09:47:40.818Z</time></trkpt><trkpt lat="41.2463553" lon="-7.8569168"><ele>853.5</ele><time>2026-04-26T09:47:41.802Z</time></trkpt><trkpt lat="41.2463357" lon="-7.8570009"><ele>847.6666666666667</ele><time>2026-04-26T09:47:42.805Z</time></trkpt><trkpt lat="41.2463205" lon="-7.8570883"><ele>841.8333333333334</ele><time>2026-04-26T09:47:43.809Z</time></trkpt><trkpt lat="41.2463003" lon="-7.8571799"><ele>836.0</ele><time>2026-04-26T09:47:44.813Z</time></trkpt><trkpt lat="41.2462732" lon="-7.8572581"><ele>836.0000000000001</ele><time>2026-04-26T09:47:45.804Z</time></trkpt><trkpt lat="41.2462402" lon="-7.8573386"><ele>836.0</ele><time>2026-04-26T09:47:46.806Z</time></trkpt><trkpt lat="41.2461696" lon="-7.8574855"><ele>836.0</ele><time>2026-04-26T09:47:48.81Z</time></trkpt><trkpt lat="41.246136" lon="-7.8575641"><ele>836.0</ele><time>2026-04-26T09:47:49.812Z</time></trkpt><trkpt lat="41.2461086" lon="-7.8576425"><ele>836.0000000000001</ele><time>2026-04-26T09:47:50.809Z</time></trkpt><trkpt lat="41.2460801" lon="-7.8577274"><ele>836.0</ele><time>2026-04-26T09:47:51.808Z</time></trkpt><trkpt lat="41.2460557" lon="-7.8578101"><ele>838.3333333333334</ele><time>2026-04-26T09:47:52.818Z</time></trkpt><trkpt lat="41.2460203" lon="-7.8579793"><ele>840.6666666666667</ele><time>2026-04-26T09:47:54.812Z</time></trkpt><trkpt lat="41.2459989" lon="-7.858075"><ele>843.0</ele><time>2026-04-26T09:47:55.807Z</time></trkpt><trkpt lat="41.2459747" lon="-7.8581643"><ele>845.3333333333333</ele><time>2026-04-26T09:47:56.816Z</time></trkpt><trkpt lat="41.2459514" lon="-7.8582521"><ele>847.6666666666666</ele><time>2026-04-26T09:47:57.805Z</time></trkpt><trkpt lat="41.2459301" lon="-7.8583374"><ele>850.0</ele><time>2026-04-26T09:47:58.81Z</time></trkpt><trkpt lat="41.2458909" lon="-7.8584658"><ele>853.3333333333333</ele><time>2026-04-26T09:48:00.814Z</time></trkpt><trkpt lat="41.2458754" lon="-7.8585658"><ele>856.6666666666666</ele><time>2026-04-26T09:48:02.812Z</time></trkpt><trkpt lat="41.2458648" lon="-7.8586605"><ele>860.0</ele><time>2026-04-26T09:48:04.807Z</time></trkpt><trkpt lat="41.2458615" lon="-7.8587827"><ele>863.3333333333333</ele><time>2026-04-26T09:48:09.804Z</time></trkpt><trkpt lat="41.2458233" lon="-7.8588649"><ele>866.6666666666666</ele><time>2026-04-26T09:48:12.814Z</time></trkpt><trkpt lat="41.2457865" lon="-7.858948"><ele>870.0</ele><time>2026-04-26T09:48:15.809Z</time></trkpt><trkpt lat="41.2457119" lon="-7.8589539"><ele>870.0</ele><time>2026-04-26T09:48:18.814Z</time></trkpt><trkpt lat="41.2456508" lon="-7.8589316"><ele>870.0</ele><time>2026-04-26T09:48:20.813Z</time></trkpt><trkpt lat="41.2455512" lon="-7.8589298"><ele>870.0</ele><time>2026-04-26T09:48:23.811Z</time></trkpt><trkpt lat="41.24547" lon="-7.8589383"><ele>870.0</ele><time>2026-04-26T09:48:25.811Z</time></trkpt><trkpt lat="41.2453922" lon="-7.858966"><ele>870.0</ele><time>2026-04-26T09:48:27.813Z</time></trkpt><trkpt lat="41.2453154" lon="-7.85902"><ele>870.0</ele><time>2026-04-26T09:48:29.816Z</time></trkpt><trkpt lat="41.2452296" lon="-7.85912"><ele>870.5</ele><time>2026-04-26T09:48:31.809Z</time></trkpt><trkpt lat="41.2451814" lon="-7.8591849"><ele>871.0</ele><time>2026-04-26T09:48:32.811Z</time></trkpt><trkpt lat="41.2451315" lon="-7.8592557"><ele>871.5</ele><time>2026-04-26T09:48:33.807Z</time></trkpt><trkpt lat="41.2450466" lon="-7.8593567"><ele>872.0</ele><time>2026-04-26T09:48:35.817Z</time></trkpt><trkpt lat="41.2449876" lon="-7.8593914"><ele>872.5</ele><time>2026-04-26T09:49:40.805Z</time></trkpt><trkpt lat="41.2450826" lon="-7.8594237"><ele>873.0</ele><time>2026-04-26T09:50:15.808Z</time></trkpt><trkpt lat="41.2451522" lon="-7.8594938"><ele>872.9999999999999</ele><time>2026-04-26T09:50:18.805Z</time></trkpt><trkpt lat="41.2451971" lon="-7.8595789"><ele>873.0</ele><time>2026-04-26T09:50:23.807Z</time></trkpt><trkpt lat="41.2452479" lon="-7.8596305"><ele>873.0</ele><time>2026-04-26T09:50:28.804Z</time></trkpt><trkpt lat="41.2452903" lon="-7.8597087"><ele>873.0</ele><time>2026-04-26T09:50:31.813Z</time></trkpt><trkpt lat="41.2453495" lon="-7.8597749"><ele>873.0</ele><time>2026-04-26T09:50:54.814Z</time></trkpt><trkpt lat="41.2454239" lon="-7.8598003"><ele>872.9999999999999</ele><time>2026-04-26T09:51:01.804Z</time></trkpt><trkpt lat="41.2454707" lon="-7.8598723"><ele>873.0</ele><time>2026-04-26T09:51:06.816Z</time></trkpt><trkpt lat="41.2454359" lon="-7.859944"><ele>873.0</ele><time>2026-04-26T09:51:34.806Z</time></trkpt><trkpt lat="41.2453865" lon="-7.8600207"><ele>873.0</ele><time>2026-04-26T10:03:54.802Z</time></trkpt><trkpt lat="41.2453617" lon="-7.8601237"><ele>873.0</ele><time>2026-04-26T10:03:56.802Z</time></trkpt><trkpt lat="41.245325" lon="-7.8602726"><ele>873.0</ele><time>2026-04-26T10:03:58.806Z</time></trkpt><trkpt lat="41.2453003" lon="-7.8603573"><ele>873.0</ele><time>2026-04-26T10:03:59.796Z</time></trkpt><trkpt lat="41.2452476" lon="-7.8604939"><ele>876.2</ele><time>2026-04-26T10:04:01.806Z</time></trkpt><trkpt lat="41.2452199" lon="-7.8605752"><ele>879.4</ele><time>2026-04-26T10:04:02.802Z</time></trkpt><trkpt lat="41.2451643" lon="-7.8607174"><ele>882.6000000000001</ele><time>2026-04-26T10:04:04.799Z</time></trkpt><trkpt lat="41.2451017" lon="-7.8608614"><ele>885.8000000000001</ele><time>2026-04-26T10:04:06.814Z</time></trkpt><trkpt lat="41.2450339" lon="-7.8610035"><ele>889.0</ele><time>2026-04-26T10:04:08.797Z</time></trkpt><trkpt lat="41.2449506" lon="-7.8611245"><ele>887.1666666666666</ele><time>2026-04-26T10:04:10.805Z</time></trkpt><trkpt lat="41.2449059" lon="-7.8612065"><ele>885.3333333333333</ele><time>2026-04-26T10:04:11.799Z</time></trkpt><trkpt lat="41.2448598" lon="-7.8612979"><ele>883.5</ele><time>2026-04-26T10:04:12.8Z</time></trkpt><trkpt lat="41.2448158" lon="-7.8614012"><ele>881.6666666666667</ele><time>2026-04-26T10:04:13.803Z</time></trkpt><trkpt lat="41.2447837" lon="-7.8615136"><ele>879.8333333333334</ele><time>2026-04-26T10:04:14.807Z</time></trkpt><trkpt lat="41.2447434" lon="-7.8616203"><ele>878.0</ele><time>2026-04-26T10:04:15.8Z</time></trkpt><trkpt lat="41.2446988" lon="-7.8617253"><ele>882.1666666666667</ele><time>2026-04-26T10:04:16.8Z</time></trkpt><trkpt lat="41.2446563" lon="-7.8618326"><ele>886.3333333333334</ele><time>2026-04-26T10:04:17.796Z</time></trkpt><trkpt lat="41.2446138" lon="-7.8619449"><ele>890.5</ele><time>2026-04-26T10:04:18.803Z</time></trkpt><trkpt lat="41.2445739" lon="-7.8620473"><ele>894.6666666666667</ele><time>2026-04-26T10:04:19.8Z</time></trkpt><trkpt lat="41.2445243" lon="-7.8621355"><ele>898.8333333333334</ele><time>2026-04-26T10:04:20.795Z</time></trkpt><trkpt lat="41.2444692" lon="-7.8622049"><ele>903.0</ele><time>2026-04-26T10:04:21.798Z</time></trkpt><trkpt lat="41.2444174" lon="-7.8622541"><ele>903.0</ele><time>2026-04-26T10:04:22.798Z</time></trkpt><trkpt lat="41.2443559" lon="-7.8622801"><ele>903.0</ele><time>2026-04-26T10:04:23.8Z</time></trkpt><trkpt lat="41.2442905" lon="-7.8622808"><ele>903.0</ele><time>2026-04-26T10:04:24.8Z</time></trkpt><trkpt lat="41.2442263" lon="-7.8622534"><ele>903.0</ele><time>2026-04-26T10:04:25.801Z</time></trkpt><trkpt lat="41.244161" lon="-7.8622164"><ele>903.0</ele><time>2026-04-26T10:04:26.803Z</time></trkpt><trkpt lat="41.2440962" lon="-7.8621847"><ele>903.0</ele><time>2026-04-26T10:04:27.806Z</time></trkpt><trkpt lat="41.2440339" lon="-7.8621711"><ele>903.0</ele><time>2026-04-26T10:04:28.8Z</time></trkpt><trkpt lat="41.2439206" lon="-7.8622021"><ele>900.3333333333334</ele><time>2026-04-26T10:04:30.804Z</time></trkpt><trkpt lat="41.2438695" lon="-7.8622546"><ele>897.6666666666667</ele><time>2026-04-26T10:04:31.802Z</time></trkpt><trkpt lat="41.2438217" lon="-7.8623204"><ele>895.0</ele><time>2026-04-26T10:04:32.799Z</time></trkpt><trkpt lat="41.2437863" lon="-7.8624034"><ele>892.3333333333334</ele><time>2026-04-26T10:04:33.801Z</time></trkpt><trkpt lat="41.243751" lon="-7.8625086"><ele>889.6666666666667</ele><time>2026-04-26T10:04:34.803Z</time></trkpt><trkpt lat="41.2437202" lon="-7.8626244"><ele>887.0</ele><time>2026-04-26T10:04:35.802Z</time></trkpt><trkpt lat="41.2436868" lon="-7.8627462"><ele>887.0</ele><time>2026-04-26T10:04:36.796Z</time></trkpt><trkpt lat="41.243665" lon="-7.8628762"><ele>887.0</ele><time>2026-04-26T10:04:37.798Z</time></trkpt><trkpt lat="41.2436529" lon="-7.8630017"><ele>887.0</ele><time>2026-04-26T10:04:38.803Z</time></trkpt><trkpt lat="41.2436449" lon="-7.8631253"><ele>887.0</ele><time>2026-04-26T10:04:39.801Z</time></trkpt><trkpt lat="41.2436568" lon="-7.8632383"><ele>887.0</ele><time>2026-04-26T10:04:40.797Z</time></trkpt><trkpt lat="41.243678" lon="-7.8633456"><ele>892.2</ele><time>2026-04-26T10:04:41.799Z</time></trkpt><trkpt lat="41.2437016" lon="-7.8634517"><ele>897.4000000000001</ele><time>2026-04-26T10:04:42.81Z</time></trkpt><trkpt lat="41.2437134" lon="-7.8635538"><ele>902.5999999999999</ele><time>2026-04-26T10:04:43.804Z</time></trkpt><trkpt lat="41.2437005" lon="-7.8636388"><ele>907.8</ele><time>2026-04-26T10:04:44.801Z</time></trkpt><trkpt lat="41.2436363" lon="-7.8637545"><ele>913.0</ele><time>2026-04-26T10:04:46.799Z</time></trkpt><trkpt lat="41.2435231" lon="-7.8637918"><ele>912.9999999999999</ele><time>2026-04-26T10:04:48.807Z</time></trkpt><trkpt lat="41.2434515" lon="-7.8637963"><ele>913.0</ele><time>2026-04-26T10:04:49.8Z</time></trkpt><trkpt lat="41.2433831" lon="-7.8637952"><ele>912.9999999999999</ele><time>2026-04-26T10:04:50.804Z</time></trkpt><trkpt lat="41.2433107" lon="-7.8638013"><ele>912.9999999999999</ele><time>2026-04-26T10:04:51.809Z</time></trkpt><trkpt lat="41.2432446" lon="-7.8638051"><ele>913.0</ele><time>2026-04-26T10:04:52.797Z</time></trkpt><trkpt lat="41.2431818" lon="-7.8638284"><ele>912.9999999999999</ele><time>2026-04-26T10:04:53.798Z</time></trkpt><trkpt lat="41.2431228" lon="-7.8638797"><ele>912.9999999999999</ele><time>2026-04-26T10:04:54.803Z</time></trkpt><trkpt lat="41.2430645" lon="-7.8639494"><ele>912.8333333333333</ele><time>2026-04-26T10:04:55.798Z</time></trkpt><trkpt lat="41.2430085" lon="-7.8640181"><ele>912.6666666666666</ele><time>2026-04-26T10:04:56.803Z</time></trkpt><trkpt lat="41.2429482" lon="-7.8640986"><ele>912.5</ele><time>2026-04-26T10:04:57.802Z</time></trkpt><trkpt lat="41.2428812" lon="-7.8641839"><ele>912.3333333333333</ele><time>2026-04-26T10:04:58.795Z</time></trkpt><trkpt lat="41.24282" lon="-7.8642558"><ele>912.1666666666666</ele><time>2026-04-26T10:04:59.803Z</time></trkpt><trkpt lat="41.242765" lon="-7.8643263"><ele>912.0</ele><time>2026-04-26T10:05:00.803Z</time></trkpt><trkpt lat="41.2427163" lon="-7.8643862"><ele>912.0</ele><time>2026-04-26T10:05:01.8Z</time></trkpt><trkpt lat="41.2426668" lon="-7.8644414"><ele>911.9999999999999</ele><time>2026-04-26T10:05:02.803Z</time></trkpt><trkpt lat="41.2426236" lon="-7.8645041"><ele>912.0</ele><time>2026-04-26T10:05:03.801Z</time></trkpt><trkpt lat="41.2425825" lon="-7.8645759"><ele>912.0</ele><time>2026-04-26T10:05:04.801Z</time></trkpt><trkpt lat="41.2425391" lon="-7.8646546"><ele>911.9999999999999</ele><time>2026-04-26T10:05:05.801Z</time></trkpt><trkpt lat="41.2424963" lon="-7.8647321"><ele>912.0</ele><time>2026-04-26T10:05:06.807Z</time></trkpt><trkpt lat="41.2424479" lon="-7.8648171"><ele>912.0</ele><time>2026-04-26T10:05:07.807Z</time></trkpt><trkpt lat="41.2424191" lon="-7.8648934"><ele>912.0</ele><time>2026-04-26T10:05:08.796Z</time></trkpt><trkpt lat="41.2423601" lon="-7.8650118"><ele>912.0</ele><time>2026-04-26T10:05:10.798Z</time></trkpt><trkpt lat="41.2422648" lon="-7.8650624"><ele>912.0</ele><time>2026-04-26T10:05:12.796Z</time></trkpt><trkpt lat="41.242146" lon="-7.8650368"><ele>912.0</ele><time>2026-04-26T10:05:14.797Z</time></trkpt><trkpt lat="41.242033" lon="-7.8649782"><ele>913.0</ele><time>2026-04-26T10:05:16.812Z</time></trkpt><trkpt lat="41.2419729" lon="-7.8649339"><ele>913.9999999999999</ele><time>2026-04-26T10:05:17.797Z</time></trkpt><trkpt lat="41.2419163" lon="-7.8648807"><ele>915.0</ele><time>2026-04-26T10:05:18.799Z</time></trkpt><trkpt lat="41.2418654" lon="-7.8648169"><ele>916.0</ele><time>2026-04-26T10:05:19.807Z</time></trkpt><trkpt lat="41.2418329" lon="-7.8647367"><ele>916.9999999999999</ele><time>2026-04-26T10:05:20.8Z</time></trkpt><trkpt lat="41.2418042" lon="-7.864654"><ele>918.0</ele><time>2026-04-26T10:05:21.803Z</time></trkpt><trkpt lat="41.2417909" lon="-7.8645699"><ele>919.0</ele><time>2026-04-26T10:05:22.804Z</time></trkpt><trkpt lat="41.2417828" lon="-7.8644722"><ele>919.0</ele><time>2026-04-26T10:05:23.796Z</time></trkpt><trkpt lat="41.241793" lon="-7.8643062"><ele>919.0000000000001</ele><time>2026-04-26T10:05:25.797Z</time></trkpt><trkpt lat="41.2417933" lon="-7.8642049"><ele>919.0000000000001</ele><time>2026-04-26T10:05:26.798Z</time></trkpt><trkpt lat="41.2418068" lon="-7.864098"><ele>919.0</ele><time>2026-04-26T10:05:27.804Z</time></trkpt><trkpt lat="41.2418266" lon="-7.8639909"><ele>919.0</ele><time>2026-04-26T10:05:28.798Z</time></trkpt><trkpt lat="41.2418509" lon="-7.8638753"><ele>917.2</ele><time>2026-04-26T10:05:29.795Z</time></trkpt><trkpt lat="41.2418773" lon="-7.8637568"><ele>915.4000000000001</ele><time>2026-04-26T10:05:30.802Z</time></trkpt><trkpt lat="41.2419034" lon="-7.8636359"><ele>913.6</ele><time>2026-04-26T10:05:31.8Z</time></trkpt><trkpt lat="41.2419387" lon="-7.8635241"><ele>911.8</ele><time>2026-04-26T10:05:32.798Z</time></trkpt><trkpt lat="41.2419798" lon="-7.8634093"><ele>910.0</ele><time>2026-04-26T10:05:33.8Z</time></trkpt><trkpt lat="41.2420142" lon="-7.8633014"><ele>909.8333333333333</ele><time>2026-04-26T10:05:34.798Z</time></trkpt><trkpt lat="41.2420376" lon="-7.8631909"><ele>909.6666666666666</ele><time>2026-04-26T10:05:35.799Z</time></trkpt><trkpt lat="41.2420462" lon="-7.8630737"><ele>909.5</ele><time>2026-04-26T10:05:36.799Z</time></trkpt><trkpt lat="41.2420543" lon="-7.8629696"><ele>909.3333333333333</ele><time>2026-04-26T10:05:37.797Z</time></trkpt><trkpt lat="41.2420657" lon="-7.8628676"><ele>909.1666666666666</ele><time>2026-04-26T10:05:38.799Z</time></trkpt><trkpt lat="41.2420699" lon="-7.8627683"><ele>909.0</ele><time>2026-04-26T10:05:39.806Z</time></trkpt><trkpt lat="41.2420755" lon="-7.8626666"><ele>907.8333333333334</ele><time>2026-04-26T10:05:40.796Z</time></trkpt><trkpt lat="41.2420769" lon="-7.8625662"><ele>906.6666666666667</ele><time>2026-04-26T10:05:41.8Z</time></trkpt><trkpt lat="41.2420799" lon="-7.8624684"><ele>905.5</ele><time>2026-04-26T10:05:42.796Z</time></trkpt><trkpt lat="41.2420875" lon="-7.8623669"><ele>904.3333333333334</ele><time>2026-04-26T10:05:43.797Z</time></trkpt><trkpt lat="41.2420924" lon="-7.8622653"><ele>903.1666666666667</ele><time>2026-04-26T10:05:44.813Z</time></trkpt><trkpt lat="41.2420888" lon="-7.8621608"><ele>902.0</ele><time>2026-04-26T10:05:45.796Z</time></trkpt><trkpt lat="41.2420877" lon="-7.8620638"><ele>902.0</ele><time>2026-04-26T10:05:46.797Z</time></trkpt><trkpt lat="41.2420845" lon="-7.8619633"><ele>902.0</ele><time>2026-04-26T10:05:47.808Z</time></trkpt><trkpt lat="41.2420702" lon="-7.8618584"><ele>902.0</ele><time>2026-04-26T10:05:48.806Z</time></trkpt><trkpt lat="41.2420449" lon="-7.8617636"><ele>902.0</ele><time>2026-04-26T10:05:49.796Z</time></trkpt><trkpt lat="41.2420137" lon="-7.8616767"><ele>902.0</ele><time>2026-04-26T10:05:50.803Z</time></trkpt><trkpt lat="41.2419771" lon="-7.8615977"><ele>902.0</ele><time>2026-04-26T10:05:51.801Z</time></trkpt><trkpt lat="41.2419414" lon="-7.8615246"><ele>902.0</ele><time>2026-04-26T10:05:52.798Z</time></trkpt><trkpt lat="41.2419022" lon="-7.8614504"><ele>900.2</ele><time>2026-04-26T10:05:53.811Z</time></trkpt><trkpt lat="41.2418601" lon="-7.86138"><ele>898.4000000000001</ele><time>2026-04-26T10:05:54.798Z</time></trkpt><trkpt lat="41.241815" lon="-7.8613109"><ele>896.5999999999999</ele><time>2026-04-26T10:05:55.796Z</time></trkpt><trkpt lat="41.2417225" lon="-7.8611962"><ele>894.8</ele><time>2026-04-26T10:05:57.796Z</time></trkpt><trkpt lat="41.2416371" lon="-7.8611065"><ele>893.0</ele><time>2026-04-26T10:05:59.796Z</time></trkpt><trkpt lat="41.2415638" lon="-7.861031"><ele>893.0000000000001</ele><time>2026-04-26T10:06:01.8Z</time></trkpt><trkpt lat="41.2416003" lon="-7.8611101"><ele>893.0</ele><time>2026-04-26T10:07:43.796Z</time></trkpt><trkpt lat="41.2415238" lon="-7.8610719"><ele>893.0</ele><time>2026-04-26T10:07:57.795Z</time></trkpt><trkpt lat="41.2414789" lon="-7.860997"><ele>893.0</ele><time>2026-04-26T10:07:59.803Z</time></trkpt><trkpt lat="41.2414207" lon="-7.8609189"><ele>893.0000000000001</ele><time>2026-04-26T10:08:01.799Z</time></trkpt><trkpt lat="41.2413673" lon="-7.860821"><ele>893.0</ele><time>2026-04-26T10:08:03.798Z</time></trkpt><trkpt lat="41.2412735" lon="-7.8607206"><ele>894.0000000000001</ele><time>2026-04-26T10:08:05.794Z</time></trkpt><trkpt lat="41.2412322" lon="-7.8606472"><ele>895.0</ele><time>2026-04-26T10:08:06.798Z</time></trkpt><trkpt lat="41.2412022" lon="-7.860568"><ele>896.0</ele><time>2026-04-26T10:08:07.796Z</time></trkpt><trkpt lat="41.2411793" lon="-7.8604695"><ele>897.0</ele><time>2026-04-26T10:08:08.799Z</time></trkpt><trkpt lat="41.2411448" lon="-7.8603488"><ele>898.0000000000001</ele><time>2026-04-26T10:08:09.797Z</time></trkpt><trkpt lat="41.241116" lon="-7.86024"><ele>899.0</ele><time>2026-04-26T10:08:10.79Z</time></trkpt><trkpt lat="41.2410861" lon="-7.8601404"><ele>896.8333333333334</ele><time>2026-04-26T10:08:11.797Z</time></trkpt><trkpt lat="41.2410501" lon="-7.8600372"><ele>894.6666666666667</ele><time>2026-04-26T10:08:12.797Z</time></trkpt><trkpt lat="41.241014" lon="-7.8599421"><ele>892.5</ele><time>2026-04-26T10:08:13.795Z</time></trkpt><trkpt lat="41.2409788" lon="-7.8598483"><ele>890.3333333333333</ele><time>2026-04-26T10:08:14.799Z</time></trkpt><trkpt lat="41.2409366" lon="-7.8597543"><ele>888.1666666666666</ele><time>2026-04-26T10:08:15.795Z</time></trkpt><trkpt lat="41.2408962" lon="-7.8596544"><ele>886.0</ele><time>2026-04-26T10:08:16.797Z</time></trkpt><trkpt lat="41.2408579" lon="-7.8595767"><ele>886.0</ele><time>2026-04-26T10:08:17.798Z</time></trkpt><trkpt lat="41.2408086" lon="-7.8594988"><ele>886.0</ele><time>2026-04-26T10:08:18.802Z</time></trkpt><trkpt lat="41.2407607" lon="-7.8594123"><ele>886.0</ele><time>2026-04-26T10:08:19.805Z</time></trkpt><trkpt lat="41.2407138" lon="-7.8593319"><ele>886.0</ele><time>2026-04-26T10:08:20.797Z</time></trkpt><trkpt lat="41.2406638" lon="-7.8592672"><ele>886.0</ele><time>2026-04-26T10:08:21.797Z</time></trkpt><trkpt lat="41.2406177" lon="-7.8591991"><ele>886.0</ele><time>2026-04-26T10:08:22.798Z</time></trkpt><trkpt lat="41.2405723" lon="-7.8591299"><ele>886.0</ele><time>2026-04-26T10:08:23.798Z</time></trkpt><trkpt lat="41.2405233" lon="-7.8590595"><ele>883.1666666666666</ele><time>2026-04-26T10:08:24.811Z</time></trkpt><trkpt lat="41.2404719" lon="-7.8589902"><ele>880.3333333333333</ele><time>2026-04-26T10:08:25.796Z</time></trkpt><trkpt lat="41.2404202" lon="-7.858909"><ele>877.5</ele><time>2026-04-26T10:08:26.797Z</time></trkpt><trkpt lat="41.2403631" lon="-7.858819"><ele>874.6666666666667</ele><time>2026-04-26T10:08:27.798Z</time></trkpt><trkpt lat="41.2403116" lon="-7.8587313"><ele>871.8333333333334</ele><time>2026-04-26T10:08:28.797Z</time></trkpt><trkpt lat="41.2402637" lon="-7.8586412"><ele>869.0</ele><time>2026-04-26T10:08:29.796Z</time></trkpt><trkpt lat="41.24022" lon="-7.8585453"><ele>867.5000000000001</ele><time>2026-04-26T10:08:30.794Z</time></trkpt><trkpt lat="41.2401815" lon="-7.8584498"><ele>866.0</ele><time>2026-04-26T10:08:31.796Z</time></trkpt><trkpt lat="41.2401462" lon="-7.8583517"><ele>864.5</ele><time>2026-04-26T10:08:32.801Z</time></trkpt><trkpt lat="41.2401118" lon="-7.8582489"><ele>863.0</ele><time>2026-04-26T10:08:33.798Z</time></trkpt><trkpt lat="41.2400765" lon="-7.8581451"><ele>861.5000000000001</ele><time>2026-04-26T10:08:34.799Z</time></trkpt><trkpt lat="41.2400383" lon="-7.8580487"><ele>860.0</ele><time>2026-04-26T10:08:35.793Z</time></trkpt><trkpt lat="41.2399917" lon="-7.8579641"><ele>860.0000000000001</ele><time>2026-04-26T10:08:36.8Z</time></trkpt><trkpt lat="41.239938" lon="-7.8578787"><ele>860.0</ele><time>2026-04-26T10:08:37.799Z</time></trkpt><trkpt lat="41.2398798" lon="-7.857795"><ele>860.0</ele><time>2026-04-26T10:08:38.796Z</time></trkpt><trkpt lat="41.2398164" lon="-7.8577141"><ele>860.0</ele><time>2026-04-26T10:08:39.794Z</time></trkpt><trkpt lat="41.239748" lon="-7.8576365"><ele>860.0000000000001</ele><time>2026-04-26T10:08:40.799Z</time></trkpt><trkpt lat="41.2396673" lon="-7.8575709"><ele>860.0</ele><time>2026-04-26T10:08:41.801Z</time></trkpt><trkpt lat="41.2395863" lon="-7.8575081"><ele>858.0000000000001</ele><time>2026-04-26T10:08:42.808Z</time></trkpt><trkpt lat="41.2395106" lon="-7.8574459"><ele>856.0</ele><time>2026-04-26T10:08:43.798Z</time></trkpt><trkpt lat="41.2394271" lon="-7.8573859"><ele>854.0</ele><time>2026-04-26T10:08:44.796Z</time></trkpt><trkpt lat="41.2393573" lon="-7.8573137"><ele>852.0</ele><time>2026-04-26T10:08:45.793Z</time></trkpt><trkpt lat="41.2393007" lon="-7.8572495"><ele>850.0000000000001</ele><time>2026-04-26T10:08:46.797Z</time></trkpt><trkpt lat="41.2392317" lon="-7.8571767"><ele>848.0</ele><time>2026-04-26T10:08:47.802Z</time></trkpt><trkpt lat="41.2391618" lon="-7.8571058"><ele>848.0000000000001</ele><time>2026-04-26T10:08:48.8Z</time></trkpt><trkpt lat="41.2391037" lon="-7.8570401"><ele>848.0</ele><time>2026-04-26T10:08:49.804Z</time></trkpt><trkpt lat="41.2390594" lon="-7.8569562"><ele>848.0</ele><time>2026-04-26T10:08:50.796Z</time></trkpt><trkpt lat="41.2390233" lon="-7.8568519"><ele>848.0</ele><time>2026-04-26T10:08:51.797Z</time></trkpt><trkpt lat="41.2389991" lon="-7.8567339"><ele>848.0000000000001</ele><time>2026-04-26T10:08:52.799Z</time></trkpt><trkpt lat="41.2389773" lon="-7.8566028"><ele>848.0</ele><time>2026-04-26T10:08:53.794Z</time></trkpt><trkpt lat="41.2389483" lon="-7.8564751"><ele>847.3333333333334</ele><time>2026-04-26T10:08:54.8Z</time></trkpt><trkpt lat="41.2389311" lon="-7.8563505"><ele>846.6666666666667</ele><time>2026-04-26T10:08:55.797Z</time></trkpt><trkpt lat="41.2389143" lon="-7.8562286"><ele>846.0</ele><time>2026-04-26T10:08:56.8Z</time></trkpt><trkpt lat="41.2388893" lon="-7.8561165"><ele>845.3333333333333</ele><time>2026-04-26T10:08:57.795Z</time></trkpt><trkpt lat="41.238865" lon="-7.8560173"><ele>844.6666666666666</ele><time>2026-04-26T10:08:58.795Z</time></trkpt><trkpt lat="41.2388347" lon="-7.8559029"><ele>844.0</ele><time>2026-04-26T10:08:59.803Z</time></trkpt><trkpt lat="41.2388019" lon="-7.8557847"><ele>843.8333333333333</ele><time>2026-04-26T10:09:00.796Z</time></trkpt><trkpt lat="41.2387715" lon="-7.8556687"><ele>843.6666666666666</ele><time>2026-04-26T10:09:01.798Z</time></trkpt><trkpt lat="41.2387428" lon="-7.8555639"><ele>843.5</ele><time>2026-04-26T10:09:02.797Z</time></trkpt><trkpt lat="41.2387148" lon="-7.8554679"><ele>843.3333333333333</ele><time>2026-04-26T10:09:03.798Z</time></trkpt><trkpt lat="41.2386928" lon="-7.8553706"><ele>843.1666666666666</ele><time>2026-04-26T10:09:04.798Z</time></trkpt><trkpt lat="41.2386692" lon="-7.8552892"><ele>843.0</ele><time>2026-04-26T10:09:05.798Z</time></trkpt><trkpt lat="41.2386524" lon="-7.8551953"><ele>842.1666666666666</ele><time>2026-04-26T10:09:06.797Z</time></trkpt><trkpt lat="41.238641" lon="-7.8551075"><ele>841.3333333333333</ele><time>2026-04-26T10:09:07.812Z</time></trkpt><trkpt lat="41.2386333" lon="-7.8550056"><ele>840.5</ele><time>2026-04-26T10:09:08.795Z</time></trkpt><trkpt lat="41.2386389" lon="-7.8548913"><ele>839.6666666666666</ele><time>2026-04-26T10:09:09.796Z</time></trkpt><trkpt lat="41.2386485" lon="-7.8547818"><ele>838.8333333333333</ele><time>2026-04-26T10:09:10.797Z</time></trkpt><trkpt lat="41.2386578" lon="-7.8546599"><ele>838.0</ele><time>2026-04-26T10:09:11.794Z</time></trkpt><trkpt lat="41.2386702" lon="-7.8545549"><ele>837.9999999999999</ele><time>2026-04-26T10:09:12.795Z</time></trkpt><trkpt lat="41.2386729" lon="-7.8544406"><ele>838.0</ele><time>2026-04-26T10:09:13.801Z</time></trkpt><trkpt lat="41.238666" lon="-7.8543236"><ele>838.0</ele><time>2026-04-26T10:09:14.799Z</time></trkpt><trkpt lat="41.238651" lon="-7.8542309"><ele>838.0</ele><time>2026-04-26T10:09:15.798Z</time></trkpt><trkpt lat="41.2386444" lon="-7.8541273"><ele>837.9999999999999</ele><time>2026-04-26T10:09:16.804Z</time></trkpt><trkpt lat="41.2386339" lon="-7.854014"><ele>838.0</ele><time>2026-04-26T10:09:17.794Z</time></trkpt><trkpt lat="41.2386427" lon="-7.8539031"><ele>838.1666666666666</ele><time>2026-04-26T10:09:18.804Z</time></trkpt><trkpt lat="41.2386577" lon="-7.853795"><ele>838.3333333333333</ele><time>2026-04-26T10:09:19.792Z</time></trkpt><trkpt lat="41.2386706" lon="-7.8536796"><ele>838.5</ele><time>2026-04-26T10:09:20.795Z</time></trkpt><trkpt lat="41.238689" lon="-7.8535725"><ele>838.6666666666667</ele><time>2026-04-26T10:09:21.802Z</time></trkpt><trkpt lat="41.2387124" lon="-7.8534505"><ele>838.8333333333334</ele><time>2026-04-26T10:09:22.798Z</time></trkpt><trkpt lat="41.2387276" lon="-7.8533335"><ele>839.0</ele><time>2026-04-26T10:09:23.797Z</time></trkpt><trkpt lat="41.2387399" lon="-7.8532188"><ele>838.3333333333334</ele><time>2026-04-26T10:09:24.805Z</time></trkpt><trkpt lat="41.2387499" lon="-7.8530995"><ele>837.6666666666667</ele><time>2026-04-26T10:09:25.801Z</time></trkpt><trkpt lat="41.2387657" lon="-7.8529706"><ele>837.0</ele><time>2026-04-26T10:09:26.798Z</time></trkpt><trkpt lat="41.2387703" lon="-7.8528538"><ele>836.3333333333333</ele><time>2026-04-26T10:09:27.8Z</time></trkpt><trkpt lat="41.2387657" lon="-7.8527345"><ele>835.6666666666666</ele><time>2026-04-26T10:09:28.803Z</time></trkpt><trkpt lat="41.2387446" lon="-7.8526309"><ele>835.0</ele><time>2026-04-26T10:09:29.797Z</time></trkpt><trkpt lat="41.2387108" lon="-7.8525329"><ele>832.0</ele><time>2026-04-26T10:09:30.8Z</time></trkpt><trkpt lat="41.238664" lon="-7.8524411"><ele>829.0</ele><time>2026-04-26T10:09:31.796Z</time></trkpt><trkpt lat="41.2386048" lon="-7.8523434"><ele>826.0</ele><time>2026-04-26T10:09:32.795Z</time></trkpt><trkpt lat="41.2385385" lon="-7.8522447"><ele>823.0</ele><time>2026-04-26T10:09:33.806Z</time></trkpt><trkpt lat="41.2384604" lon="-7.8521654"><ele>820.0</ele><time>2026-04-26T10:09:34.801Z</time></trkpt><trkpt lat="41.2383691" lon="-7.8520921"><ele>820.0</ele><time>2026-04-26T10:09:35.803Z</time></trkpt><trkpt lat="41.238272" lon="-7.8520386"><ele>820.0</ele><time>2026-04-26T10:09:36.797Z</time></trkpt><trkpt lat="41.2381742" lon="-7.8519949"><ele>820.0</ele><time>2026-04-26T10:09:37.805Z</time></trkpt><trkpt lat="41.2380736" lon="-7.8519523"><ele>820.0</ele><time>2026-04-26T10:09:38.802Z</time></trkpt><trkpt lat="41.2379722" lon="-7.8519013"><ele>820.0</ele><time>2026-04-26T10:09:39.798Z</time></trkpt><trkpt lat="41.2378838" lon="-7.8518564"><ele>818.6666666666666</ele><time>2026-04-26T10:09:40.804Z</time></trkpt><trkpt lat="41.2378117" lon="-7.851806"><ele>817.3333333333333</ele><time>2026-04-26T10:09:41.793Z</time></trkpt><trkpt lat="41.2377455" lon="-7.8517523"><ele>816.0</ele><time>2026-04-26T10:09:42.796Z</time></trkpt><trkpt lat="41.2376815" lon="-7.851699"><ele>814.6666666666667</ele><time>2026-04-26T10:09:43.796Z</time></trkpt><trkpt lat="41.2376263" lon="-7.851641"><ele>813.3333333333334</ele><time>2026-04-26T10:09:44.799Z</time></trkpt><trkpt lat="41.237568" lon="-7.8515814"><ele>812.0</ele><time>2026-04-26T10:09:45.798Z</time></trkpt><trkpt lat="41.2375053" lon="-7.8515173"><ele>810.1428571428571</ele><time>2026-04-26T10:09:46.796Z</time></trkpt><trkpt lat="41.2374549" lon="-7.851445"><ele>808.2857142857142</ele><time>2026-04-26T10:09:47.799Z</time></trkpt><trkpt lat="41.2374067" lon="-7.8513689"><ele>806.4285714285714</ele><time>2026-04-26T10:09:48.794Z</time></trkpt><trkpt lat="41.237362" lon="-7.8513034"><ele>804.5714285714286</ele><time>2026-04-26T10:09:49.795Z</time></trkpt><trkpt lat="41.2373051" lon="-7.8512653"><ele>802.7142857142857</ele><time>2026-04-26T10:09:50.805Z</time></trkpt><trkpt lat="41.2372423" lon="-7.851235"><ele>800.8571428571429</ele><time>2026-04-26T10:09:51.797Z</time></trkpt><trkpt lat="41.2371758" lon="-7.8512071"><ele>799.0</ele><time>2026-04-26T10:09:52.797Z</time></trkpt><trkpt lat="41.2371111" lon="-7.8511752"><ele>795.3333333333333</ele><time>2026-04-26T10:09:53.794Z</time></trkpt><trkpt lat="41.2370434" lon="-7.8511385"><ele>791.6666666666666</ele><time>2026-04-26T10:09:54.799Z</time></trkpt><trkpt lat="41.2369796" lon="-7.8510833"><ele>788.0</ele><time>2026-04-26T10:09:55.805Z</time></trkpt><trkpt lat="41.2369184" lon="-7.8510343"><ele>784.3333333333333</ele><time>2026-04-26T10:09:56.792Z</time></trkpt><trkpt lat="41.2368687" lon="-7.8509706"><ele>780.6666666666666</ele><time>2026-04-26T10:09:57.795Z</time></trkpt><trkpt lat="41.2368059" lon="-7.8508468"><ele>777.0</ele><time>2026-04-26T10:09:59.796Z</time></trkpt><trkpt lat="41.236748" lon="-7.850698"><ele>776.8333333333334</ele><time>2026-04-26T10:10:01.797Z</time></trkpt><trkpt lat="41.2367274" lon="-7.8506165"><ele>776.6666666666667</ele><time>2026-04-26T10:10:02.794Z</time></trkpt><trkpt lat="41.2367085" lon="-7.8505353"><ele>776.5</ele><time>2026-04-26T10:10:03.801Z</time></trkpt><trkpt lat="41.2366534" lon="-7.8504473"><ele>776.3333333333334</ele><time>2026-04-26T10:10:06.799Z</time></trkpt><trkpt lat="41.2366368" lon="-7.8505391"><ele>776.1666666666667</ele><time>2026-04-26T10:10:11.8Z</time></trkpt><trkpt lat="41.2367125" lon="-7.8506538"><ele>776.0</ele><time>2026-04-26T10:10:13.793Z</time></trkpt><trkpt lat="41.236774" lon="-7.8507705"><ele>776.0000000000001</ele><time>2026-04-26T10:10:15.802Z</time></trkpt><trkpt lat="41.2368018" lon="-7.8509183"><ele>776.0</ele><time>2026-04-26T10:10:17.807Z</time></trkpt><trkpt lat="41.2368135" lon="-7.8510071"><ele>776.0</ele><time>2026-04-26T10:10:18.795Z</time></trkpt><trkpt lat="41.2368277" lon="-7.8510936"><ele>776.0</ele><time>2026-04-26T10:10:19.797Z</time></trkpt><trkpt lat="41.2368424" lon="-7.8511878"><ele>776.0000000000001</ele><time>2026-04-26T10:10:20.798Z</time></trkpt><trkpt lat="41.2368458" lon="-7.851294"><ele>776.0</ele><time>2026-04-26T10:10:21.798Z</time></trkpt><trkpt lat="41.2368483" lon="-7.8514218"><ele>776.1999999999999</ele><time>2026-04-26T10:10:22.806Z</time></trkpt><trkpt lat="41.2368509" lon="-7.8515336"><ele>776.4</ele><time>2026-04-26T10:10:23.795Z</time></trkpt><trkpt lat="41.2368545" lon="-7.851678"><ele>776.6</ele><time>2026-04-26T10:10:24.796Z</time></trkpt><trkpt lat="41.2368664" lon="-7.8518352"><ele>776.8</ele><time>2026-04-26T10:10:25.794Z</time></trkpt><trkpt lat="41.2368973" lon="-7.8520019"><ele>777.0</ele><time>2026-04-26T10:10:26.794Z</time></trkpt><trkpt lat="41.2369325" lon="-7.8521781"><ele>777.5</ele><time>2026-04-26T10:10:27.797Z</time></trkpt><trkpt lat="41.2369646" lon="-7.8523514"><ele>778.0</ele><time>2026-04-26T10:10:28.809Z</time></trkpt><trkpt lat="41.2370044" lon="-7.8525186"><ele>778.5</ele><time>2026-04-26T10:10:29.793Z</time></trkpt><trkpt lat="41.2370439" lon="-7.8526798"><ele>779.0</ele><time>2026-04-26T10:10:30.794Z</time></trkpt><trkpt lat="41.237088" lon="-7.8528333"><ele>779.6</ele><time>2026-04-26T10:10:31.798Z</time></trkpt><trkpt lat="41.2371317" lon="-7.852975"><ele>780.2</ele><time>2026-04-26T10:10:32.8Z</time></trkpt><trkpt lat="41.2371781" lon="-7.8531033"><ele>780.8000000000001</ele><time>2026-04-26T10:10:33.796Z</time></trkpt><trkpt lat="41.2372241" lon="-7.8532188"><ele>781.4000000000001</ele><time>2026-04-26T10:10:34.794Z</time></trkpt><trkpt lat="41.2372718" lon="-7.853335"><ele>782.0</ele><time>2026-04-26T10:10:35.802Z</time></trkpt><trkpt lat="41.2373227" lon="-7.8534411"><ele>790.2</ele><time>2026-04-26T10:10:36.807Z</time></trkpt><trkpt lat="41.2373771" lon="-7.8535521"><ele>798.4000000000001</ele><time>2026-04-26T10:10:37.794Z</time></trkpt><trkpt lat="41.2374187" lon="-7.8536698"><ele>806.5999999999999</ele><time>2026-04-26T10:10:38.794Z</time></trkpt><trkpt lat="41.2374491" lon="-7.853797"><ele>814.8</ele><time>2026-04-26T10:10:39.804Z</time></trkpt><trkpt lat="41.2374788" lon="-7.8539251"><ele>823.0</ele><time>2026-04-26T10:10:40.797Z</time></trkpt><trkpt lat="41.2375131" lon="-7.8540512"><ele>823.0</ele><time>2026-04-26T10:10:41.796Z</time></trkpt><trkpt lat="41.2375434" lon="-7.8541691"><ele>823.0</ele><time>2026-04-26T10:10:42.801Z</time></trkpt><trkpt lat="41.2375719" lon="-7.8542918"><ele>823.0</ele><time>2026-04-26T10:10:43.796Z</time></trkpt><trkpt lat="41.2375983" lon="-7.8544125"><ele>823.0</ele><time>2026-04-26T10:10:44.808Z</time></trkpt><trkpt lat="41.2376265" lon="-7.8545288"><ele>823.0</ele><time>2026-04-26T10:10:45.794Z</time></trkpt><trkpt lat="41.2376606" lon="-7.8546508"><ele>821.9999999999999</ele><time>2026-04-26T10:10:46.796Z</time></trkpt><trkpt lat="41.2376871" lon="-7.8547671"><ele>821.0</ele><time>2026-04-26T10:10:47.799Z</time></trkpt><trkpt lat="41.2377127" lon="-7.8548784"><ele>820.0</ele><time>2026-04-26T10:10:48.801Z</time></trkpt><trkpt lat="41.2377243" lon="-7.8549907"><ele>819.0</ele><time>2026-04-26T10:10:49.794Z</time></trkpt><trkpt lat="41.2377442" lon="-7.8551019"><ele>817.9999999999999</ele><time>2026-04-26T10:10:50.796Z</time></trkpt><trkpt lat="41.2377493" lon="-7.8552156"><ele>817.0</ele><time>2026-04-26T10:10:51.792Z</time></trkpt><trkpt lat="41.2377434" lon="-7.8553272"><ele>816.6666666666666</ele><time>2026-04-26T10:10:52.794Z</time></trkpt><trkpt lat="41.2377388" lon="-7.8554419"><ele>816.3333333333333</ele><time>2026-04-26T10:10:53.802Z</time></trkpt><trkpt lat="41.2377137" lon="-7.8555525"><ele>816.0</ele><time>2026-04-26T10:10:54.807Z</time></trkpt><trkpt lat="41.2376833" lon="-7.8556714"><ele>815.6666666666667</ele><time>2026-04-26T10:10:55.797Z</time></trkpt><trkpt lat="41.2376649" lon="-7.8557869"><ele>815.3333333333334</ele><time>2026-04-26T10:10:56.794Z</time></trkpt><trkpt lat="41.2376517" lon="-7.8558973"><ele>815.0</ele><time>2026-04-26T10:10:57.8Z</time></trkpt><trkpt lat="41.2376387" lon="-7.8560162"><ele>814.8</ele><time>2026-04-26T10:10:58.797Z</time></trkpt><trkpt lat="41.2376271" lon="-7.8561453"><ele>814.6</ele><time>2026-04-26T10:10:59.8Z</time></trkpt><trkpt lat="41.2376207" lon="-7.85628"><ele>814.4000000000001</ele><time>2026-04-26T10:11:00.798Z</time></trkpt><trkpt lat="41.2376266" lon="-7.8564117"><ele>814.2</ele><time>2026-04-26T10:11:01.796Z</time></trkpt><trkpt lat="41.2376317" lon="-7.856542"><ele>814.0</ele><time>2026-04-26T10:11:02.801Z</time></trkpt><trkpt lat="41.2376445" lon="-7.8566642"><ele>814.0</ele><time>2026-04-26T10:11:03.794Z</time></trkpt><trkpt lat="41.2376631" lon="-7.8567803"><ele>814.0</ele><time>2026-04-26T10:11:04.794Z</time></trkpt><trkpt lat="41.2376927" lon="-7.856897"><ele>814.0</ele><time>2026-04-26T10:11:05.806Z</time></trkpt><trkpt lat="41.2377265" lon="-7.8570102"><ele>814.0</ele><time>2026-04-26T10:11:06.796Z</time></trkpt><trkpt lat="41.2377658" lon="-7.8571265"><ele>814.0</ele><time>2026-04-26T10:11:07.8Z</time></trkpt><trkpt lat="41.2378005" lon="-7.857235"><ele>811.8333333333333</ele><time>2026-04-26T10:11:08.796Z</time></trkpt><trkpt lat="41.2378256" lon="-7.8573315"><ele>809.6666666666666</ele><time>2026-04-26T10:11:09.802Z</time></trkpt><trkpt lat="41.2378544" lon="-7.8574237"><ele>807.5</ele><time>2026-04-26T10:11:10.797Z</time></trkpt><trkpt lat="41.237896" lon="-7.8575073"><ele>805.3333333333333</ele><time>2026-04-26T10:11:11.796Z</time></trkpt><trkpt lat="41.2379446" lon="-7.8575936"><ele>803.1666666666666</ele><time>2026-04-26T10:11:12.801Z</time></trkpt><trkpt lat="41.2380045" lon="-7.8576855"><ele>801.0</ele><time>2026-04-26T10:11:13.794Z</time></trkpt><trkpt lat="41.238055" lon="-7.8577817"><ele>802.8</ele><time>2026-04-26T10:11:14.802Z</time></trkpt><trkpt lat="41.2381188" lon="-7.8578703"><ele>804.5999999999999</ele><time>2026-04-26T10:11:15.796Z</time></trkpt><trkpt lat="41.2381829" lon="-7.8579612"><ele>806.4</ele><time>2026-04-26T10:11:16.795Z</time></trkpt><trkpt lat="41.2382462" lon="-7.8580511"><ele>808.2</ele><time>2026-04-26T10:11:17.799Z</time></trkpt><trkpt lat="41.238312" lon="-7.8581394"><ele>810.0</ele><time>2026-04-26T10:11:18.795Z</time></trkpt><trkpt lat="41.2383762" lon="-7.8582337"><ele>810.0</ele><time>2026-04-26T10:11:19.798Z</time></trkpt><trkpt lat="41.2384354" lon="-7.8583349"><ele>810.0</ele><time>2026-04-26T10:11:20.795Z</time></trkpt><trkpt lat="41.2384982" lon="-7.8584328"><ele>810.0</ele><time>2026-04-26T10:11:21.799Z</time></trkpt><trkpt lat="41.2385394" lon="-7.8585467"><ele>810.0</ele><time>2026-04-26T10:11:22.8Z</time></trkpt><trkpt lat="41.2385724" lon="-7.8586597"><ele>810.0</ele><time>2026-04-26T10:11:23.796Z</time></trkpt><trkpt lat="41.2385964" lon="-7.8587618"><ele>810.0</ele><time>2026-04-26T10:11:24.797Z</time></trkpt><trkpt lat="41.2386085" lon="-7.8588765"><ele>810.0</ele><time>2026-04-26T10:11:25.792Z</time></trkpt><trkpt lat="41.238621" lon="-7.8589875"><ele>810.0</ele><time>2026-04-26T10:11:26.799Z</time></trkpt><trkpt lat="41.2386127" lon="-7.8590863"><ele>810.0</ele><time>2026-04-26T10:11:27.804Z</time></trkpt><trkpt lat="41.2385666" lon="-7.8591746"><ele>810.0</ele><time>2026-04-26T10:11:28.803Z</time></trkpt><trkpt lat="41.2384902" lon="-7.8592391"><ele>810.0</ele><time>2026-04-26T10:11:29.804Z</time></trkpt><trkpt lat="41.238416" lon="-7.8593186"><ele>811.1666666666666</ele><time>2026-04-26T10:11:30.802Z</time></trkpt><trkpt lat="41.2383518" lon="-7.8593966"><ele>812.3333333333333</ele><time>2026-04-26T10:11:31.794Z</time></trkpt><trkpt lat="41.2382847" lon="-7.8594829"><ele>813.5</ele><time>2026-04-26T10:11:32.79Z</time></trkpt><trkpt lat="41.2382156" lon="-7.8595766"><ele>814.6666666666666</ele><time>2026-04-26T10:11:33.797Z</time></trkpt><trkpt lat="41.2381573" lon="-7.8596571"><ele>815.8333333333333</ele><time>2026-04-26T10:11:34.797Z</time></trkpt><trkpt lat="41.2381024" lon="-7.8597339"><ele>817.0</ele><time>2026-04-26T10:11:35.8Z</time></trkpt><trkpt lat="41.2380456" lon="-7.859813"><ele>813.3333333333333</ele><time>2026-04-26T10:11:36.799Z</time></trkpt><trkpt lat="41.2379982" lon="-7.8599152"><ele>809.6666666666666</ele><time>2026-04-26T10:11:37.794Z</time></trkpt><trkpt lat="41.2379612" lon="-7.8600207"><ele>806.0</ele><time>2026-04-26T10:11:38.799Z</time></trkpt><trkpt lat="41.2379404" lon="-7.8601241"><ele>802.3333333333333</ele><time>2026-04-26T10:11:39.79Z</time></trkpt><trkpt lat="41.2379218" lon="-7.8602355"><ele>798.6666666666666</ele><time>2026-04-26T10:11:40.795Z</time></trkpt><trkpt lat="41.23791" lon="-7.8603464"><ele>795.0</ele><time>2026-04-26T10:11:41.795Z</time></trkpt><trkpt lat="41.2378853" lon="-7.8604564"><ele>795.0</ele><time>2026-04-26T10:11:42.799Z</time></trkpt><trkpt lat="41.2378528" lon="-7.860564"><ele>795.0</ele><time>2026-04-26T10:11:43.796Z</time></trkpt><trkpt lat="41.2378185" lon="-7.8606678"><ele>795.0</ele><time>2026-04-26T10:11:44.8Z</time></trkpt><trkpt lat="41.2377783" lon="-7.8607672"><ele>795.0</ele><time>2026-04-26T10:11:45.798Z</time></trkpt><trkpt lat="41.2377342" lon="-7.8608562"><ele>795.0</ele><time>2026-04-26T10:11:46.79Z</time></trkpt><trkpt lat="41.2376808" lon="-7.8609194"><ele>795.0</ele><time>2026-04-26T10:11:47.791Z</time></trkpt><trkpt lat="41.2376119" lon="-7.8609471"><ele>795.0</ele><time>2026-04-26T10:11:48.796Z</time></trkpt><trkpt lat="41.2375403" lon="-7.8609319"><ele>795.0</ele><time>2026-04-26T10:11:49.795Z</time></trkpt><trkpt lat="41.237469" lon="-7.8609012"><ele>795.0</ele><time>2026-04-26T10:11:50.8Z</time></trkpt><trkpt lat="41.2374009" lon="-7.8608665"><ele>795.0</ele><time>2026-04-26T10:11:51.795Z</time></trkpt><trkpt lat="41.2373315" lon="-7.8608313"><ele>795.0</ele><time>2026-04-26T10:11:52.801Z</time></trkpt><trkpt lat="41.2372687" lon="-7.8607983"><ele>795.0</ele><time>2026-04-26T10:11:53.798Z</time></trkpt><trkpt lat="41.2372035" lon="-7.8607626"><ele>795.0</ele><time>2026-04-26T10:11:54.792Z</time></trkpt><trkpt lat="41.2371329" lon="-7.8607205"><ele>794.1666666666666</ele><time>2026-04-26T10:11:55.795Z</time></trkpt><trkpt lat="41.2370578" lon="-7.8606942"><ele>793.3333333333333</ele><time>2026-04-26T10:11:56.799Z</time></trkpt><trkpt lat="41.236983" lon="-7.8606606"><ele>792.5</ele><time>2026-04-26T10:11:57.802Z</time></trkpt><trkpt lat="41.2368924" lon="-7.8606197"><ele>791.6666666666666</ele><time>2026-04-26T10:11:58.797Z</time></trkpt><trkpt lat="41.2368072" lon="-7.8605958"><ele>790.8333333333333</ele><time>2026-04-26T10:11:59.804Z</time></trkpt><trkpt lat="41.2367223" lon="-7.8605639"><ele>790.0</ele><time>2026-04-26T10:12:00.791Z</time></trkpt><trkpt lat="41.2366385" lon="-7.8605384"><ele>789.9999999999999</ele><time>2026-04-26T10:12:01.799Z</time></trkpt><trkpt lat="41.2365604" lon="-7.8605122"><ele>790.0</ele><time>2026-04-26T10:12:02.8Z</time></trkpt><trkpt lat="41.2364864" lon="-7.8604749"><ele>790.0</ele><time>2026-04-26T10:12:03.796Z</time></trkpt><trkpt lat="41.2364131" lon="-7.8604228"><ele>790.0</ele><time>2026-04-26T10:12:04.796Z</time></trkpt><trkpt lat="41.2363511" lon="-7.8603671"><ele>789.9999999999999</ele><time>2026-04-26T10:12:05.8Z</time></trkpt><trkpt lat="41.2362875" lon="-7.8603115"><ele>790.0</ele><time>2026-04-26T10:12:06.796Z</time></trkpt><trkpt lat="41.236224" lon="-7.860262"><ele>787.6666666666666</ele><time>2026-04-26T10:12:07.795Z</time></trkpt><trkpt lat="41.2361622" lon="-7.8602147"><ele>785.3333333333333</ele><time>2026-04-26T10:12:08.813Z</time></trkpt><trkpt lat="41.2361058" lon="-7.8601714"><ele>783.0</ele><time>2026-04-26T10:12:09.793Z</time></trkpt><trkpt lat="41.2360177" lon="-7.8600803"><ele>780.6666666666667</ele><time>2026-04-26T10:12:11.797Z</time></trkpt><trkpt lat="41.2359473" lon="-7.8600291"><ele>778.3333333333334</ele><time>2026-04-26T10:12:13.796Z</time></trkpt><trkpt lat="41.2358873" lon="-7.8599761"><ele>776.0</ele><time>2026-04-26T10:12:16.796Z</time></trkpt><trkpt lat="41.2358528" lon="-7.859883"><ele>773.1666666666667</ele><time>2026-04-26T10:12:20.798Z</time></trkpt><trkpt lat="41.2357817" lon="-7.859814"><ele>770.3333333333334</ele><time>2026-04-26T10:12:24.801Z</time></trkpt><trkpt lat="41.2357137" lon="-7.8597924"><ele>767.5</ele><time>2026-04-26T10:12:27.801Z</time></trkpt><trkpt lat="41.235658" lon="-7.8597345"><ele>764.6666666666667</ele><time>2026-04-26T10:12:30.797Z</time></trkpt><trkpt lat="41.2355722" lon="-7.8597721"><ele>761.8333333333334</ele><time>2026-04-26T10:12:35.793Z</time></trkpt><trkpt lat="41.2354884" lon="-7.8597437"><ele>759.0</ele><time>2026-04-26T10:12:38.794Z</time></trkpt><trkpt lat="41.2354067" lon="-7.8596913"><ele>755.0</ele><time>2026-04-26T10:12:41.794Z</time></trkpt><trkpt lat="41.235367" lon="-7.8596236"><ele>751.0</ele><time>2026-04-26T10:12:43.795Z</time></trkpt><trkpt lat="41.2353591" lon="-7.8595268"><ele>747.0</ele><time>2026-04-26T10:12:45.802Z</time></trkpt><trkpt lat="41.235352" lon="-7.8594353"><ele>743.0</ele><time>2026-04-26T10:12:47.794Z</time></trkpt><trkpt lat="41.2353349" lon="-7.8593513"><ele>739.0</ele><time>2026-04-26T10:12:49.796Z</time></trkpt><trkpt lat="41.2352866" lon="-7.8594401"><ele>735.0</ele><time>2026-04-26T10:12:57.794Z</time></trkpt><trkpt lat="41.2352289" lon="-7.8595177"><ele>731.0</ele><time>2026-04-26T10:13:00.794Z</time></trkpt><trkpt lat="41.2352477" lon="-7.8596318"><ele>731.0</ele><time>2026-04-26T10:13:07.8Z</time></trkpt><trkpt lat="41.2352163" lon="-7.8597254"><ele>731.0</ele><time>2026-04-26T10:13:09.794Z</time></trkpt><trkpt lat="41.2351906" lon="-7.8598657"><ele>731.0</ele><time>2026-04-26T10:13:11.803Z</time></trkpt><trkpt lat="41.2351799" lon="-7.8599913"><ele>731.0</ele><time>2026-04-26T10:13:13.8Z</time></trkpt><trkpt lat="41.2351863" lon="-7.8600776"><ele>731.0</ele><time>2026-04-26T10:13:14.793Z</time></trkpt><trkpt lat="41.2351552" lon="-7.8601811"><ele>731.0</ele><time>2026-04-26T10:13:15.795Z</time></trkpt><trkpt lat="41.23509" lon="-7.8602935"><ele>733.1999999999999</ele><time>2026-04-26T10:13:17.794Z</time></trkpt><trkpt lat="41.2350007" lon="-7.8603697"><ele>735.4</ele><time>2026-04-26T10:13:19.797Z</time></trkpt><trkpt lat="41.234914" lon="-7.8604289"><ele>737.6</ele><time>2026-04-26T10:13:21.795Z</time></trkpt><trkpt lat="41.234818" lon="-7.8604855"><ele>739.8</ele><time>2026-04-26T10:13:23.802Z</time></trkpt><trkpt lat="41.2347065" lon="-7.8605656"><ele>742.0</ele><time>2026-04-26T10:13:25.795Z</time></trkpt><trkpt lat="41.2346175" lon="-7.8606418"><ele>737.2</ele><time>2026-04-26T10:13:27.795Z</time></trkpt><trkpt lat="41.2345536" lon="-7.8606724"><ele>732.4000000000001</ele><time>2026-04-26T10:13:28.794Z</time></trkpt><trkpt lat="41.2344568" lon="-7.8607686"><ele>727.5999999999999</ele><time>2026-04-26T10:13:30.803Z</time></trkpt><trkpt lat="41.2343922" lon="-7.860896"><ele>722.8</ele><time>2026-04-26T10:13:32.795Z</time></trkpt><trkpt lat="41.2343352" lon="-7.8610062"><ele>718.0</ele><time>2026-04-26T10:13:34.802Z</time></trkpt><trkpt lat="41.2342783" lon="-7.8610974"><ele>718.0</ele><time>2026-04-26T10:13:36.798Z</time></trkpt><trkpt lat="41.2342115" lon="-7.8611393"><ele>718.0</ele><time>2026-04-26T10:13:38.803Z</time></trkpt><trkpt lat="41.2341741" lon="-7.8610715"><ele>718.0</ele><time>2026-04-26T10:13:40.798Z</time></trkpt><trkpt lat="41.2341591" lon="-7.8609688"><ele>718.0</ele><time>2026-04-26T10:13:42.797Z</time></trkpt><trkpt lat="41.2341793" lon="-7.8608139"><ele>718.0</ele><time>2026-04-26T10:13:44.798Z</time></trkpt><trkpt lat="41.2341752" lon="-7.8607248"><ele>718.0</ele><time>2026-04-26T10:13:45.803Z</time></trkpt><trkpt lat="41.2341698" lon="-7.8606405"><ele>715.3333333333334</ele><time>2026-04-26T10:13:46.795Z</time></trkpt><trkpt lat="41.2341503" lon="-7.8605287"><ele>712.6666666666667</ele><time>2026-04-26T10:13:48.79Z</time></trkpt><trkpt lat="41.2341241" lon="-7.8604507"><ele>710.0</ele><time>2026-04-26T10:13:50.794Z</time></trkpt><trkpt lat="41.2340439" lon="-7.8605134"><ele>707.3333333333334</ele><time>2026-04-26T10:13:55.797Z</time></trkpt><trkpt lat="41.233957" lon="-7.8606101"><ele>704.6666666666666</ele><time>2026-04-26T10:13:57.796Z</time></trkpt><trkpt lat="41.2338987" lon="-7.8606518"><ele>702.0</ele><time>2026-04-26T10:13:58.797Z</time></trkpt><trkpt lat="41.2338039" lon="-7.8607465"><ele>700.4000000000001</ele><time>2026-04-26T10:14:00.799Z</time></trkpt><trkpt lat="41.2337452" lon="-7.860854"><ele>698.8000000000001</ele><time>2026-04-26T10:14:02.8Z</time></trkpt><trkpt lat="41.2337024" lon="-7.8609795"><ele>697.2</ele><time>2026-04-26T10:14:04.792Z</time></trkpt><trkpt lat="41.2336548" lon="-7.8610703"><ele>695.6</ele><time>2026-04-26T10:14:06.8Z</time></trkpt><trkpt lat="41.2335721" lon="-7.861027"><ele>694.0</ele><time>2026-04-26T10:14:09.79Z</time></trkpt><trkpt lat="41.2335481" lon="-7.8609181"><ele>691.5</ele><time>2026-04-26T10:14:11.793Z</time></trkpt><trkpt lat="41.233512" lon="-7.8608358"><ele>689.0</ele><time>2026-04-26T10:14:13.793Z</time></trkpt><trkpt lat="41.2334155" lon="-7.8608075"><ele>686.5</ele><time>2026-04-26T10:14:16.805Z</time></trkpt><trkpt lat="41.2333476" lon="-7.8607813"><ele>684.0</ele><time>2026-04-26T10:14:18.794Z</time></trkpt><trkpt lat="41.2333062" lon="-7.8607"><ele>681.5</ele><time>2026-04-26T10:14:20.792Z</time></trkpt><trkpt lat="41.2333045" lon="-7.8605925"><ele>679.0</ele><time>2026-04-26T10:14:22.799Z</time></trkpt><trkpt lat="41.2333081" lon="-7.8604871"><ele>679.0</ele><time>2026-04-26T10:14:24.799Z</time></trkpt><trkpt lat="41.2332934" lon="-7.8603615"><ele>679.0</ele><time>2026-04-26T10:14:27.791Z</time></trkpt><trkpt lat="41.2332876" lon="-7.8602729"><ele>679.0</ele><time>2026-04-26T10:14:29.79Z</time></trkpt><trkpt lat="41.2332288" lon="-7.8601691"><ele>679.0</ele><time>2026-04-26T10:14:32.79Z</time></trkpt><trkpt lat="41.2331488" lon="-7.8601309"><ele>679.0</ele><time>2026-04-26T10:14:34.794Z</time></trkpt><trkpt lat="41.2330612" lon="-7.8600835"><ele>679.0</ele><time>2026-04-26T10:14:36.8Z</time></trkpt><trkpt lat="41.2330157" lon="-7.8600069"><ele>680.6</ele><time>2026-04-26T10:14:38.791Z</time></trkpt><trkpt lat="41.2330308" lon="-7.8598903"><ele>682.2</ele><time>2026-04-26T10:14:40.789Z</time></trkpt><trkpt lat="41.2330707" lon="-7.8597755"><ele>683.8000000000001</ele><time>2026-04-26T10:14:42.8Z</time></trkpt><trkpt lat="41.2330902" lon="-7.8596407"><ele>685.4000000000001</ele><time>2026-04-26T10:14:44.793Z</time></trkpt><trkpt lat="41.2330714" lon="-7.8594978"><ele>687.0</ele><time>2026-04-26T10:14:46.798Z</time></trkpt><trkpt lat="41.2330223" lon="-7.8593408"><ele>685.8333333333334</ele><time>2026-04-26T10:14:48.791Z</time></trkpt><trkpt lat="41.2329931" lon="-7.8592424"><ele>684.6666666666666</ele><time>2026-04-26T10:14:49.801Z</time></trkpt><trkpt lat="41.2329544" lon="-7.8591425"><ele>683.5</ele><time>2026-04-26T10:14:50.802Z</time></trkpt><trkpt lat="41.2329127" lon="-7.8590381"><ele>682.3333333333333</ele><time>2026-04-26T10:14:51.799Z</time></trkpt><trkpt lat="41.2328812" lon="-7.8589303"><ele>681.1666666666666</ele><time>2026-04-26T10:14:52.795Z</time></trkpt><trkpt lat="41.2328452" lon="-7.8588221"><ele>680.0</ele><time>2026-04-26T10:14:53.792Z</time></trkpt><trkpt lat="41.2328018" lon="-7.8587101"><ele>680.0</ele><time>2026-04-26T10:14:54.794Z</time></trkpt><trkpt lat="41.2327572" lon="-7.858597"><ele>680.0</ele><time>2026-04-26T10:14:55.793Z</time></trkpt><trkpt lat="41.232715" lon="-7.8584668"><ele>680.0</ele><time>2026-04-26T10:14:56.796Z</time></trkpt><trkpt lat="41.2326803" lon="-7.8583362"><ele>680.0</ele><time>2026-04-26T10:14:57.789Z</time></trkpt><trkpt lat="41.2326395" lon="-7.8581945"><ele>680.0</ele><time>2026-04-26T10:14:58.791Z</time></trkpt><trkpt lat="41.232592" lon="-7.8580459"><ele>677.2</ele><time>2026-04-26T10:14:59.798Z</time></trkpt><trkpt lat="41.232545" lon="-7.8578988"><ele>674.4</ele><time>2026-04-26T10:15:00.795Z</time></trkpt><trkpt lat="41.2324983" lon="-7.8577641"><ele>671.5999999999999</ele><time>2026-04-26T10:15:01.789Z</time></trkpt><trkpt lat="41.2324534" lon="-7.8576317"><ele>668.8</ele><time>2026-04-26T10:15:02.792Z</time></trkpt><trkpt lat="41.2324151" lon="-7.8575077"><ele>666.0</ele><time>2026-04-26T10:15:03.792Z</time></trkpt><trkpt lat="41.2323824" lon="-7.8573889"><ele>665.5</ele><time>2026-04-26T10:15:04.797Z</time></trkpt><trkpt lat="41.2323432" lon="-7.8572742"><ele>665.0</ele><time>2026-04-26T10:15:05.794Z</time></trkpt><trkpt lat="41.2323052" lon="-7.8571773"><ele>664.5</ele><time>2026-04-26T10:15:06.795Z</time></trkpt><trkpt lat="41.2322736" lon="-7.8570761"><ele>664.0</ele><time>2026-04-26T10:15:07.796Z</time></trkpt><trkpt lat="41.2322471" lon="-7.8569628"><ele>663.5</ele><time>2026-04-26T10:15:08.793Z</time></trkpt><trkpt lat="41.2322295" lon="-7.8568518"><ele>663.0</ele><time>2026-04-26T10:15:09.8Z</time></trkpt><trkpt lat="41.2322097" lon="-7.8567391"><ele>663.0</ele><time>2026-04-26T10:15:10.799Z</time></trkpt><trkpt lat="41.2321897" lon="-7.8566303"><ele>663.0</ele><time>2026-04-26T10:15:11.791Z</time></trkpt><trkpt lat="41.232167" lon="-7.8565215"><ele>663.0</ele><time>2026-04-26T10:15:12.81Z</time></trkpt><trkpt lat="41.2321273" lon="-7.85643"><ele>663.0</ele><time>2026-04-26T10:15:13.795Z</time></trkpt><trkpt lat="41.2320859" lon="-7.8563342"><ele>663.0</ele><time>2026-04-26T10:15:14.792Z</time></trkpt><trkpt lat="41.2320451" lon="-7.8562442"><ele>663.0</ele><time>2026-04-26T10:15:15.795Z</time></trkpt><trkpt lat="41.2320018" lon="-7.8561585"><ele>663.0</ele><time>2026-04-26T10:15:16.794Z</time></trkpt><trkpt lat="41.2319538" lon="-7.8560829"><ele>663.0</ele><time>2026-04-26T10:15:17.795Z</time></trkpt><trkpt lat="41.2319064" lon="-7.8560056"><ele>663.0</ele><time>2026-04-26T10:15:18.791Z</time></trkpt><trkpt lat="41.2318489" lon="-7.8559437"><ele>663.0</ele><time>2026-04-26T10:15:19.794Z</time></trkpt><trkpt lat="41.2317975" lon="-7.8558725"><ele>663.0</ele><time>2026-04-26T10:15:20.802Z</time></trkpt><trkpt lat="41.2317497" lon="-7.8558042"><ele>663.0</ele><time>2026-04-26T10:15:21.795Z</time></trkpt><trkpt lat="41.2316735" lon="-7.8556607"><ele>660.0</ele><time>2026-04-26T10:15:23.795Z</time></trkpt><trkpt lat="41.2316301" lon="-7.8555865"><ele>657.0</ele><time>2026-04-26T10:15:24.803Z</time></trkpt><trkpt lat="41.2315785" lon="-7.8555115"><ele>654.0</ele><time>2026-04-26T10:15:25.8Z</time></trkpt><trkpt lat="41.2315283" lon="-7.855447"><ele>651.0</ele><time>2026-04-26T10:15:26.796Z</time></trkpt><trkpt lat="41.2314792" lon="-7.8553778"><ele>648.0</ele><time>2026-04-26T10:15:27.791Z</time></trkpt><trkpt lat="41.2314221" lon="-7.8553261"><ele>645.0</ele><time>2026-04-26T10:15:28.794Z</time></trkpt><trkpt lat="41.231322" lon="-7.8552846"><ele>645.0</ele><time>2026-04-26T10:15:30.792Z</time></trkpt><trkpt lat="41.231258" lon="-7.8552881"><ele>645.0</ele><time>2026-04-26T10:15:31.79Z</time></trkpt><trkpt lat="41.2311513" lon="-7.8553331"><ele>645.0</ele><time>2026-04-26T10:15:33.793Z</time></trkpt><trkpt lat="41.2310724" lon="-7.8553701"><ele>645.0</ele><time>2026-04-26T10:15:34.796Z</time></trkpt><trkpt lat="41.2309795" lon="-7.8553978"><ele>645.0</ele><time>2026-04-26T10:15:35.79Z</time></trkpt><trkpt lat="41.2308901" lon="-7.8554176"><ele>645.0</ele><time>2026-04-26T10:15:36.799Z</time></trkpt><trkpt lat="41.2308062" lon="-7.8554248"><ele>645.0</ele><time>2026-04-26T10:15:37.795Z</time></trkpt><trkpt lat="41.2307243" lon="-7.8554276"><ele>645.0</ele><time>2026-04-26T10:15:38.791Z</time></trkpt><trkpt lat="41.2306493" lon="-7.8554276"><ele>645.0</ele><time>2026-04-26T10:15:39.793Z</time></trkpt><trkpt lat="41.2305774" lon="-7.8554307"><ele>645.0</ele><time>2026-04-26T10:15:40.801Z</time></trkpt><trkpt lat="41.2305052" lon="-7.855428"><ele>645.0</ele><time>2026-04-26T10:15:41.796Z</time></trkpt><trkpt lat="41.2304394" lon="-7.8554086"><ele>645.0</ele><time>2026-04-26T10:15:42.799Z</time></trkpt><trkpt lat="41.2303674" lon="-7.8554037"><ele>645.0</ele><time>2026-04-26T10:15:43.794Z</time></trkpt><trkpt lat="41.230292" lon="-7.8553957"><ele>646.2</ele><time>2026-04-26T10:15:44.792Z</time></trkpt><trkpt lat="41.2301925" lon="-7.855318"><ele>647.4</ele><time>2026-04-26T10:15:46.793Z</time></trkpt><trkpt lat="41.2300782" lon="-7.8552583"><ele>648.5999999999999</ele><time>2026-04-26T10:15:48.801Z</time></trkpt><trkpt lat="41.2300187" lon="-7.8552199"><ele>649.8</ele><time>2026-04-26T10:15:49.796Z</time></trkpt><trkpt lat="41.2298909" lon="-7.8551603"><ele>651.0</ele><time>2026-04-26T10:15:51.802Z</time></trkpt><trkpt lat="41.2298225" lon="-7.8551488"><ele>649.5999999999999</ele><time>2026-04-26T10:15:52.789Z</time></trkpt><trkpt lat="41.2297077" lon="-7.8550974"><ele>648.2</ele><time>2026-04-26T10:15:54.795Z</time></trkpt><trkpt lat="41.2296346" lon="-7.8550159"><ele>646.8</ele><time>2026-04-26T10:15:56.793Z</time></trkpt><trkpt lat="41.2296133" lon="-7.8549115"><ele>645.4000000000001</ele><time>2026-04-26T10:15:58.794Z</time></trkpt><trkpt lat="41.2296326" lon="-7.8548144"><ele>644.0</ele><time>2026-04-26T10:15:59.795Z</time></trkpt><trkpt lat="41.2296821" lon="-7.8547158"><ele>644.0</ele><time>2026-04-26T10:16:00.792Z</time></trkpt><trkpt lat="41.2296887" lon="-7.8546062"><ele>644.0</ele><time>2026-04-26T10:16:01.796Z</time></trkpt><trkpt lat="41.2296697" lon="-7.8545143"><ele>644.0</ele><time>2026-04-26T10:16:02.794Z</time></trkpt><trkpt lat="41.2296325" lon="-7.8544231"><ele>644.0</ele><time>2026-04-26T10:16:03.796Z</time></trkpt><trkpt lat="41.2295836" lon="-7.8542713"><ele>644.0</ele><time>2026-04-26T10:16:05.799Z</time></trkpt><trkpt lat="41.2295463" lon="-7.8541446"><ele>640.1666666666666</ele><time>2026-04-26T10:16:07.794Z</time></trkpt><trkpt lat="41.22951" lon="-7.854057"><ele>636.3333333333333</ele><time>2026-04-26T10:16:09.801Z</time></trkpt><trkpt lat="41.2294543" lon="-7.8539613"><ele>632.5</ele><time>2026-04-26T10:16:14.793Z</time></trkpt><trkpt lat="41.2294163" lon="-7.8538746"><ele>628.6666666666666</ele><time>2026-04-26T10:16:15.799Z</time></trkpt><trkpt lat="41.2293539" lon="-7.8538077"><ele>624.8333333333334</ele><time>2026-04-26T10:16:16.796Z</time></trkpt><trkpt lat="41.2292704" lon="-7.8537624"><ele>621.0</ele><time>2026-04-26T10:16:17.793Z</time></trkpt><trkpt lat="41.2291303" lon="-7.8537535"><ele>622.0</ele><time>2026-04-26T10:16:18.805Z</time></trkpt><trkpt lat="41.2289652" lon="-7.853709"><ele>623.0</ele><time>2026-04-26T10:16:19.797Z</time></trkpt><trkpt lat="41.2288282" lon="-7.8536991"><ele>624.0</ele><time>2026-04-26T10:16:20.796Z</time></trkpt><trkpt lat="41.228733" lon="-7.85373"><ele>625.0</ele><time>2026-04-26T10:16:21.799Z</time></trkpt><trkpt lat="41.2286412" lon="-7.8537597"><ele>625.0</ele><time>2026-04-26T10:16:23.798Z</time></trkpt><trkpt lat="41.2285663" lon="-7.8537432"><ele>625.0</ele><time>2026-04-26T10:16:32.795Z</time></trkpt><trkpt lat="41.2284937" lon="-7.8537176"><ele>625.0</ele><time>2026-04-26T10:16:35.8Z</time></trkpt><trkpt lat="41.2284129" lon="-7.8536932"><ele>625.0</ele><time>2026-04-26T10:16:38.792Z</time></trkpt><trkpt lat="41.2283146" lon="-7.8536669"><ele>625.0</ele><time>2026-04-26T10:16:41.798Z</time></trkpt><trkpt lat="41.2281908" lon="-7.8536737"><ele>624.3333333333334</ele><time>2026-04-26T10:16:43.792Z</time></trkpt><trkpt lat="41.2281261" lon="-7.853684"><ele>623.6666666666667</ele><time>2026-04-26T10:16:44.795Z</time></trkpt><trkpt lat="41.2280555" lon="-7.8536922"><ele>623.0</ele><time>2026-04-26T10:16:45.79Z</time></trkpt><trkpt lat="41.2279472" lon="-7.8537327"><ele>622.3333333333334</ele><time>2026-04-26T10:16:47.792Z</time></trkpt><trkpt lat="41.2278868" lon="-7.8537587"><ele>621.6666666666666</ele><time>2026-04-26T10:16:48.792Z</time></trkpt><trkpt lat="41.2277879" lon="-7.8537816"><ele>621.0</ele><time>2026-04-26T10:16:50.793Z</time></trkpt><trkpt lat="41.227728" lon="-7.853814"><ele>621.0</ele><time>2026-04-26T10:16:51.793Z</time></trkpt><trkpt lat="41.2276633" lon="-7.8538467"><ele>621.0</ele><time>2026-04-26T10:16:52.799Z</time></trkpt><trkpt lat="41.2275701" lon="-7.8538992"><ele>621.0</ele><time>2026-04-26T10:16:54.79Z</time></trkpt><trkpt lat="41.2274787" lon="-7.8539222"><ele>621.0</ele><time>2026-04-26T10:16:56.796Z</time></trkpt><trkpt lat="41.2273775" lon="-7.8538933"><ele>621.0</ele><time>2026-04-26T10:16:58.804Z</time></trkpt><trkpt lat="41.2272894" lon="-7.8538439"><ele>620.2</ele><time>2026-04-26T10:17:00.792Z</time></trkpt><trkpt lat="41.2272079" lon="-7.8537946"><ele>619.4000000000001</ele><time>2026-04-26T10:17:02.801Z</time></trkpt><trkpt lat="41.2271195" lon="-7.8537805"><ele>618.6</ele><time>2026-04-26T10:17:04.791Z</time></trkpt><trkpt lat="41.2270173" lon="-7.8537904"><ele>617.8000000000001</ele><time>2026-04-26T10:17:06.79Z</time></trkpt><trkpt lat="41.2269101" lon="-7.8538387"><ele>617.0</ele><time>2026-04-26T10:17:08.794Z</time></trkpt><trkpt lat="41.2267886" lon="-7.8538952"><ele>617.0</ele><time>2026-04-26T10:17:10.793Z</time></trkpt><trkpt lat="41.2267286" lon="-7.8539291"><ele>617.0</ele><time>2026-04-26T10:17:11.796Z</time></trkpt><trkpt lat="41.226656" lon="-7.8539549"><ele>617.0</ele><time>2026-04-26T10:17:12.796Z</time></trkpt><trkpt lat="41.2265775" lon="-7.8539726"><ele>617.0</ele><time>2026-04-26T10:17:13.792Z</time></trkpt><trkpt lat="41.2264985" lon="-7.8539954"><ele>617.0</ele><time>2026-04-26T10:17:14.787Z</time></trkpt><trkpt lat="41.2264277" lon="-7.8540226"><ele>617.0</ele><time>2026-04-26T10:17:15.79Z</time></trkpt><trkpt lat="41.226315" lon="-7.8540787"><ele>617.8000000000001</ele><time>2026-04-26T10:17:17.803Z</time></trkpt><trkpt lat="41.2262077" lon="-7.8541201"><ele>618.6</ele><time>2026-04-26T10:17:19.791Z</time></trkpt><trkpt lat="41.2261085" lon="-7.8541645"><ele>619.4000000000001</ele><time>2026-04-26T10:17:21.797Z</time></trkpt><trkpt lat="41.2260235" lon="-7.8542301"><ele>620.2</ele><time>2026-04-26T10:17:23.796Z</time></trkpt><trkpt lat="41.2259597" lon="-7.8543063"><ele>621.0</ele><time>2026-04-26T10:17:25.793Z</time></trkpt><trkpt lat="41.2259163" lon="-7.8543982"><ele>621.0</ele><time>2026-04-26T10:17:27.797Z</time></trkpt><trkpt lat="41.2258862" lon="-7.8545333"><ele>621.0</ele><time>2026-04-26T10:17:30.804Z</time></trkpt><trkpt lat="41.225876" lon="-7.8546629"><ele>621.0</ele><time>2026-04-26T10:17:32.8Z</time></trkpt><trkpt lat="41.2258275" lon="-7.8547559"><ele>621.0</ele><time>2026-04-26T10:17:34.799Z</time></trkpt><trkpt lat="41.2257322" lon="-7.8547071"><ele>621.0</ele><time>2026-04-26T10:17:37.792Z</time></trkpt><trkpt lat="41.2256457" lon="-7.8546474"><ele>622.5</ele><time>2026-04-26T10:17:39.792Z</time></trkpt><trkpt lat="41.2255835" lon="-7.854613"><ele>624.0</ele><time>2026-04-26T10:17:40.797Z</time></trkpt><trkpt lat="41.2255056" lon="-7.8545769"><ele>625.5</ele><time>2026-04-26T10:17:41.791Z</time></trkpt><trkpt lat="41.2254388" lon="-7.8545259"><ele>627.0</ele><time>2026-04-26T10:17:42.793Z</time></trkpt><trkpt lat="41.2253757" lon="-7.8544543"><ele>628.5</ele><time>2026-04-26T10:17:43.799Z</time></trkpt><trkpt lat="41.2253047" lon="-7.8543927"><ele>630.0</ele><time>2026-04-26T10:17:44.792Z</time></trkpt><trkpt lat="41.2252323" lon="-7.8543603"><ele>630.0</ele><time>2026-04-26T10:17:45.792Z</time></trkpt><trkpt lat="41.225159" lon="-7.8543086"><ele>630.0</ele><time>2026-04-26T10:17:46.794Z</time></trkpt><trkpt lat="41.2250911" lon="-7.8542443"><ele>630.0</ele><time>2026-04-26T10:17:47.792Z</time></trkpt><trkpt lat="41.2250289" lon="-7.8541686"><ele>630.0</ele><time>2026-04-26T10:17:48.799Z</time></trkpt><trkpt lat="41.2249737" lon="-7.8541024"><ele>630.0</ele><time>2026-04-26T10:17:49.794Z</time></trkpt><trkpt lat="41.2249312" lon="-7.8540395"><ele>630.0</ele><time>2026-04-26T10:17:50.802Z</time></trkpt><trkpt lat="41.2248459" lon="-7.8539265"><ele>625.4</ele><time>2026-04-26T10:17:52.795Z</time></trkpt><trkpt lat="41.2247906" lon="-7.8538678"><ele>620.8</ele><time>2026-04-26T10:17:53.795Z</time></trkpt><trkpt lat="41.2246915" lon="-7.8537604"><ele>616.2</ele><time>2026-04-26T10:17:55.804Z</time></trkpt><trkpt lat="41.2246001" lon="-7.8536626"><ele>611.6</ele><time>2026-04-26T10:17:57.794Z</time></trkpt><trkpt lat="41.2245051" lon="-7.8536138"><ele>607.0</ele><time>2026-04-26T10:17:59.793Z</time></trkpt><trkpt lat="41.2244197" lon="-7.8535902"><ele>607.0</ele><time>2026-04-26T10:18:01.793Z</time></trkpt><trkpt lat="41.2243528" lon="-7.8535748"><ele>607.0</ele><time>2026-04-26T10:18:03.792Z</time></trkpt><trkpt lat="41.2243081" lon="-7.8536633"><ele>607.0</ele><time>2026-04-26T10:18:19.792Z</time></trkpt><trkpt lat="41.2242662" lon="-7.8537586"><ele>607.0</ele><time>2026-04-26T10:18:21.791Z</time></trkpt><trkpt lat="41.2242142" lon="-7.8538896"><ele>607.0</ele><time>2026-04-26T10:18:23.794Z</time></trkpt><trkpt lat="41.2241765" lon="-7.8540393"><ele>607.0</ele><time>2026-04-26T10:18:25.797Z</time></trkpt><trkpt lat="41.2241607" lon="-7.8541256"><ele>607.0</ele><time>2026-04-26T10:18:26.799Z</time></trkpt><trkpt lat="41.2241298" lon="-7.8542661"><ele>607.0</ele><time>2026-04-26T10:18:28.791Z</time></trkpt><trkpt lat="41.2241176" lon="-7.8543593"><ele>607.0</ele><time>2026-04-26T10:18:29.792Z</time></trkpt><trkpt lat="41.2240752" lon="-7.8545146"><ele>607.0</ele><time>2026-04-26T10:18:31.797Z</time></trkpt><trkpt lat="41.2240111" lon="-7.8546105"><ele>607.0</ele><time>2026-04-26T10:18:33.792Z</time></trkpt><trkpt lat="41.2239012" lon="-7.8545813"><ele>607.0</ele><time>2026-04-26T10:18:35.793Z</time></trkpt><trkpt lat="41.2238357" lon="-7.8545221"><ele>607.0</ele><time>2026-04-26T10:18:36.795Z</time></trkpt><trkpt lat="41.2237699" lon="-7.8544185"><ele>607.0</ele><time>2026-04-26T10:18:37.792Z</time></trkpt><trkpt lat="41.2237137" lon="-7.8543441"><ele>607.0</ele><time>2026-04-26T10:18:38.791Z</time></trkpt><trkpt lat="41.2236634" lon="-7.8542827"><ele>607.0</ele><time>2026-04-26T10:18:39.798Z</time></trkpt><trkpt lat="41.2236145" lon="-7.8542104"><ele>604.6666666666667</ele><time>2026-04-26T10:18:40.794Z</time></trkpt><trkpt lat="41.2235623" lon="-7.8541587"><ele>602.3333333333334</ele><time>2026-04-26T10:18:41.791Z</time></trkpt><trkpt lat="41.2235019" lon="-7.8540987"><ele>600.0</ele><time>2026-04-26T10:18:42.792Z</time></trkpt><trkpt lat="41.2231437" lon="-7.8538538"><ele>580.0</ele><time>2026-04-26T10:18:48.791Z</time></trkpt><trkpt lat="41.222204" lon="-7.8525371"><ele>580.0</ele><time>2026-04-26T10:19:13.804Z</time></trkpt></trkseg><trkseg><trkpt lat="41.2175092" lon="-7.8544623"><ele>457.99999999999994</ele><time>2026-04-26T10:23:18.008Z</time></trkpt><trkpt lat="41.2174442" lon="-7.8544444"><ele>458.0</ele><time>2026-04-26T10:23:21.004Z</time></trkpt><trkpt lat="41.2173724" lon="-7.8544529"><ele>458.0</ele><time>2026-04-26T10:23:26.01Z</time></trkpt><trkpt lat="41.2173111" lon="-7.8544821"><ele>458.0</ele><time>2026-04-26T10:23:29.009Z</time></trkpt><trkpt lat="41.2172226" lon="-7.8544793"><ele>457.99999999999994</ele><time>2026-04-26T10:23:31.005Z</time></trkpt><trkpt lat="41.21712" lon="-7.8544463"><ele>458.0</ele><time>2026-04-26T10:23:33.005Z</time></trkpt><trkpt lat="41.21705" lon="-7.8544067"><ele>458.66666666666663</ele><time>2026-04-26T10:23:35.013Z</time></trkpt><trkpt lat="41.2169901" lon="-7.8543699"><ele>459.3333333333333</ele><time>2026-04-26T10:23:37.015Z</time></trkpt><trkpt lat="41.2169367" lon="-7.8542816"><ele>460.0</ele><time>2026-04-26T10:23:40.005Z</time></trkpt><trkpt lat="41.2168684" lon="-7.8542255"><ele>460.66666666666663</ele><time>2026-04-26T10:23:42.005Z</time></trkpt><trkpt lat="41.216797" lon="-7.8541506"><ele>461.3333333333333</ele><time>2026-04-26T10:23:44.012Z</time></trkpt><trkpt lat="41.2167365" lon="-7.8540428"><ele>462.0</ele><time>2026-04-26T10:23:46.008Z</time></trkpt><trkpt lat="41.2166776" lon="-7.8539262"><ele>462.0</ele><time>2026-04-26T10:23:48.004Z</time></trkpt><trkpt lat="41.2166216" lon="-7.8538256"><ele>462.0</ele><time>2026-04-26T10:23:49.904Z</time></trkpt><trkpt lat="41.2166064" lon="-7.8537019"><ele>462.0</ele><time>2026-04-26T10:23:51.786Z</time></trkpt><trkpt lat="41.2165914" lon="-7.8535918"><ele>462.0</ele><time>2026-04-26T10:23:53.789Z</time></trkpt><trkpt lat="41.2165577" lon="-7.8534939"><ele>462.0</ele><time>2026-04-26T10:23:55.788Z</time></trkpt><trkpt lat="41.2164987" lon="-7.8533947"><ele>462.0</ele><time>2026-04-26T10:23:57.792Z</time></trkpt><trkpt lat="41.2164432" lon="-7.8533058"><ele>469.40000000000003</ele><time>2026-04-26T10:23:59.789Z</time></trkpt><trkpt lat="41.2163688" lon="-7.853219"><ele>476.80000000000007</ele><time>2026-04-26T10:24:01.8Z</time></trkpt><trkpt lat="41.2162856" lon="-7.8531465"><ele>484.2</ele><time>2026-04-26T10:24:03.789Z</time></trkpt><trkpt lat="41.216206" lon="-7.8530703"><ele>491.6</ele><time>2026-04-26T10:24:05.79Z</time></trkpt><trkpt lat="41.21611" lon="-7.8529741"><ele>499.0</ele><time>2026-04-26T10:24:07.802Z</time></trkpt><trkpt lat="41.2160435" lon="-7.8528772"><ele>499.00000000000006</ele><time>2026-04-26T10:24:09.788Z</time></trkpt><trkpt lat="41.2160111" lon="-7.8527658"><ele>499.0</ele><time>2026-04-26T10:24:11.789Z</time></trkpt><trkpt lat="41.2159922" lon="-7.8526536"><ele>499.0</ele><time>2026-04-26T10:24:13.794Z</time></trkpt><trkpt lat="41.2159692" lon="-7.8525359"><ele>499.0</ele><time>2026-04-26T10:24:15.79Z</time></trkpt><trkpt lat="41.2159636" lon="-7.8524314"><ele>499.00000000000006</ele><time>2026-04-26T10:24:17.787Z</time></trkpt><trkpt lat="41.2159619" lon="-7.852334"><ele>499.0</ele><time>2026-04-26T10:24:19.788Z</time></trkpt><trkpt lat="41.2159717" lon="-7.8522123"><ele>498.00000000000006</ele><time>2026-04-26T10:24:22.787Z</time></trkpt><trkpt lat="41.2159732" lon="-7.8521088"><ele>497.0</ele><time>2026-04-26T10:24:25.787Z</time></trkpt><trkpt lat="41.2159487" lon="-7.8520228"><ele>496.0</ele><time>2026-04-26T10:24:28.791Z</time></trkpt><trkpt lat="41.2159283" lon="-7.8519088"><ele>495.0</ele><time>2026-04-26T10:24:30.798Z</time></trkpt><trkpt lat="41.2159238" lon="-7.8518011"><ele>494.00000000000006</ele><time>2026-04-26T10:24:31.789Z</time></trkpt><trkpt lat="41.2159165" lon="-7.8517046"><ele>493.0</ele><time>2026-04-26T10:24:32.799Z</time></trkpt><trkpt lat="41.2159049" lon="-7.8516216"><ele>491.83333333333337</ele><time>2026-04-26T10:24:33.793Z</time></trkpt><trkpt lat="41.215897" lon="-7.8515338"><ele>490.6666666666667</ele><time>2026-04-26T10:24:34.789Z</time></trkpt><trkpt lat="41.2158742" lon="-7.8514327"><ele>489.5</ele><time>2026-04-26T10:24:35.79Z</time></trkpt><trkpt lat="41.2158578" lon="-7.8513478"><ele>488.33333333333337</ele><time>2026-04-26T10:24:36.783Z</time></trkpt><trkpt lat="41.2158338" lon="-7.8512646"><ele>487.1666666666667</ele><time>2026-04-26T10:24:37.79Z</time></trkpt><trkpt lat="41.2157904" lon="-7.8511148"><ele>486.0</ele><time>2026-04-26T10:24:39.787Z</time></trkpt><trkpt lat="41.2157581" lon="-7.8510323"><ele>485.3333333333333</ele><time>2026-04-26T10:24:40.791Z</time></trkpt><trkpt lat="41.2157308" lon="-7.8509486"><ele>484.66666666666663</ele><time>2026-04-26T10:24:41.791Z</time></trkpt><trkpt lat="41.2157083" lon="-7.8508599"><ele>484.0</ele><time>2026-04-26T10:24:42.788Z</time></trkpt><trkpt lat="41.2156843" lon="-7.8507668"><ele>483.3333333333333</ele><time>2026-04-26T10:24:43.792Z</time></trkpt><trkpt lat="41.2156575" lon="-7.8506754"><ele>482.66666666666663</ele><time>2026-04-26T10:24:44.792Z</time></trkpt><trkpt lat="41.2156124" lon="-7.8505834"><ele>482.0</ele><time>2026-04-26T10:24:45.788Z</time></trkpt><trkpt lat="41.215547" lon="-7.8504996"><ele>481.6</ele><time>2026-04-26T10:24:46.789Z</time></trkpt><trkpt lat="41.215484" lon="-7.8504146"><ele>481.20000000000005</ele><time>2026-04-26T10:24:47.792Z</time></trkpt><trkpt lat="41.2154098" lon="-7.8503365"><ele>480.8</ele><time>2026-04-26T10:24:48.785Z</time></trkpt><trkpt lat="41.2153242" lon="-7.8502597"><ele>480.4</ele><time>2026-04-26T10:24:49.79Z</time></trkpt><trkpt lat="41.2152347" lon="-7.8501824"><ele>480.0</ele><time>2026-04-26T10:24:50.791Z</time></trkpt><trkpt lat="41.2151531" lon="-7.8501037"><ele>480.0</ele><time>2026-04-26T10:24:51.787Z</time></trkpt><trkpt lat="41.2150687" lon="-7.8500377"><ele>480.0</ele><time>2026-04-26T10:24:52.793Z</time></trkpt><trkpt lat="41.2149867" lon="-7.8499768"><ele>480.0</ele><time>2026-04-26T10:24:53.792Z</time></trkpt><trkpt lat="41.2149065" lon="-7.8499126"><ele>480.0</ele><time>2026-04-26T10:24:54.789Z</time></trkpt><trkpt lat="41.214824" lon="-7.8498589"><ele>480.0</ele><time>2026-04-26T10:24:55.79Z</time></trkpt><trkpt lat="41.2147545" lon="-7.8497989"><ele>480.8333333333333</ele><time>2026-04-26T10:24:56.804Z</time></trkpt><trkpt lat="41.214683" lon="-7.8497459"><ele>481.66666666666663</ele><time>2026-04-26T10:24:57.784Z</time></trkpt><trkpt lat="41.214615" lon="-7.849698"><ele>482.5</ele><time>2026-04-26T10:24:58.788Z</time></trkpt><trkpt lat="41.2145582" lon="-7.8496427"><ele>483.3333333333333</ele><time>2026-04-26T10:24:59.784Z</time></trkpt><trkpt lat="41.2145024" lon="-7.8495906"><ele>484.16666666666663</ele><time>2026-04-26T10:25:00.791Z</time></trkpt><trkpt lat="41.2144118" lon="-7.8495007"><ele>485.0</ele><time>2026-04-26T10:25:02.796Z</time></trkpt><trkpt lat="41.214366" lon="-7.8494386"><ele>484.99999999999994</ele><time>2026-04-26T10:25:04.791Z</time></trkpt><trkpt lat="41.2143528" lon="-7.8495661"><ele>485.0</ele><time>2026-04-26T10:25:12.797Z</time></trkpt><trkpt lat="41.2143522" lon="-7.8497165"><ele>485.0</ele><time>2026-04-26T10:25:14.788Z</time></trkpt><trkpt lat="41.2143527" lon="-7.8498085"><ele>485.0</ele><time>2026-04-26T10:25:15.795Z</time></trkpt><trkpt lat="41.2143579" lon="-7.8499047"><ele>484.99999999999994</ele><time>2026-04-26T10:25:16.797Z</time></trkpt><trkpt lat="41.2143568" lon="-7.8500061"><ele>485.0</ele><time>2026-04-26T10:25:17.792Z</time></trkpt><trkpt lat="41.2143593" lon="-7.8501146"><ele>488.4</ele><time>2026-04-26T10:25:18.796Z</time></trkpt><trkpt lat="41.2143508" lon="-7.8502291"><ele>491.8</ele><time>2026-04-26T10:25:19.789Z</time></trkpt><trkpt lat="41.2143672" lon="-7.8503389"><ele>495.20000000000005</ele><time>2026-04-26T10:25:20.786Z</time></trkpt><trkpt lat="41.2143814" lon="-7.8504243"><ele>498.6</ele><time>2026-04-26T10:25:21.792Z</time></trkpt><trkpt lat="41.2143982" lon="-7.8505672"><ele>502.0</ele><time>2026-04-26T10:25:23.785Z</time></trkpt><trkpt lat="41.2144388" lon="-7.8507272"><ele>502.00000000000006</ele><time>2026-04-26T10:25:25.79Z</time></trkpt><trkpt lat="41.2144966" lon="-7.850879"><ele>502.0</ele><time>2026-04-26T10:25:27.79Z</time></trkpt><trkpt lat="41.2145311" lon="-7.8509602"><ele>502.0</ele><time>2026-04-26T10:25:28.787Z</time></trkpt><trkpt lat="41.2145616" lon="-7.8510509"><ele>502.0</ele><time>2026-04-26T10:25:29.787Z</time></trkpt><trkpt lat="41.2145844" lon="-7.8511555"><ele>502.00000000000006</ele><time>2026-04-26T10:25:30.794Z</time></trkpt><trkpt lat="41.2145967" lon="-7.8512537"><ele>502.0</ele><time>2026-04-26T10:25:31.799Z</time></trkpt><trkpt lat="41.2146121" lon="-7.8513477"><ele>505.6666666666667</ele><time>2026-04-26T10:25:32.794Z</time></trkpt><trkpt lat="41.2146686" lon="-7.8514635"><ele>509.33333333333337</ele><time>2026-04-26T10:25:34.794Z</time></trkpt><trkpt lat="41.2146546" lon="-7.851569"><ele>513.0</ele><time>2026-04-26T10:25:36.787Z</time></trkpt><trkpt lat="41.2146296" lon="-7.8516716"><ele>516.6666666666666</ele><time>2026-04-26T10:25:39.791Z</time></trkpt><trkpt lat="41.214627" lon="-7.8517862"><ele>520.3333333333333</ele><time>2026-04-26T10:25:53.785Z</time></trkpt><trkpt lat="41.2145589" lon="-7.851877"><ele>524.0</ele><time>2026-04-26T10:25:56.791Z</time></trkpt><trkpt lat="41.2144867" lon="-7.8520253"><ele>529.0</ele><time>2026-04-26T10:25:58.788Z</time></trkpt><trkpt lat="41.2144217" lon="-7.8521395"><ele>534.0</ele><time>2026-04-26T10:26:00.788Z</time></trkpt><trkpt lat="41.2143901" lon="-7.8522277"><ele>539.0</ele><time>2026-04-26T10:26:01.792Z</time></trkpt><trkpt lat="41.2143839" lon="-7.8523612"><ele>544.0</ele><time>2026-04-26T10:26:02.789Z</time></trkpt><trkpt lat="41.2143638" lon="-7.8524723"><ele>549.0</ele><time>2026-04-26T10:26:03.789Z</time></trkpt><trkpt lat="41.2143343" lon="-7.8526314"><ele>550.3333333333334</ele><time>2026-04-26T10:26:05.793Z</time></trkpt><trkpt lat="41.2143445" lon="-7.8527294"><ele>551.6666666666666</ele><time>2026-04-26T10:26:06.796Z</time></trkpt><trkpt lat="41.2143412" lon="-7.8528336"><ele>553.0</ele><time>2026-04-26T10:26:07.789Z</time></trkpt><trkpt lat="41.214324" lon="-7.8529397"><ele>554.3333333333333</ele><time>2026-04-26T10:26:08.796Z</time></trkpt><trkpt lat="41.2142942" lon="-7.8530521"><ele>555.6666666666666</ele><time>2026-04-26T10:26:09.787Z</time></trkpt><trkpt lat="41.2142585" lon="-7.8531634"><ele>557.0</ele><time>2026-04-26T10:26:10.788Z</time></trkpt><trkpt lat="41.2142195" lon="-7.853269"><ele>557.0</ele><time>2026-04-26T10:26:11.798Z</time></trkpt><trkpt lat="41.2141816" lon="-7.853368"><ele>557.0</ele><time>2026-04-26T10:26:12.79Z</time></trkpt><trkpt lat="41.2141448" lon="-7.8534628"><ele>557.0</ele><time>2026-04-26T10:26:13.786Z</time></trkpt><trkpt lat="41.2141054" lon="-7.853552"><ele>557.0</ele><time>2026-04-26T10:26:14.791Z</time></trkpt><trkpt lat="41.214063" lon="-7.8536335"><ele>557.0</ele><time>2026-04-26T10:26:15.79Z</time></trkpt><trkpt lat="41.2140198" lon="-7.8537237"><ele>557.0</ele><time>2026-04-26T10:26:16.787Z</time></trkpt><trkpt lat="41.2139766" lon="-7.8538139"><ele>560.1666666666666</ele><time>2026-04-26T10:26:17.788Z</time></trkpt><trkpt lat="41.2139351" lon="-7.8539007"><ele>563.3333333333333</ele><time>2026-04-26T10:26:18.792Z</time></trkpt><trkpt lat="41.2138991" lon="-7.8539938"><ele>566.5</ele><time>2026-04-26T10:26:19.795Z</time></trkpt><trkpt lat="41.21386" lon="-7.854085"><ele>569.6666666666666</ele><time>2026-04-26T10:26:20.786Z</time></trkpt><trkpt lat="41.213817" lon="-7.8541648"><ele>572.8333333333334</ele><time>2026-04-26T10:26:21.785Z</time></trkpt><trkpt lat="41.2137852" lon="-7.8542373"><ele>576.0</ele><time>2026-04-26T10:26:22.796Z</time></trkpt><trkpt lat="41.2137417" lon="-7.8543306"><ele>578.0</ele><time>2026-04-26T10:26:23.789Z</time></trkpt><trkpt lat="41.2136972" lon="-7.854417"><ele>580.0</ele><time>2026-04-26T10:26:24.788Z</time></trkpt><trkpt lat="41.2136571" lon="-7.854511"><ele>582.0</ele><time>2026-04-26T10:26:25.799Z</time></trkpt><trkpt lat="41.2136132" lon="-7.8546186"><ele>584.0</ele><time>2026-04-26T10:26:26.788Z</time></trkpt><trkpt lat="41.2135777" lon="-7.8547178"><ele>586.0</ele><time>2026-04-26T10:26:27.792Z</time></trkpt><trkpt lat="41.2135484" lon="-7.8548104"><ele>588.0</ele><time>2026-04-26T10:26:28.787Z</time></trkpt><trkpt lat="41.2135313" lon="-7.8549053"><ele>588.0</ele><time>2026-04-26T10:26:29.793Z</time></trkpt><trkpt lat="41.2135292" lon="-7.8550092"><ele>588.0</ele><time>2026-04-26T10:26:30.789Z</time></trkpt><trkpt lat="41.2135299" lon="-7.8551081"><ele>588.0</ele><time>2026-04-26T10:26:31.791Z</time></trkpt><trkpt lat="41.2135338" lon="-7.8552008"><ele>588.0</ele><time>2026-04-26T10:26:32.791Z</time></trkpt><trkpt lat="41.2135478" lon="-7.8553026"><ele>588.0</ele><time>2026-04-26T10:26:33.787Z</time></trkpt><trkpt lat="41.2135591" lon="-7.8554136"><ele>588.0</ele><time>2026-04-26T10:26:34.792Z</time></trkpt><trkpt lat="41.2135663" lon="-7.8555218"><ele>588.8333333333334</ele><time>2026-04-26T10:26:35.79Z</time></trkpt><trkpt lat="41.2135826" lon="-7.8556268"><ele>589.6666666666666</ele><time>2026-04-26T10:26:36.782Z</time></trkpt><trkpt lat="41.2135959" lon="-7.8557288"><ele>590.5</ele><time>2026-04-26T10:26:37.786Z</time></trkpt><trkpt lat="41.2135989" lon="-7.8558331"><ele>591.3333333333333</ele><time>2026-04-26T10:26:38.788Z</time></trkpt><trkpt lat="41.2135981" lon="-7.8559334"><ele>592.1666666666666</ele><time>2026-04-26T10:26:39.788Z</time></trkpt><trkpt lat="41.2135923" lon="-7.8560305"><ele>593.0</ele><time>2026-04-26T10:26:40.789Z</time></trkpt><trkpt lat="41.2135839" lon="-7.8561272"><ele>595.8333333333333</ele><time>2026-04-26T10:26:41.791Z</time></trkpt><trkpt lat="41.2135778" lon="-7.8562178"><ele>598.6666666666666</ele><time>2026-04-26T10:26:42.786Z</time></trkpt><trkpt lat="41.213578" lon="-7.856386"><ele>601.5</ele><time>2026-04-26T10:26:44.781Z</time></trkpt><trkpt lat="41.213587" lon="-7.8564808"><ele>604.3333333333334</ele><time>2026-04-26T10:26:45.79Z</time></trkpt><trkpt lat="41.213598" lon="-7.8565682"><ele>607.1666666666667</ele><time>2026-04-26T10:26:46.787Z</time></trkpt><trkpt lat="41.2136396" lon="-7.8567112"><ele>610.0</ele><time>2026-04-26T10:26:48.786Z</time></trkpt><trkpt lat="41.2137257" lon="-7.8568123"><ele>613.1666666666667</ele><time>2026-04-26T10:26:50.789Z</time></trkpt><trkpt lat="41.2137881" lon="-7.8568369"><ele>616.3333333333334</ele><time>2026-04-26T10:26:51.785Z</time></trkpt><trkpt lat="41.2138546" lon="-7.8568502"><ele>619.5</ele><time>2026-04-26T10:26:52.793Z</time></trkpt><trkpt lat="41.2139274" lon="-7.8568867"><ele>622.6666666666666</ele><time>2026-04-26T10:26:53.788Z</time></trkpt><trkpt lat="41.2140018" lon="-7.8569472"><ele>625.8333333333333</ele><time>2026-04-26T10:26:54.787Z</time></trkpt><trkpt lat="41.2140685" lon="-7.8570268"><ele>629.0</ele><time>2026-04-26T10:26:55.792Z</time></trkpt><trkpt lat="41.2141343" lon="-7.8571256"><ele>629.1666666666666</ele><time>2026-04-26T10:26:56.787Z</time></trkpt><trkpt lat="41.2141815" lon="-7.8572269"><ele>629.3333333333333</ele><time>2026-04-26T10:26:57.792Z</time></trkpt><trkpt lat="41.2142019" lon="-7.8573331"><ele>629.5</ele><time>2026-04-26T10:26:58.795Z</time></trkpt><trkpt lat="41.2142143" lon="-7.8574465"><ele>629.6666666666666</ele><time>2026-04-26T10:26:59.787Z</time></trkpt><trkpt lat="41.2142195" lon="-7.8575601"><ele>629.8333333333334</ele><time>2026-04-26T10:27:00.788Z</time></trkpt><trkpt lat="41.2142186" lon="-7.8576654"><ele>630.0</ele><time>2026-04-26T10:27:01.791Z</time></trkpt><trkpt lat="41.2141956" lon="-7.8577548"><ele>631.6</ele><time>2026-04-26T10:27:02.782Z</time></trkpt><trkpt lat="41.2141318" lon="-7.8578933"><ele>633.2</ele><time>2026-04-26T10:27:04.792Z</time></trkpt><trkpt lat="41.2140384" lon="-7.8579872"><ele>634.8</ele><time>2026-04-26T10:27:06.795Z</time></trkpt><trkpt lat="41.2139675" lon="-7.8581163"><ele>636.4</ele><time>2026-04-26T10:27:08.787Z</time></trkpt><trkpt lat="41.213949" lon="-7.8581973"><ele>638.0</ele><time>2026-04-26T10:27:09.788Z</time></trkpt><trkpt lat="41.2139305" lon="-7.8582853"><ele>638.6666666666666</ele><time>2026-04-26T10:27:10.79Z</time></trkpt><trkpt lat="41.2139169" lon="-7.8583764"><ele>639.3333333333333</ele><time>2026-04-26T10:27:11.793Z</time></trkpt><trkpt lat="41.2138972" lon="-7.8584873"><ele>640.0</ele><time>2026-04-26T10:27:12.793Z</time></trkpt><trkpt lat="41.2138726" lon="-7.8585999"><ele>640.6666666666666</ele><time>2026-04-26T10:27:13.807Z</time></trkpt><trkpt lat="41.2138614" lon="-7.8587045"><ele>641.3333333333334</ele><time>2026-04-26T10:27:14.789Z</time></trkpt><trkpt lat="41.2138392" lon="-7.8587997"><ele>642.0</ele><time>2026-04-26T10:27:15.789Z</time></trkpt><trkpt lat="41.2138156" lon="-7.8588922"><ele>644.2857142857142</ele><time>2026-04-26T10:27:16.788Z</time></trkpt><trkpt lat="41.213776" lon="-7.8589636"><ele>646.5714285714286</ele><time>2026-04-26T10:27:17.792Z</time></trkpt><trkpt lat="41.2137267" lon="-7.859039"><ele>648.8571428571429</ele><time>2026-04-26T10:27:18.786Z</time></trkpt><trkpt lat="41.2136779" lon="-7.8591286"><ele>651.1428571428571</ele><time>2026-04-26T10:27:19.79Z</time></trkpt><trkpt lat="41.2136323" lon="-7.859203"><ele>653.4285714285714</ele><time>2026-04-26T10:27:20.786Z</time></trkpt><trkpt lat="41.2135941" lon="-7.8592849"><ele>655.7142857142857</ele><time>2026-04-26T10:27:21.787Z</time></trkpt><trkpt lat="41.2135595" lon="-7.8593786"><ele>658.0</ele><time>2026-04-26T10:27:22.802Z</time></trkpt><trkpt lat="41.2135319" lon="-7.8595006"><ele>660.3333333333334</ele><time>2026-04-26T10:27:23.787Z</time></trkpt><trkpt lat="41.2134994" lon="-7.8596277"><ele>662.6666666666667</ele><time>2026-04-26T10:27:24.789Z</time></trkpt><trkpt lat="41.2134666" lon="-7.8597498"><ele>665.0</ele><time>2026-04-26T10:27:25.799Z</time></trkpt><trkpt lat="41.213439" lon="-7.8598575"><ele>667.3333333333334</ele><time>2026-04-26T10:27:26.786Z</time></trkpt><trkpt lat="41.2134177" lon="-7.8599508"><ele>669.6666666666666</ele><time>2026-04-26T10:27:27.786Z</time></trkpt><trkpt lat="41.2133848" lon="-7.8600426"><ele>672.0</ele><time>2026-04-26T10:27:28.786Z</time></trkpt><trkpt lat="41.2133417" lon="-7.8601113"><ele>672.0</ele><time>2026-04-26T10:27:29.789Z</time></trkpt><trkpt lat="41.2132172" lon="-7.860162"><ele>672.0</ele><time>2026-04-26T10:27:31.79Z</time></trkpt><trkpt lat="41.2131421" lon="-7.8601865"><ele>672.0</ele><time>2026-04-26T10:27:32.787Z</time></trkpt><trkpt lat="41.213074" lon="-7.8602261"><ele>672.0</ele><time>2026-04-26T10:27:33.788Z</time></trkpt><trkpt lat="41.2130027" lon="-7.8602846"><ele>672.0</ele><time>2026-04-26T10:27:34.787Z</time></trkpt><trkpt lat="41.2129295" lon="-7.8603476"><ele>672.0</ele><time>2026-04-26T10:27:35.789Z</time></trkpt><trkpt lat="41.2128576" lon="-7.8604101"><ele>672.0</ele><time>2026-04-26T10:27:36.794Z</time></trkpt><trkpt lat="41.2127845" lon="-7.8604835"><ele>672.0</ele><time>2026-04-26T10:27:37.798Z</time></trkpt><trkpt lat="41.212714" lon="-7.8605653"><ele>672.0</ele><time>2026-04-26T10:27:38.79Z</time></trkpt><trkpt lat="41.2126421" lon="-7.8606598"><ele>672.0</ele><time>2026-04-26T10:27:39.785Z</time></trkpt><trkpt lat="41.2125654" lon="-7.8607583"><ele>672.0</ele><time>2026-04-26T10:27:40.795Z</time></trkpt><trkpt lat="41.2124971" lon="-7.8608661"><ele>672.0</ele><time>2026-04-26T10:27:41.794Z</time></trkpt><trkpt lat="41.2124464" lon="-7.8609607"><ele>672.0</ele><time>2026-04-26T10:27:42.787Z</time></trkpt><trkpt lat="41.2124214" lon="-7.8610589"><ele>672.0</ele><time>2026-04-26T10:27:43.792Z</time></trkpt><trkpt lat="41.2124165" lon="-7.8611445"><ele>672.0</ele><time>2026-04-26T10:27:44.789Z</time></trkpt><trkpt lat="41.2124355" lon="-7.8612341"><ele>672.0</ele><time>2026-04-26T10:27:45.787Z</time></trkpt><trkpt lat="41.2124431" lon="-7.8613331"><ele>672.8333333333334</ele><time>2026-04-26T10:27:46.798Z</time></trkpt><trkpt lat="41.2124814" lon="-7.8614906"><ele>673.6666666666666</ele><time>2026-04-26T10:27:48.787Z</time></trkpt><trkpt lat="41.2125214" lon="-7.8615831"><ele>674.5</ele><time>2026-04-26T10:27:49.786Z</time></trkpt><trkpt lat="41.212554" lon="-7.8616691"><ele>675.3333333333333</ele><time>2026-04-26T10:27:50.79Z</time></trkpt><trkpt lat="41.2125925" lon="-7.8617507"><ele>676.1666666666666</ele><time>2026-04-26T10:27:51.797Z</time></trkpt><trkpt lat="41.2126144" lon="-7.861844"><ele>677.0</ele><time>2026-04-26T10:27:52.79Z</time></trkpt><trkpt lat="41.2126278" lon="-7.8619388"><ele>677.8333333333333</ele><time>2026-04-26T10:27:53.786Z</time></trkpt><trkpt lat="41.2126281" lon="-7.8620372"><ele>678.6666666666666</ele><time>2026-04-26T10:27:54.781Z</time></trkpt><trkpt lat="41.2126224" lon="-7.8621406"><ele>679.5</ele><time>2026-04-26T10:27:55.79Z</time></trkpt><trkpt lat="41.2126152" lon="-7.8622418"><ele>680.3333333333334</ele><time>2026-04-26T10:27:56.799Z</time></trkpt><trkpt lat="41.2126155" lon="-7.8623468"><ele>681.1666666666667</ele><time>2026-04-26T10:27:57.793Z</time></trkpt><trkpt lat="41.212619" lon="-7.862453"><ele>682.0</ele><time>2026-04-26T10:27:58.789Z</time></trkpt><trkpt lat="41.2126211" lon="-7.8625634"><ele>682.1666666666667</ele><time>2026-04-26T10:27:59.793Z</time></trkpt><trkpt lat="41.2126248" lon="-7.8626741"><ele>682.3333333333334</ele><time>2026-04-26T10:28:00.792Z</time></trkpt><trkpt lat="41.2126222" lon="-7.8627844"><ele>682.5</ele><time>2026-04-26T10:28:01.788Z</time></trkpt><trkpt lat="41.2126207" lon="-7.8629025"><ele>682.6666666666666</ele><time>2026-04-26T10:28:02.795Z</time></trkpt><trkpt lat="41.2126251" lon="-7.8630153"><ele>682.8333333333333</ele><time>2026-04-26T10:28:03.793Z</time></trkpt><trkpt lat="41.212625" lon="-7.8631229"><ele>683.0</ele><time>2026-04-26T10:28:04.794Z</time></trkpt><trkpt lat="41.2126332" lon="-7.8632399"><ele>683.0</ele><time>2026-04-26T10:28:05.784Z</time></trkpt><trkpt lat="41.2126392" lon="-7.8633614"><ele>683.0</ele><time>2026-04-26T10:28:06.791Z</time></trkpt><trkpt lat="41.2126537" lon="-7.8634783"><ele>683.0</ele><time>2026-04-26T10:28:07.788Z</time></trkpt><trkpt lat="41.2126806" lon="-7.8636089"><ele>683.0</ele><time>2026-04-26T10:28:08.792Z</time></trkpt><trkpt lat="41.2127154" lon="-7.8637391"><ele>683.0</ele><time>2026-04-26T10:28:09.789Z</time></trkpt><trkpt lat="41.2127469" lon="-7.863853"><ele>684.0</ele><time>2026-04-26T10:28:10.786Z</time></trkpt><trkpt lat="41.2127745" lon="-7.863941"><ele>685.0</ele><time>2026-04-26T10:28:11.787Z</time></trkpt><trkpt lat="41.2128053" lon="-7.8640426"><ele>686.0</ele><time>2026-04-26T10:28:13.787Z</time></trkpt><trkpt lat="41.2127901" lon="-7.8639612"><ele>687.0</ele><time>2026-04-26T10:28:37.783Z</time></trkpt><trkpt lat="41.2128516" lon="-7.8640264"><ele>688.0</ele><time>2026-04-26T10:28:51.786Z</time></trkpt><trkpt lat="41.2129236" lon="-7.8640963"><ele>689.0</ele><time>2026-04-26T10:28:53.781Z</time></trkpt><trkpt lat="41.2130046" lon="-7.8642098"><ele>689.0</ele><time>2026-04-26T10:28:55.787Z</time></trkpt><trkpt lat="41.2130482" lon="-7.8642787"><ele>689.0</ele><time>2026-04-26T10:28:56.784Z</time></trkpt><trkpt lat="41.2131028" lon="-7.8643591"><ele>689.0</ele><time>2026-04-26T10:28:57.786Z</time></trkpt><trkpt lat="41.2131434" lon="-7.864442"><ele>689.0</ele><time>2026-04-26T10:28:58.786Z</time></trkpt><trkpt lat="41.2131743" lon="-7.8645282"><ele>689.0</ele><time>2026-04-26T10:28:59.782Z</time></trkpt><trkpt lat="41.2132127" lon="-7.8646037"><ele>689.0</ele><time>2026-04-26T10:29:00.79Z</time></trkpt><trkpt lat="41.213246" lon="-7.8646777"><ele>689.0</ele><time>2026-04-26T10:29:01.785Z</time></trkpt><trkpt lat="41.2132787" lon="-7.8647493"><ele>692.5</ele><time>2026-04-26T10:29:02.779Z</time></trkpt><trkpt lat="41.2133201" lon="-7.8648169"><ele>696.0</ele><time>2026-04-26T10:29:03.784Z</time></trkpt><trkpt lat="41.2134152" lon="-7.8649141"><ele>699.5</ele><time>2026-04-26T10:29:05.784Z</time></trkpt><trkpt lat="41.213465" lon="-7.8649792"><ele>703.0</ele><time>2026-04-26T10:29:06.788Z</time></trkpt><trkpt lat="41.2135098" lon="-7.8650427"><ele>706.5</ele><time>2026-04-26T10:29:07.785Z</time></trkpt><trkpt lat="41.2135475" lon="-7.8651118"><ele>710.0</ele><time>2026-04-26T10:29:08.792Z</time></trkpt><trkpt lat="41.2135968" lon="-7.8652507"><ele>714.75</ele><time>2026-04-26T10:29:10.789Z</time></trkpt><trkpt lat="41.2136084" lon="-7.8653934"><ele>719.5</ele><time>2026-04-26T10:29:12.784Z</time></trkpt><trkpt lat="41.2136029" lon="-7.8655346"><ele>724.25</ele><time>2026-04-26T10:29:14.795Z</time></trkpt><trkpt lat="41.2135969" lon="-7.8656926"><ele>729.0</ele><time>2026-04-26T10:29:16.782Z</time></trkpt><trkpt lat="41.2135957" lon="-7.8658585"><ele>729.0</ele><time>2026-04-26T10:29:18.788Z</time></trkpt><trkpt lat="41.2135984" lon="-7.8659441"><ele>729.0</ele><time>2026-04-26T10:29:19.788Z</time></trkpt><trkpt lat="41.2135906" lon="-7.8660349"><ele>729.0</ele><time>2026-04-26T10:29:21.795Z</time></trkpt><trkpt lat="41.2136638" lon="-7.8661082"><ele>729.0</ele><time>2026-04-26T10:29:27.787Z</time></trkpt><trkpt lat="41.2137367" lon="-7.8661824"><ele>729.0</ele><time>2026-04-26T10:29:29.783Z</time></trkpt><trkpt lat="41.2138002" lon="-7.8662279"><ele>729.0</ele><time>2026-04-26T10:29:31.793Z</time></trkpt><trkpt lat="41.2138317" lon="-7.8663162"><ele>731.5</ele><time>2026-04-26T10:29:39.791Z</time></trkpt><trkpt lat="41.2138525" lon="-7.8664093"><ele>734.0</ele><time>2026-04-26T10:29:41.789Z</time></trkpt><trkpt lat="41.2138591" lon="-7.8665053"><ele>736.5</ele><time>2026-04-26T10:29:43.791Z</time></trkpt><trkpt lat="41.2138514" lon="-7.8666055"><ele>739.0</ele><time>2026-04-26T10:39:45.793Z</time></trkpt><trkpt lat="41.2138407" lon="-7.8667303"><ele>741.5</ele><time>2026-04-26T10:39:47.783Z</time></trkpt><trkpt lat="41.2138218" lon="-7.8668743"><ele>744.0</ele><time>2026-04-26T10:39:49.781Z</time></trkpt><trkpt lat="41.2137861" lon="-7.8670066"><ele>746.8000000000001</ele><time>2026-04-26T10:39:51.78Z</time></trkpt><trkpt lat="41.2137486" lon="-7.8671531"><ele>749.6</ele><time>2026-04-26T10:39:53.782Z</time></trkpt><trkpt lat="41.2137494" lon="-7.8672379"><ele>752.4</ele><time>2026-04-26T10:39:54.781Z</time></trkpt><trkpt lat="41.21374" lon="-7.8673834"><ele>755.2</ele><time>2026-04-26T10:39:56.786Z</time></trkpt><trkpt lat="41.2137231" lon="-7.8675057"><ele>758.0</ele><time>2026-04-26T10:39:58.784Z</time></trkpt><trkpt lat="41.213679" lon="-7.8676363"><ele>761.4</ele><time>2026-04-26T10:40:00.779Z</time></trkpt><trkpt lat="41.2136334" lon="-7.8677449"><ele>764.8</ele><time>2026-04-26T10:40:02.786Z</time></trkpt><trkpt lat="41.2135259" lon="-7.8678577"><ele>768.2</ele><time>2026-04-26T10:40:04.781Z</time></trkpt><trkpt lat="41.2134392" lon="-7.8679339"><ele>771.6</ele><time>2026-04-26T10:40:06.786Z</time></trkpt><trkpt lat="41.2133794" lon="-7.8680543"><ele>775.0</ele><time>2026-04-26T10:40:08.788Z</time></trkpt><trkpt lat="41.2133259" lon="-7.8681734"><ele>774.9999999999999</ele><time>2026-04-26T10:40:10.784Z</time></trkpt><trkpt lat="41.2132943" lon="-7.8682466"><ele>775.0</ele><time>2026-04-26T10:40:11.78Z</time></trkpt><trkpt lat="41.2132455" lon="-7.8683952"><ele>775.0</ele><time>2026-04-26T10:40:13.782Z</time></trkpt><trkpt lat="41.213216" lon="-7.8684754"><ele>775.0</ele><time>2026-04-26T10:40:14.781Z</time></trkpt><trkpt lat="41.2131789" lon="-7.8685673"><ele>774.9999999999999</ele><time>2026-04-26T10:40:15.789Z</time></trkpt><trkpt lat="41.2131248" lon="-7.8686688"><ele>775.0</ele><time>2026-04-26T10:40:16.785Z</time></trkpt><trkpt lat="41.2130786" lon="-7.8687573"><ele>778.9999999999999</ele><time>2026-04-26T10:40:17.78Z</time></trkpt><trkpt lat="41.2130225" lon="-7.8688565"><ele>783.0</ele><time>2026-04-26T10:40:18.789Z</time></trkpt><trkpt lat="41.2129693" lon="-7.8689626"><ele>787.0</ele><time>2026-04-26T10:40:19.782Z</time></trkpt><trkpt lat="41.2129227" lon="-7.8690597"><ele>791.0</ele><time>2026-04-26T10:40:20.778Z</time></trkpt><trkpt lat="41.2128724" lon="-7.8691481"><ele>794.9999999999999</ele><time>2026-04-26T10:40:21.788Z</time></trkpt><trkpt lat="41.2128245" lon="-7.8692339"><ele>799.0</ele><time>2026-04-26T10:40:22.782Z</time></trkpt><trkpt lat="41.2127873" lon="-7.8693213"><ele>800.8333333333333</ele><time>2026-04-26T10:40:23.782Z</time></trkpt><trkpt lat="41.2127547" lon="-7.8694086"><ele>802.6666666666666</ele><time>2026-04-26T10:40:24.784Z</time></trkpt><trkpt lat="41.212719" lon="-7.8694937"><ele>804.5</ele><time>2026-04-26T10:40:25.783Z</time></trkpt><trkpt lat="41.212693" lon="-7.8695858"><ele>806.3333333333333</ele><time>2026-04-26T10:40:26.782Z</time></trkpt><trkpt lat="41.2126618" lon="-7.8696648"><ele>808.1666666666666</ele><time>2026-04-26T10:40:27.776Z</time></trkpt><trkpt lat="41.2126274" lon="-7.8697393"><ele>810.0</ele><time>2026-04-26T10:40:28.783Z</time></trkpt><trkpt lat="41.2125454" lon="-7.8698635"><ele>809.9999999999999</ele><time>2026-04-26T10:40:30.78Z</time></trkpt><trkpt lat="41.212485" lon="-7.8699011"><ele>810.0</ele><time>2026-04-26T10:40:31.786Z</time></trkpt><trkpt lat="41.2124184" lon="-7.869934"><ele>810.0</ele><time>2026-04-26T10:40:32.78Z</time></trkpt><trkpt lat="41.2123596" lon="-7.8699835"><ele>810.0</ele><time>2026-04-26T10:40:33.781Z</time></trkpt><trkpt lat="41.2122962" lon="-7.8700207"><ele>810.0</ele><time>2026-04-26T10:40:34.783Z</time></trkpt><trkpt lat="41.2122343" lon="-7.8700638"><ele>809.9999999999999</ele><time>2026-04-26T10:40:35.78Z</time></trkpt><trkpt lat="41.2121784" lon="-7.8701191"><ele>810.0</ele><time>2026-04-26T10:40:36.785Z</time></trkpt><trkpt lat="41.2120853" lon="-7.8702377"><ele>812.8</ele><time>2026-04-26T10:40:38.78Z</time></trkpt><trkpt lat="41.2120375" lon="-7.8703164"><ele>815.6</ele><time>2026-04-26T10:40:39.789Z</time></trkpt><trkpt lat="41.2119901" lon="-7.8703911"><ele>818.4000000000001</ele><time>2026-04-26T10:40:40.786Z</time></trkpt><trkpt lat="41.2119397" lon="-7.8704732"><ele>821.2</ele><time>2026-04-26T10:40:41.788Z</time></trkpt><trkpt lat="41.2118722" lon="-7.8705805"><ele>824.0</ele><time>2026-04-26T10:40:42.779Z</time></trkpt><trkpt lat="41.211778" lon="-7.8706935"><ele>824.0</ele><time>2026-04-26T10:40:43.791Z</time></trkpt><trkpt lat="41.2116837" lon="-7.8708062"><ele>824.0</ele><time>2026-04-26T10:40:44.78Z</time></trkpt><trkpt lat="41.2115943" lon="-7.8709171"><ele>824.0</ele><time>2026-04-26T10:40:45.778Z</time></trkpt><trkpt lat="41.2115197" lon="-7.871019"><ele>824.0</ele><time>2026-04-26T10:40:46.781Z</time></trkpt><trkpt lat="41.2114508" lon="-7.8711089"><ele>826.4000000000001</ele><time>2026-04-26T10:40:47.796Z</time></trkpt><trkpt lat="41.2113874" lon="-7.8711985"><ele>828.8</ele><time>2026-04-26T10:40:48.778Z</time></trkpt><trkpt lat="41.2113257" lon="-7.8712841"><ele>831.2</ele><time>2026-04-26T10:40:49.784Z</time></trkpt><trkpt lat="41.2112596" lon="-7.8713751"><ele>833.5999999999999</ele><time>2026-04-26T10:40:50.781Z</time></trkpt><trkpt lat="41.2111952" lon="-7.8714607"><ele>836.0</ele><time>2026-04-26T10:40:51.78Z</time></trkpt><trkpt lat="41.211131" lon="-7.8715545"><ele>836.0</ele><time>2026-04-26T10:40:52.784Z</time></trkpt><trkpt lat="41.2110693" lon="-7.8716511"><ele>836.0</ele><time>2026-04-26T10:40:53.785Z</time></trkpt><trkpt lat="41.211021" lon="-7.8717483"><ele>836.0</ele><time>2026-04-26T10:40:54.781Z</time></trkpt><trkpt lat="41.2109605" lon="-7.8718408"><ele>836.0</ele><time>2026-04-26T10:40:55.79Z</time></trkpt><trkpt lat="41.2109047" lon="-7.8719451"><ele>836.0</ele><time>2026-04-26T10:40:56.781Z</time></trkpt><trkpt lat="41.2108537" lon="-7.8720409"><ele>834.3333333333334</ele><time>2026-04-26T10:40:57.788Z</time></trkpt><trkpt lat="41.2108041" lon="-7.8721364"><ele>832.6666666666667</ele><time>2026-04-26T10:40:58.782Z</time></trkpt><trkpt lat="41.2107587" lon="-7.8722299"><ele>831.0</ele><time>2026-04-26T10:40:59.78Z</time></trkpt><trkpt lat="41.2107175" lon="-7.8723272"><ele>829.3333333333333</ele><time>2026-04-26T10:41:00.784Z</time></trkpt><trkpt lat="41.2106772" lon="-7.8724227"><ele>827.6666666666666</ele><time>2026-04-26T10:41:01.78Z</time></trkpt><trkpt lat="41.2106332" lon="-7.8725188"><ele>826.0</ele><time>2026-04-26T10:41:02.78Z</time></trkpt><trkpt lat="41.210586" lon="-7.872617"><ele>830.6666666666666</ele><time>2026-04-26T10:41:03.781Z</time></trkpt><trkpt lat="41.210533" lon="-7.872714"><ele>835.3333333333333</ele><time>2026-04-26T10:41:04.775Z</time></trkpt><trkpt lat="41.2104755" lon="-7.8728062"><ele>840.0</ele><time>2026-04-26T10:41:05.777Z</time></trkpt><trkpt lat="41.2104195" lon="-7.8728997"><ele>844.6666666666667</ele><time>2026-04-26T10:41:06.79Z</time></trkpt><trkpt lat="41.2103636" lon="-7.872992"><ele>849.3333333333334</ele><time>2026-04-26T10:41:07.78Z</time></trkpt><trkpt lat="41.2103072" lon="-7.8730848"><ele>854.0</ele><time>2026-04-26T10:41:08.787Z</time></trkpt><trkpt lat="41.2102513" lon="-7.8731814"><ele>854.0</ele><time>2026-04-26T10:41:09.788Z</time></trkpt><trkpt lat="41.2101955" lon="-7.8732724"><ele>854.0000000000001</ele><time>2026-04-26T10:41:10.785Z</time></trkpt><trkpt lat="41.2101345" lon="-7.8733623"><ele>854.0000000000001</ele><time>2026-04-26T10:41:11.784Z</time></trkpt><trkpt lat="41.2100703" lon="-7.8734518"><ele>854.0</ele><time>2026-04-26T10:41:12.786Z</time></trkpt><trkpt lat="41.2100076" lon="-7.8735447"><ele>854.0</ele><time>2026-04-26T10:41:13.781Z</time></trkpt><trkpt lat="41.209945" lon="-7.8736423"><ele>853.0</ele><time>2026-04-26T10:41:14.785Z</time></trkpt><trkpt lat="41.2098806" lon="-7.8737377"><ele>852.0000000000001</ele><time>2026-04-26T10:41:15.776Z</time></trkpt><trkpt lat="41.2098223" lon="-7.8738299"><ele>851.0</ele><time>2026-04-26T10:41:16.784Z</time></trkpt><trkpt lat="41.2097673" lon="-7.8739261"><ele>850.0</ele><time>2026-04-26T10:41:17.788Z</time></trkpt><trkpt lat="41.2097146" lon="-7.874024"><ele>849.0</ele><time>2026-04-26T10:41:18.778Z</time></trkpt><trkpt lat="41.2096752" lon="-7.8741267"><ele>853.5714285714287</ele><time>2026-04-26T10:41:19.78Z</time></trkpt><trkpt lat="41.2096317" lon="-7.8742228"><ele>858.1428571428571</ele><time>2026-04-26T10:41:20.782Z</time></trkpt><trkpt lat="41.2095885" lon="-7.8743069"><ele>862.7142857142858</ele><time>2026-04-26T10:41:21.786Z</time></trkpt><trkpt lat="41.2095552" lon="-7.8743854"><ele>867.2857142857143</ele><time>2026-04-26T10:41:22.783Z</time></trkpt><trkpt lat="41.2095245" lon="-7.8744702"><ele>871.8571428571429</ele><time>2026-04-26T10:41:23.786Z</time></trkpt><trkpt lat="41.2094892" lon="-7.8745472"><ele>876.4285714285714</ele><time>2026-04-26T10:41:24.784Z</time></trkpt><trkpt lat="41.2094489" lon="-7.8746196"><ele>881.0</ele><time>2026-04-26T10:41:25.78Z</time></trkpt><trkpt lat="41.2093993" lon="-7.8746962"><ele>881.0000000000001</ele><time>2026-04-26T10:41:26.781Z</time></trkpt><trkpt lat="41.2093361" lon="-7.8747795"><ele>881.0</ele><time>2026-04-26T10:41:27.788Z</time></trkpt><trkpt lat="41.209283" lon="-7.8748496"><ele>881.0</ele><time>2026-04-26T10:41:28.782Z</time></trkpt><trkpt lat="41.2092303" lon="-7.8748962"><ele>881.0</ele><time>2026-04-26T10:41:29.781Z</time></trkpt><trkpt lat="41.2091406" lon="-7.8749676"><ele>881.0000000000001</ele><time>2026-04-26T10:41:31.777Z</time></trkpt><trkpt lat="41.2090626" lon="-7.8749413"><ele>881.0</ele><time>2026-04-26T10:41:33.78Z</time></trkpt><trkpt lat="41.2090477" lon="-7.874784"><ele>881.0000000000001</ele><time>2026-04-26T10:41:35.787Z</time></trkpt><trkpt lat="41.2090594" lon="-7.8746852"><ele>881.0</ele><time>2026-04-26T10:41:36.781Z</time></trkpt><trkpt lat="41.2090749" lon="-7.8745844"><ele>881.0</ele><time>2026-04-26T10:41:37.781Z</time></trkpt><trkpt lat="41.2090886" lon="-7.8744862"><ele>881.0</ele><time>2026-04-26T10:41:38.78Z</time></trkpt><trkpt lat="41.2091003" lon="-7.8743946"><ele>881.0000000000001</ele><time>2026-04-26T10:41:39.782Z</time></trkpt><trkpt lat="41.2091174" lon="-7.8742452"><ele>881.0</ele><time>2026-04-26T10:41:41.775Z</time></trkpt><trkpt lat="41.2090973" lon="-7.8741515"><ele>881.0000000000001</ele><time>2026-04-26T10:41:43.784Z</time></trkpt><trkpt lat="41.2090237" lon="-7.8741927"><ele>881.0</ele><time>2026-04-26T10:41:46.779Z</time></trkpt><trkpt lat="41.2089853" lon="-7.8742646"><ele>881.0</ele><time>2026-04-26T10:41:47.777Z</time></trkpt><trkpt lat="41.2089285" lon="-7.8743514"><ele>881.0</ele><time>2026-04-26T10:41:48.78Z</time></trkpt><trkpt lat="41.2088593" lon="-7.8744432"><ele>881.0000000000001</ele><time>2026-04-26T10:41:49.79Z</time></trkpt><trkpt lat="41.2087819" lon="-7.8745354"><ele>881.0</ele><time>2026-04-26T10:41:50.778Z</time></trkpt><trkpt lat="41.2086974" lon="-7.8746217"><ele>882.5999999999999</ele><time>2026-04-26T10:41:51.784Z</time></trkpt><trkpt lat="41.2086156" lon="-7.8747054"><ele>884.1999999999999</ele><time>2026-04-26T10:41:52.783Z</time></trkpt><trkpt lat="41.2085392" lon="-7.8747827"><ele>885.8000000000001</ele><time>2026-04-26T10:41:53.78Z</time></trkpt><trkpt lat="41.2084616" lon="-7.8748617"><ele>887.4000000000001</ele><time>2026-04-26T10:41:54.779Z</time></trkpt><trkpt lat="41.2083895" lon="-7.8749413"><ele>889.0</ele><time>2026-04-26T10:41:55.786Z</time></trkpt><trkpt lat="41.2083155" lon="-7.8750161"><ele>889.0</ele><time>2026-04-26T10:41:56.777Z</time></trkpt><trkpt lat="41.2082411" lon="-7.8750899"><ele>889.0000000000001</ele><time>2026-04-26T10:41:57.783Z</time></trkpt><trkpt lat="41.2081616" lon="-7.8751664"><ele>889.0000000000001</ele><time>2026-04-26T10:41:58.78Z</time></trkpt><trkpt lat="41.208081" lon="-7.8752431"><ele>889.0</ele><time>2026-04-26T10:41:59.779Z</time></trkpt><trkpt lat="41.208001" lon="-7.8753155"><ele>889.0</ele><time>2026-04-26T10:42:00.787Z</time></trkpt><trkpt lat="41.2079163" lon="-7.8753781"><ele>891.9999999999999</ele><time>2026-04-26T10:42:01.783Z</time></trkpt><trkpt lat="41.2078284" lon="-7.8754381"><ele>895.0</ele><time>2026-04-26T10:42:02.779Z</time></trkpt><trkpt lat="41.2077473" lon="-7.8754987"><ele>898.0</ele><time>2026-04-26T10:42:03.788Z</time></trkpt><trkpt lat="41.2076704" lon="-7.8755599"><ele>901.0</ele><time>2026-04-26T10:42:04.78Z</time></trkpt><trkpt lat="41.2075958" lon="-7.8756195"><ele>903.9999999999999</ele><time>2026-04-26T10:42:05.781Z</time></trkpt><trkpt lat="41.2075301" lon="-7.8756778"><ele>907.0</ele><time>2026-04-26T10:42:06.787Z</time></trkpt><trkpt lat="41.207468" lon="-7.8757404"><ele>906.9999999999999</ele><time>2026-04-26T10:42:07.779Z</time></trkpt><trkpt lat="41.2074061" lon="-7.8757996"><ele>907.0</ele><time>2026-04-26T10:42:08.783Z</time></trkpt><trkpt lat="41.207354" lon="-7.8758558"><ele>907.0</ele><time>2026-04-26T10:42:09.787Z</time></trkpt><trkpt lat="41.2073115" lon="-7.8759202"><ele>907.0</ele><time>2026-04-26T10:42:10.781Z</time></trkpt><trkpt lat="41.2072521" lon="-7.8760454"><ele>906.9999999999999</ele><time>2026-04-26T10:42:12.776Z</time></trkpt><trkpt lat="41.2072352" lon="-7.8762039"><ele>907.0</ele><time>2026-04-26T10:42:14.778Z</time></trkpt><trkpt lat="41.2071846" lon="-7.8763399"><ele>909.8333333333333</ele><time>2026-04-26T10:42:16.79Z</time></trkpt><trkpt lat="41.2070883" lon="-7.876464"><ele>912.6666666666666</ele><time>2026-04-26T10:42:18.78Z</time></trkpt><trkpt lat="41.207015" lon="-7.8765088"><ele>915.5</ele><time>2026-04-26T10:42:19.783Z</time></trkpt><trkpt lat="41.2069457" lon="-7.8765488"><ele>918.3333333333333</ele><time>2026-04-26T10:42:20.78Z</time></trkpt><trkpt lat="41.20688" lon="-7.8765904"><ele>921.1666666666666</ele><time>2026-04-26T10:42:21.779Z</time></trkpt><trkpt lat="41.2068271" lon="-7.8766405"><ele>924.0</ele><time>2026-04-26T10:42:22.78Z</time></trkpt><trkpt lat="41.2067854" lon="-7.876705"><ele>924.4285714285714</ele><time>2026-04-26T10:42:23.786Z</time></trkpt><trkpt lat="41.2067444" lon="-7.876772"><ele>924.8571428571429</ele><time>2026-04-26T10:42:24.785Z</time></trkpt><trkpt lat="41.2067006" lon="-7.8768401"><ele>925.2857142857142</ele><time>2026-04-26T10:42:25.777Z</time></trkpt><trkpt lat="41.2066537" lon="-7.8769079"><ele>925.7142857142857</ele><time>2026-04-26T10:42:26.782Z</time></trkpt><trkpt lat="41.2066006" lon="-7.8769717"><ele>926.1428571428571</ele><time>2026-04-26T10:42:27.777Z</time></trkpt><trkpt lat="41.2065524" lon="-7.8770435"><ele>926.5714285714284</ele><time>2026-04-26T10:42:28.784Z</time></trkpt><trkpt lat="41.2065075" lon="-7.8771177"><ele>926.9999999999999</ele><time>2026-04-26T10:42:29.793Z</time></trkpt><trkpt lat="41.2064656" lon="-7.8772116"><ele>927.0</ele><time>2026-04-26T10:42:30.788Z</time></trkpt><trkpt lat="41.206423" lon="-7.8773179"><ele>927.0</ele><time>2026-04-26T10:42:31.778Z</time></trkpt><trkpt lat="41.2063835" lon="-7.877427"><ele>927.0</ele><time>2026-04-26T10:42:32.775Z</time></trkpt><trkpt lat="41.2063425" lon="-7.8775402"><ele>927.0</ele><time>2026-04-26T10:42:33.78Z</time></trkpt><trkpt lat="41.2063012" lon="-7.8776529"><ele>927.0</ele><time>2026-04-26T10:42:34.785Z</time></trkpt><trkpt lat="41.206263" lon="-7.8777627"><ele>928.8333333333334</ele><time>2026-04-26T10:42:35.775Z</time></trkpt><trkpt lat="41.2062215" lon="-7.8778721"><ele>930.6666666666667</ele><time>2026-04-26T10:42:36.779Z</time></trkpt><trkpt lat="41.2061798" lon="-7.8779784"><ele>932.5</ele><time>2026-04-26T10:42:37.78Z</time></trkpt><trkpt lat="41.2061324" lon="-7.8780828"><ele>934.3333333333334</ele><time>2026-04-26T10:42:38.785Z</time></trkpt><trkpt lat="41.206088" lon="-7.8781837"><ele>936.1666666666667</ele><time>2026-04-26T10:42:39.783Z</time></trkpt><trkpt lat="41.206043" lon="-7.8782824"><ele>938.0</ele><time>2026-04-26T10:42:40.787Z</time></trkpt><trkpt lat="41.2059949" lon="-7.8783855"><ele>939.6666666666667</ele><time>2026-04-26T10:42:41.784Z</time></trkpt><trkpt lat="41.2059468" lon="-7.8784823"><ele>941.3333333333334</ele><time>2026-04-26T10:42:42.779Z</time></trkpt><trkpt lat="41.2059004" lon="-7.8785787"><ele>943.0</ele><time>2026-04-26T10:42:43.78Z</time></trkpt><trkpt lat="41.2058502" lon="-7.8786689"><ele>944.6666666666667</ele><time>2026-04-26T10:42:44.799Z</time></trkpt><trkpt lat="41.2057899" lon="-7.8787389"><ele>946.3333333333334</ele><time>2026-04-26T10:42:45.779Z</time></trkpt><trkpt lat="41.2057169" lon="-7.8787967"><ele>948.0</ele><time>2026-04-26T10:42:46.784Z</time></trkpt><trkpt lat="41.2056371" lon="-7.8788424"><ele>948.0</ele><time>2026-04-26T10:42:47.787Z</time></trkpt><trkpt lat="41.2055507" lon="-7.8788748"><ele>948.0</ele><time>2026-04-26T10:42:48.784Z</time></trkpt><trkpt lat="41.2054578" lon="-7.8788893"><ele>948.0</ele><time>2026-04-26T10:42:49.782Z</time></trkpt><trkpt lat="41.2053657" lon="-7.8788784"><ele>948.0</ele><time>2026-04-26T10:42:50.777Z</time></trkpt><trkpt lat="41.2052724" lon="-7.8788652"><ele>948.0</ele><time>2026-04-26T10:42:51.784Z</time></trkpt><trkpt lat="41.205183" lon="-7.8788326"><ele>948.0</ele><time>2026-04-26T10:42:52.78Z</time></trkpt><trkpt lat="41.205095" lon="-7.8787664"><ele>948.0</ele><time>2026-04-26T10:42:53.78Z</time></trkpt><trkpt lat="41.2049997" lon="-7.8786881"><ele>948.0</ele><time>2026-04-26T10:42:54.786Z</time></trkpt><trkpt lat="41.2049207" lon="-7.8786178"><ele>948.0</ele><time>2026-04-26T10:42:55.779Z</time></trkpt><trkpt lat="41.2048538" lon="-7.8785605"><ele>948.0</ele><time>2026-04-26T10:42:56.78Z</time></trkpt><trkpt lat="41.2047891" lon="-7.8785082"><ele>948.8333333333334</ele><time>2026-04-26T10:42:57.781Z</time></trkpt><trkpt lat="41.2047174" lon="-7.8784676"><ele>949.6666666666667</ele><time>2026-04-26T10:42:58.784Z</time></trkpt><trkpt lat="41.2046417" lon="-7.8784467"><ele>950.5</ele><time>2026-04-26T10:42:59.782Z</time></trkpt><trkpt lat="41.2045581" lon="-7.8784331"><ele>951.3333333333334</ele><time>2026-04-26T10:43:00.784Z</time></trkpt><trkpt lat="41.2044719" lon="-7.8784212"><ele>952.1666666666667</ele><time>2026-04-26T10:43:01.778Z</time></trkpt><trkpt lat="41.204387" lon="-7.8784257"><ele>953.0</ele><time>2026-04-26T10:43:02.78Z</time></trkpt><trkpt lat="41.2043025" lon="-7.878445"><ele>953.0000000000001</ele><time>2026-04-26T10:43:03.789Z</time></trkpt><trkpt lat="41.2042194" lon="-7.8784612"><ele>953.0</ele><time>2026-04-26T10:43:04.777Z</time></trkpt><trkpt lat="41.2041381" lon="-7.8784833"><ele>953.0</ele><time>2026-04-26T10:43:05.775Z</time></trkpt><trkpt lat="41.2040597" lon="-7.8785104"><ele>953.0</ele><time>2026-04-26T10:43:06.785Z</time></trkpt><trkpt lat="41.2039799" lon="-7.8785482"><ele>953.0000000000001</ele><time>2026-04-26T10:43:07.78Z</time></trkpt><trkpt lat="41.2038976" lon="-7.8785893"><ele>953.0</ele><time>2026-04-26T10:43:08.778Z</time></trkpt><trkpt lat="41.2038289" lon="-7.8786348"><ele>953.0</ele><time>2026-04-26T10:43:09.783Z</time></trkpt><trkpt lat="41.2037729" lon="-7.8786867"><ele>953.0</ele><time>2026-04-26T10:43:10.778Z</time></trkpt><trkpt lat="41.2037273" lon="-7.8787508"><ele>953.0</ele><time>2026-04-26T10:43:11.779Z</time></trkpt><trkpt lat="41.2036923" lon="-7.8788236"><ele>953.0</ele><time>2026-04-26T10:43:12.787Z</time></trkpt><trkpt lat="41.203648" lon="-7.8788952"><ele>953.0</ele><time>2026-04-26T10:43:13.78Z</time></trkpt><trkpt lat="41.2035939" lon="-7.8789528"><ele>953.0</ele><time>2026-04-26T10:43:14.779Z</time></trkpt><trkpt lat="41.2035358" lon="-7.8789899"><ele>953.0</ele><time>2026-04-26T10:43:15.784Z</time></trkpt><trkpt lat="41.2034754" lon="-7.8790199"><ele>953.0</ele><time>2026-04-26T10:43:16.78Z</time></trkpt><trkpt lat="41.2034153" lon="-7.8790509"><ele>953.0</ele><time>2026-04-26T10:43:17.787Z</time></trkpt><trkpt lat="41.2033578" lon="-7.879086"><ele>953.0</ele><time>2026-04-26T10:43:18.78Z</time></trkpt><trkpt lat="41.2033004" lon="-7.8791211"><ele>953.0</ele><time>2026-04-26T10:43:19.784Z</time></trkpt><trkpt lat="41.2032148" lon="-7.8791712"><ele>953.0</ele><time>2026-04-26T10:43:21.781Z</time></trkpt><trkpt lat="41.2031355" lon="-7.8792095"><ele>953.0</ele><time>2026-04-26T10:43:23.782Z</time></trkpt><trkpt lat="41.2030663" lon="-7.8792625"><ele>953.0</ele><time>2026-04-26T10:43:25.791Z</time></trkpt><trkpt lat="41.2029869" lon="-7.8793119"><ele>954.5999999999999</ele><time>2026-04-26T10:43:27.777Z</time></trkpt><trkpt lat="41.2029035" lon="-7.8793732"><ele>956.1999999999999</ele><time>2026-04-26T10:43:29.785Z</time></trkpt><trkpt lat="41.202819" lon="-7.8794887"><ele>957.8</ele><time>2026-04-26T10:43:31.785Z</time></trkpt><trkpt lat="41.2027379" lon="-7.8796085"><ele>959.4</ele><time>2026-04-26T10:43:33.779Z</time></trkpt><trkpt lat="41.2027002" lon="-7.879683"><ele>961.0</ele><time>2026-04-26T10:43:34.779Z</time></trkpt><trkpt lat="41.2026611" lon="-7.8797513"><ele>960.9999999999999</ele><time>2026-04-26T10:43:35.787Z</time></trkpt><trkpt lat="41.2026188" lon="-7.8798181"><ele>961.0</ele><time>2026-04-26T10:43:36.796Z</time></trkpt><trkpt lat="41.202547" lon="-7.8799462"><ele>961.0</ele><time>2026-04-26T10:43:38.781Z</time></trkpt><trkpt lat="41.2024853" lon="-7.880082"><ele>961.0</ele><time>2026-04-26T10:43:40.783Z</time></trkpt><trkpt lat="41.2024387" lon="-7.8801514"><ele>960.9999999999999</ele><time>2026-04-26T10:43:41.779Z</time></trkpt><trkpt lat="41.2023883" lon="-7.8802182"><ele>961.0</ele><time>2026-04-26T10:43:42.789Z</time></trkpt><trkpt lat="41.202337" lon="-7.8802719"><ele>956.8</ele><time>2026-04-26T10:43:43.777Z</time></trkpt><trkpt lat="41.2022526" lon="-7.8803757"><ele>952.5999999999999</ele><time>2026-04-26T10:43:45.781Z</time></trkpt><trkpt lat="41.2022022" lon="-7.8805115"><ele>948.4</ele><time>2026-04-26T10:43:47.781Z</time></trkpt><trkpt lat="41.2022018" lon="-7.8805954"><ele>944.2</ele><time>2026-04-26T10:43:48.787Z</time></trkpt><trkpt lat="41.2022258" lon="-7.8806887"><ele>940.0</ele><time>2026-04-26T10:43:49.777Z</time></trkpt><trkpt lat="41.2022687" lon="-7.8807888"><ele>940.0</ele><time>2026-04-26T10:43:50.777Z</time></trkpt><trkpt lat="41.2023187" lon="-7.8808911"><ele>940.0</ele><time>2026-04-26T10:43:51.788Z</time></trkpt><trkpt lat="41.2023643" lon="-7.880997"><ele>940.0</ele><time>2026-04-26T10:43:52.781Z</time></trkpt><trkpt lat="41.2024039" lon="-7.8811044"><ele>940.0</ele><time>2026-04-26T10:43:53.777Z</time></trkpt><trkpt lat="41.2024395" lon="-7.8812153"><ele>940.0</ele><time>2026-04-26T10:43:54.783Z</time></trkpt><trkpt lat="41.2024732" lon="-7.8813332"><ele>940.4999999999999</ele><time>2026-04-26T10:43:55.777Z</time></trkpt><trkpt lat="41.2025035" lon="-7.8814557"><ele>941.0</ele><time>2026-04-26T10:43:56.777Z</time></trkpt><trkpt lat="41.2025291" lon="-7.8815753"><ele>941.5</ele><time>2026-04-26T10:43:57.785Z</time></trkpt><trkpt lat="41.2025506" lon="-7.8816858"><ele>942.0</ele><time>2026-04-26T10:43:58.779Z</time></trkpt><trkpt lat="41.2025797" lon="-7.8817904"><ele>942.4999999999999</ele><time>2026-04-26T10:43:59.784Z</time></trkpt><trkpt lat="41.2026017" lon="-7.8818886"><ele>943.0</ele><time>2026-04-26T10:44:00.785Z</time></trkpt><trkpt lat="41.2026133" lon="-7.8819798"><ele>943.1666666666666</ele><time>2026-04-26T10:44:01.78Z</time></trkpt><trkpt lat="41.2026225" lon="-7.8820633"><ele>943.3333333333333</ele><time>2026-04-26T10:44:02.785Z</time></trkpt><trkpt lat="41.2026339" lon="-7.882149"><ele>943.5</ele><time>2026-04-26T10:44:03.779Z</time></trkpt><trkpt lat="41.2026201" lon="-7.8822705"><ele>943.6666666666667</ele><time>2026-04-26T10:44:05.79Z</time></trkpt><trkpt lat="41.2025737" lon="-7.8823461"><ele>943.8333333333334</ele><time>2026-04-26T10:44:07.776Z</time></trkpt><trkpt lat="41.2025044" lon="-7.8823685"><ele>944.0</ele><time>2026-04-26T10:44:09.781Z</time></trkpt><trkpt lat="41.2024154" lon="-7.8822495"><ele>944.0</ele><time>2026-04-26T10:44:11.783Z</time></trkpt><trkpt lat="41.2023681" lon="-7.8821876"><ele>944.0</ele><time>2026-04-26T10:44:12.778Z</time></trkpt><trkpt lat="41.2023187" lon="-7.8821309"><ele>944.0</ele><time>2026-04-26T10:44:13.779Z</time></trkpt><trkpt lat="41.2022599" lon="-7.8820823"><ele>944.0</ele><time>2026-04-26T10:44:14.777Z</time></trkpt><trkpt lat="41.202196" lon="-7.882042"><ele>944.0</ele><time>2026-04-26T10:44:15.775Z</time></trkpt><trkpt lat="41.2021299" lon="-7.8820113"><ele>944.0</ele><time>2026-04-26T10:44:16.789Z</time></trkpt><trkpt lat="41.2020623" lon="-7.8819884"><ele>944.0</ele><time>2026-04-26T10:44:17.776Z</time></trkpt><trkpt lat="41.2019942" lon="-7.8819699"><ele>940.8333333333334</ele><time>2026-04-26T10:44:18.779Z</time></trkpt><trkpt lat="41.2019308" lon="-7.8819584"><ele>937.6666666666667</ele><time>2026-04-26T10:44:19.771Z</time></trkpt><trkpt lat="41.2018164" lon="-7.8819324"><ele>934.5</ele><time>2026-04-26T10:44:21.783Z</time></trkpt><trkpt lat="41.2017048" lon="-7.8819257"><ele>931.3333333333333</ele><time>2026-04-26T10:44:23.781Z</time></trkpt><trkpt lat="41.2016237" lon="-7.8819572"><ele>928.1666666666666</ele><time>2026-04-26T10:44:25.778Z</time></trkpt><trkpt lat="41.2015661" lon="-7.8819934"><ele>925.0</ele><time>2026-04-26T10:44:27.782Z</time></trkpt><trkpt lat="41.2014858" lon="-7.8820129"><ele>920.6666666666666</ele><time>2026-04-26T10:44:30.786Z</time></trkpt><trkpt lat="41.2013873" lon="-7.8819741"><ele>916.3333333333333</ele><time>2026-04-26T10:44:32.776Z</time></trkpt><trkpt lat="41.2013257" lon="-7.8819386"><ele>912.0</ele><time>2026-04-26T10:44:33.786Z</time></trkpt><trkpt lat="41.2012685" lon="-7.8818867"><ele>907.6666666666667</ele><time>2026-04-26T10:44:34.78Z</time></trkpt><trkpt lat="41.2012127" lon="-7.8818268"><ele>903.3333333333334</ele><time>2026-04-26T10:44:35.779Z</time></trkpt><trkpt lat="41.2011507" lon="-7.8817628"><ele>899.0</ele><time>2026-04-26T10:44:36.781Z</time></trkpt><trkpt lat="41.2010844" lon="-7.8816888"><ele>896.4000000000001</ele><time>2026-04-26T10:44:37.778Z</time></trkpt><trkpt lat="41.201028" lon="-7.8816094"><ele>893.8000000000001</ele><time>2026-04-26T10:44:38.779Z</time></trkpt><trkpt lat="41.2009696" lon="-7.8815223"><ele>891.1999999999999</ele><time>2026-04-26T10:44:39.795Z</time></trkpt><trkpt lat="41.2009186" lon="-7.8814212"><ele>888.5999999999999</ele><time>2026-04-26T10:44:40.777Z</time></trkpt><trkpt lat="41.2008679" lon="-7.8813089"><ele>886.0</ele><time>2026-04-26T10:44:41.778Z</time></trkpt><trkpt lat="41.2008192" lon="-7.8811945"><ele>886.0</ele><time>2026-04-26T10:44:42.777Z</time></trkpt><trkpt lat="41.2007696" lon="-7.881081"><ele>885.9999999999999</ele><time>2026-04-26T10:44:43.778Z</time></trkpt><trkpt lat="41.2007236" lon="-7.8809751"><ele>885.9999999999999</ele><time>2026-04-26T10:44:44.78Z</time></trkpt><trkpt lat="41.2006776" lon="-7.8808726"><ele>886.0</ele><time>2026-04-26T10:44:45.78Z</time></trkpt><trkpt lat="41.2006245" lon="-7.8807769"><ele>886.0</ele><time>2026-04-26T10:44:46.776Z</time></trkpt><trkpt lat="41.2005617" lon="-7.8806877"><ele>880.4999999999999</ele><time>2026-04-26T10:44:47.783Z</time></trkpt><trkpt lat="41.2005009" lon="-7.8806027"><ele>875.0</ele><time>2026-04-26T10:44:48.781Z</time></trkpt><trkpt lat="41.2004416" lon="-7.8805127"><ele>869.5</ele><time>2026-04-26T10:44:49.776Z</time></trkpt><trkpt lat="41.2003871" lon="-7.8804252"><ele>864.0</ele><time>2026-04-26T10:44:50.784Z</time></trkpt><trkpt lat="41.2003333" lon="-7.8803359"><ele>858.4999999999999</ele><time>2026-04-26T10:44:51.777Z</time></trkpt><trkpt lat="41.200281" lon="-7.8802419"><ele>853.0</ele><time>2026-04-26T10:44:52.78Z</time></trkpt><trkpt lat="41.2002299" lon="-7.8801524"><ele>853.0</ele><time>2026-04-26T10:44:53.783Z</time></trkpt><trkpt lat="41.200187" lon="-7.8800733"><ele>853.0</ele><time>2026-04-26T10:44:54.778Z</time></trkpt><trkpt lat="41.2001355" lon="-7.8799444"><ele>853.0</ele><time>2026-04-26T10:44:56.773Z</time></trkpt><trkpt lat="41.2001043" lon="-7.8798634"><ele>853.0</ele><time>2026-04-26T10:44:58.777Z</time></trkpt><trkpt lat="41.2000766" lon="-7.8799798"><ele>853.0</ele><time>2026-04-26T10:45:04.777Z</time></trkpt><trkpt lat="41.2001316" lon="-7.8801047"><ele>853.0</ele><time>2026-04-26T10:45:06.778Z</time></trkpt><trkpt lat="41.2001908" lon="-7.8802324"><ele>853.0</ele><time>2026-04-26T10:45:08.778Z</time></trkpt><trkpt lat="41.2002301" lon="-7.8803547"><ele>853.0</ele><time>2026-04-26T10:45:10.78Z</time></trkpt><trkpt lat="41.2002689" lon="-7.8804422"><ele>853.0</ele><time>2026-04-26T10:45:12.777Z</time></trkpt><trkpt lat="41.2001823" lon="-7.8804388"><ele>853.0</ele><time>2026-04-26T10:45:17.792Z</time></trkpt><trkpt lat="41.2000805" lon="-7.8803612"><ele>853.0</ele><time>2026-04-26T10:45:19.778Z</time></trkpt><trkpt lat="41.1999734" lon="-7.8802965"><ele>853.0</ele><time>2026-04-26T10:45:21.78Z</time></trkpt><trkpt lat="41.1998744" lon="-7.8802377"><ele>853.0</ele><time>2026-04-26T10:45:23.785Z</time></trkpt><trkpt lat="41.1997831" lon="-7.8801344"><ele>853.0</ele><time>2026-04-26T10:45:25.781Z</time></trkpt><trkpt lat="41.1997135" lon="-7.8800132"><ele>847.9999999999999</ele><time>2026-04-26T10:45:27.783Z</time></trkpt><trkpt lat="41.1996528" lon="-7.8799328"><ele>843.0</ele><time>2026-04-26T10:45:29.78Z</time></trkpt><trkpt lat="41.1995933" lon="-7.8798927"><ele>838.0</ele><time>2026-04-26T10:45:49.779Z</time></trkpt><trkpt lat="41.1995591" lon="-7.8798078"><ele>833.0</ele><time>2026-04-26T10:45:52.778Z</time></trkpt><trkpt lat="41.1995037" lon="-7.8796953"><ele>827.9999999999999</ele><time>2026-04-26T10:45:54.78Z</time></trkpt><trkpt lat="41.1994676" lon="-7.8796242"><ele>823.0</ele><time>2026-04-26T10:45:55.775Z</time></trkpt><trkpt lat="41.199387" lon="-7.8794937"><ele>822.9999999999999</ele><time>2026-04-26T10:45:57.781Z</time></trkpt><trkpt lat="41.1993234" lon="-7.8793506"><ele>823.0</ele><time>2026-04-26T10:45:59.782Z</time></trkpt><trkpt lat="41.1992939" lon="-7.8792704"><ele>823.0</ele><time>2026-04-26T10:46:00.779Z</time></trkpt><trkpt lat="41.199262" lon="-7.8791923"><ele>823.0</ele><time>2026-04-26T10:46:01.778Z</time></trkpt><trkpt lat="41.1992351" lon="-7.8791134"><ele>822.9999999999999</ele><time>2026-04-26T10:46:02.785Z</time></trkpt><trkpt lat="41.1991907" lon="-7.8789601"><ele>823.0</ele><time>2026-04-26T10:46:04.778Z</time></trkpt><trkpt lat="41.199148" lon="-7.8788112"><ele>824.5999999999999</ele><time>2026-04-26T10:46:06.777Z</time></trkpt><trkpt lat="41.1991036" lon="-7.8786669"><ele>826.1999999999999</ele><time>2026-04-26T10:46:08.788Z</time></trkpt><trkpt lat="41.1990531" lon="-7.8785162"><ele>827.8</ele><time>2026-04-26T10:46:10.777Z</time></trkpt><trkpt lat="41.1990238" lon="-7.8784353"><ele>829.4</ele><time>2026-04-26T10:46:11.785Z</time></trkpt><trkpt lat="41.1989942" lon="-7.8783527"><ele>831.0</ele><time>2026-04-26T10:46:12.777Z</time></trkpt><trkpt lat="41.198962" lon="-7.8782603"><ele>822.8</ele><time>2026-04-26T10:46:13.781Z</time></trkpt><trkpt lat="41.1989293" lon="-7.8781486"><ele>814.5999999999999</ele><time>2026-04-26T10:46:14.781Z</time></trkpt><trkpt lat="41.1988974" lon="-7.8780374"><ele>806.4</ele><time>2026-04-26T10:46:15.776Z</time></trkpt><trkpt lat="41.19886" lon="-7.8779171"><ele>798.2</ele><time>2026-04-26T10:46:16.776Z</time></trkpt><trkpt lat="41.1988288" lon="-7.8777972"><ele>790.0</ele><time>2026-04-26T10:46:17.779Z</time></trkpt><trkpt lat="41.1988055" lon="-7.8776827"><ele>790.6666666666666</ele><time>2026-04-26T10:46:18.777Z</time></trkpt><trkpt lat="41.1987865" lon="-7.8775734"><ele>791.3333333333333</ele><time>2026-04-26T10:46:19.779Z</time></trkpt><trkpt lat="41.1987665" lon="-7.8774654"><ele>792.0</ele><time>2026-04-26T10:46:20.783Z</time></trkpt><trkpt lat="41.1987417" lon="-7.8773695"><ele>792.6666666666667</ele><time>2026-04-26T10:46:21.777Z</time></trkpt><trkpt lat="41.1987187" lon="-7.8772792"><ele>793.3333333333334</ele><time>2026-04-26T10:46:22.789Z</time></trkpt><trkpt lat="41.1986978" lon="-7.8771886"><ele>794.0</ele><time>2026-04-26T10:46:23.772Z</time></trkpt><trkpt lat="41.1986788" lon="-7.8771028"><ele>794.0</ele><time>2026-04-26T10:46:24.781Z</time></trkpt><trkpt lat="41.1986583" lon="-7.8770193"><ele>794.0</ele><time>2026-04-26T10:46:25.797Z</time></trkpt><trkpt lat="41.1986399" lon="-7.8769348"><ele>794.0</ele><time>2026-04-26T10:46:26.774Z</time></trkpt><trkpt lat="41.1986187" lon="-7.8768479"><ele>794.0</ele><time>2026-04-26T10:46:27.776Z</time></trkpt><trkpt lat="41.1985967" lon="-7.876755"><ele>794.0</ele><time>2026-04-26T10:46:28.781Z</time></trkpt><trkpt lat="41.1985835" lon="-7.8766607"><ele>794.0</ele><time>2026-04-26T10:46:29.779Z</time></trkpt><trkpt lat="41.1985758" lon="-7.8765591"><ele>794.0</ele><time>2026-04-26T10:46:30.781Z</time></trkpt><trkpt lat="41.1985671" lon="-7.876458"><ele>793.6666666666667</ele><time>2026-04-26T10:46:31.776Z</time></trkpt><trkpt lat="41.1985577" lon="-7.8763577"><ele>793.3333333333334</ele><time>2026-04-26T10:46:32.786Z</time></trkpt><trkpt lat="41.1985434" lon="-7.8762553"><ele>793.0</ele><time>2026-04-26T10:46:33.791Z</time></trkpt><trkpt lat="41.1985268" lon="-7.8761436"><ele>792.6666666666667</ele><time>2026-04-26T10:46:34.775Z</time></trkpt><trkpt lat="41.198517" lon="-7.8760269"><ele>792.3333333333334</ele><time>2026-04-26T10:46:35.787Z</time></trkpt><trkpt lat="41.1985094" lon="-7.8759188"><ele>792.0</ele><time>2026-04-26T10:46:36.78Z</time></trkpt><trkpt lat="41.1985073" lon="-7.8758171"><ele>791.0</ele><time>2026-04-26T10:46:37.774Z</time></trkpt><trkpt lat="41.1985137" lon="-7.8757187"><ele>790.0</ele><time>2026-04-26T10:46:38.776Z</time></trkpt><trkpt lat="41.1985216" lon="-7.8756222"><ele>789.0</ele><time>2026-04-26T10:46:39.776Z</time></trkpt><trkpt lat="41.1985324" lon="-7.8755222"><ele>788.0</ele><time>2026-04-26T10:46:40.777Z</time></trkpt><trkpt lat="41.1985395" lon="-7.8754243"><ele>787.0</ele><time>2026-04-26T10:46:41.778Z</time></trkpt><trkpt lat="41.1985437" lon="-7.8753297"><ele>786.0</ele><time>2026-04-26T10:46:42.774Z</time></trkpt><trkpt lat="41.1985544" lon="-7.8752428"><ele>785.0</ele><time>2026-04-26T10:46:43.779Z</time></trkpt><trkpt lat="41.1985672" lon="-7.875159"><ele>782.8333333333334</ele><time>2026-04-26T10:46:44.782Z</time></trkpt><trkpt lat="41.1985772" lon="-7.875071"><ele>780.6666666666667</ele><time>2026-04-26T10:46:45.778Z</time></trkpt><trkpt lat="41.1985885" lon="-7.8749813"><ele>778.5</ele><time>2026-04-26T10:46:46.773Z</time></trkpt><trkpt lat="41.19861" lon="-7.8748875"><ele>776.3333333333333</ele><time>2026-04-26T10:46:47.786Z</time></trkpt><trkpt lat="41.1986338" lon="-7.8748002"><ele>774.1666666666666</ele><time>2026-04-26T10:46:48.778Z</time></trkpt><trkpt lat="41.1986501" lon="-7.8747192"><ele>772.0</ele><time>2026-04-26T10:46:49.774Z</time></trkpt><trkpt lat="41.1986701" lon="-7.8745702"><ele>772.0</ele><time>2026-04-26T10:46:51.781Z</time></trkpt><trkpt lat="41.1986921" lon="-7.8744295"><ele>772.0</ele><time>2026-04-26T10:46:53.775Z</time></trkpt><trkpt lat="41.1987299" lon="-7.8743011"><ele>772.0</ele><time>2026-04-26T10:46:55.78Z</time></trkpt><trkpt lat="41.1987941" lon="-7.8741749"><ele>772.0</ele><time>2026-04-26T10:46:57.78Z</time></trkpt><trkpt lat="41.1988503" lon="-7.8741072"><ele>772.0</ele><time>2026-04-26T10:46:58.78Z</time></trkpt><trkpt lat="41.198908" lon="-7.8740454"><ele>772.8571428571429</ele><time>2026-04-26T10:46:59.775Z</time></trkpt><trkpt lat="41.1989669" lon="-7.8739816"><ele>773.7142857142858</ele><time>2026-04-26T10:47:00.78Z</time></trkpt><trkpt lat="41.1990198" lon="-7.8739178"><ele>774.5714285714287</ele><time>2026-04-26T10:47:01.788Z</time></trkpt><trkpt lat="41.1990652" lon="-7.8738527"><ele>775.4285714285714</ele><time>2026-04-26T10:47:02.775Z</time></trkpt><trkpt lat="41.1991031" lon="-7.8737858"><ele>776.2857142857142</ele><time>2026-04-26T10:47:03.779Z</time></trkpt><trkpt lat="41.1991388" lon="-7.8737144"><ele>777.1428571428572</ele><time>2026-04-26T10:47:04.78Z</time></trkpt><trkpt lat="41.1991541" lon="-7.8736325"><ele>778.0</ele><time>2026-04-26T10:47:05.782Z</time></trkpt><trkpt lat="41.1991549" lon="-7.8735481"><ele>778.0</ele><time>2026-04-26T10:47:06.783Z</time></trkpt><trkpt lat="41.1991419" lon="-7.8734621"><ele>778.0</ele><time>2026-04-26T10:47:07.778Z</time></trkpt><trkpt lat="41.1991237" lon="-7.8733795"><ele>778.0</ele><time>2026-04-26T10:47:08.789Z</time></trkpt><trkpt lat="41.1991066" lon="-7.8732961"><ele>778.0</ele><time>2026-04-26T10:47:09.788Z</time></trkpt><trkpt lat="41.19909" lon="-7.8732127"><ele>778.0</ele><time>2026-04-26T10:47:10.78Z</time></trkpt><trkpt lat="41.1990673" lon="-7.8731247"><ele>778.0</ele><time>2026-04-26T10:47:11.778Z</time></trkpt><trkpt lat="41.1990322" lon="-7.8730299"><ele>778.0</ele><time>2026-04-26T10:47:12.786Z</time></trkpt><trkpt lat="41.1989884" lon="-7.8729335"><ele>771.2857142857143</ele><time>2026-04-26T10:47:13.775Z</time></trkpt><trkpt lat="41.1989432" lon="-7.8728388"><ele>764.5714285714286</ele><time>2026-04-26T10:47:14.777Z</time></trkpt><trkpt lat="41.1988936" lon="-7.872754"><ele>757.8571428571429</ele><time>2026-04-26T10:47:15.78Z</time></trkpt><trkpt lat="41.198842" lon="-7.8726803"><ele>751.1428571428571</ele><time>2026-04-26T10:47:16.778Z</time></trkpt><trkpt lat="41.1987902" lon="-7.8726203"><ele>744.4285714285713</ele><time>2026-04-26T10:47:17.778Z</time></trkpt><trkpt lat="41.1987331" lon="-7.8725651"><ele>737.7142857142857</ele><time>2026-04-26T10:47:18.793Z</time></trkpt><trkpt lat="41.1986756" lon="-7.8725151"><ele>731.0</ele><time>2026-04-26T10:47:19.775Z</time></trkpt><trkpt lat="41.1986263" lon="-7.8724573"><ele>730.6666666666666</ele><time>2026-04-26T10:47:20.778Z</time></trkpt><trkpt lat="41.1985747" lon="-7.8724049"><ele>730.3333333333333</ele><time>2026-04-26T10:47:21.778Z</time></trkpt><trkpt lat="41.19851" lon="-7.8723585"><ele>730.0</ele><time>2026-04-26T10:47:22.781Z</time></trkpt><trkpt lat="41.1984301" lon="-7.8723293"><ele>729.6666666666666</ele><time>2026-04-26T10:47:23.775Z</time></trkpt><trkpt lat="41.1983486" lon="-7.872305"><ele>729.3333333333334</ele><time>2026-04-26T10:47:24.778Z</time></trkpt><trkpt lat="41.1982677" lon="-7.8722845"><ele>729.0</ele><time>2026-04-26T10:47:25.774Z</time></trkpt><trkpt lat="41.1981816" lon="-7.8722659"><ele>725.3333333333334</ele><time>2026-04-26T10:47:26.782Z</time></trkpt><trkpt lat="41.1980997" lon="-7.8722478"><ele>721.6666666666666</ele><time>2026-04-26T10:47:27.782Z</time></trkpt><trkpt lat="41.1980299" lon="-7.8722395"><ele>718.0</ele><time>2026-04-26T10:47:28.775Z</time></trkpt><trkpt lat="41.1979127" lon="-7.8722259"><ele>714.3333333333333</ele><time>2026-04-26T10:47:30.777Z</time></trkpt><trkpt lat="41.1978247" lon="-7.8722221"><ele>710.6666666666666</ele><time>2026-04-26T10:47:32.783Z</time></trkpt><trkpt lat="41.1977446" lon="-7.8722016"><ele>707.0</ele><time>2026-04-26T10:47:34.78Z</time></trkpt><trkpt lat="41.1976478" lon="-7.8721498"><ele>707.0</ele><time>2026-04-26T10:47:36.779Z</time></trkpt><trkpt lat="41.1975841" lon="-7.8721137"><ele>707.0</ele><time>2026-04-26T10:47:37.777Z</time></trkpt><trkpt lat="41.1975171" lon="-7.8720737"><ele>707.0</ele><time>2026-04-26T10:47:38.778Z</time></trkpt><trkpt lat="41.1974499" lon="-7.872037"><ele>707.0</ele><time>2026-04-26T10:47:39.786Z</time></trkpt><trkpt lat="41.1973863" lon="-7.872"><ele>707.0</ele><time>2026-04-26T10:47:40.789Z</time></trkpt><trkpt lat="41.1973197" lon="-7.8719705"><ele>707.0</ele><time>2026-04-26T10:47:41.781Z</time></trkpt><trkpt lat="41.1972539" lon="-7.871937"><ele>707.0</ele><time>2026-04-26T10:47:42.778Z</time></trkpt><trkpt lat="41.1971857" lon="-7.8719041"><ele>704.5</ele><time>2026-04-26T10:47:43.776Z</time></trkpt><trkpt lat="41.1971155" lon="-7.8718741"><ele>702.0</ele><time>2026-04-26T10:47:44.782Z</time></trkpt><trkpt lat="41.1970427" lon="-7.8718435"><ele>699.5</ele><time>2026-04-26T10:47:45.776Z</time></trkpt><trkpt lat="41.1969688" lon="-7.8718105"><ele>697.0</ele><time>2026-04-26T10:47:46.783Z</time></trkpt><trkpt lat="41.1968952" lon="-7.8717798"><ele>694.5</ele><time>2026-04-26T10:47:47.775Z</time></trkpt><trkpt lat="41.1968207" lon="-7.8717561"><ele>692.0</ele><time>2026-04-26T10:47:48.779Z</time></trkpt><trkpt lat="41.1967484" lon="-7.8717412"><ele>692.0</ele><time>2026-04-26T10:47:49.784Z</time></trkpt><trkpt lat="41.1966806" lon="-7.8717278"><ele>692.0</ele><time>2026-04-26T10:47:50.775Z</time></trkpt><trkpt lat="41.1966115" lon="-7.8717115"><ele>692.0</ele><time>2026-04-26T10:47:51.777Z</time></trkpt><trkpt lat="41.1965427" lon="-7.8716985"><ele>692.0</ele><time>2026-04-26T10:47:52.774Z</time></trkpt><trkpt lat="41.1964784" lon="-7.8716844"><ele>692.0</ele><time>2026-04-26T10:47:53.78Z</time></trkpt><trkpt lat="41.196415" lon="-7.8716687"><ele>692.0</ele><time>2026-04-26T10:47:54.775Z</time></trkpt><trkpt lat="41.1963104" lon="-7.8716477"><ele>692.0</ele><time>2026-04-26T10:47:56.785Z</time></trkpt><trkpt lat="41.1962268" lon="-7.8716204"><ele>688.5714285714286</ele><time>2026-04-26T10:47:58.78Z</time></trkpt><trkpt lat="41.1961518" lon="-7.8716028"><ele>685.1428571428572</ele><time>2026-04-26T10:47:59.777Z</time></trkpt><trkpt lat="41.1960858" lon="-7.8715726"><ele>681.7142857142858</ele><time>2026-04-26T10:48:00.777Z</time></trkpt><trkpt lat="41.1960201" lon="-7.8715466"><ele>678.2857142857142</ele><time>2026-04-26T10:48:01.779Z</time></trkpt><trkpt lat="41.1959515" lon="-7.8715141"><ele>674.8571428571429</ele><time>2026-04-26T10:48:02.779Z</time></trkpt><trkpt lat="41.1958806" lon="-7.8714807"><ele>671.4285714285714</ele><time>2026-04-26T10:48:03.779Z</time></trkpt><trkpt lat="41.1958098" lon="-7.8714426"><ele>668.0</ele><time>2026-04-26T10:48:04.776Z</time></trkpt><trkpt lat="41.1956973" lon="-7.8713613"><ele>662.1666666666666</ele><time>2026-04-26T10:48:06.774Z</time></trkpt><trkpt lat="41.1956384" lon="-7.8713053"><ele>656.3333333333333</ele><time>2026-04-26T10:48:07.774Z</time></trkpt><trkpt lat="41.1955733" lon="-7.8712424"><ele>650.5</ele><time>2026-04-26T10:48:08.775Z</time></trkpt><trkpt lat="41.195515" lon="-7.8711729"><ele>644.6666666666666</ele><time>2026-04-26T10:48:09.778Z</time></trkpt><trkpt lat="41.195459" lon="-7.8711009"><ele>638.8333333333334</ele><time>2026-04-26T10:48:10.779Z</time></trkpt><trkpt lat="41.1954041" lon="-7.8710331"><ele>633.0</ele><time>2026-04-26T10:48:11.777Z</time></trkpt><trkpt lat="41.1953487" lon="-7.8709661"><ele>634.8571428571429</ele><time>2026-04-26T10:48:12.788Z</time></trkpt><trkpt lat="41.1952935" lon="-7.8708952"><ele>636.7142857142858</ele><time>2026-04-26T10:48:13.776Z</time></trkpt><trkpt lat="41.1952416" lon="-7.8708325"><ele>638.5714285714287</ele><time>2026-04-26T10:48:14.774Z</time></trkpt><trkpt lat="41.1951849" lon="-7.870775"><ele>640.4285714285714</ele><time>2026-04-26T10:48:15.787Z</time></trkpt><trkpt lat="41.1951325" lon="-7.8707162"><ele>642.2857142857143</ele><time>2026-04-26T10:48:16.775Z</time></trkpt><trkpt lat="41.1950749" lon="-7.8706567"><ele>644.1428571428572</ele><time>2026-04-26T10:48:17.78Z</time></trkpt><trkpt lat="41.1950193" lon="-7.8705901"><ele>646.0</ele><time>2026-04-26T10:48:18.78Z</time></trkpt><trkpt lat="41.194952" lon="-7.8705269"><ele>646.0</ele><time>2026-04-26T10:48:19.774Z</time></trkpt><trkpt lat="41.194889" lon="-7.870469"><ele>646.0</ele><time>2026-04-26T10:48:20.776Z</time></trkpt><trkpt lat="41.1948203" lon="-7.8704161"><ele>646.0</ele><time>2026-04-26T10:48:21.772Z</time></trkpt><trkpt lat="41.1947582" lon="-7.8703666"><ele>646.0</ele><time>2026-04-26T10:48:22.785Z</time></trkpt><trkpt lat="41.1946934" lon="-7.8703098"><ele>646.0</ele><time>2026-04-26T10:48:23.776Z</time></trkpt><trkpt lat="41.1946329" lon="-7.87025"><ele>646.0</ele><time>2026-04-26T10:48:24.777Z</time></trkpt><trkpt lat="41.1945755" lon="-7.8701978"><ele>642.0000000000001</ele><time>2026-04-26T10:48:25.78Z</time></trkpt><trkpt lat="41.1945248" lon="-7.8701385"><ele>638.0</ele><time>2026-04-26T10:48:26.777Z</time></trkpt><trkpt lat="41.1944736" lon="-7.8700662"><ele>634.0</ele><time>2026-04-26T10:48:27.775Z</time></trkpt><trkpt lat="41.1944244" lon="-7.8699838"><ele>630.0</ele><time>2026-04-26T10:48:28.781Z</time></trkpt><trkpt lat="41.1943893" lon="-7.86989"><ele>626.0</ele><time>2026-04-26T10:48:29.778Z</time></trkpt><trkpt lat="41.1943574" lon="-7.8698057"><ele>622.0000000000001</ele><time>2026-04-26T10:48:30.781Z</time></trkpt><trkpt lat="41.194322" lon="-7.8697155"><ele>618.0</ele><time>2026-04-26T10:48:31.776Z</time></trkpt><trkpt lat="41.1942847" lon="-7.869634"><ele>618.0</ele><time>2026-04-26T10:48:32.785Z</time></trkpt><trkpt lat="41.1942487" lon="-7.8695557"><ele>618.0</ele><time>2026-04-26T10:48:33.773Z</time></trkpt><trkpt lat="41.1942069" lon="-7.8694739"><ele>618.0</ele><time>2026-04-26T10:48:34.778Z</time></trkpt><trkpt lat="41.194169" lon="-7.8693862"><ele>618.0</ele><time>2026-04-26T10:48:35.781Z</time></trkpt><trkpt lat="41.1941191" lon="-7.8692999"><ele>618.0</ele><time>2026-04-26T10:48:36.775Z</time></trkpt><trkpt lat="41.1940714" lon="-7.8692141"><ele>618.0</ele><time>2026-04-26T10:48:37.779Z</time></trkpt><trkpt lat="41.1940255" lon="-7.8691319"><ele>613.1666666666666</ele><time>2026-04-26T10:48:38.776Z</time></trkpt><trkpt lat="41.1939858" lon="-7.8690541"><ele>608.3333333333334</ele><time>2026-04-26T10:48:39.779Z</time></trkpt><trkpt lat="41.1939434" lon="-7.8689747"><ele>603.5</ele><time>2026-04-26T10:48:40.785Z</time></trkpt><trkpt lat="41.1939006" lon="-7.8688971"><ele>598.6666666666667</ele><time>2026-04-26T10:48:41.775Z</time></trkpt><trkpt lat="41.1938627" lon="-7.8688212"><ele>593.8333333333334</ele><time>2026-04-26T10:48:42.777Z</time></trkpt><trkpt lat="41.1938015" lon="-7.8686813"><ele>589.0</ele><time>2026-04-26T10:48:44.778Z</time></trkpt><trkpt lat="41.1937571" lon="-7.8685442"><ele>589.0</ele><time>2026-04-26T10:48:46.78Z</time></trkpt><trkpt lat="41.193734" lon="-7.868463"><ele>589.0</ele><time>2026-04-26T10:48:47.781Z</time></trkpt><trkpt lat="41.193709" lon="-7.8683757"><ele>589.0</ele><time>2026-04-26T10:48:48.783Z</time></trkpt><trkpt lat="41.1936815" lon="-7.868283"><ele>589.0</ele><time>2026-04-26T10:48:49.776Z</time></trkpt><trkpt lat="41.1936505" lon="-7.8681823"><ele>589.0</ele><time>2026-04-26T10:48:50.775Z</time></trkpt><trkpt lat="41.1936089" lon="-7.8680738"><ele>589.0</ele><time>2026-04-26T10:48:51.78Z</time></trkpt><trkpt lat="41.1935659" lon="-7.8679508"><ele>589.8333333333334</ele><time>2026-04-26T10:48:52.78Z</time></trkpt><trkpt lat="41.1935372" lon="-7.867834"><ele>590.6666666666667</ele><time>2026-04-26T10:48:53.775Z</time></trkpt><trkpt lat="41.1935135" lon="-7.8677164"><ele>591.5</ele><time>2026-04-26T10:48:54.786Z</time></trkpt><trkpt lat="41.1934906" lon="-7.8676009"><ele>592.3333333333334</ele><time>2026-04-26T10:48:55.775Z</time></trkpt><trkpt lat="41.1934815" lon="-7.8674949"><ele>593.1666666666666</ele><time>2026-04-26T10:48:56.776Z</time></trkpt><trkpt lat="41.1934803" lon="-7.8674026"><ele>594.0</ele><time>2026-04-26T10:48:57.776Z</time></trkpt><trkpt lat="41.1934992" lon="-7.8672644"><ele>591.6666666666666</ele><time>2026-04-26T10:48:59.775Z</time></trkpt><trkpt lat="41.193516" lon="-7.8671601"><ele>589.3333333333334</ele><time>2026-04-26T10:49:01.774Z</time></trkpt><trkpt lat="41.1934506" lon="-7.8671253"><ele>587.0</ele><time>2026-04-26T10:49:03.777Z</time></trkpt><trkpt lat="41.1933642" lon="-7.8671328"><ele>584.6666666666667</ele><time>2026-04-26T10:49:05.777Z</time></trkpt><trkpt lat="41.1932989" lon="-7.8671539"><ele>582.3333333333334</ele><time>2026-04-26T10:49:06.779Z</time></trkpt><trkpt lat="41.1931944" lon="-7.8672176"><ele>580.0</ele><time>2026-04-26T10:49:08.775Z</time></trkpt><trkpt lat="41.193111" lon="-7.8672759"><ele>576.1666666666667</ele><time>2026-04-26T10:49:10.78Z</time></trkpt><trkpt lat="41.193053" lon="-7.8673246"><ele>572.3333333333334</ele><time>2026-04-26T10:49:12.778Z</time></trkpt><trkpt lat="41.1929968" lon="-7.8673796"><ele>568.5</ele><time>2026-04-26T10:49:18.783Z</time></trkpt><trkpt lat="41.1929411" lon="-7.8674515"><ele>564.6666666666666</ele><time>2026-04-26T10:49:42.778Z</time></trkpt><trkpt lat="41.1929117" lon="-7.8675698"><ele>560.8333333333333</ele><time>2026-04-26T10:49:44.773Z</time></trkpt><trkpt lat="41.1929265" lon="-7.8676873"><ele>557.0</ele><time>2026-04-26T10:49:46.771Z</time></trkpt><trkpt lat="41.1929316" lon="-7.8678349"><ele>556.6</ele><time>2026-04-26T10:49:48.778Z</time></trkpt><trkpt lat="41.1929423" lon="-7.8679846"><ele>556.2</ele><time>2026-04-26T10:49:50.782Z</time></trkpt><trkpt lat="41.1929246" lon="-7.8680774"><ele>555.8</ele><time>2026-04-26T10:49:51.777Z</time></trkpt><trkpt lat="41.1929246" lon="-7.8682037"><ele>555.4</ele><time>2026-04-26T10:49:52.776Z</time></trkpt><trkpt lat="41.1929218" lon="-7.8683565"><ele>555.0</ele><time>2026-04-26T10:49:53.771Z</time></trkpt><trkpt lat="41.1929324" lon="-7.8685163"><ele>553.8</ele><time>2026-04-26T10:49:54.773Z</time></trkpt><trkpt lat="41.1929503" lon="-7.868665"><ele>552.6</ele><time>2026-04-26T10:49:55.774Z</time></trkpt><trkpt lat="41.1929732" lon="-7.8688107"><ele>551.4</ele><time>2026-04-26T10:49:56.771Z</time></trkpt><trkpt lat="41.1929918" lon="-7.8689473"><ele>550.2</ele><time>2026-04-26T10:49:57.777Z</time></trkpt><trkpt lat="41.1930225" lon="-7.8690829"><ele>549.0</ele><time>2026-04-26T10:49:58.783Z</time></trkpt><trkpt lat="41.193062" lon="-7.8692304"><ele>550.75</ele><time>2026-04-26T10:49:59.772Z</time></trkpt><trkpt lat="41.193103" lon="-7.8693807"><ele>552.5</ele><time>2026-04-26T10:50:00.774Z</time></trkpt><trkpt lat="41.1931444" lon="-7.8695201"><ele>554.25</ele><time>2026-04-26T10:50:01.772Z</time></trkpt><trkpt lat="41.1931926" lon="-7.8696554"><ele>556.0</ele><time>2026-04-26T10:50:02.784Z</time></trkpt><trkpt lat="41.193246" lon="-7.8697846"><ele>560.6</ele><time>2026-04-26T10:50:03.776Z</time></trkpt><trkpt lat="41.1932996" lon="-7.869911"><ele>565.2</ele><time>2026-04-26T10:50:04.772Z</time></trkpt><trkpt lat="41.1933458" lon="-7.870037"><ele>569.8</ele><time>2026-04-26T10:50:05.776Z</time></trkpt><trkpt lat="41.1933995" lon="-7.870157"><ele>574.4</ele><time>2026-04-26T10:50:06.779Z</time></trkpt><trkpt lat="41.1934719" lon="-7.8702627"><ele>579.0</ele><time>2026-04-26T10:50:07.778Z</time></trkpt><trkpt lat="41.1935385" lon="-7.8703704"><ele>579.0</ele><time>2026-04-26T10:50:08.784Z</time></trkpt><trkpt lat="41.193606" lon="-7.870465"><ele>579.0</ele><time>2026-04-26T10:50:09.779Z</time></trkpt><trkpt lat="41.1936808" lon="-7.8705645"><ele>579.0</ele><time>2026-04-26T10:50:10.774Z</time></trkpt><trkpt lat="41.1937587" lon="-7.8706637"><ele>579.0</ele><time>2026-04-26T10:50:11.786Z</time></trkpt><trkpt lat="41.1938206" lon="-7.8707636"><ele>579.0</ele><time>2026-04-26T10:50:12.783Z</time></trkpt><trkpt lat="41.1938858" lon="-7.870863"><ele>583.4</ele><time>2026-04-26T10:50:13.774Z</time></trkpt><trkpt lat="41.1939435" lon="-7.870969"><ele>587.8</ele><time>2026-04-26T10:50:14.777Z</time></trkpt><trkpt lat="41.1940036" lon="-7.8710755"><ele>592.2</ele><time>2026-04-26T10:50:15.774Z</time></trkpt><trkpt lat="41.1940558" lon="-7.8711814"><ele>596.6</ele><time>2026-04-26T10:50:16.788Z</time></trkpt><trkpt lat="41.1941008" lon="-7.8712862"><ele>601.0</ele><time>2026-04-26T10:50:17.78Z</time></trkpt><trkpt lat="41.1941462" lon="-7.8713833"><ele>601.1666666666667</ele><time>2026-04-26T10:50:18.774Z</time></trkpt><trkpt lat="41.1941817" lon="-7.8714809"><ele>601.3333333333334</ele><time>2026-04-26T10:50:19.776Z</time></trkpt><trkpt lat="41.1942016" lon="-7.8715679"><ele>601.5</ele><time>2026-04-26T10:50:20.78Z</time></trkpt><trkpt lat="41.1941914" lon="-7.8716601"><ele>601.6666666666666</ele><time>2026-04-26T10:50:21.776Z</time></trkpt><trkpt lat="41.1941497" lon="-7.8717372"><ele>601.8333333333333</ele><time>2026-04-26T10:50:22.773Z</time></trkpt><trkpt lat="41.1940857" lon="-7.8718064"><ele>602.0</ele><time>2026-04-26T10:50:23.771Z</time></trkpt><trkpt lat="41.194016" lon="-7.8718664"><ele>601.8333333333333</ele><time>2026-04-26T10:50:24.774Z</time></trkpt><trkpt lat="41.1939547" lon="-7.8719046"><ele>601.6666666666666</ele><time>2026-04-26T10:50:25.774Z</time></trkpt><trkpt lat="41.1938685" lon="-7.8718889"><ele>601.5</ele><time>2026-04-26T10:50:26.777Z</time></trkpt><trkpt lat="41.1937887" lon="-7.8718509"><ele>601.3333333333334</ele><time>2026-04-26T10:50:27.776Z</time></trkpt><trkpt lat="41.1936864" lon="-7.8718142"><ele>601.1666666666667</ele><time>2026-04-26T10:50:28.786Z</time></trkpt><trkpt lat="41.1935927" lon="-7.8717846"><ele>601.0</ele><time>2026-04-26T10:50:29.775Z</time></trkpt><trkpt lat="41.1934937" lon="-7.871764"><ele>601.0</ele><time>2026-04-26T10:50:30.776Z</time></trkpt><trkpt lat="41.1933937" lon="-7.8717397"><ele>601.0</ele><time>2026-04-26T10:50:31.781Z</time></trkpt><trkpt lat="41.1933006" lon="-7.8717213"><ele>601.0</ele><time>2026-04-26T10:50:32.773Z</time></trkpt><trkpt lat="41.1932033" lon="-7.8717077"><ele>601.0</ele><time>2026-04-26T10:50:33.773Z</time></trkpt><trkpt lat="41.193116" lon="-7.8717007"><ele>601.0</ele><time>2026-04-26T10:50:34.769Z</time></trkpt><trkpt lat="41.1930448" lon="-7.8717032"><ele>600.0</ele><time>2026-04-26T10:50:35.78Z</time></trkpt><trkpt lat="41.1929131" lon="-7.8717237"><ele>599.0</ele><time>2026-04-26T10:50:37.766Z</time></trkpt><trkpt lat="41.1928463" lon="-7.8717508"><ele>598.0</ele><time>2026-04-26T10:50:38.768Z</time></trkpt><trkpt lat="41.1927776" lon="-7.8717843"><ele>597.0</ele><time>2026-04-26T10:50:39.771Z</time></trkpt><trkpt lat="41.1927171" lon="-7.871827"><ele>596.0</ele><time>2026-04-26T10:50:40.77Z</time></trkpt><trkpt lat="41.1926583" lon="-7.871889"><ele>595.0</ele><time>2026-04-26T10:50:41.768Z</time></trkpt><trkpt lat="41.1925985" lon="-7.871951"><ele>597.0</ele><time>2026-04-26T10:50:42.77Z</time></trkpt><trkpt lat="41.1925356" lon="-7.8720265"><ele>599.0</ele><time>2026-04-26T10:50:43.773Z</time></trkpt><trkpt lat="41.1924802" lon="-7.872107"><ele>601.0</ele><time>2026-04-26T10:50:44.771Z</time></trkpt><trkpt lat="41.1924276" lon="-7.8721882"><ele>603.0</ele><time>2026-04-26T10:50:45.77Z</time></trkpt><trkpt lat="41.1923732" lon="-7.8722678"><ele>605.0</ele><time>2026-04-26T10:50:46.77Z</time></trkpt><trkpt lat="41.1923169" lon="-7.8723585"><ele>607.0</ele><time>2026-04-26T10:50:47.772Z</time></trkpt><trkpt lat="41.1922647" lon="-7.8724476"><ele>607.0</ele><time>2026-04-26T10:50:48.768Z</time></trkpt><trkpt lat="41.1922137" lon="-7.8725326"><ele>607.0</ele><time>2026-04-26T10:50:49.77Z</time></trkpt><trkpt lat="41.192166" lon="-7.8726339"><ele>607.0</ele><time>2026-04-26T10:50:50.77Z</time></trkpt><trkpt lat="41.1921229" lon="-7.8727467"><ele>607.0</ele><time>2026-04-26T10:50:51.768Z</time></trkpt><trkpt lat="41.1920811" lon="-7.8728716"><ele>607.0</ele><time>2026-04-26T10:50:52.766Z</time></trkpt><trkpt lat="41.1920432" lon="-7.8729945"><ele>609.6666666666667</ele><time>2026-04-26T10:50:53.771Z</time></trkpt><trkpt lat="41.1919877" lon="-7.8730913"><ele>612.3333333333334</ele><time>2026-04-26T10:50:54.771Z</time></trkpt><trkpt lat="41.1919264" lon="-7.8731675"><ele>615.0</ele><time>2026-04-26T10:50:55.774Z</time></trkpt><trkpt lat="41.1918549" lon="-7.8732271"><ele>617.6666666666666</ele><time>2026-04-26T10:50:56.772Z</time></trkpt><trkpt lat="41.1917767" lon="-7.8732617"><ele>620.3333333333333</ele><time>2026-04-26T10:50:57.769Z</time></trkpt><trkpt lat="41.1916939" lon="-7.8732785"><ele>623.0</ele><time>2026-04-26T10:50:58.769Z</time></trkpt><trkpt lat="41.1916058" lon="-7.8732937"><ele>623.0</ele><time>2026-04-26T10:50:59.773Z</time></trkpt><trkpt lat="41.1915259" lon="-7.8732953"><ele>623.0</ele><time>2026-04-26T10:51:00.77Z</time></trkpt><trkpt lat="41.1914347" lon="-7.8732976"><ele>623.0</ele><time>2026-04-26T10:51:01.768Z</time></trkpt><trkpt lat="41.1913484" lon="-7.8733098"><ele>623.0</ele><time>2026-04-26T10:51:02.772Z</time></trkpt><trkpt lat="41.1912633" lon="-7.8733159"><ele>623.0</ele><time>2026-04-26T10:51:03.771Z</time></trkpt><trkpt lat="41.1911891" lon="-7.8733191"><ele>623.0</ele><time>2026-04-26T10:51:04.77Z</time></trkpt><trkpt lat="41.191125" lon="-7.8733135"><ele>624.0</ele><time>2026-04-26T10:51:05.77Z</time></trkpt><trkpt lat="41.1910508" lon="-7.8733064"><ele>625.0</ele><time>2026-04-26T10:51:07.77Z</time></trkpt><trkpt lat="41.1910117" lon="-7.8732403"><ele>626.0</ele><time>2026-04-26T10:51:16.773Z</time></trkpt><trkpt lat="41.1909547" lon="-7.8731609"><ele>627.0</ele><time>2026-04-26T10:51:18.769Z</time></trkpt><trkpt lat="41.1909154" lon="-7.87309"><ele>628.0</ele><time>2026-04-26T10:51:19.768Z</time></trkpt><trkpt lat="41.1908765" lon="-7.8730193"><ele>629.0</ele><time>2026-04-26T10:51:20.777Z</time></trkpt><trkpt lat="41.1908284" lon="-7.8729554"><ele>630.0</ele><time>2026-04-26T10:51:21.769Z</time></trkpt><trkpt lat="41.1907613" lon="-7.8728118"><ele>630.0</ele><time>2026-04-26T10:51:23.772Z</time></trkpt><trkpt lat="41.1906835" lon="-7.8727039"><ele>630.0</ele><time>2026-04-26T10:51:25.77Z</time></trkpt><trkpt lat="41.1906019" lon="-7.8726261"><ele>630.0</ele><time>2026-04-26T10:51:27.771Z</time></trkpt><trkpt lat="41.1905494" lon="-7.8725686"><ele>630.0</ele><time>2026-04-26T10:51:33.767Z</time></trkpt><trkpt lat="41.1904696" lon="-7.8725105"><ele>630.0</ele><time>2026-04-26T10:51:36.772Z</time></trkpt><trkpt lat="41.1904293" lon="-7.8725798"><ele>630.0</ele><time>2026-04-26T10:51:38.77Z</time></trkpt><trkpt lat="41.190351" lon="-7.8726785"><ele>632.0</ele><time>2026-04-26T10:51:39.772Z</time></trkpt><trkpt lat="41.1902685" lon="-7.8727482"><ele>634.0</ele><time>2026-04-26T10:51:40.768Z</time></trkpt><trkpt lat="41.190188" lon="-7.8727888"><ele>636.0</ele><time>2026-04-26T10:51:41.768Z</time></trkpt><trkpt lat="41.190113" lon="-7.8728144"><ele>638.0</ele><time>2026-04-26T10:51:42.773Z</time></trkpt><trkpt lat="41.1900166" lon="-7.8729144"><ele>640.0</ele><time>2026-04-26T10:51:44.775Z</time></trkpt><trkpt lat="41.1899184" lon="-7.8730231"><ele>640.0</ele><time>2026-04-26T10:51:46.772Z</time></trkpt><trkpt lat="41.1898626" lon="-7.8730742"><ele>640.0</ele><time>2026-04-26T10:51:47.769Z</time></trkpt><trkpt lat="41.1897515" lon="-7.8731667"><ele>640.0</ele><time>2026-04-26T10:51:49.776Z</time></trkpt><trkpt lat="41.1896393" lon="-7.8731949"><ele>640.0</ele><time>2026-04-26T10:51:51.77Z</time></trkpt><trkpt lat="41.189578" lon="-7.8731688"><ele>640.0</ele><time>2026-04-26T10:51:52.766Z</time></trkpt><trkpt lat="41.1895177" lon="-7.8731356"><ele>640.0</ele><time>2026-04-26T10:51:53.769Z</time></trkpt><trkpt lat="41.1894568" lon="-7.87308"><ele>642.0</ele><time>2026-04-26T10:51:54.774Z</time></trkpt><trkpt lat="41.1894004" lon="-7.873018"><ele>644.0</ele><time>2026-04-26T10:51:55.768Z</time></trkpt><trkpt lat="41.1893421" lon="-7.8729542"><ele>646.0</ele><time>2026-04-26T10:51:56.768Z</time></trkpt><trkpt lat="41.1892817" lon="-7.8728927"><ele>648.0</ele><time>2026-04-26T10:51:57.772Z</time></trkpt><trkpt lat="41.1892274" lon="-7.8728356"><ele>650.0</ele><time>2026-04-26T10:51:58.769Z</time></trkpt><trkpt lat="41.1891166" lon="-7.8727473"><ele>652.0</ele><time>2026-04-26T10:52:00.773Z</time></trkpt><trkpt lat="41.1890365" lon="-7.8726425"><ele>651.6</ele><time>2026-04-26T10:52:02.775Z</time></trkpt><trkpt lat="41.1889895" lon="-7.8725848"><ele>651.2</ele><time>2026-04-26T10:52:03.771Z</time></trkpt><trkpt lat="41.1888958" lon="-7.872488"><ele>650.8</ele><time>2026-04-26T10:52:05.772Z</time></trkpt><trkpt lat="41.1887892" lon="-7.8724091"><ele>650.4</ele><time>2026-04-26T10:52:07.77Z</time></trkpt><trkpt lat="41.1887301" lon="-7.8723611"><ele>650.0</ele><time>2026-04-26T10:52:08.774Z</time></trkpt><trkpt lat="41.1886429" lon="-7.8722964"><ele>650.0</ele><time>2026-04-26T10:52:10.767Z</time></trkpt><trkpt lat="41.188555" lon="-7.872246"><ele>650.0</ele><time>2026-04-26T10:52:12.773Z</time></trkpt><trkpt lat="41.188463" lon="-7.8722002"><ele>650.0</ele><time>2026-04-26T10:52:14.769Z</time></trkpt><trkpt lat="41.188404" lon="-7.8721683"><ele>650.0</ele><time>2026-04-26T10:52:16.772Z</time></trkpt><trkpt lat="41.1883382" lon="-7.8720986"><ele>650.0</ele><time>2026-04-26T10:52:18.778Z</time></trkpt><trkpt lat="41.1882521" lon="-7.8720177"><ele>650.0</ele><time>2026-04-26T10:52:20.772Z</time></trkpt><trkpt lat="41.1881691" lon="-7.8719187"><ele>651.0</ele><time>2026-04-26T10:52:22.773Z</time></trkpt><trkpt lat="41.188073" lon="-7.8718066"><ele>652.0</ele><time>2026-04-26T10:52:24.773Z</time></trkpt><trkpt lat="41.1879683" lon="-7.8716984"><ele>653.0</ele><time>2026-04-26T10:52:26.772Z</time></trkpt><trkpt lat="41.1879098" lon="-7.8716425"><ele>654.0</ele><time>2026-04-26T10:52:27.776Z</time></trkpt><trkpt lat="41.187857" lon="-7.8715875"><ele>655.0</ele><time>2026-04-26T10:52:28.769Z</time></trkpt><trkpt lat="41.187757" lon="-7.8714996"><ele>649.8</ele><time>2026-04-26T10:52:30.772Z</time></trkpt><trkpt lat="41.1876742" lon="-7.8714225"><ele>644.6</ele><time>2026-04-26T10:52:32.77Z</time></trkpt><trkpt lat="41.1875749" lon="-7.8714102"><ele>639.4</ele><time>2026-04-26T10:52:34.768Z</time></trkpt><trkpt lat="41.1874522" lon="-7.8714062"><ele>634.2</ele><time>2026-04-26T10:52:36.776Z</time></trkpt><trkpt lat="41.1873342" lon="-7.8714166"><ele>629.0</ele><time>2026-04-26T10:52:38.769Z</time></trkpt><trkpt lat="41.1872082" lon="-7.8714261"><ele>628.1666666666666</ele><time>2026-04-26T10:52:40.769Z</time></trkpt><trkpt lat="41.1871341" lon="-7.8714317"><ele>627.3333333333333</ele><time>2026-04-26T10:52:41.768Z</time></trkpt><trkpt lat="41.1870139" lon="-7.8714379"><ele>626.5</ele><time>2026-04-26T10:52:43.768Z</time></trkpt><trkpt lat="41.1869432" lon="-7.8714202"><ele>625.6666666666666</ele><time>2026-04-26T10:52:45.77Z</time></trkpt><trkpt lat="41.1869164" lon="-7.8713336"><ele>624.8333333333334</ele><time>2026-04-26T10:52:47.769Z</time></trkpt><trkpt lat="41.1868526" lon="-7.8712345"><ele>624.0</ele><time>2026-04-26T10:52:49.77Z</time></trkpt><trkpt lat="41.1867618" lon="-7.8711234"><ele>624.0</ele><time>2026-04-26T10:52:51.772Z</time></trkpt><trkpt lat="41.1867108" lon="-7.8710629"><ele>624.0</ele><time>2026-04-26T10:52:52.769Z</time></trkpt><trkpt lat="41.1866618" lon="-7.8709964"><ele>624.0</ele><time>2026-04-26T10:52:53.774Z</time></trkpt><trkpt lat="41.1866115" lon="-7.8709355"><ele>624.0</ele><time>2026-04-26T10:52:54.768Z</time></trkpt><trkpt lat="41.1865591" lon="-7.8708829"><ele>624.0</ele><time>2026-04-26T10:52:55.769Z</time></trkpt><trkpt lat="41.18651" lon="-7.8708286"><ele>624.0</ele><time>2026-04-26T10:52:56.769Z</time></trkpt><trkpt lat="41.1864095" lon="-7.8707341"><ele>618.0</ele><time>2026-04-26T10:52:58.769Z</time></trkpt><trkpt lat="41.1862984" lon="-7.8706813"><ele>612.0</ele><time>2026-04-26T10:53:00.772Z</time></trkpt><trkpt lat="41.1861967" lon="-7.8706758"><ele>606.0</ele><time>2026-04-26T10:53:02.771Z</time></trkpt><trkpt lat="41.1861132" lon="-7.8707071"><ele>600.0</ele><time>2026-04-26T10:53:04.767Z</time></trkpt><trkpt lat="41.1860523" lon="-7.8706704"><ele>594.0</ele><time>2026-04-26T10:53:07.77Z</time></trkpt><trkpt lat="41.1860673" lon="-7.8705839"><ele>588.0</ele><time>2026-04-26T10:53:09.77Z</time></trkpt><trkpt lat="41.1861288" lon="-7.8704611"><ele>588.0</ele><time>2026-04-26T10:53:11.771Z</time></trkpt><trkpt lat="41.1861944" lon="-7.8703466"><ele>588.0</ele><time>2026-04-26T10:53:13.766Z</time></trkpt><trkpt lat="41.1862522" lon="-7.8702607"><ele>588.0</ele><time>2026-04-26T10:53:15.769Z</time></trkpt><trkpt lat="41.1862977" lon="-7.8701522"><ele>588.0</ele><time>2026-04-26T10:53:17.768Z</time></trkpt><trkpt lat="41.1863343" lon="-7.8700823"><ele>588.0</ele><time>2026-04-26T10:53:19.766Z</time></trkpt><trkpt lat="41.1863579" lon="-7.8699865"><ele>588.0</ele><time>2026-04-26T10:53:21.769Z</time></trkpt><trkpt lat="41.1863162" lon="-7.8699193"><ele>583.6</ele><time>2026-04-26T10:53:24.767Z</time></trkpt><trkpt lat="41.1862175" lon="-7.8698967"><ele>579.1999999999999</ele><time>2026-04-26T10:53:26.774Z</time></trkpt><trkpt lat="41.1861221" lon="-7.8699168"><ele>574.8</ele><time>2026-04-26T10:53:28.771Z</time></trkpt><trkpt lat="41.1860084" lon="-7.8699116"><ele>570.4</ele><time>2026-04-26T10:53:30.77Z</time></trkpt><trkpt lat="41.1859327" lon="-7.869922"><ele>566.0</ele><time>2026-04-26T10:53:32.774Z</time></trkpt><trkpt lat="41.1858684" lon="-7.8699382"><ele>566.0</ele><time>2026-04-26T10:53:33.766Z</time></trkpt><trkpt lat="41.1857487" lon="-7.8700042"><ele>566.0</ele><time>2026-04-26T10:53:35.767Z</time></trkpt><trkpt lat="41.1856891" lon="-7.8700335"><ele>566.0</ele><time>2026-04-26T10:53:36.767Z</time></trkpt><trkpt lat="41.1856041" lon="-7.870046"><ele>566.0</ele><time>2026-04-26T10:53:38.766Z</time></trkpt><trkpt lat="41.1855199" lon="-7.8700508"><ele>566.0</ele><time>2026-04-26T10:53:40.774Z</time></trkpt><trkpt lat="41.1854868" lon="-7.8701664"><ele>565.1666666666666</ele><time>2026-04-26T10:53:47.774Z</time></trkpt><trkpt lat="41.185455" lon="-7.8702567"><ele>564.3333333333333</ele><time>2026-04-26T10:53:49.766Z</time></trkpt><trkpt lat="41.1853997" lon="-7.8703502"><ele>563.5</ele><time>2026-04-26T10:53:51.77Z</time></trkpt><trkpt lat="41.1853523" lon="-7.8704504"><ele>562.6666666666666</ele><time>2026-04-26T10:53:53.774Z</time></trkpt><trkpt lat="41.1853209" lon="-7.8705406"><ele>561.8333333333334</ele><time>2026-04-26T10:53:55.766Z</time></trkpt><trkpt lat="41.1852776" lon="-7.8706311"><ele>561.0</ele><time>2026-04-26T10:53:58.768Z</time></trkpt><trkpt lat="41.1852436" lon="-7.8707206"><ele>561.0</ele><time>2026-04-26T10:54:01.77Z</time></trkpt><trkpt lat="41.185183" lon="-7.8708182"><ele>561.0</ele><time>2026-04-26T10:54:04.767Z</time></trkpt><trkpt lat="41.1851614" lon="-7.8709228"><ele>561.0</ele><time>2026-04-26T10:54:07.77Z</time></trkpt><trkpt lat="41.1850906" lon="-7.870953"><ele>561.0</ele><time>2026-04-26T10:54:09.769Z</time></trkpt><trkpt lat="41.1850033" lon="-7.8709681"><ele>561.0</ele><time>2026-04-26T10:54:12.77Z</time></trkpt><trkpt lat="41.184932" lon="-7.8709942"><ele>561.0</ele><time>2026-04-26T10:54:14.777Z</time></trkpt><trkpt lat="41.1848535" lon="-7.8709632"><ele>558.2</ele><time>2026-04-26T10:54:16.767Z</time></trkpt><trkpt lat="41.1847663" lon="-7.8709341"><ele>555.4000000000001</ele><time>2026-04-26T10:54:18.766Z</time></trkpt><trkpt lat="41.1846642" lon="-7.8709207"><ele>552.6</ele><time>2026-04-26T10:54:20.771Z</time></trkpt><trkpt lat="41.184569" lon="-7.8709526"><ele>549.8000000000001</ele><time>2026-04-26T10:54:22.767Z</time></trkpt><trkpt lat="41.1844593" lon="-7.8710082"><ele>547.0</ele><time>2026-04-26T10:54:24.772Z</time></trkpt><trkpt lat="41.1843987" lon="-7.8710347"><ele>552.6666666666667</ele><time>2026-04-26T10:54:25.767Z</time></trkpt><trkpt lat="41.1842854" lon="-7.8710852"><ele>558.3333333333334</ele><time>2026-04-26T10:54:27.766Z</time></trkpt><trkpt lat="41.184195" lon="-7.8711099"><ele>564.0</ele><time>2026-04-26T10:54:29.766Z</time></trkpt><trkpt lat="41.1841294" lon="-7.8711139"><ele>569.6666666666666</ele><time>2026-04-26T10:54:31.773Z</time></trkpt><trkpt lat="41.1840469" lon="-7.8710981"><ele>575.3333333333333</ele><time>2026-04-26T10:54:38.766Z</time></trkpt><trkpt lat="41.1839624" lon="-7.8710902"><ele>581.0</ele><time>2026-04-26T10:54:41.766Z</time></trkpt><trkpt lat="41.1838722" lon="-7.8710747"><ele>581.4</ele><time>2026-04-26T10:54:43.768Z</time></trkpt><trkpt lat="41.1837846" lon="-7.8710715"><ele>581.8</ele><time>2026-04-26T10:54:45.768Z</time></trkpt><trkpt lat="41.1837137" lon="-7.8710697"><ele>582.1999999999999</ele><time>2026-04-26T10:54:47.77Z</time></trkpt><trkpt lat="41.1835992" lon="-7.8710562"><ele>582.6</ele><time>2026-04-26T10:54:49.766Z</time></trkpt><trkpt lat="41.1835024" lon="-7.8709986"><ele>583.0</ele><time>2026-04-26T10:54:51.766Z</time></trkpt><trkpt lat="41.1834296" lon="-7.8709973"><ele>583.0</ele><time>2026-04-26T10:54:53.767Z</time></trkpt><trkpt lat="41.1833653" lon="-7.87102"><ele>583.0</ele><time>2026-04-26T10:54:55.768Z</time></trkpt><trkpt lat="41.1832665" lon="-7.8710445"><ele>583.0</ele><time>2026-04-26T10:54:57.769Z</time></trkpt><trkpt lat="41.1831461" lon="-7.8710685"><ele>583.0</ele><time>2026-04-26T10:54:59.766Z</time></trkpt><trkpt lat="41.1830818" lon="-7.8710735"><ele>583.0</ele><time>2026-04-26T10:55:00.766Z</time></trkpt><trkpt lat="41.1829803" lon="-7.8710813"><ele>582.8333333333334</ele><time>2026-04-26T10:55:02.767Z</time></trkpt><trkpt lat="41.18291" lon="-7.8710801"><ele>582.6666666666667</ele><time>2026-04-26T10:55:04.769Z</time></trkpt><trkpt lat="41.1828284" lon="-7.8710844"><ele>582.5</ele><time>2026-04-26T10:55:06.774Z</time></trkpt><trkpt lat="41.1827576" lon="-7.8710888"><ele>582.3333333333334</ele><time>2026-04-26T10:55:08.768Z</time></trkpt><trkpt lat="41.1827133" lon="-7.8710068"><ele>582.1666666666666</ele><time>2026-04-26T10:55:12.772Z</time></trkpt><trkpt lat="41.1827473" lon="-7.8709092"><ele>582.0</ele><time>2026-04-26T10:55:14.767Z</time></trkpt><trkpt lat="41.182788" lon="-7.8708071"><ele>582.0</ele><time>2026-04-26T10:55:16.769Z</time></trkpt><trkpt lat="41.1828202" lon="-7.8706662"><ele>582.0</ele><time>2026-04-26T10:55:18.763Z</time></trkpt><trkpt lat="41.182851" lon="-7.8705"><ele>582.0</ele><time>2026-04-26T10:55:20.771Z</time></trkpt><trkpt lat="41.182874" lon="-7.8704113"><ele>582.0</ele><time>2026-04-26T10:55:21.769Z</time></trkpt><trkpt lat="41.1828992" lon="-7.8703306"><ele>582.0</ele><time>2026-04-26T10:55:22.768Z</time></trkpt><trkpt lat="41.1829177" lon="-7.8702399"><ele>582.0</ele><time>2026-04-26T10:55:23.77Z</time></trkpt><trkpt lat="41.182947" lon="-7.8701478"><ele>581.1666666666666</ele><time>2026-04-26T10:55:24.767Z</time></trkpt><trkpt lat="41.1829795" lon="-7.8700622"><ele>580.3333333333334</ele><time>2026-04-26T10:55:25.767Z</time></trkpt><trkpt lat="41.1830154" lon="-7.8699804"><ele>579.5</ele><time>2026-04-26T10:55:26.768Z</time></trkpt><trkpt lat="41.1830537" lon="-7.8698847"><ele>578.6666666666667</ele><time>2026-04-26T10:55:27.772Z</time></trkpt><trkpt lat="41.1830874" lon="-7.8697907"><ele>577.8333333333334</ele><time>2026-04-26T10:55:28.77Z</time></trkpt><trkpt lat="41.1831351" lon="-7.8697145"><ele>577.0</ele><time>2026-04-26T10:55:29.774Z</time></trkpt><trkpt lat="41.1831801" lon="-7.8696376"><ele>574.2</ele><time>2026-04-26T10:55:30.771Z</time></trkpt><trkpt lat="41.1832162" lon="-7.8695678"><ele>571.4000000000001</ele><time>2026-04-26T10:55:31.769Z</time></trkpt><trkpt lat="41.1832505" lon="-7.8694945"><ele>568.5999999999999</ele><time>2026-04-26T10:55:32.766Z</time></trkpt><trkpt lat="41.1833042" lon="-7.8693557"><ele>565.8</ele><time>2026-04-26T10:55:34.769Z</time></trkpt><trkpt lat="41.1833297" lon="-7.8691999"><ele>563.0</ele><time>2026-04-26T10:55:36.766Z</time></trkpt><trkpt lat="41.1833496" lon="-7.8690336"><ele>563.0</ele><time>2026-04-26T10:55:38.774Z</time></trkpt><trkpt lat="41.1833555" lon="-7.8689421"><ele>563.0</ele><time>2026-04-26T10:55:39.772Z</time></trkpt><trkpt lat="41.1833594" lon="-7.8688523"><ele>563.0</ele><time>2026-04-26T10:55:40.772Z</time></trkpt><trkpt lat="41.1833542" lon="-7.8687655"><ele>563.0</ele><time>2026-04-26T10:55:41.773Z</time></trkpt><trkpt lat="41.1833325" lon="-7.8686198"><ele>563.0</ele><time>2026-04-26T10:55:43.765Z</time></trkpt><trkpt lat="41.18331" lon="-7.8684652"><ele>563.0</ele><time>2026-04-26T10:55:45.771Z</time></trkpt><trkpt lat="41.1832827" lon="-7.8683702"><ele>562.3333333333333</ele><time>2026-04-26T10:55:47.765Z</time></trkpt><trkpt lat="41.1832058" lon="-7.8683844"><ele>561.6666666666666</ele><time>2026-04-26T10:55:53.773Z</time></trkpt><trkpt lat="41.1831763" lon="-7.8684874"><ele>561.0</ele><time>2026-04-26T10:55:57.764Z</time></trkpt><trkpt lat="41.1831539" lon="-7.8686036"><ele>560.3333333333334</ele><time>2026-04-26T10:55:59.77Z</time></trkpt><trkpt lat="41.1831337" lon="-7.8687496"><ele>559.6666666666667</ele><time>2026-04-26T10:56:01.769Z</time></trkpt><trkpt lat="41.1831167" lon="-7.8688583"><ele>559.0</ele><time>2026-04-26T10:56:02.767Z</time></trkpt><trkpt lat="41.1830995" lon="-7.86897"><ele>561.5714285714286</ele><time>2026-04-26T10:56:03.772Z</time></trkpt><trkpt lat="41.1830692" lon="-7.8690577"><ele>564.1428571428572</ele><time>2026-04-26T10:56:04.769Z</time></trkpt><trkpt lat="41.1830371" lon="-7.8691467"><ele>566.7142857142858</ele><time>2026-04-26T10:56:05.765Z</time></trkpt><trkpt lat="41.1830104" lon="-7.8692362"><ele>569.2857142857143</ele><time>2026-04-26T10:56:06.767Z</time></trkpt><trkpt lat="41.1829812" lon="-7.8693149"><ele>571.8571428571429</ele><time>2026-04-26T10:56:07.771Z</time></trkpt><trkpt lat="41.1829453" lon="-7.8693952"><ele>574.4285714285714</ele><time>2026-04-26T10:56:08.766Z</time></trkpt><trkpt lat="41.1829105" lon="-7.8694751"><ele>577.0</ele><time>2026-04-26T10:56:09.765Z</time></trkpt><trkpt lat="41.1828689" lon="-7.8695491"><ele>577.0</ele><time>2026-04-26T10:56:10.788Z</time></trkpt><trkpt lat="41.1828107" lon="-7.8696315"><ele>577.0</ele><time>2026-04-26T10:56:11.768Z</time></trkpt><trkpt lat="41.1827543" lon="-7.8697149"><ele>577.0</ele><time>2026-04-26T10:56:12.766Z</time></trkpt><trkpt lat="41.1826926" lon="-7.8698127"><ele>577.0</ele><time>2026-04-26T10:56:13.77Z</time></trkpt><trkpt lat="41.1826412" lon="-7.8699082"><ele>577.0</ele><time>2026-04-26T10:56:14.767Z</time></trkpt><trkpt lat="41.1825756" lon="-7.8700072"><ele>577.0</ele><time>2026-04-26T10:56:15.767Z</time></trkpt><trkpt lat="41.1825009" lon="-7.870105"><ele>577.0</ele><time>2026-04-26T10:56:16.774Z</time></trkpt><trkpt lat="41.1824353" lon="-7.8701926"><ele>577.0</ele><time>2026-04-26T10:56:17.77Z</time></trkpt><trkpt lat="41.1823844" lon="-7.8702765"><ele>577.0</ele><time>2026-04-26T10:56:18.771Z</time></trkpt><trkpt lat="41.1823349" lon="-7.8703562"><ele>577.0</ele><time>2026-04-26T10:56:19.768Z</time></trkpt><trkpt lat="41.1822857" lon="-7.870442"><ele>577.0</ele><time>2026-04-26T10:56:20.768Z</time></trkpt><trkpt lat="41.1822364" lon="-7.8705335"><ele>582.8000000000001</ele><time>2026-04-26T10:56:21.773Z</time></trkpt><trkpt lat="41.1821888" lon="-7.8706416"><ele>588.6</ele><time>2026-04-26T10:56:22.767Z</time></trkpt><trkpt lat="41.1821487" lon="-7.870762"><ele>594.4000000000001</ele><time>2026-04-26T10:56:23.768Z</time></trkpt><trkpt lat="41.1821186" lon="-7.8708943"><ele>600.2</ele><time>2026-04-26T10:56:24.774Z</time></trkpt><trkpt lat="41.1820947" lon="-7.871037"><ele>606.0</ele><time>2026-04-26T10:56:25.771Z</time></trkpt><trkpt lat="41.1820761" lon="-7.8711886"><ele>607.6</ele><time>2026-04-26T10:56:26.765Z</time></trkpt><trkpt lat="41.1820557" lon="-7.8713409"><ele>609.2</ele><time>2026-04-26T10:56:27.768Z</time></trkpt><trkpt lat="41.1820423" lon="-7.8714838"><ele>610.8</ele><time>2026-04-26T10:56:28.769Z</time></trkpt><trkpt lat="41.18203" lon="-7.8716225"><ele>612.4</ele><time>2026-04-26T10:56:29.767Z</time></trkpt><trkpt lat="41.1819951" lon="-7.8717391"><ele>614.0</ele><time>2026-04-26T10:56:30.77Z</time></trkpt><trkpt lat="41.1819639" lon="-7.8718327"><ele>614.0</ele><time>2026-04-26T10:56:31.781Z</time></trkpt><trkpt lat="41.1818995" lon="-7.8719312"><ele>614.0</ele><time>2026-04-26T10:56:33.768Z</time></trkpt><trkpt lat="41.1817901" lon="-7.8718584"><ele>614.0</ele><time>2026-04-26T10:56:35.765Z</time></trkpt><trkpt lat="41.1817343" lon="-7.8717391"><ele>614.0</ele><time>2026-04-26T10:56:36.778Z</time></trkpt><trkpt lat="41.1816844" lon="-7.8716228"><ele>614.0</ele><time>2026-04-26T10:56:37.77Z</time></trkpt><trkpt lat="41.1816486" lon="-7.8715317"><ele>614.0</ele><time>2026-04-26T10:56:38.763Z</time></trkpt><trkpt lat="41.1816137" lon="-7.8714565"><ele>614.0</ele><time>2026-04-26T10:56:39.778Z</time></trkpt><trkpt lat="41.1815175" lon="-7.8713735"><ele>614.0</ele><time>2026-04-26T10:56:41.77Z</time></trkpt><trkpt lat="41.1813749" lon="-7.8713582"><ele>614.0</ele><time>2026-04-26T10:56:43.764Z</time></trkpt><trkpt lat="41.1812843" lon="-7.8713731"><ele>614.0</ele><time>2026-04-26T10:56:44.77Z</time></trkpt><trkpt lat="41.1812053" lon="-7.8713981"><ele>614.8571428571428</ele><time>2026-04-26T10:56:45.769Z</time></trkpt><trkpt lat="41.1811344" lon="-7.8714241"><ele>615.7142857142857</ele><time>2026-04-26T10:56:46.766Z</time></trkpt><trkpt lat="41.1810807" lon="-7.8714838"><ele>616.5714285714286</ele><time>2026-04-26T10:56:47.766Z</time></trkpt><trkpt lat="41.1810313" lon="-7.871564"><ele>617.4285714285713</ele><time>2026-04-26T10:56:48.768Z</time></trkpt><trkpt lat="41.1809905" lon="-7.8716512"><ele>618.2857142857142</ele><time>2026-04-26T10:56:49.773Z</time></trkpt><trkpt lat="41.1809589" lon="-7.8717384"><ele>619.1428571428571</ele><time>2026-04-26T10:56:50.771Z</time></trkpt><trkpt lat="41.180943" lon="-7.8718203"><ele>620.0</ele><time>2026-04-26T10:56:51.764Z</time></trkpt><trkpt lat="41.180936" lon="-7.8719115"><ele>622.1666666666666</ele><time>2026-04-26T10:56:52.768Z</time></trkpt><trkpt lat="41.1809271" lon="-7.8720201"><ele>624.3333333333333</ele><time>2026-04-26T10:56:53.767Z</time></trkpt><trkpt lat="41.1809395" lon="-7.8721094"><ele>626.5</ele><time>2026-04-26T10:56:54.77Z</time></trkpt><trkpt lat="41.1809499" lon="-7.8722133"><ele>628.6666666666666</ele><time>2026-04-26T10:56:55.765Z</time></trkpt><trkpt lat="41.1809725" lon="-7.8723198"><ele>630.8333333333334</ele><time>2026-04-26T10:56:56.765Z</time></trkpt><trkpt lat="41.1809855" lon="-7.8724246"><ele>633.0</ele><time>2026-04-26T10:56:57.775Z</time></trkpt><trkpt lat="41.1809972" lon="-7.8725311"><ele>635.0</ele><time>2026-04-26T10:56:58.768Z</time></trkpt><trkpt lat="41.1810052" lon="-7.8726301"><ele>637.0</ele><time>2026-04-26T10:56:59.766Z</time></trkpt><trkpt lat="41.181016" lon="-7.8727165"><ele>639.0</ele><time>2026-04-26T10:57:00.766Z</time></trkpt><trkpt lat="41.1810136" lon="-7.8728742"><ele>641.0</ele><time>2026-04-26T10:57:02.769Z</time></trkpt><trkpt lat="41.1809335" lon="-7.8729934"><ele>643.0</ele><time>2026-04-26T10:57:04.765Z</time></trkpt><trkpt lat="41.1808636" lon="-7.8730845"><ele>643.0</ele><time>2026-04-26T10:57:06.768Z</time></trkpt><trkpt lat="41.1808243" lon="-7.8731522"><ele>643.0</ele><time>2026-04-26T10:57:08.767Z</time></trkpt><trkpt lat="41.1807991" lon="-7.8732454"><ele>643.0</ele><time>2026-04-26T10:57:11.766Z</time></trkpt><trkpt lat="41.180803" lon="-7.8733569"><ele>643.0</ele><time>2026-04-26T10:57:14.768Z</time></trkpt><trkpt lat="41.180832" lon="-7.873464"><ele>643.0</ele><time>2026-04-26T10:57:16.767Z</time></trkpt><trkpt lat="41.1808716" lon="-7.8735781"><ele>643.0</ele><time>2026-04-26T10:57:18.772Z</time></trkpt><trkpt lat="41.1809049" lon="-7.8736952"><ele>645.0</ele><time>2026-04-26T10:57:20.771Z</time></trkpt><trkpt lat="41.180934" lon="-7.8737996"><ele>647.0</ele><time>2026-04-26T10:57:22.766Z</time></trkpt><trkpt lat="41.1809604" lon="-7.8739051"><ele>649.0</ele><time>2026-04-26T10:57:24.767Z</time></trkpt><trkpt lat="41.1809944" lon="-7.8740258"><ele>651.0</ele><time>2026-04-26T10:57:26.775Z</time></trkpt><trkpt lat="41.1810291" lon="-7.8741319"><ele>653.0</ele><time>2026-04-26T10:57:28.765Z</time></trkpt><trkpt lat="41.1810567" lon="-7.874232"><ele>655.0</ele><time>2026-04-26T10:57:35.769Z</time></trkpt><trkpt lat="41.1810521" lon="-7.8743684"><ele>659.0</ele><time>2026-04-26T10:57:38.768Z</time></trkpt><trkpt lat="41.1810635" lon="-7.8744971"><ele>663.0</ele><time>2026-04-26T10:57:40.768Z</time></trkpt><trkpt lat="41.1811171" lon="-7.8746209"><ele>667.0</ele><time>2026-04-26T10:57:42.767Z</time></trkpt><trkpt lat="41.1811666" lon="-7.8747367"><ele>671.0</ele><time>2026-04-26T10:57:44.763Z</time></trkpt><trkpt lat="41.181233" lon="-7.8748598"><ele>675.0</ele><time>2026-04-26T10:57:46.767Z</time></trkpt><trkpt lat="41.1812639" lon="-7.8749416"><ele>675.0</ele><time>2026-04-26T10:57:47.781Z</time></trkpt><trkpt lat="41.1812889" lon="-7.8750203"><ele>675.0</ele><time>2026-04-26T10:57:48.767Z</time></trkpt><trkpt lat="41.1813284" lon="-7.8751673"><ele>675.0</ele><time>2026-04-26T10:57:50.767Z</time></trkpt><trkpt lat="41.1813708" lon="-7.8752454"><ele>675.0</ele><time>2026-04-26T10:57:51.765Z</time></trkpt><trkpt lat="41.1814151" lon="-7.875322"><ele>675.0</ele><time>2026-04-26T10:57:52.781Z</time></trkpt><trkpt lat="41.181448" lon="-7.8753986"><ele>675.0</ele><time>2026-04-26T10:57:53.768Z</time></trkpt><trkpt lat="41.1814824" lon="-7.8754886"><ele>674.0</ele><time>2026-04-26T10:57:54.766Z</time></trkpt><trkpt lat="41.1815232" lon="-7.8755952"><ele>673.0</ele><time>2026-04-26T10:57:55.768Z</time></trkpt><trkpt lat="41.1815628" lon="-7.8756898"><ele>672.0</ele><time>2026-04-26T10:57:56.765Z</time></trkpt><trkpt lat="41.1815871" lon="-7.8757952"><ele>671.0</ele><time>2026-04-26T10:57:57.764Z</time></trkpt><trkpt lat="41.1816112" lon="-7.8759023"><ele>670.0</ele><time>2026-04-26T10:57:58.77Z</time></trkpt><trkpt lat="41.1816378" lon="-7.8760082"><ele>669.0</ele><time>2026-04-26T10:57:59.767Z</time></trkpt><trkpt lat="41.1816746" lon="-7.8761173"><ele>669.0</ele><time>2026-04-26T10:58:00.769Z</time></trkpt><trkpt lat="41.1817049" lon="-7.8762249"><ele>669.0</ele><time>2026-04-26T10:58:01.766Z</time></trkpt><trkpt lat="41.1817296" lon="-7.8763206"><ele>669.0</ele><time>2026-04-26T10:58:02.767Z</time></trkpt><trkpt lat="41.1817489" lon="-7.8764047"><ele>669.0</ele><time>2026-04-26T10:58:03.766Z</time></trkpt><trkpt lat="41.1817846" lon="-7.8765761"><ele>669.0</ele><time>2026-04-26T10:58:05.767Z</time></trkpt><trkpt lat="41.181805" lon="-7.876674"><ele>669.0</ele><time>2026-04-26T10:58:06.765Z</time></trkpt><trkpt lat="41.1818156" lon="-7.8767692"><ele>670.3333333333334</ele><time>2026-04-26T10:58:07.773Z</time></trkpt><trkpt lat="41.1818213" lon="-7.8768586"><ele>671.6666666666666</ele><time>2026-04-26T10:58:08.771Z</time></trkpt><trkpt lat="41.1818179" lon="-7.8769593"><ele>673.0</ele><time>2026-04-26T10:58:09.768Z</time></trkpt><trkpt lat="41.1818129" lon="-7.877063"><ele>674.3333333333333</ele><time>2026-04-26T10:58:10.763Z</time></trkpt><trkpt lat="41.1817993" lon="-7.8771765"><ele>675.6666666666666</ele><time>2026-04-26T10:58:11.767Z</time></trkpt><trkpt lat="41.181789" lon="-7.8772736"><ele>677.0</ele><time>2026-04-26T10:58:12.77Z</time></trkpt><trkpt lat="41.1817899" lon="-7.8773758"><ele>677.0</ele><time>2026-04-26T10:58:13.766Z</time></trkpt><trkpt lat="41.1817949" lon="-7.8774607"><ele>677.0</ele><time>2026-04-26T10:58:14.772Z</time></trkpt><trkpt lat="41.1817943" lon="-7.877558"><ele>677.0</ele><time>2026-04-26T10:58:15.77Z</time></trkpt><trkpt lat="41.181801" lon="-7.8776472"><ele>677.0</ele><time>2026-04-26T10:58:16.767Z</time></trkpt><trkpt lat="41.1818371" lon="-7.8778095"><ele>677.0</ele><time>2026-04-26T10:58:18.763Z</time></trkpt><trkpt lat="41.1818638" lon="-7.877897"><ele>677.0</ele><time>2026-04-26T10:58:19.768Z</time></trkpt><trkpt lat="41.1819038" lon="-7.8779752"><ele>678.9999999999999</ele><time>2026-04-26T10:58:20.765Z</time></trkpt><trkpt lat="41.1819326" lon="-7.8780621"><ele>681.0</ele><time>2026-04-26T10:58:21.766Z</time></trkpt><trkpt lat="41.1819373" lon="-7.8781577"><ele>683.0</ele><time>2026-04-26T10:58:22.77Z</time></trkpt><trkpt lat="41.1819485" lon="-7.8782518"><ele>685.0</ele><time>2026-04-26T10:58:23.765Z</time></trkpt><trkpt lat="41.1819595" lon="-7.8783379"><ele>687.0</ele><time>2026-04-26T10:58:24.767Z</time></trkpt><trkpt lat="41.1819687" lon="-7.8784307"><ele>688.9999999999999</ele><time>2026-04-26T10:58:25.764Z</time></trkpt><trkpt lat="41.1819785" lon="-7.8785149"><ele>691.0</ele><time>2026-04-26T10:58:26.768Z</time></trkpt><trkpt lat="41.1819996" lon="-7.878608"><ele>695.4</ele><time>2026-04-26T10:58:27.765Z</time></trkpt><trkpt lat="41.182024" lon="-7.8786973"><ele>699.8</ele><time>2026-04-26T10:58:28.766Z</time></trkpt><trkpt lat="41.1820847" lon="-7.8788476"><ele>704.1999999999999</ele><time>2026-04-26T10:58:30.77Z</time></trkpt><trkpt lat="41.1821165" lon="-7.8789371"><ele>708.5999999999999</ele><time>2026-04-26T10:58:31.772Z</time></trkpt><trkpt lat="41.1821646" lon="-7.8790976"><ele>713.0</ele><time>2026-04-26T10:58:33.762Z</time></trkpt><trkpt lat="41.1822424" lon="-7.8792147"><ele>713.0</ele><time>2026-04-26T10:58:35.767Z</time></trkpt><trkpt lat="41.1822965" lon="-7.8792692"><ele>713.0</ele><time>2026-04-26T10:58:36.765Z</time></trkpt><trkpt lat="41.1823831" lon="-7.879375"><ele>713.0</ele><time>2026-04-26T10:58:38.77Z</time></trkpt><trkpt lat="41.1824382" lon="-7.8794386"><ele>713.0</ele><time>2026-04-26T10:58:39.767Z</time></trkpt><trkpt lat="41.1824896" lon="-7.8795083"><ele>713.0</ele><time>2026-04-26T10:58:40.765Z</time></trkpt><trkpt lat="41.182545" lon="-7.8795784"><ele>713.0</ele><time>2026-04-26T10:58:41.774Z</time></trkpt><trkpt lat="41.182598" lon="-7.8796416"><ele>713.0</ele><time>2026-04-26T10:58:42.764Z</time></trkpt><trkpt lat="41.1826918" lon="-7.8797483"><ele>713.0</ele><time>2026-04-26T10:58:44.766Z</time></trkpt><trkpt lat="41.1827953" lon="-7.8798329"><ele>713.0</ele><time>2026-04-26T10:58:46.766Z</time></trkpt><trkpt lat="41.1828481" lon="-7.8798786"><ele>713.0</ele><time>2026-04-26T10:58:47.766Z</time></trkpt><trkpt lat="41.1829017" lon="-7.8799244"><ele>713.0</ele><time>2026-04-26T10:58:48.764Z</time></trkpt><trkpt lat="41.1830105" lon="-7.8800098"><ele>713.0</ele><time>2026-04-26T10:58:50.767Z</time></trkpt><trkpt lat="41.1831178" lon="-7.8800866"><ele>713.0</ele><time>2026-04-26T10:58:52.766Z</time></trkpt><trkpt lat="41.1832265" lon="-7.8801682"><ele>713.0</ele><time>2026-04-26T10:58:54.767Z</time></trkpt><trkpt lat="41.183315" lon="-7.8801999"><ele>713.0</ele><time>2026-04-26T10:58:56.771Z</time></trkpt><trkpt lat="41.1834139" lon="-7.880218"><ele>713.0</ele><time>2026-04-26T10:58:58.766Z</time></trkpt><trkpt lat="41.1834957" lon="-7.880212"><ele>718.5999999999999</ele><time>2026-04-26T10:59:05.763Z</time></trkpt><trkpt lat="41.1835675" lon="-7.8802005"><ele>724.1999999999999</ele><time>2026-04-26T10:59:15.764Z</time></trkpt><trkpt lat="41.183648" lon="-7.8801585"><ele>729.8</ele><time>2026-04-26T10:59:18.767Z</time></trkpt><trkpt lat="41.1837482" lon="-7.880115"><ele>735.4</ele><time>2026-04-26T10:59:20.765Z</time></trkpt><trkpt lat="41.1838424" lon="-7.8801128"><ele>741.0</ele><time>2026-04-26T10:59:22.769Z</time></trkpt><trkpt lat="41.1839522" lon="-7.880104"><ele>737.0</ele><time>2026-04-26T10:59:24.768Z</time></trkpt><trkpt lat="41.1840469" lon="-7.8800798"><ele>733.0</ele><time>2026-04-26T10:59:26.767Z</time></trkpt><trkpt lat="41.1841289" lon="-7.8800302"><ele>729.0</ele><time>2026-04-26T10:59:28.764Z</time></trkpt><trkpt lat="41.1842254" lon="-7.8799637"><ele>725.0</ele><time>2026-04-26T10:59:30.768Z</time></trkpt><trkpt lat="41.1843198" lon="-7.8799306"><ele>721.0</ele><time>2026-04-26T10:59:32.769Z</time></trkpt><trkpt lat="41.184425" lon="-7.8799208"><ele>721.0</ele><time>2026-04-26T10:59:34.764Z</time></trkpt><trkpt lat="41.1845323" lon="-7.8798919"><ele>721.0</ele><time>2026-04-26T10:59:36.773Z</time></trkpt><trkpt lat="41.1846491" lon="-7.8798955"><ele>721.0</ele><time>2026-04-26T10:59:38.765Z</time></trkpt><trkpt lat="41.1847562" lon="-7.8798804"><ele>721.0</ele><time>2026-04-26T10:59:40.762Z</time></trkpt><trkpt lat="41.1848562" lon="-7.8798693"><ele>721.0</ele><time>2026-04-26T10:59:42.762Z</time></trkpt><trkpt lat="41.1849696" lon="-7.8798411"><ele>725.5999999999999</ele><time>2026-04-26T10:59:44.77Z</time></trkpt><trkpt lat="41.1850755" lon="-7.8798357"><ele>730.2</ele><time>2026-04-26T10:59:46.764Z</time></trkpt><trkpt lat="41.1851841" lon="-7.8798182"><ele>734.8</ele><time>2026-04-26T10:59:48.764Z</time></trkpt><trkpt lat="41.1853074" lon="-7.8798146"><ele>739.4000000000001</ele><time>2026-04-26T10:59:50.765Z</time></trkpt><trkpt lat="41.1854136" lon="-7.8797986"><ele>744.0</ele><time>2026-04-26T10:59:52.766Z</time></trkpt><trkpt lat="41.1854736" lon="-7.8797706"><ele>744.0</ele><time>2026-04-26T10:59:54.767Z</time></trkpt><trkpt lat="41.1855451" lon="-7.8797356"><ele>744.0</ele><time>2026-04-26T10:59:57.768Z</time></trkpt><trkpt lat="41.1856142" lon="-7.8797067"><ele>744.0</ele><time>2026-04-26T11:00:01.77Z</time></trkpt><trkpt lat="41.1856965" lon="-7.8796754"><ele>744.0</ele><time>2026-04-26T11:00:03.774Z</time></trkpt><trkpt lat="41.1857685" lon="-7.8796513"><ele>744.0</ele><time>2026-04-26T11:00:05.772Z</time></trkpt><trkpt lat="41.1858434" lon="-7.8796272"><ele>744.0</ele><time>2026-04-26T11:00:07.771Z</time></trkpt><trkpt lat="41.1859444" lon="-7.879599"><ele>748.8000000000001</ele><time>2026-04-26T11:00:09.772Z</time></trkpt><trkpt lat="41.1860425" lon="-7.8795522"><ele>753.6</ele><time>2026-04-26T11:00:11.776Z</time></trkpt><trkpt lat="41.1861389" lon="-7.8795161"><ele>758.4</ele><time>2026-04-26T11:00:13.77Z</time></trkpt><trkpt lat="41.1862422" lon="-7.8795031"><ele>763.2</ele><time>2026-04-26T11:00:15.781Z</time></trkpt><trkpt lat="41.1863419" lon="-7.8795221"><ele>768.0</ele><time>2026-04-26T11:00:17.772Z</time></trkpt><trkpt lat="41.1864336" lon="-7.8795454"><ele>769.1666666666666</ele><time>2026-04-26T11:00:19.775Z</time></trkpt><trkpt lat="41.1865183" lon="-7.8795645"><ele>770.3333333333333</ele><time>2026-04-26T11:00:21.776Z</time></trkpt><trkpt lat="41.1865869" lon="-7.8796301"><ele>771.5</ele><time>2026-04-26T11:00:23.768Z</time></trkpt><trkpt lat="41.1866378" lon="-7.8796912"><ele>772.6666666666666</ele><time>2026-04-26T11:00:25.77Z</time></trkpt><trkpt lat="41.1866922" lon="-7.8797465"><ele>773.8333333333333</ele><time>2026-04-26T11:00:41.773Z</time></trkpt><trkpt lat="41.1867587" lon="-7.879778"><ele>775.0</ele><time>2026-04-26T11:00:48.767Z</time></trkpt><trkpt lat="41.1867959" lon="-7.8796937"><ele>774.9999999999999</ele><time>2026-04-26T11:00:52.782Z</time></trkpt><trkpt lat="41.1868175" lon="-7.8796089"><ele>775.0</ele><time>2026-04-26T11:01:03.779Z</time></trkpt><trkpt lat="41.1868838" lon="-7.879562"><ele>775.0</ele><time>2026-04-26T11:01:06.764Z</time></trkpt><trkpt lat="41.1869488" lon="-7.8795314"><ele>775.0</ele><time>2026-04-26T11:01:08.77Z</time></trkpt><trkpt lat="41.1870227" lon="-7.8794923"><ele>775.0</ele><time>2026-04-26T11:01:10.765Z</time></trkpt><trkpt lat="41.1870938" lon="-7.8794625"><ele>774.9999999999999</ele><time>2026-04-26T11:01:15.772Z</time></trkpt><trkpt lat="41.1871559" lon="-7.8794186"><ele>775.0</ele><time>2026-04-26T11:01:20.771Z</time></trkpt><trkpt lat="41.1872108" lon="-7.8793667"><ele>774.9999999999999</ele><time>2026-04-26T11:01:22.767Z</time></trkpt><trkpt lat="41.1872784" lon="-7.8793218"><ele>775.0</ele><time>2026-04-26T11:01:25.775Z</time></trkpt><trkpt lat="41.1873482" lon="-7.8793191"><ele>775.0</ele><time>2026-04-26T11:01:49.767Z</time></trkpt><trkpt lat="41.1873989" lon="-7.8793895"><ele>775.0</ele><time>2026-04-26T11:06:38.766Z</time></trkpt><trkpt lat="41.1874418" lon="-7.8794573"><ele>774.9999999999999</ele><time>2026-04-26T11:06:40.77Z</time></trkpt><trkpt lat="41.1875022" lon="-7.8795452"><ele>775.0</ele><time>2026-04-26T11:06:42.764Z</time></trkpt><trkpt lat="41.1875659" lon="-7.8796397"><ele>776.1666666666666</ele><time>2026-04-26T11:06:44.763Z</time></trkpt><trkpt lat="41.1876036" lon="-7.8797105"><ele>777.3333333333333</ele><time>2026-04-26T11:06:45.765Z</time></trkpt><trkpt lat="41.1876451" lon="-7.8798227"><ele>778.5</ele><time>2026-04-26T11:06:47.763Z</time></trkpt><trkpt lat="41.1876833" lon="-7.8799162"><ele>779.6666666666667</ele><time>2026-04-26T11:06:49.764Z</time></trkpt><trkpt lat="41.1877184" lon="-7.8800129"><ele>780.8333333333334</ele><time>2026-04-26T11:06:51.763Z</time></trkpt><trkpt lat="41.1877504" lon="-7.8801177"><ele>782.0</ele><time>2026-04-26T11:06:53.772Z</time></trkpt><trkpt lat="41.1877684" lon="-7.8802464"><ele>783.2</ele><time>2026-04-26T11:06:55.762Z</time></trkpt><trkpt lat="41.1877893" lon="-7.8803763"><ele>784.4000000000001</ele><time>2026-04-26T11:06:57.771Z</time></trkpt><trkpt lat="41.187813" lon="-7.8804996"><ele>785.5999999999999</ele><time>2026-04-26T11:06:59.776Z</time></trkpt><trkpt lat="41.1878497" lon="-7.8806596"><ele>786.8</ele><time>2026-04-26T11:07:01.763Z</time></trkpt><trkpt lat="41.1878981" lon="-7.8808025"><ele>788.0</ele><time>2026-04-26T11:07:03.768Z</time></trkpt><trkpt lat="41.1879325" lon="-7.8809264"><ele>790.1666666666667</ele><time>2026-04-26T11:07:05.766Z</time></trkpt><trkpt lat="41.1879648" lon="-7.881047"><ele>792.3333333333334</ele><time>2026-04-26T11:07:07.765Z</time></trkpt><trkpt lat="41.1880073" lon="-7.8811562"><ele>794.5</ele><time>2026-04-26T11:07:09.771Z</time></trkpt><trkpt lat="41.1880511" lon="-7.8812465"><ele>796.6666666666667</ele><time>2026-04-26T11:07:11.765Z</time></trkpt><trkpt lat="41.1881007" lon="-7.8813437"><ele>798.8333333333334</ele><time>2026-04-26T11:07:13.768Z</time></trkpt><trkpt lat="41.1881522" lon="-7.8814397"><ele>801.0</ele><time>2026-04-26T11:07:15.764Z</time></trkpt><trkpt lat="41.1881932" lon="-7.8815309"><ele>801.8</ele><time>2026-04-26T11:07:17.765Z</time></trkpt><trkpt lat="41.1882481" lon="-7.881625"><ele>802.5999999999999</ele><time>2026-04-26T11:07:19.763Z</time></trkpt><trkpt lat="41.1883137" lon="-7.8817202"><ele>803.4</ele><time>2026-04-26T11:07:21.764Z</time></trkpt><trkpt lat="41.1883827" lon="-7.8818201"><ele>804.2</ele><time>2026-04-26T11:07:23.777Z</time></trkpt><trkpt lat="41.1884494" lon="-7.8819301"><ele>805.0</ele><time>2026-04-26T11:07:25.763Z</time></trkpt><trkpt lat="41.1885052" lon="-7.8820471"><ele>806.3333333333333</ele><time>2026-04-26T11:07:27.765Z</time></trkpt><trkpt lat="41.188558" lon="-7.8821595"><ele>807.6666666666666</ele><time>2026-04-26T11:07:29.768Z</time></trkpt><trkpt lat="41.1886069" lon="-7.8822745"><ele>809.0</ele><time>2026-04-26T11:07:31.763Z</time></trkpt><trkpt lat="41.1886489" lon="-7.8823657"><ele>810.3333333333333</ele><time>2026-04-26T11:07:33.767Z</time></trkpt><trkpt lat="41.1887153" lon="-7.8824304"><ele>811.6666666666666</ele><time>2026-04-26T11:07:45.77Z</time></trkpt><trkpt lat="41.1887927" lon="-7.8824183"><ele>813.0</ele><time>2026-04-26T11:07:54.773Z</time></trkpt><trkpt lat="41.1888586" lon="-7.8824569"><ele>813.0</ele><time>2026-04-26T11:07:56.765Z</time></trkpt><trkpt lat="41.1889196" lon="-7.8825066"><ele>813.0</ele><time>2026-04-26T11:07:58.762Z</time></trkpt><trkpt lat="41.1889975" lon="-7.8825426"><ele>813.0</ele><time>2026-04-26T11:08:00.766Z</time></trkpt><trkpt lat="41.1890629" lon="-7.8825904"><ele>813.0</ele><time>2026-04-26T11:08:02.764Z</time></trkpt><trkpt lat="41.1891113" lon="-7.882645"><ele>813.0</ele><time>2026-04-26T11:08:04.77Z</time></trkpt><trkpt lat="41.1891821" lon="-7.8826865"><ele>813.0</ele><time>2026-04-26T11:08:06.761Z</time></trkpt><trkpt lat="41.1892193" lon="-7.8827765"><ele>813.0</ele><time>2026-04-26T11:08:09.762Z</time></trkpt><trkpt lat="41.189264" lon="-7.8828792"><ele>814.6666666666666</ele><time>2026-04-26T11:08:12.765Z</time></trkpt><trkpt lat="41.1892885" lon="-7.8829687"><ele>816.3333333333333</ele><time>2026-04-26T11:08:14.77Z</time></trkpt><trkpt lat="41.1893418" lon="-7.8830584"><ele>818.0</ele><time>2026-04-26T11:08:16.766Z</time></trkpt><trkpt lat="41.1894184" lon="-7.8831508"><ele>819.6666666666666</ele><time>2026-04-26T11:08:18.764Z</time></trkpt><trkpt lat="41.1895127" lon="-7.8832375"><ele>821.3333333333333</ele><time>2026-04-26T11:08:20.777Z</time></trkpt><trkpt lat="41.1895706" lon="-7.8832863"><ele>823.0</ele><time>2026-04-26T11:08:21.765Z</time></trkpt><trkpt lat="41.1896247" lon="-7.8833408"><ele>824.9999999999999</ele><time>2026-04-26T11:08:22.766Z</time></trkpt><trkpt lat="41.1896835" lon="-7.8834572"><ele>827.0</ele><time>2026-04-26T11:08:24.766Z</time></trkpt><trkpt lat="41.189716" lon="-7.8835382"><ele>829.0</ele><time>2026-04-26T11:08:26.768Z</time></trkpt><trkpt lat="41.1897532" lon="-7.8836165"><ele>831.0</ele><time>2026-04-26T11:08:38.765Z</time></trkpt><trkpt lat="41.1898194" lon="-7.883558"><ele>832.9999999999999</ele><time>2026-04-26T11:08:41.774Z</time></trkpt><trkpt lat="41.1898817" lon="-7.8834604"><ele>835.0</ele><time>2026-04-26T11:08:43.77Z</time></trkpt><trkpt lat="41.1899117" lon="-7.8833661"><ele>835.0000000000001</ele><time>2026-04-26T11:08:45.771Z</time></trkpt><trkpt lat="41.1899558" lon="-7.8832624"><ele>835.0</ele><time>2026-04-26T11:08:48.773Z</time></trkpt><trkpt lat="41.189913" lon="-7.8833305"><ele>835.0</ele><time>2026-04-26T11:09:23.758Z</time></trkpt><trkpt lat="41.1898703" lon="-7.883405"><ele>835.0</ele><time>2026-04-26T11:09:26.764Z</time></trkpt><trkpt lat="41.189837" lon="-7.8834776"><ele>835.0</ele><time>2026-04-26T11:09:29.768Z</time></trkpt><trkpt lat="41.1898031" lon="-7.8835606"><ele>835.0000000000001</ele><time>2026-04-26T11:09:32.758Z</time></trkpt><trkpt lat="41.1897533" lon="-7.8836267"><ele>835.0</ele><time>2026-04-26T11:09:35.76Z</time></trkpt><trkpt lat="41.1897714" lon="-7.8837162"><ele>835.2857142857143</ele><time>2026-04-26T11:09:55.758Z</time></trkpt><trkpt lat="41.1898146" lon="-7.8837828"><ele>835.5714285714286</ele><time>2026-04-26T11:09:59.76Z</time></trkpt><trkpt lat="41.189841" lon="-7.8838714"><ele>835.8571428571429</ele><time>2026-04-26T11:10:02.768Z</time></trkpt><trkpt lat="41.1898044" lon="-7.883945"><ele>836.1428571428571</ele><time>2026-04-26T11:10:06.763Z</time></trkpt><trkpt lat="41.1897811" lon="-7.8840233"><ele>836.4285714285714</ele><time>2026-04-26T11:10:10.764Z</time></trkpt><trkpt lat="41.1897144" lon="-7.8840923"><ele>836.7142857142858</ele><time>2026-04-26T11:10:14.761Z</time></trkpt><trkpt lat="41.1896485" lon="-7.8841283"><ele>837.0</ele><time>2026-04-26T11:10:25.762Z</time></trkpt><trkpt lat="41.1895854" lon="-7.884139"><ele>837.0</ele><time>2026-04-26T11:10:29.761Z</time></trkpt><trkpt lat="41.1895112" lon="-7.8841746"><ele>837.0</ele><time>2026-04-26T11:10:54.764Z</time></trkpt><trkpt lat="41.1894231" lon="-7.8842069"><ele>837.0</ele><time>2026-04-26T11:10:57.762Z</time></trkpt><trkpt lat="41.1893476" lon="-7.8842275"><ele>837.0</ele><time>2026-04-26T11:10:59.771Z</time></trkpt><trkpt lat="41.189255" lon="-7.8842471"><ele>837.0</ele><time>2026-04-26T11:11:01.762Z</time></trkpt><trkpt lat="41.1891587" lon="-7.8842929"><ele>837.0</ele><time>2026-04-26T11:11:03.767Z</time></trkpt><trkpt lat="41.1890562" lon="-7.8843534"><ele>841.6666666666666</ele><time>2026-04-26T11:11:05.768Z</time></trkpt><trkpt lat="41.1889956" lon="-7.8844268"><ele>846.3333333333333</ele><time>2026-04-26T11:11:07.768Z</time></trkpt><trkpt lat="41.1889704" lon="-7.8845085"><ele>851.0</ele><time>2026-04-26T11:11:09.766Z</time></trkpt><trkpt lat="41.1889496" lon="-7.8846295"><ele>855.6666666666666</ele><time>2026-04-26T11:11:11.762Z</time></trkpt><trkpt lat="41.1888947" lon="-7.8847771"><ele>860.3333333333333</ele><time>2026-04-26T11:11:13.76Z</time></trkpt><trkpt lat="41.1888611" lon="-7.8848561"><ele>865.0</ele><time>2026-04-26T11:11:14.763Z</time></trkpt><trkpt lat="41.1888316" lon="-7.8849371"><ele>864.9999999999999</ele><time>2026-04-26T11:11:15.772Z</time></trkpt><trkpt lat="41.1888017" lon="-7.8850221"><ele>865.0</ele><time>2026-04-26T11:11:16.767Z</time></trkpt><trkpt lat="41.1887668" lon="-7.8851084"><ele>865.0</ele><time>2026-04-26T11:11:17.761Z</time></trkpt><trkpt lat="41.1887431" lon="-7.8852071"><ele>865.0</ele><time>2026-04-26T11:11:18.759Z</time></trkpt><trkpt lat="41.1887176" lon="-7.8853066"><ele>864.9999999999999</ele><time>2026-04-26T11:11:19.763Z</time></trkpt><trkpt lat="41.1886836" lon="-7.8853958"><ele>865.0</ele><time>2026-04-26T11:11:20.764Z</time></trkpt><trkpt lat="41.1886449" lon="-7.8854786"><ele>866.6666666666666</ele><time>2026-04-26T11:11:21.769Z</time></trkpt><trkpt lat="41.1886113" lon="-7.8855522"><ele>868.3333333333333</ele><time>2026-04-26T11:11:22.765Z</time></trkpt><trkpt lat="41.1885683" lon="-7.8856239"><ele>870.0</ele><time>2026-04-26T11:11:23.763Z</time></trkpt><trkpt lat="41.1885182" lon="-7.8856897"><ele>871.6666666666667</ele><time>2026-04-26T11:11:24.773Z</time></trkpt><trkpt lat="41.1884694" lon="-7.8857435"><ele>873.3333333333334</ele><time>2026-04-26T11:11:25.766Z</time></trkpt><trkpt lat="41.1883675" lon="-7.8858305"><ele>875.0</ele><time>2026-04-26T11:11:27.766Z</time></trkpt><trkpt lat="41.1882698" lon="-7.8859187"><ele>876.2</ele><time>2026-04-26T11:11:29.764Z</time></trkpt><trkpt lat="41.1882176" lon="-7.8859689"><ele>877.4</ele><time>2026-04-26T11:11:30.775Z</time></trkpt><trkpt lat="41.1881303" lon="-7.8860317"><ele>878.5999999999999</ele><time>2026-04-26T11:11:32.761Z</time></trkpt><trkpt lat="41.1880347" lon="-7.8861178"><ele>879.8</ele><time>2026-04-26T11:11:34.76Z</time></trkpt><trkpt lat="41.1879293" lon="-7.886206"><ele>881.0</ele><time>2026-04-26T11:11:36.763Z</time></trkpt><trkpt lat="41.1878728" lon="-7.8862447"><ele>881.0</ele><time>2026-04-26T11:11:37.765Z</time></trkpt><trkpt lat="41.1877746" lon="-7.8863119"><ele>880.9999999999999</ele><time>2026-04-26T11:11:39.76Z</time></trkpt><trkpt lat="41.1876841" lon="-7.8863625"><ele>880.9999999999999</ele><time>2026-04-26T11:11:41.769Z</time></trkpt><trkpt lat="41.187652" lon="-7.8864353"><ele>881.0</ele><time>2026-04-26T11:11:43.763Z</time></trkpt><trkpt lat="41.1876926" lon="-7.8865354"><ele>881.0</ele><time>2026-04-26T11:11:45.759Z</time></trkpt><trkpt lat="41.1877809" lon="-7.8866259"><ele>881.0000000000001</ele><time>2026-04-26T11:11:47.764Z</time></trkpt><trkpt lat="41.1878391" lon="-7.8866697"><ele>881.0</ele><time>2026-04-26T11:11:48.762Z</time></trkpt><trkpt lat="41.1878915" lon="-7.8867168"><ele>881.0</ele><time>2026-04-26T11:11:49.768Z</time></trkpt><trkpt lat="41.1879472" lon="-7.8867652"><ele>881.0</ele><time>2026-04-26T11:11:50.757Z</time></trkpt><trkpt lat="41.1880007" lon="-7.8868146"><ele>881.0000000000001</ele><time>2026-04-26T11:11:51.762Z</time></trkpt><trkpt lat="41.1880925" lon="-7.8869119"><ele>881.0</ele><time>2026-04-26T11:11:53.763Z</time></trkpt><trkpt lat="41.1881968" lon="-7.8870054"><ele>881.6666666666667</ele><time>2026-04-26T11:11:55.767Z</time></trkpt><trkpt lat="41.1882905" lon="-7.8871054"><ele>882.3333333333334</ele><time>2026-04-26T11:11:57.763Z</time></trkpt><trkpt lat="41.1883867" lon="-7.8872024"><ele>883.0</ele><time>2026-04-26T11:11:59.764Z</time></trkpt><trkpt lat="41.1884421" lon="-7.8872503"><ele>883.6666666666667</ele><time>2026-04-26T11:12:00.767Z</time></trkpt><trkpt lat="41.1884965" lon="-7.8873016"><ele>884.3333333333334</ele><time>2026-04-26T11:12:01.764Z</time></trkpt><trkpt lat="41.1885458" lon="-7.887359"><ele>885.0</ele><time>2026-04-26T11:12:02.768Z</time></trkpt><trkpt lat="41.1885948" lon="-7.8874224"><ele>885.0</ele><time>2026-04-26T11:12:03.763Z</time></trkpt><trkpt lat="41.1886489" lon="-7.8874913"><ele>885.0</ele><time>2026-04-26T11:12:04.766Z</time></trkpt><trkpt lat="41.1886985" lon="-7.8875524"><ele>885.0</ele><time>2026-04-26T11:12:05.756Z</time></trkpt><trkpt lat="41.1887446" lon="-7.8876111"><ele>885.0</ele><time>2026-04-26T11:12:06.761Z</time></trkpt><trkpt lat="41.188791" lon="-7.887669"><ele>885.0</ele><time>2026-04-26T11:12:07.774Z</time></trkpt><trkpt lat="41.1888633" lon="-7.887785"><ele>885.0</ele><time>2026-04-26T11:12:09.763Z</time></trkpt><trkpt lat="41.1889048" lon="-7.8879291"><ele>884.8333333333334</ele><time>2026-04-26T11:12:11.759Z</time></trkpt><trkpt lat="41.1889679" lon="-7.8880559"><ele>884.6666666666667</ele><time>2026-04-26T11:12:13.764Z</time></trkpt><trkpt lat="41.1890171" lon="-7.8881587"><ele>884.5</ele><time>2026-04-26T11:12:15.761Z</time></trkpt><trkpt lat="41.1890335" lon="-7.8882414"><ele>884.3333333333334</ele><time>2026-04-26T11:13:34.764Z</time></trkpt><trkpt lat="41.189124" lon="-7.8882006"><ele>884.1666666666667</ele><time>2026-04-26T11:13:39.761Z</time></trkpt><trkpt lat="41.1892054" lon="-7.8881945"><ele>884.0</ele><time>2026-04-26T11:13:41.762Z</time></trkpt><trkpt lat="41.1893022" lon="-7.8882057"><ele>886.1666666666667</ele><time>2026-04-26T11:13:43.759Z</time></trkpt><trkpt lat="41.189417" lon="-7.8882323"><ele>888.3333333333334</ele><time>2026-04-26T11:13:45.759Z</time></trkpt><trkpt lat="41.189483" lon="-7.8882469"><ele>890.5</ele><time>2026-04-26T11:13:46.76Z</time></trkpt><trkpt lat="41.1895517" lon="-7.8882594"><ele>892.6666666666667</ele><time>2026-04-26T11:13:47.77Z</time></trkpt><trkpt lat="41.1896198" lon="-7.8882725"><ele>894.8333333333334</ele><time>2026-04-26T11:13:48.762Z</time></trkpt><trkpt lat="41.1896894" lon="-7.8882861"><ele>897.0</ele><time>2026-04-26T11:13:49.759Z</time></trkpt><trkpt lat="41.1897668" lon="-7.8882979"><ele>898.4000000000001</ele><time>2026-04-26T11:13:50.755Z</time></trkpt><trkpt lat="41.189852" lon="-7.8883098"><ele>899.8000000000001</ele><time>2026-04-26T11:13:51.764Z</time></trkpt><trkpt lat="41.1899404" lon="-7.8883214"><ele>901.2</ele><time>2026-04-26T11:13:52.761Z</time></trkpt><trkpt lat="41.1900326" lon="-7.8883363"><ele>902.6</ele><time>2026-04-26T11:13:53.764Z</time></trkpt><trkpt lat="41.1901267" lon="-7.8883486"><ele>904.0</ele><time>2026-04-26T11:13:54.764Z</time></trkpt><trkpt lat="41.1902231" lon="-7.8883527"><ele>904.0</ele><time>2026-04-26T11:13:55.764Z</time></trkpt><trkpt lat="41.1903189" lon="-7.8883524"><ele>904.0000000000001</ele><time>2026-04-26T11:13:56.763Z</time></trkpt><trkpt lat="41.1904164" lon="-7.8883489"><ele>904.0000000000001</ele><time>2026-04-26T11:13:57.767Z</time></trkpt><trkpt lat="41.1905179" lon="-7.8883456"><ele>904.0</ele><time>2026-04-26T11:13:58.763Z</time></trkpt><trkpt lat="41.1906116" lon="-7.8883414"><ele>904.0</ele><time>2026-04-26T11:13:59.763Z</time></trkpt><trkpt lat="41.1907025" lon="-7.888342"><ele>904.3333333333333</ele><time>2026-04-26T11:14:00.767Z</time></trkpt><trkpt lat="41.1907923" lon="-7.8883506"><ele>904.6666666666666</ele><time>2026-04-26T11:14:01.767Z</time></trkpt><trkpt lat="41.1908763" lon="-7.8883645"><ele>905.0</ele><time>2026-04-26T11:14:02.764Z</time></trkpt><trkpt lat="41.1909517" lon="-7.8883847"><ele>905.3333333333333</ele><time>2026-04-26T11:14:03.761Z</time></trkpt><trkpt lat="41.1910263" lon="-7.8884089"><ele>905.6666666666666</ele><time>2026-04-26T11:14:04.762Z</time></trkpt><trkpt lat="41.1911078" lon="-7.8884298"><ele>906.0</ele><time>2026-04-26T11:14:05.76Z</time></trkpt><trkpt lat="41.1911934" lon="-7.8884474"><ele>906.0</ele><time>2026-04-26T11:14:06.76Z</time></trkpt><trkpt lat="41.1912821" lon="-7.888471"><ele>905.9999999999999</ele><time>2026-04-26T11:14:07.772Z</time></trkpt><trkpt lat="41.1913712" lon="-7.8884992"><ele>905.9999999999999</ele><time>2026-04-26T11:14:08.764Z</time></trkpt><trkpt lat="41.1914639" lon="-7.8885352"><ele>906.0</ele><time>2026-04-26T11:14:09.764Z</time></trkpt><trkpt lat="41.1915586" lon="-7.888579"><ele>906.0</ele><time>2026-04-26T11:14:10.765Z</time></trkpt><trkpt lat="41.1916452" lon="-7.8886257"><ele>907.5999999999999</ele><time>2026-04-26T11:14:11.762Z</time></trkpt><trkpt lat="41.1917211" lon="-7.888677"><ele>909.1999999999999</ele><time>2026-04-26T11:14:12.764Z</time></trkpt><trkpt lat="41.1917799" lon="-7.88873"><ele>910.8000000000001</ele><time>2026-04-26T11:14:13.762Z</time></trkpt><trkpt lat="41.1918701" lon="-7.8888295"><ele>912.4000000000001</ele><time>2026-04-26T11:14:15.767Z</time></trkpt><trkpt lat="41.1919124" lon="-7.8889318"><ele>914.0</ele><time>2026-04-26T11:14:17.771Z</time></trkpt><trkpt lat="41.1919413" lon="-7.8890566"><ele>914.0</ele><time>2026-04-26T11:14:19.76Z</time></trkpt><trkpt lat="41.1919318" lon="-7.8891873"><ele>914.0000000000001</ele><time>2026-04-26T11:14:21.761Z</time></trkpt><trkpt lat="41.1919103" lon="-7.8893003"><ele>914.0000000000001</ele><time>2026-04-26T11:14:23.771Z</time></trkpt><trkpt lat="41.1918534" lon="-7.8893992"><ele>914.0</ele><time>2026-04-26T11:14:25.768Z</time></trkpt><trkpt lat="41.1917827" lon="-7.8894803"><ele>914.0</ele><time>2026-04-26T11:14:27.766Z</time></trkpt><trkpt lat="41.1917064" lon="-7.8895514"><ele>912.0000000000001</ele><time>2026-04-26T11:14:29.763Z</time></trkpt><trkpt lat="41.1915835" lon="-7.8896306"><ele>910.0</ele><time>2026-04-26T11:14:31.762Z</time></trkpt><trkpt lat="41.19151" lon="-7.8896695"><ele>908.0</ele><time>2026-04-26T11:14:32.765Z</time></trkpt><trkpt lat="41.1914413" lon="-7.8897166"><ele>906.0</ele><time>2026-04-26T11:14:33.767Z</time></trkpt><trkpt lat="41.1913699" lon="-7.8897571"><ele>904.0000000000001</ele><time>2026-04-26T11:14:34.761Z</time></trkpt><trkpt lat="41.1913014" lon="-7.8898011"><ele>902.0</ele><time>2026-04-26T11:14:35.759Z</time></trkpt><trkpt lat="41.1912312" lon="-7.8898403"><ele>900.6</ele><time>2026-04-26T11:14:36.761Z</time></trkpt><trkpt lat="41.1911396" lon="-7.8898943"><ele>899.2</ele><time>2026-04-26T11:14:37.773Z</time></trkpt><trkpt lat="41.191051" lon="-7.8899414"><ele>897.8</ele><time>2026-04-26T11:14:38.761Z</time></trkpt><trkpt lat="41.1909588" lon="-7.8899775"><ele>896.4</ele><time>2026-04-26T11:14:39.765Z</time></trkpt><trkpt lat="41.1908662" lon="-7.8900093"><ele>895.0</ele><time>2026-04-26T11:14:40.761Z</time></trkpt><trkpt lat="41.1907723" lon="-7.8900368"><ele>895.0</ele><time>2026-04-26T11:14:41.759Z</time></trkpt><trkpt lat="41.1906782" lon="-7.8900603"><ele>895.0</ele><time>2026-04-26T11:14:42.76Z</time></trkpt><trkpt lat="41.1905824" lon="-7.8900865"><ele>895.0</ele><time>2026-04-26T11:14:43.756Z</time></trkpt><trkpt lat="41.1904897" lon="-7.8901161"><ele>895.0</ele><time>2026-04-26T11:14:44.766Z</time></trkpt><trkpt lat="41.1903965" lon="-7.8901464"><ele>895.0</ele><time>2026-04-26T11:14:45.764Z</time></trkpt><trkpt lat="41.1902969" lon="-7.8901771"><ele>888.4</ele><time>2026-04-26T11:14:46.771Z</time></trkpt><trkpt lat="41.1901913" lon="-7.8902048"><ele>881.8</ele><time>2026-04-26T11:14:47.772Z</time></trkpt><trkpt lat="41.1900895" lon="-7.8902319"><ele>875.2</ele><time>2026-04-26T11:14:48.769Z</time></trkpt><trkpt lat="41.1899899" lon="-7.8902606"><ele>868.6</ele><time>2026-04-26T11:14:49.757Z</time></trkpt><trkpt lat="41.1898901" lon="-7.8902897"><ele>862.0</ele><time>2026-04-26T11:14:50.778Z</time></trkpt><trkpt lat="41.18979" lon="-7.8903119"><ele>861.4000000000001</ele><time>2026-04-26T11:14:51.758Z</time></trkpt><trkpt lat="41.1896895" lon="-7.8903332"><ele>860.8000000000001</ele><time>2026-04-26T11:14:52.758Z</time></trkpt><trkpt lat="41.189584" lon="-7.8903541"><ele>860.2</ele><time>2026-04-26T11:14:53.761Z</time></trkpt><trkpt lat="41.1894801" lon="-7.8903758"><ele>859.6</ele><time>2026-04-26T11:14:54.764Z</time></trkpt><trkpt lat="41.1893724" lon="-7.8903965"><ele>859.0</ele><time>2026-04-26T11:14:55.761Z</time></trkpt><trkpt lat="41.1892642" lon="-7.8904111"><ele>859.0</ele><time>2026-04-26T11:14:56.771Z</time></trkpt><trkpt lat="41.1891596" lon="-7.890423"><ele>859.0000000000001</ele><time>2026-04-26T11:14:57.758Z</time></trkpt><trkpt lat="41.1890524" lon="-7.8904327"><ele>859.0000000000001</ele><time>2026-04-26T11:14:58.76Z</time></trkpt><trkpt lat="41.1889457" lon="-7.8904345"><ele>859.0</ele><time>2026-04-26T11:14:59.76Z</time></trkpt><trkpt lat="41.1888424" lon="-7.890438"><ele>859.0</ele><time>2026-04-26T11:15:00.763Z</time></trkpt><trkpt lat="41.1887396" lon="-7.8904428"><ele>855.6</ele><time>2026-04-26T11:15:01.76Z</time></trkpt><trkpt lat="41.1886369" lon="-7.8904468"><ele>852.2</ele><time>2026-04-26T11:15:02.767Z</time></trkpt><trkpt lat="41.1885343" lon="-7.8904533"><ele>848.8000000000001</ele><time>2026-04-26T11:15:03.761Z</time></trkpt><trkpt lat="41.1884275" lon="-7.8904664"><ele>845.4000000000001</ele><time>2026-04-26T11:15:04.76Z</time></trkpt><trkpt lat="41.1883204" lon="-7.8904776"><ele>842.0</ele><time>2026-04-26T11:15:05.764Z</time></trkpt><trkpt lat="41.1882215" lon="-7.8904879"><ele>839.6</ele><time>2026-04-26T11:15:06.767Z</time></trkpt><trkpt lat="41.1881248" lon="-7.8904999"><ele>837.2</ele><time>2026-04-26T11:15:07.762Z</time></trkpt><trkpt lat="41.1880304" lon="-7.8905071"><ele>834.8</ele><time>2026-04-26T11:15:08.76Z</time></trkpt><trkpt lat="41.1879367" lon="-7.890517"><ele>832.4</ele><time>2026-04-26T11:15:09.762Z</time></trkpt><trkpt lat="41.1878483" lon="-7.8905219"><ele>830.0</ele><time>2026-04-26T11:15:10.763Z</time></trkpt><trkpt lat="41.1877574" lon="-7.8905297"><ele>830.0</ele><time>2026-04-26T11:15:11.768Z</time></trkpt><trkpt lat="41.1876649" lon="-7.8905376"><ele>830.0</ele><time>2026-04-26T11:15:12.762Z</time></trkpt><trkpt lat="41.1875744" lon="-7.8905467"><ele>830.0</ele><time>2026-04-26T11:15:13.763Z</time></trkpt><trkpt lat="41.1874854" lon="-7.8905634"><ele>830.0</ele><time>2026-04-26T11:15:14.761Z</time></trkpt><trkpt lat="41.1873976" lon="-7.8905874"><ele>830.0</ele><time>2026-04-26T11:15:15.757Z</time></trkpt><trkpt lat="41.1873119" lon="-7.8906171"><ele>828.8</ele><time>2026-04-26T11:15:16.756Z</time></trkpt><trkpt lat="41.1872248" lon="-7.8906496"><ele>827.6</ele><time>2026-04-26T11:15:17.765Z</time></trkpt><trkpt lat="41.1871337" lon="-7.890684"><ele>826.4000000000001</ele><time>2026-04-26T11:15:18.759Z</time></trkpt><trkpt lat="41.1870372" lon="-7.8907149"><ele>825.2</ele><time>2026-04-26T11:15:19.758Z</time></trkpt><trkpt lat="41.1869363" lon="-7.8907433"><ele>824.0</ele><time>2026-04-26T11:15:20.755Z</time></trkpt><trkpt lat="41.1868344" lon="-7.8907671"><ele>824.0</ele><time>2026-04-26T11:15:21.764Z</time></trkpt><trkpt lat="41.1867338" lon="-7.8907845"><ele>824.0</ele><time>2026-04-26T11:15:22.765Z</time></trkpt><trkpt lat="41.1866385" lon="-7.8907977"><ele>824.0</ele><time>2026-04-26T11:15:23.765Z</time></trkpt><trkpt lat="41.1865448" lon="-7.8908122"><ele>824.0</ele><time>2026-04-26T11:15:24.76Z</time></trkpt><trkpt lat="41.1864564" lon="-7.8908106"><ele>824.0</ele><time>2026-04-26T11:15:25.763Z</time></trkpt><trkpt lat="41.1863672" lon="-7.8908058"><ele>821.2857142857142</ele><time>2026-04-26T11:15:26.76Z</time></trkpt><trkpt lat="41.186285" lon="-7.890799"><ele>818.5714285714286</ele><time>2026-04-26T11:15:27.761Z</time></trkpt><trkpt lat="41.1862087" lon="-7.890806"><ele>815.8571428571429</ele><time>2026-04-26T11:15:28.764Z</time></trkpt><trkpt lat="41.1861407" lon="-7.890835"><ele>813.1428571428571</ele><time>2026-04-26T11:15:29.765Z</time></trkpt><trkpt lat="41.1860859" lon="-7.8908941"><ele>810.4285714285714</ele><time>2026-04-26T11:15:30.764Z</time></trkpt><trkpt lat="41.1860552" lon="-7.8909807"><ele>807.7142857142857</ele><time>2026-04-26T11:15:31.756Z</time></trkpt><trkpt lat="41.1860382" lon="-7.8910722"><ele>805.0</ele><time>2026-04-26T11:15:32.76Z</time></trkpt><trkpt lat="41.1860293" lon="-7.8911625"><ele>804.6666666666666</ele><time>2026-04-26T11:15:33.773Z</time></trkpt><trkpt lat="41.1860448" lon="-7.8912454"><ele>804.3333333333333</ele><time>2026-04-26T11:15:34.758Z</time></trkpt><trkpt lat="41.1860793" lon="-7.8913178"><ele>804.0</ele><time>2026-04-26T11:15:35.759Z</time></trkpt><trkpt lat="41.1861439" lon="-7.8914209"><ele>803.6666666666667</ele><time>2026-04-26T11:15:37.766Z</time></trkpt><trkpt lat="41.1861005" lon="-7.8914863"><ele>803.3333333333334</ele><time>2026-04-26T11:15:43.76Z</time></trkpt><trkpt lat="41.1859929" lon="-7.8914587"><ele>803.0</ele><time>2026-04-26T11:15:45.755Z</time></trkpt><trkpt lat="41.1858725" lon="-7.8914528"><ele>802.9999999999999</ele><time>2026-04-26T11:15:47.764Z</time></trkpt><trkpt lat="41.1858093" lon="-7.8914519"><ele>803.0</ele><time>2026-04-26T11:15:48.765Z</time></trkpt><trkpt lat="41.1857395" lon="-7.8914536"><ele>803.0</ele><time>2026-04-26T11:15:49.763Z</time></trkpt><trkpt lat="41.1856656" lon="-7.89145"><ele>803.0</ele><time>2026-04-26T11:15:50.762Z</time></trkpt><trkpt lat="41.1855893" lon="-7.8914425"><ele>803.0</ele><time>2026-04-26T11:15:51.759Z</time></trkpt><trkpt lat="41.1855151" lon="-7.8914348"><ele>802.9999999999999</ele><time>2026-04-26T11:15:52.775Z</time></trkpt><trkpt lat="41.1854423" lon="-7.8914243"><ele>803.0</ele><time>2026-04-26T11:15:53.763Z</time></trkpt><trkpt lat="41.1853647" lon="-7.8914162"><ele>800.4285714285713</ele><time>2026-04-26T11:15:54.764Z</time></trkpt><trkpt lat="41.1852874" lon="-7.8914031"><ele>797.8571428571429</ele><time>2026-04-26T11:15:55.76Z</time></trkpt><trkpt lat="41.1852147" lon="-7.8913934"><ele>795.2857142857142</ele><time>2026-04-26T11:15:56.755Z</time></trkpt><trkpt lat="41.1851443" lon="-7.8913861"><ele>792.7142857142857</ele><time>2026-04-26T11:15:57.762Z</time></trkpt><trkpt lat="41.1850753" lon="-7.8913809"><ele>790.1428571428571</ele><time>2026-04-26T11:15:58.759Z</time></trkpt><trkpt lat="41.1850069" lon="-7.8913706"><ele>787.5714285714286</ele><time>2026-04-26T11:15:59.759Z</time></trkpt><trkpt lat="41.1849357" lon="-7.891355"><ele>785.0</ele><time>2026-04-26T11:16:00.758Z</time></trkpt><trkpt lat="41.1848722" lon="-7.8913415"><ele>781.0</ele><time>2026-04-26T11:16:01.765Z</time></trkpt><trkpt lat="41.1848052" lon="-7.8913286"><ele>777.0</ele><time>2026-04-26T11:16:02.763Z</time></trkpt><trkpt lat="41.1847405" lon="-7.8913052"><ele>773.0</ele><time>2026-04-26T11:16:03.764Z</time></trkpt><trkpt lat="41.1846279" lon="-7.8912483"><ele>769.0</ele><time>2026-04-26T11:16:05.758Z</time></trkpt><trkpt lat="41.184523" lon="-7.8911837"><ele>765.0</ele><time>2026-04-26T11:16:07.768Z</time></trkpt><trkpt lat="41.1844149" lon="-7.8911428"><ele>765.0</ele><time>2026-04-26T11:16:09.77Z</time></trkpt><trkpt lat="41.1843518" lon="-7.8911306"><ele>765.0</ele><time>2026-04-26T11:16:10.774Z</time></trkpt><trkpt lat="41.184242" lon="-7.8911238"><ele>765.0</ele><time>2026-04-26T11:16:12.761Z</time></trkpt><trkpt lat="41.1841635" lon="-7.8911041"><ele>765.0</ele><time>2026-04-26T11:16:14.765Z</time></trkpt><trkpt lat="41.1840846" lon="-7.8910602"><ele>765.0</ele><time>2026-04-26T11:16:17.76Z</time></trkpt><trkpt lat="41.1840096" lon="-7.8910398"><ele>765.0</ele><time>2026-04-26T11:16:19.772Z</time></trkpt><trkpt lat="41.1839348" lon="-7.891042"><ele>760.2</ele><time>2026-04-26T11:16:21.759Z</time></trkpt><trkpt lat="41.1838776" lon="-7.8910939"><ele>755.4</ele><time>2026-04-26T11:16:23.758Z</time></trkpt><trkpt lat="41.1838343" lon="-7.8912344"><ele>750.5999999999999</ele><time>2026-04-26T11:16:25.77Z</time></trkpt><trkpt lat="41.1838031" lon="-7.8913918"><ele>745.8</ele><time>2026-04-26T11:16:27.761Z</time></trkpt><trkpt lat="41.1838031" lon="-7.8915396"><ele>741.0</ele><time>2026-04-26T11:16:29.771Z</time></trkpt><trkpt lat="41.1838326" lon="-7.8916701"><ele>739.1999999999999</ele><time>2026-04-26T11:16:31.768Z</time></trkpt><trkpt lat="41.1838429" lon="-7.8918031"><ele>737.4</ele><time>2026-04-26T11:16:33.766Z</time></trkpt><trkpt lat="41.1838427" lon="-7.891958"><ele>735.6</ele><time>2026-04-26T11:16:35.759Z</time></trkpt><trkpt lat="41.1838417" lon="-7.8920424"><ele>733.8</ele><time>2026-04-26T11:16:36.761Z</time></trkpt><trkpt lat="41.1838393" lon="-7.8921265"><ele>732.0</ele><time>2026-04-26T11:16:37.758Z</time></trkpt><trkpt lat="41.1838332" lon="-7.8922773"><ele>732.0</ele><time>2026-04-26T11:16:39.759Z</time></trkpt><trkpt lat="41.1838273" lon="-7.892411"><ele>732.0</ele><time>2026-04-26T11:16:41.76Z</time></trkpt><trkpt lat="41.1838236" lon="-7.8925425"><ele>732.0</ele><time>2026-04-26T11:16:43.76Z</time></trkpt><trkpt lat="41.1838383" lon="-7.8926789"><ele>732.0</ele><time>2026-04-26T11:16:45.765Z</time></trkpt><trkpt lat="41.1838497" lon="-7.8928204"><ele>732.0</ele><time>2026-04-26T11:16:47.766Z</time></trkpt><trkpt lat="41.1838688" lon="-7.8929605"><ele>730.0</ele><time>2026-04-26T11:16:49.766Z</time></trkpt><trkpt lat="41.1839105" lon="-7.8931007"><ele>728.0</ele><time>2026-04-26T11:16:51.755Z</time></trkpt><trkpt lat="41.1839452" lon="-7.893172"><ele>726.0</ele><time>2026-04-26T11:16:52.765Z</time></trkpt><trkpt lat="41.1839805" lon="-7.8932436"><ele>724.0</ele><time>2026-04-26T11:16:53.758Z</time></trkpt><trkpt lat="41.1840125" lon="-7.8933184"><ele>722.0</ele><time>2026-04-26T11:16:54.762Z</time></trkpt><trkpt lat="41.1840534" lon="-7.893464"><ele>720.0</ele><time>2026-04-26T11:16:56.765Z</time></trkpt><trkpt lat="41.1840741" lon="-7.893587"><ele>718.8</ele><time>2026-04-26T11:16:58.759Z</time></trkpt><trkpt lat="41.1840551" lon="-7.8936988"><ele>717.6</ele><time>2026-04-26T11:17:00.761Z</time></trkpt><trkpt lat="41.1839904" lon="-7.8937899"><ele>716.4000000000001</ele><time>2026-04-26T11:17:02.766Z</time></trkpt><trkpt lat="41.1838674" lon="-7.8938275"><ele>715.2</ele><time>2026-04-26T11:17:04.76Z</time></trkpt><trkpt lat="41.1837953" lon="-7.893836"><ele>714.0</ele><time>2026-04-26T11:17:05.764Z</time></trkpt><trkpt lat="41.1837226" lon="-7.8938398"><ele>713.0</ele><time>2026-04-26T11:17:06.767Z</time></trkpt><trkpt lat="41.1836501" lon="-7.8938456"><ele>712.0</ele><time>2026-04-26T11:17:07.773Z</time></trkpt><trkpt lat="41.1835841" lon="-7.8938536"><ele>711.0</ele><time>2026-04-26T11:17:08.76Z</time></trkpt><trkpt lat="41.1835212" lon="-7.8938624"><ele>710.0</ele><time>2026-04-26T11:17:09.764Z</time></trkpt><trkpt lat="41.1834583" lon="-7.8938766"><ele>709.0</ele><time>2026-04-26T11:17:10.766Z</time></trkpt><trkpt lat="41.1833932" lon="-7.8938853"><ele>708.0</ele><time>2026-04-26T11:17:11.757Z</time></trkpt><trkpt lat="41.1833254" lon="-7.8938992"><ele>707.0</ele><time>2026-04-26T11:17:12.764Z</time></trkpt><trkpt lat="41.1832002" lon="-7.8939288"><ele>701.75</ele><time>2026-04-26T11:17:14.777Z</time></trkpt><trkpt lat="41.1830856" lon="-7.8939668"><ele>696.5</ele><time>2026-04-26T11:17:16.759Z</time></trkpt><trkpt lat="41.1829742" lon="-7.8939997"><ele>691.25</ele><time>2026-04-26T11:17:18.759Z</time></trkpt><trkpt lat="41.1828551" lon="-7.894029"><ele>686.0</ele><time>2026-04-26T11:17:20.763Z</time></trkpt><trkpt lat="41.1827388" lon="-7.8940452"><ele>686.0</ele><time>2026-04-26T11:17:22.759Z</time></trkpt><trkpt lat="41.1826265" lon="-7.8940384"><ele>686.0</ele><time>2026-04-26T11:17:24.757Z</time></trkpt><trkpt lat="41.1825287" lon="-7.8939912"><ele>686.0</ele><time>2026-04-26T11:17:26.77Z</time></trkpt><trkpt lat="41.182425" lon="-7.8939205"><ele>686.0</ele><time>2026-04-26T11:17:28.76Z</time></trkpt><trkpt lat="41.1823191" lon="-7.8938671"><ele>686.0</ele><time>2026-04-26T11:17:30.762Z</time></trkpt><trkpt lat="41.1822141" lon="-7.8938455"><ele>680.6666666666666</ele><time>2026-04-26T11:17:32.767Z</time></trkpt><trkpt lat="41.1821235" lon="-7.8938162"><ele>675.3333333333333</ele><time>2026-04-26T11:17:34.765Z</time></trkpt><trkpt lat="41.1820364" lon="-7.8937822"><ele>670.0</ele><time>2026-04-26T11:17:36.758Z</time></trkpt><trkpt lat="41.1819529" lon="-7.8937389"><ele>664.6666666666666</ele><time>2026-04-26T11:17:38.763Z</time></trkpt><trkpt lat="41.1818766" lon="-7.8937165"><ele>659.3333333333334</ele><time>2026-04-26T11:17:40.762Z</time></trkpt><trkpt lat="41.1818258" lon="-7.8937904"><ele>654.0</ele><time>2026-04-26T11:17:42.758Z</time></trkpt><trkpt lat="41.1818034" lon="-7.893911"><ele>654.0</ele><time>2026-04-26T11:17:44.768Z</time></trkpt><trkpt lat="41.181811" lon="-7.8939963"><ele>654.0</ele><time>2026-04-26T11:17:45.76Z</time></trkpt><trkpt lat="41.1818146" lon="-7.8940891"><ele>654.0</ele><time>2026-04-26T11:17:46.763Z</time></trkpt><trkpt lat="41.1818162" lon="-7.8941767"><ele>654.0</ele><time>2026-04-26T11:17:47.764Z</time></trkpt><trkpt lat="41.1818185" lon="-7.8942674"><ele>654.0</ele><time>2026-04-26T11:17:48.76Z</time></trkpt><trkpt lat="41.1818133" lon="-7.8943587"><ele>654.0</ele><time>2026-04-26T11:17:49.758Z</time></trkpt><trkpt lat="41.181795" lon="-7.894513"><ele>652.8000000000001</ele><time>2026-04-26T11:17:51.766Z</time></trkpt><trkpt lat="41.1817795" lon="-7.8946485"><ele>651.6</ele><time>2026-04-26T11:17:53.759Z</time></trkpt><trkpt lat="41.1817507" lon="-7.894776"><ele>650.4</ele><time>2026-04-26T11:17:55.76Z</time></trkpt><trkpt lat="41.1817169" lon="-7.8949035"><ele>649.2</ele><time>2026-04-26T11:17:57.758Z</time></trkpt><trkpt lat="41.1816983" lon="-7.8950478"><ele>648.0</ele><time>2026-04-26T11:17:59.759Z</time></trkpt><trkpt lat="41.1816726" lon="-7.8951925"><ele>645.6</ele><time>2026-04-26T11:18:01.755Z</time></trkpt><trkpt lat="41.1816629" lon="-7.8953276"><ele>643.1999999999999</ele><time>2026-04-26T11:18:03.766Z</time></trkpt><trkpt lat="41.181666" lon="-7.8954729"><ele>640.8</ele><time>2026-04-26T11:18:05.764Z</time></trkpt><trkpt lat="41.1816691" lon="-7.8956085"><ele>638.4</ele><time>2026-04-26T11:18:07.764Z</time></trkpt><trkpt lat="41.1816463" lon="-7.8957269"><ele>636.0</ele><time>2026-04-26T11:18:09.759Z</time></trkpt><trkpt lat="41.1815889" lon="-7.895834"><ele>634.0</ele><time>2026-04-26T11:18:11.758Z</time></trkpt><trkpt lat="41.1814868" lon="-7.8958913"><ele>632.0</ele><time>2026-04-26T11:18:13.761Z</time></trkpt><trkpt lat="41.1814022" lon="-7.8959098"><ele>630.0</ele><time>2026-04-26T11:18:15.768Z</time></trkpt><trkpt lat="41.1813337" lon="-7.8959622"><ele>628.0</ele><time>2026-04-26T11:18:18.769Z</time></trkpt><trkpt lat="41.1813532" lon="-7.8960475"><ele>626.0</ele><time>2026-04-26T11:18:34.765Z</time></trkpt><trkpt lat="41.1814089" lon="-7.8961064"><ele>624.0</ele><time>2026-04-26T11:18:36.766Z</time></trkpt><trkpt lat="41.1814846" lon="-7.8962023"><ele>622.4</ele><time>2026-04-26T11:18:38.762Z</time></trkpt><trkpt lat="41.1815243" lon="-7.8962696"><ele>620.8</ele><time>2026-04-26T11:18:39.756Z</time></trkpt><trkpt lat="41.1815619" lon="-7.8963403"><ele>619.2</ele><time>2026-04-26T11:18:40.759Z</time></trkpt><trkpt lat="41.181638" lon="-7.896474"><ele>617.6</ele><time>2026-04-26T11:18:42.761Z</time></trkpt><trkpt lat="41.1817081" lon="-7.8965734"><ele>616.0</ele><time>2026-04-26T11:18:44.76Z</time></trkpt><trkpt lat="41.1817816" lon="-7.8966807"><ele>611.4</ele><time>2026-04-26T11:18:46.758Z</time></trkpt><trkpt lat="41.1818549" lon="-7.8967965"><ele>606.8</ele><time>2026-04-26T11:18:48.756Z</time></trkpt><trkpt lat="41.1819009" lon="-7.8968578"><ele>602.1999999999999</ele><time>2026-04-26T11:18:49.752Z</time></trkpt><trkpt lat="41.1819494" lon="-7.8969196"><ele>597.6</ele><time>2026-04-26T11:18:50.762Z</time></trkpt><trkpt lat="41.1820342" lon="-7.8970142"><ele>593.0</ele><time>2026-04-26T11:18:52.769Z</time></trkpt><trkpt lat="41.1821383" lon="-7.8970943"><ele>592.9999999999999</ele><time>2026-04-26T11:18:54.766Z</time></trkpt><trkpt lat="41.1821987" lon="-7.8971227"><ele>593.0</ele><time>2026-04-26T11:18:55.761Z</time></trkpt><trkpt lat="41.1822649" lon="-7.8971572"><ele>593.0</ele><time>2026-04-26T11:18:56.763Z</time></trkpt><trkpt lat="41.1823356" lon="-7.8971898"><ele>593.0</ele><time>2026-04-26T11:18:57.758Z</time></trkpt><trkpt lat="41.1824088" lon="-7.897228"><ele>593.0</ele><time>2026-04-26T11:18:58.759Z</time></trkpt><trkpt lat="41.1824793" lon="-7.8972708"><ele>592.9999999999999</ele><time>2026-04-26T11:18:59.757Z</time></trkpt><trkpt lat="41.1825432" lon="-7.8973112"><ele>593.0</ele><time>2026-04-26T11:19:00.76Z</time></trkpt><trkpt lat="41.1826194" lon="-7.8973418"><ele>595.0</ele><time>2026-04-26T11:19:01.762Z</time></trkpt><trkpt lat="41.182688" lon="-7.8973616"><ele>597.0</ele><time>2026-04-26T11:19:02.761Z</time></trkpt><trkpt lat="41.1827951" lon="-7.8973707"><ele>599.0</ele><time>2026-04-26T11:19:04.759Z</time></trkpt><trkpt lat="41.182882" lon="-7.8973926"><ele>601.0</ele><time>2026-04-26T11:19:06.756Z</time></trkpt><trkpt lat="41.182995" lon="-7.8974359"><ele>603.0</ele><time>2026-04-26T11:19:08.757Z</time></trkpt><trkpt lat="41.183105" lon="-7.8974852"><ele>603.0</ele><time>2026-04-26T11:19:10.759Z</time></trkpt><trkpt lat="41.1832166" lon="-7.8975336"><ele>603.0</ele><time>2026-04-26T11:19:12.761Z</time></trkpt><trkpt lat="41.1832769" lon="-7.8975596"><ele>603.0</ele><time>2026-04-26T11:19:13.759Z</time></trkpt><trkpt lat="41.1833962" lon="-7.8975957"><ele>603.0</ele><time>2026-04-26T11:19:15.762Z</time></trkpt><trkpt lat="41.1835104" lon="-7.8976052"><ele>603.0</ele><time>2026-04-26T11:19:17.763Z</time></trkpt><trkpt lat="41.1836179" lon="-7.8975956"><ele>603.0</ele><time>2026-04-26T11:19:19.757Z</time></trkpt><trkpt lat="41.1837238" lon="-7.8975812"><ele>603.0</ele><time>2026-04-26T11:19:21.763Z</time></trkpt><trkpt lat="41.1838256" lon="-7.8975572"><ele>603.0</ele><time>2026-04-26T11:19:23.76Z</time></trkpt><trkpt lat="41.183933" lon="-7.8975291"><ele>603.0</ele><time>2026-04-26T11:19:25.77Z</time></trkpt><trkpt lat="41.18404" lon="-7.8975079"><ele>603.0</ele><time>2026-04-26T11:19:27.758Z</time></trkpt><trkpt lat="41.1841401" lon="-7.8975053"><ele>602.0</ele><time>2026-04-26T11:19:29.771Z</time></trkpt><trkpt lat="41.1842497" lon="-7.8975202"><ele>601.0</ele><time>2026-04-26T11:19:31.763Z</time></trkpt><trkpt lat="41.1843781" lon="-7.8975207"><ele>600.0</ele><time>2026-04-26T11:19:33.753Z</time></trkpt><trkpt lat="41.184495" lon="-7.8975239"><ele>599.0</ele><time>2026-04-26T11:19:35.763Z</time></trkpt><trkpt lat="41.1846157" lon="-7.8975356"><ele>599.0</ele><time>2026-04-26T11:19:37.758Z</time></trkpt><trkpt lat="41.184725" lon="-7.8975521"><ele>599.0</ele><time>2026-04-26T11:19:39.755Z</time></trkpt><trkpt lat="41.1848361" lon="-7.8975472"><ele>599.0</ele><time>2026-04-26T11:19:41.758Z</time></trkpt><trkpt lat="41.1849497" lon="-7.8975408"><ele>599.0</ele><time>2026-04-26T11:19:43.759Z</time></trkpt><trkpt lat="41.185074" lon="-7.8975647"><ele>594.8</ele><time>2026-04-26T11:19:45.762Z</time></trkpt><trkpt lat="41.1851955" lon="-7.897582"><ele>590.5999999999999</ele><time>2026-04-26T11:19:47.751Z</time></trkpt><trkpt lat="41.185314" lon="-7.897617"><ele>586.4</ele><time>2026-04-26T11:19:49.763Z</time></trkpt><trkpt lat="41.1853813" lon="-7.8976374"><ele>582.1999999999999</ele><time>2026-04-26T11:19:50.763Z</time></trkpt><trkpt lat="41.1854499" lon="-7.8976628"><ele>578.0</ele><time>2026-04-26T11:19:51.761Z</time></trkpt><trkpt lat="41.1855187" lon="-7.89769"><ele>573.0</ele><time>2026-04-26T11:19:52.767Z</time></trkpt><trkpt lat="41.1855858" lon="-7.8977144"><ele>568.0</ele><time>2026-04-26T11:19:53.754Z</time></trkpt><trkpt lat="41.1856586" lon="-7.8977406"><ele>563.0</ele><time>2026-04-26T11:19:54.757Z</time></trkpt><trkpt lat="41.1857281" lon="-7.897776"><ele>558.0</ele><time>2026-04-26T11:19:55.76Z</time></trkpt><trkpt lat="41.1857933" lon="-7.8978134"><ele>553.0</ele><time>2026-04-26T11:19:56.755Z</time></trkpt><trkpt lat="41.1858551" lon="-7.8978526"><ele>548.0</ele><time>2026-04-26T11:19:57.753Z</time></trkpt><trkpt lat="41.1859161" lon="-7.8978987"><ele>543.0</ele><time>2026-04-26T11:19:58.752Z</time></trkpt><trkpt lat="41.1859751" lon="-7.897947"><ele>542.8333333333334</ele><time>2026-04-26T11:19:59.761Z</time></trkpt><trkpt lat="41.1860366" lon="-7.8979967"><ele>542.6666666666666</ele><time>2026-04-26T11:20:00.76Z</time></trkpt><trkpt lat="41.186099" lon="-7.8980489"><ele>542.5</ele><time>2026-04-26T11:20:01.758Z</time></trkpt><trkpt lat="41.1861594" lon="-7.8980999"><ele>542.3333333333333</ele><time>2026-04-26T11:20:02.755Z</time></trkpt><trkpt lat="41.1862154" lon="-7.8981445"><ele>542.1666666666666</ele><time>2026-04-26T11:20:03.767Z</time></trkpt><trkpt lat="41.1863391" lon="-7.898214"><ele>542.0</ele><time>2026-04-26T11:20:05.756Z</time></trkpt><trkpt lat="41.1864092" lon="-7.8982494"><ele>542.0</ele><time>2026-04-26T11:20:06.756Z</time></trkpt><trkpt lat="41.1864775" lon="-7.8982845"><ele>542.0</ele><time>2026-04-26T11:20:07.758Z</time></trkpt><trkpt lat="41.1865365" lon="-7.8983145"><ele>542.0</ele><time>2026-04-26T11:20:08.756Z</time></trkpt><trkpt lat="41.18662" lon="-7.8983518"><ele>542.0</ele><time>2026-04-26T11:20:10.765Z</time></trkpt><trkpt lat="41.1866862" lon="-7.8983617"><ele>542.0</ele><time>2026-04-26T11:20:13.755Z</time></trkpt><trkpt lat="41.1866148" lon="-7.8984015"><ele>542.0</ele><time>2026-04-26T11:20:22.76Z</time></trkpt><trkpt lat="41.1865522" lon="-7.8984268"><ele>542.0</ele><time>2026-04-26T11:20:24.762Z</time></trkpt><trkpt lat="41.1864919" lon="-7.8984644"><ele>536.2</ele><time>2026-04-26T11:20:26.759Z</time></trkpt><trkpt lat="41.1864217" lon="-7.8985241"><ele>530.4000000000001</ele><time>2026-04-26T11:20:28.766Z</time></trkpt><trkpt lat="41.1863272" lon="-7.8985741"><ele>524.5999999999999</ele><time>2026-04-26T11:20:31.76Z</time></trkpt><trkpt lat="41.186239" lon="-7.8986367"><ele>518.8</ele><time>2026-04-26T11:20:33.755Z</time></trkpt><trkpt lat="41.1861603" lon="-7.8986905"><ele>513.0</ele><time>2026-04-26T11:20:34.754Z</time></trkpt><trkpt lat="41.1860822" lon="-7.8987414"><ele>513.0000000000001</ele><time>2026-04-26T11:20:35.76Z</time></trkpt><trkpt lat="41.1860074" lon="-7.8987728"><ele>513.0</ele><time>2026-04-26T11:20:36.762Z</time></trkpt><trkpt lat="41.1859422" lon="-7.898804"><ele>513.0</ele><time>2026-04-26T11:20:37.759Z</time></trkpt><trkpt lat="41.1858786" lon="-7.8988271"><ele>513.0</ele><time>2026-04-26T11:20:38.756Z</time></trkpt><trkpt lat="41.185802" lon="-7.8988402"><ele>513.0</ele><time>2026-04-26T11:20:40.756Z</time></trkpt><trkpt lat="41.1857298" lon="-7.8988187"><ele>513.0000000000001</ele><time>2026-04-26T11:20:43.751Z</time></trkpt><trkpt lat="41.18565" lon="-7.8988206"><ele>513.0</ele><time>2026-04-26T11:20:46.762Z</time></trkpt><trkpt lat="41.1855469" lon="-7.8988338"><ele>512.5</ele><time>2026-04-26T11:20:49.757Z</time></trkpt><trkpt lat="41.1854579" lon="-7.8988511"><ele>512.0</ele><time>2026-04-26T11:20:51.76Z</time></trkpt><trkpt lat="41.1853572" lon="-7.8988857"><ele>511.5</ele><time>2026-04-26T11:20:53.762Z</time></trkpt><trkpt lat="41.185299" lon="-7.8989204"><ele>511.0</ele><time>2026-04-26T11:20:54.767Z</time></trkpt><trkpt lat="41.1852357" lon="-7.898969"><ele>510.5</ele><time>2026-04-26T11:20:55.76Z</time></trkpt><trkpt lat="41.1851702" lon="-7.8990275"><ele>510.0</ele><time>2026-04-26T11:20:56.759Z</time></trkpt><trkpt lat="41.1851081" lon="-7.8990965"><ele>510.0</ele><time>2026-04-26T11:20:57.761Z</time></trkpt><trkpt lat="41.1850448" lon="-7.8991666"><ele>510.0</ele><time>2026-04-26T11:20:58.756Z</time></trkpt><trkpt lat="41.1849764" lon="-7.899236"><ele>510.0</ele><time>2026-04-26T11:20:59.753Z</time></trkpt><trkpt lat="41.1849115" lon="-7.8992987"><ele>510.0</ele><time>2026-04-26T11:21:00.765Z</time></trkpt><trkpt lat="41.1848463" lon="-7.8993572"><ele>510.0</ele><time>2026-04-26T11:21:01.759Z</time></trkpt><trkpt lat="41.1847816" lon="-7.8994173"><ele>510.0</ele><time>2026-04-26T11:21:02.757Z</time></trkpt><trkpt lat="41.1847173" lon="-7.8994765"><ele>507.0</ele><time>2026-04-26T11:21:03.764Z</time></trkpt><trkpt lat="41.1846545" lon="-7.8995328"><ele>504.0</ele><time>2026-04-26T11:21:04.757Z</time></trkpt><trkpt lat="41.1845967" lon="-7.8995896"><ele>501.0</ele><time>2026-04-26T11:21:05.757Z</time></trkpt><trkpt lat="41.184535" lon="-7.8996433"><ele>498.0</ele><time>2026-04-26T11:21:06.765Z</time></trkpt><trkpt lat="41.184471" lon="-7.8996918"><ele>495.0</ele><time>2026-04-26T11:21:07.756Z</time></trkpt><trkpt lat="41.1844059" lon="-7.8997317"><ele>492.0</ele><time>2026-04-26T11:21:08.756Z</time></trkpt><trkpt lat="41.1842993" lon="-7.8998045"><ele>492.0</ele><time>2026-04-26T11:21:10.762Z</time></trkpt><trkpt lat="41.1842115" lon="-7.8998582"><ele>492.00000000000006</ele><time>2026-04-26T11:21:12.753Z</time></trkpt><trkpt lat="41.1841308" lon="-7.8999127"><ele>492.00000000000006</ele><time>2026-04-26T11:21:14.757Z</time></trkpt><trkpt lat="41.1840666" lon="-7.9000073"><ele>492.0</ele><time>2026-04-26T11:21:16.754Z</time></trkpt><trkpt lat="41.1840155" lon="-7.9001247"><ele>492.0</ele><time>2026-04-26T11:21:18.764Z</time></trkpt><trkpt lat="41.1839789" lon="-7.9002315"><ele>489.7142857142858</ele><time>2026-04-26T11:21:20.757Z</time></trkpt><trkpt lat="41.1839531" lon="-7.9003168"><ele>487.42857142857144</ele><time>2026-04-26T11:21:22.758Z</time></trkpt><trkpt lat="41.183915" lon="-7.9003885"><ele>485.14285714285717</ele><time>2026-04-26T11:21:24.76Z</time></trkpt><trkpt lat="41.1838517" lon="-7.9004446"><ele>482.8571428571429</ele><time>2026-04-26T11:21:26.757Z</time></trkpt><trkpt lat="41.1837961" lon="-7.9005034"><ele>480.57142857142856</ele><time>2026-04-26T11:21:28.759Z</time></trkpt><trkpt lat="41.1837289" lon="-7.9005463"><ele>478.2857142857143</ele><time>2026-04-26T11:21:30.756Z</time></trkpt><trkpt lat="41.1837957" lon="-7.9005789"><ele>476.0</ele><time>2026-04-26T11:21:34.761Z</time></trkpt><trkpt lat="41.1838699" lon="-7.90058"><ele>476.0</ele><time>2026-04-26T11:21:36.755Z</time></trkpt><trkpt lat="41.1839592" lon="-7.900574"><ele>476.0</ele><time>2026-04-26T11:21:38.763Z</time></trkpt><trkpt lat="41.1840497" lon="-7.9005509"><ele>476.0</ele><time>2026-04-26T11:21:40.762Z</time></trkpt><trkpt lat="41.1841466" lon="-7.9005277"><ele>476.0</ele><time>2026-04-26T11:21:42.755Z</time></trkpt><trkpt lat="41.1842469" lon="-7.9005095"><ele>476.0</ele><time>2026-04-26T11:21:44.771Z</time></trkpt><trkpt lat="41.1843298" lon="-7.9004686"><ele>474.99999999999994</ele><time>2026-04-26T11:21:46.766Z</time></trkpt><trkpt lat="41.1843944" lon="-7.9004138"><ele>474.0</ele><time>2026-04-26T11:21:48.757Z</time></trkpt><trkpt lat="41.1844382" lon="-7.9003533"><ele>473.0</ele><time>2026-04-26T11:21:51.756Z</time></trkpt><trkpt lat="41.184382" lon="-7.9004509"><ele>472.0</ele><time>2026-04-26T11:21:58.758Z</time></trkpt><trkpt lat="41.1843093" lon="-7.9005317"><ele>470.99999999999994</ele><time>2026-04-26T11:22:00.76Z</time></trkpt><trkpt lat="41.1842292" lon="-7.9006184"><ele>470.0</ele><time>2026-04-26T11:22:02.764Z</time></trkpt><trkpt lat="41.184143" lon="-7.900695"><ele>470.0</ele><time>2026-04-26T11:22:04.761Z</time></trkpt><trkpt lat="41.1840469" lon="-7.900766"><ele>470.0</ele><time>2026-04-26T11:22:06.763Z</time></trkpt><trkpt lat="41.1839371" lon="-7.9008248"><ele>470.0</ele><time>2026-04-26T11:22:08.757Z</time></trkpt><trkpt lat="41.1838322" lon="-7.9008809"><ele>470.0</ele><time>2026-04-26T11:22:10.758Z</time></trkpt><trkpt lat="41.1837132" lon="-7.9009471"><ele>466.66666666666663</ele><time>2026-04-26T11:22:12.761Z</time></trkpt><trkpt lat="41.1836466" lon="-7.9009767"><ele>463.3333333333333</ele><time>2026-04-26T11:22:13.757Z</time></trkpt><trkpt lat="41.1835756" lon="-7.9010024"><ele>460.0</ele><time>2026-04-26T11:22:14.76Z</time></trkpt><trkpt lat="41.183503" lon="-7.9010233"><ele>456.66666666666663</ele><time>2026-04-26T11:22:15.765Z</time></trkpt><trkpt lat="41.1834249" lon="-7.9010375"><ele>453.3333333333333</ele><time>2026-04-26T11:22:16.759Z</time></trkpt><trkpt lat="41.1833429" lon="-7.9010434"><ele>450.0</ele><time>2026-04-26T11:22:17.761Z</time></trkpt><trkpt lat="41.1832644" lon="-7.9010479"><ele>450.0</ele><time>2026-04-26T11:22:18.754Z</time></trkpt><trkpt lat="41.1831897" lon="-7.9010531"><ele>450.0</ele><time>2026-04-26T11:22:19.763Z</time></trkpt><trkpt lat="41.1831132" lon="-7.9010528"><ele>450.0</ele><time>2026-04-26T11:22:20.768Z</time></trkpt><trkpt lat="41.1830364" lon="-7.9010545"><ele>450.0</ele><time>2026-04-26T11:22:21.755Z</time></trkpt><trkpt lat="41.1829685" lon="-7.9010699"><ele>450.0</ele><time>2026-04-26T11:22:22.756Z</time></trkpt><trkpt lat="41.1828575" lon="-7.9011285"><ele>450.0</ele><time>2026-04-26T11:22:24.76Z</time></trkpt><trkpt lat="41.1827496" lon="-7.9011689"><ele>450.2</ele><time>2026-04-26T11:22:26.759Z</time></trkpt><trkpt lat="41.1826387" lon="-7.9012232"><ele>450.4</ele><time>2026-04-26T11:22:28.755Z</time></trkpt><trkpt lat="41.1825496" lon="-7.9012922"><ele>450.6</ele><time>2026-04-26T11:22:30.762Z</time></trkpt><trkpt lat="41.1824895" lon="-7.9013684"><ele>450.8</ele><time>2026-04-26T11:22:32.757Z</time></trkpt><trkpt lat="41.1824277" lon="-7.9014192"><ele>451.0</ele><time>2026-04-26T11:22:34.768Z</time></trkpt><trkpt lat="41.1823764" lon="-7.9014961"><ele>451.6</ele><time>2026-04-26T11:22:37.76Z</time></trkpt><trkpt lat="41.1823155" lon="-7.9015544"><ele>452.20000000000005</ele><time>2026-04-26T11:22:39.763Z</time></trkpt><trkpt lat="41.1822425" lon="-7.9016214"><ele>452.79999999999995</ele><time>2026-04-26T11:22:41.757Z</time></trkpt><trkpt lat="41.1821532" lon="-7.9017109"><ele>453.4</ele><time>2026-04-26T11:22:43.757Z</time></trkpt><trkpt lat="41.1820665" lon="-7.9018008"><ele>454.0</ele><time>2026-04-26T11:22:45.752Z</time></trkpt><trkpt lat="41.1819708" lon="-7.9018853"><ele>449.6</ele><time>2026-04-26T11:22:47.76Z</time></trkpt><trkpt lat="41.1818709" lon="-7.9019642"><ele>445.2</ele><time>2026-04-26T11:22:49.756Z</time></trkpt><trkpt lat="41.1817737" lon="-7.9020375"><ele>440.80000000000007</ele><time>2026-04-26T11:22:51.757Z</time></trkpt><trkpt lat="41.1816862" lon="-7.9021098"><ele>436.40000000000003</ele><time>2026-04-26T11:22:53.761Z</time></trkpt><trkpt lat="41.1815949" lon="-7.902175"><ele>432.0</ele><time>2026-04-26T11:22:55.756Z</time></trkpt><trkpt lat="41.1814968" lon="-7.9022322"><ele>432.0</ele><time>2026-04-26T11:22:57.757Z</time></trkpt><trkpt lat="41.181391" lon="-7.9022841"><ele>432.00000000000006</ele><time>2026-04-26T11:22:59.77Z</time></trkpt><trkpt lat="41.1812772" lon="-7.9023317"><ele>432.00000000000006</ele><time>2026-04-26T11:23:01.756Z</time></trkpt><trkpt lat="41.1811742" lon="-7.9023706"><ele>432.0</ele><time>2026-04-26T11:23:03.759Z</time></trkpt><trkpt lat="41.1810784" lon="-7.9024066"><ele>432.0</ele><time>2026-04-26T11:23:05.757Z</time></trkpt><trkpt lat="41.1809802" lon="-7.9024187"><ele>432.0</ele><time>2026-04-26T11:23:07.756Z</time></trkpt><trkpt lat="41.1809027" lon="-7.9024153"><ele>432.0</ele><time>2026-04-26T11:23:09.757Z</time></trkpt><trkpt lat="41.1808388" lon="-7.9023978"><ele>432.0</ele><time>2026-04-26T11:23:11.764Z</time></trkpt><trkpt lat="41.1807634" lon="-7.9023504"><ele>432.0</ele><time>2026-04-26T11:23:13.756Z</time></trkpt><trkpt lat="41.1806734" lon="-7.9022545"><ele>432.0</ele><time>2026-04-26T11:23:15.764Z</time></trkpt><trkpt lat="41.1806315" lon="-7.9021412"><ele>432.0</ele><time>2026-04-26T11:23:17.754Z</time></trkpt><trkpt lat="41.1805695" lon="-7.9020794"><ele>431.6666666666667</ele><time>2026-04-26T11:23:19.758Z</time></trkpt><trkpt lat="41.1804491" lon="-7.9020947"><ele>431.33333333333337</ele><time>2026-04-26T11:23:21.768Z</time></trkpt><trkpt lat="41.1803856" lon="-7.902115"><ele>431.0</ele><time>2026-04-26T11:23:22.757Z</time></trkpt><trkpt lat="41.1803166" lon="-7.9021262"><ele>430.6666666666667</ele><time>2026-04-26T11:23:23.755Z</time></trkpt><trkpt lat="41.1802504" lon="-7.9021356"><ele>430.33333333333337</ele><time>2026-04-26T11:23:24.759Z</time></trkpt><trkpt lat="41.1801763" lon="-7.9021555"><ele>430.0</ele><time>2026-04-26T11:23:25.759Z</time></trkpt><trkpt lat="41.1800554" lon="-7.902196"><ele>430.0</ele><time>2026-04-26T11:23:27.757Z</time></trkpt><trkpt lat="41.1799628" lon="-7.9022365"><ele>430.0</ele><time>2026-04-26T11:23:29.762Z</time></trkpt><trkpt lat="41.179889" lon="-7.9022951"><ele>430.0</ele><time>2026-04-26T11:23:31.764Z</time></trkpt><trkpt lat="41.1798035" lon="-7.9023892"><ele>430.0</ele><time>2026-04-26T11:23:33.756Z</time></trkpt><trkpt lat="41.1797208" lon="-7.9025001"><ele>430.0</ele><time>2026-04-26T11:23:35.755Z</time></trkpt><trkpt lat="41.1796777" lon="-7.9025672"><ele>427.83333333333337</ele><time>2026-04-26T11:23:36.76Z</time></trkpt><trkpt lat="41.179611" lon="-7.9026883"><ele>425.6666666666667</ele><time>2026-04-26T11:23:38.754Z</time></trkpt><trkpt lat="41.1795505" lon="-7.9027816"><ele>423.5</ele><time>2026-04-26T11:23:40.761Z</time></trkpt><trkpt lat="41.1795066" lon="-7.9028562"><ele>421.33333333333337</ele><time>2026-04-26T11:23:43.769Z</time></trkpt><trkpt lat="41.1794563" lon="-7.9029073"><ele>419.1666666666667</ele><time>2026-04-26T11:24:29.762Z</time></trkpt><trkpt lat="41.1794049" lon="-7.9029577"><ele>417.0</ele><time>2026-04-26T11:24:31.753Z</time></trkpt><trkpt lat="41.1793608" lon="-7.9030677"><ele>417.0</ele><time>2026-04-26T11:24:33.755Z</time></trkpt><trkpt lat="41.1793121" lon="-7.9032021"><ele>417.0</ele><time>2026-04-26T11:24:35.762Z</time></trkpt><trkpt lat="41.1792625" lon="-7.9032808"><ele>417.0</ele><time>2026-04-26T11:24:36.76Z</time></trkpt><trkpt lat="41.1791827" lon="-7.9033969"><ele>417.0</ele><time>2026-04-26T11:24:38.752Z</time></trkpt><trkpt lat="41.1791403" lon="-7.9034589"><ele>417.0</ele><time>2026-04-26T11:24:39.754Z</time></trkpt><trkpt lat="41.179092" lon="-7.9035158"><ele>417.0</ele><time>2026-04-26T11:24:40.764Z</time></trkpt><trkpt lat="41.1789935" lon="-7.9035966"><ele>413.3333333333333</ele><time>2026-04-26T11:24:42.758Z</time></trkpt><trkpt lat="41.1788672" lon="-7.9035931"><ele>409.66666666666663</ele><time>2026-04-26T11:24:44.756Z</time></trkpt><trkpt lat="41.1788035" lon="-7.9035802"><ele>406.0</ele><time>2026-04-26T11:24:45.758Z</time></trkpt><trkpt lat="41.1787397" lon="-7.9035578"><ele>402.3333333333333</ele><time>2026-04-26T11:24:46.758Z</time></trkpt><trkpt lat="41.1786701" lon="-7.9035353"><ele>398.66666666666663</ele><time>2026-04-26T11:24:47.765Z</time></trkpt><trkpt lat="41.1785991" lon="-7.9035084"><ele>395.0</ele><time>2026-04-26T11:24:48.756Z</time></trkpt><trkpt lat="41.1785295" lon="-7.9034643"><ele>394.16666666666663</ele><time>2026-04-26T11:24:49.754Z</time></trkpt><trkpt lat="41.1784277" lon="-7.9033682"><ele>393.3333333333333</ele><time>2026-04-26T11:24:51.759Z</time></trkpt><trkpt lat="41.1783752" lon="-7.9033078"><ele>392.5</ele><time>2026-04-26T11:24:52.756Z</time></trkpt><trkpt lat="41.1783313" lon="-7.9032352"><ele>391.66666666666663</ele><time>2026-04-26T11:24:53.779Z</time></trkpt><trkpt lat="41.1782924" lon="-7.9031564"><ele>390.8333333333333</ele><time>2026-04-26T11:24:54.754Z</time></trkpt><trkpt lat="41.1782439" lon="-7.9030907"><ele>390.0</ele><time>2026-04-26T11:24:55.758Z</time></trkpt><trkpt lat="41.1781459" lon="-7.9030008"><ele>390.0</ele><time>2026-04-26T11:24:57.766Z</time></trkpt><trkpt lat="41.17805" lon="-7.9029381"><ele>390.0</ele><time>2026-04-26T11:24:59.752Z</time></trkpt><trkpt lat="41.1779367" lon="-7.9029252"><ele>390.0</ele><time>2026-04-26T11:25:01.759Z</time></trkpt><trkpt lat="41.1778088" lon="-7.9029471"><ele>390.0</ele><time>2026-04-26T11:25:03.765Z</time></trkpt><trkpt lat="41.1777107" lon="-7.9030061"><ele>390.0</ele><time>2026-04-26T11:25:05.752Z</time></trkpt><trkpt lat="41.1776609" lon="-7.9030744"><ele>390.0</ele><time>2026-04-26T11:25:06.757Z</time></trkpt><trkpt lat="41.1776151" lon="-7.9031625"><ele>390.0</ele><time>2026-04-26T11:25:07.762Z</time></trkpt><trkpt lat="41.1775623" lon="-7.9032483"><ele>390.0</ele><time>2026-04-26T11:25:08.758Z</time></trkpt><trkpt lat="41.1775232" lon="-7.9033437"><ele>390.0</ele><time>2026-04-26T11:25:09.754Z</time></trkpt><trkpt lat="41.1775066" lon="-7.9034529"><ele>390.0</ele><time>2026-04-26T11:25:10.755Z</time></trkpt><trkpt lat="41.1774815" lon="-7.9035561"><ele>388.0</ele><time>2026-04-26T11:25:11.757Z</time></trkpt><trkpt lat="41.1774543" lon="-7.9036643"><ele>386.0</ele><time>2026-04-26T11:25:12.753Z</time></trkpt><trkpt lat="41.1774252" lon="-7.9037677"><ele>384.0</ele><time>2026-04-26T11:25:13.752Z</time></trkpt><trkpt lat="41.177399" lon="-7.9038789"><ele>382.0</ele><time>2026-04-26T11:25:14.756Z</time></trkpt><trkpt lat="41.1773885" lon="-7.9039638"><ele>380.0</ele><time>2026-04-26T11:25:15.757Z</time></trkpt><trkpt lat="41.1773649" lon="-7.9041148"><ele>378.0</ele><time>2026-04-26T11:25:17.754Z</time></trkpt><trkpt lat="41.1773543" lon="-7.9042099"><ele>374.4</ele><time>2026-04-26T11:25:19.754Z</time></trkpt><trkpt lat="41.1773348" lon="-7.904302"><ele>370.79999999999995</ele><time>2026-04-26T11:25:23.755Z</time></trkpt><trkpt lat="41.1772827" lon="-7.9043855"><ele>367.2</ele><time>2026-04-26T11:25:26.758Z</time></trkpt><trkpt lat="41.1771939" lon="-7.9044976"><ele>363.6</ele><time>2026-04-26T11:25:28.755Z</time></trkpt><trkpt lat="41.177128" lon="-7.9046216"><ele>360.0</ele><time>2026-04-26T11:25:30.758Z</time></trkpt><trkpt lat="41.1770928" lon="-7.9047007"><ele>360.0</ele><time>2026-04-26T11:25:31.76Z</time></trkpt><trkpt lat="41.1770421" lon="-7.9048365"><ele>360.0</ele><time>2026-04-26T11:25:33.75Z</time></trkpt><trkpt lat="41.176954" lon="-7.9049179"><ele>360.0</ele><time>2026-04-26T11:25:35.758Z</time></trkpt><trkpt lat="41.1768933" lon="-7.9049443"><ele>360.0</ele><time>2026-04-26T11:25:36.755Z</time></trkpt><trkpt lat="41.1767648" lon="-7.9049828"><ele>360.0</ele><time>2026-04-26T11:25:38.755Z</time></trkpt><trkpt lat="41.1766845" lon="-7.904989"><ele>360.0</ele><time>2026-04-26T11:25:39.753Z</time></trkpt><trkpt lat="41.1766112" lon="-7.9049931"><ele>360.0</ele><time>2026-04-26T11:25:40.751Z</time></trkpt><trkpt lat="41.1764817" lon="-7.9050219"><ele>360.0</ele><time>2026-04-26T11:25:42.758Z</time></trkpt><trkpt lat="41.1764198" lon="-7.9050429"><ele>360.0</ele><time>2026-04-26T11:25:43.757Z</time></trkpt><trkpt lat="41.1763566" lon="-7.9050636"><ele>360.0</ele><time>2026-04-26T11:25:44.761Z</time></trkpt><trkpt lat="41.1762977" lon="-7.9050972"><ele>360.0</ele><time>2026-04-26T11:25:45.759Z</time></trkpt><trkpt lat="41.1762328" lon="-7.9051285"><ele>357.4285714285714</ele><time>2026-04-26T11:25:46.757Z</time></trkpt><trkpt lat="41.1761717" lon="-7.9051731"><ele>354.8571428571429</ele><time>2026-04-26T11:25:47.753Z</time></trkpt><trkpt lat="41.1761149" lon="-7.9052219"><ele>352.2857142857143</ele><time>2026-04-26T11:25:48.755Z</time></trkpt><trkpt lat="41.176061" lon="-7.9052661"><ele>349.71428571428567</ele><time>2026-04-26T11:25:49.758Z</time></trkpt><trkpt lat="41.1759829" lon="-7.9053457"><ele>347.1428571428571</ele><time>2026-04-26T11:25:51.763Z</time></trkpt><trkpt lat="41.1759257" lon="-7.9054098"><ele>344.57142857142856</ele><time>2026-04-26T11:25:54.76Z</time></trkpt><trkpt lat="41.1758774" lon="-7.9053402"><ele>342.0</ele><time>2026-04-26T11:25:56.759Z</time></trkpt><trkpt lat="41.1758338" lon="-7.9052327"><ele>343.20000000000005</ele><time>2026-04-26T11:25:58.752Z</time></trkpt><trkpt lat="41.1757818" lon="-7.9050744"><ele>344.4</ele><time>2026-04-26T11:26:00.752Z</time></trkpt><trkpt lat="41.1757591" lon="-7.9049746"><ele>345.6</ele><time>2026-04-26T11:26:01.757Z</time></trkpt><trkpt lat="41.1757572" lon="-7.9048265"><ele>346.79999999999995</ele><time>2026-04-26T11:26:03.755Z</time></trkpt><trkpt lat="41.1757733" lon="-7.9047361"><ele>348.0</ele><time>2026-04-26T11:26:04.754Z</time></trkpt><trkpt lat="41.1757972" lon="-7.9046556"><ele>348.0</ele><time>2026-04-26T11:26:05.756Z</time></trkpt><trkpt lat="41.1758503" lon="-7.9045115"><ele>348.0</ele><time>2026-04-26T11:26:07.768Z</time></trkpt><trkpt lat="41.1758898" lon="-7.9044395"><ele>348.0</ele><time>2026-04-26T11:26:08.759Z</time></trkpt><trkpt lat="41.1759342" lon="-7.9043631"><ele>348.0</ele><time>2026-04-26T11:26:09.754Z</time></trkpt><trkpt lat="41.1759798" lon="-7.9042808"><ele>348.0</ele><time>2026-04-26T11:26:10.75Z</time></trkpt><trkpt lat="41.1759822" lon="-7.9041269"><ele>347.4</ele><time>2026-04-26T11:26:12.752Z</time></trkpt><trkpt lat="41.175937" lon="-7.904042"><ele>346.79999999999995</ele><time>2026-04-26T11:26:14.755Z</time></trkpt><trkpt lat="41.1758273" lon="-7.9039793"><ele>346.2</ele><time>2026-04-26T11:26:16.751Z</time></trkpt><trkpt lat="41.1757711" lon="-7.9038635"><ele>345.6</ele><time>2026-04-26T11:26:18.761Z</time></trkpt><trkpt lat="41.1757415" lon="-7.9037093"><ele>345.0</ele><time>2026-04-26T11:26:20.752Z</time></trkpt><trkpt lat="41.175729" lon="-7.9036173"><ele>345.0</ele><time>2026-04-26T11:26:21.762Z</time></trkpt><trkpt lat="41.1757125" lon="-7.9035174"><ele>345.0</ele><time>2026-04-26T11:26:22.755Z</time></trkpt><trkpt lat="41.1756976" lon="-7.903408"><ele>345.0</ele><time>2026-04-26T11:26:23.759Z</time></trkpt><trkpt lat="41.1756733" lon="-7.9032977"><ele>345.0</ele><time>2026-04-26T11:26:24.754Z</time></trkpt><trkpt lat="41.1756492" lon="-7.9031921"><ele>345.0</ele><time>2026-04-26T11:26:25.756Z</time></trkpt><trkpt lat="41.1756198" lon="-7.9030963"><ele>345.0</ele><time>2026-04-26T11:26:26.766Z</time></trkpt><trkpt lat="41.1755896" lon="-7.9030033"><ele>344.42857142857144</ele><time>2026-04-26T11:26:27.76Z</time></trkpt><trkpt lat="41.1755506" lon="-7.9029173"><ele>343.85714285714283</ele><time>2026-04-26T11:26:28.752Z</time></trkpt><trkpt lat="41.1755077" lon="-7.902831"><ele>343.2857142857143</ele><time>2026-04-26T11:26:29.753Z</time></trkpt><trkpt lat="41.1754605" lon="-7.9027604"><ele>342.7142857142857</ele><time>2026-04-26T11:26:30.749Z</time></trkpt><trkpt lat="41.1754061" lon="-7.9026879"><ele>342.14285714285717</ele><time>2026-04-26T11:26:31.757Z</time></trkpt><trkpt lat="41.175359" lon="-7.9026165"><ele>341.57142857142856</ele><time>2026-04-26T11:26:32.752Z</time></trkpt><trkpt lat="41.1753172" lon="-7.9025462"><ele>341.0</ele><time>2026-04-26T11:26:33.753Z</time></trkpt><trkpt lat="41.1752773" lon="-7.9024768"><ele>341.0</ele><time>2026-04-26T11:26:34.759Z</time></trkpt><trkpt lat="41.1752362" lon="-7.9024108"><ele>341.0</ele><time>2026-04-26T11:26:35.76Z</time></trkpt><trkpt lat="41.1751748" lon="-7.9023199"><ele>341.0</ele><time>2026-04-26T11:26:37.76Z</time></trkpt><trkpt lat="41.1751205" lon="-7.9021863"><ele>341.0</ele><time>2026-04-26T11:26:39.749Z</time></trkpt><trkpt lat="41.1751315" lon="-7.9020667"><ele>341.0</ele><time>2026-04-26T11:26:41.755Z</time></trkpt><trkpt lat="41.1751569" lon="-7.9019624"><ele>341.0</ele><time>2026-04-26T11:26:43.756Z</time></trkpt><trkpt lat="41.1751801" lon="-7.9018312"><ele>342.42857142857144</ele><time>2026-04-26T11:26:45.763Z</time></trkpt><trkpt lat="41.1751848" lon="-7.9017445"><ele>343.8571428571429</ele><time>2026-04-26T11:26:46.755Z</time></trkpt><trkpt lat="41.175151" lon="-7.9016641"><ele>345.28571428571433</ele><time>2026-04-26T11:26:47.752Z</time></trkpt><trkpt lat="41.1751068" lon="-7.9015925"><ele>346.7142857142857</ele><time>2026-04-26T11:26:48.755Z</time></trkpt><trkpt lat="41.1750582" lon="-7.901524"><ele>348.14285714285717</ele><time>2026-04-26T11:26:49.753Z</time></trkpt><trkpt lat="41.1750135" lon="-7.9014482"><ele>349.5714285714286</ele><time>2026-04-26T11:26:50.753Z</time></trkpt><trkpt lat="41.1749678" lon="-7.9013739"><ele>351.0</ele><time>2026-04-26T11:26:51.753Z</time></trkpt><trkpt lat="41.1749166" lon="-7.9012893"><ele>351.0</ele><time>2026-04-26T11:26:52.755Z</time></trkpt><trkpt lat="41.1748723" lon="-7.9011982"><ele>351.0</ele><time>2026-04-26T11:26:53.754Z</time></trkpt><trkpt lat="41.1748337" lon="-7.9010926"><ele>351.0</ele><time>2026-04-26T11:26:54.754Z</time></trkpt><trkpt lat="41.1747917" lon="-7.9009855"><ele>351.0</ele><time>2026-04-26T11:26:55.762Z</time></trkpt><trkpt lat="41.1747504" lon="-7.9008756"><ele>351.0</ele><time>2026-04-26T11:26:56.757Z</time></trkpt><trkpt lat="41.174711" lon="-7.9007713"><ele>351.0</ele><time>2026-04-26T11:26:57.758Z</time></trkpt><trkpt lat="41.1746655" lon="-7.9006757"><ele>349.3333333333333</ele><time>2026-04-26T11:26:58.753Z</time></trkpt><trkpt lat="41.1746179" lon="-7.9005943"><ele>347.6666666666667</ele><time>2026-04-26T11:26:59.761Z</time></trkpt><trkpt lat="41.1745616" lon="-7.9005229"><ele>346.0</ele><time>2026-04-26T11:27:00.755Z</time></trkpt><trkpt lat="41.1744978" lon="-7.9004708"><ele>344.33333333333337</ele><time>2026-04-26T11:27:01.748Z</time></trkpt><trkpt lat="41.1744247" lon="-7.9004455"><ele>342.6666666666667</ele><time>2026-04-26T11:27:02.755Z</time></trkpt><trkpt lat="41.1743455" lon="-7.9004161"><ele>341.0</ele><time>2026-04-26T11:27:03.753Z</time></trkpt><trkpt lat="41.1742824" lon="-7.9003853"><ele>341.0</ele><time>2026-04-26T11:27:04.756Z</time></trkpt><trkpt lat="41.1741712" lon="-7.9003106"><ele>341.0</ele><time>2026-04-26T11:27:06.753Z</time></trkpt><trkpt lat="41.1740773" lon="-7.9002141"><ele>341.0</ele><time>2026-04-26T11:27:08.755Z</time></trkpt><trkpt lat="41.1740074" lon="-7.9000948"><ele>341.0</ele><time>2026-04-26T11:27:10.756Z</time></trkpt><trkpt lat="41.1739893" lon="-7.9000118"><ele>341.0</ele><time>2026-04-26T11:27:11.756Z</time></trkpt><trkpt lat="41.1739797" lon="-7.8999137"><ele>338.33333333333337</ele><time>2026-04-26T11:27:12.753Z</time></trkpt><trkpt lat="41.1739588" lon="-7.8998049"><ele>335.6666666666667</ele><time>2026-04-26T11:27:13.752Z</time></trkpt><trkpt lat="41.1739498" lon="-7.899699"><ele>333.0</ele><time>2026-04-26T11:27:14.756Z</time></trkpt><trkpt lat="41.1739696" lon="-7.8995891"><ele>330.3333333333333</ele><time>2026-04-26T11:27:15.754Z</time></trkpt><trkpt lat="41.1739651" lon="-7.8994858"><ele>327.66666666666663</ele><time>2026-04-26T11:27:16.754Z</time></trkpt><trkpt lat="41.1739572" lon="-7.8993779"><ele>325.0</ele><time>2026-04-26T11:27:17.755Z</time></trkpt><trkpt lat="41.1739462" lon="-7.8992788"><ele>325.6</ele><time>2026-04-26T11:27:18.753Z</time></trkpt><trkpt lat="41.1739109" lon="-7.8992091"><ele>326.2</ele><time>2026-04-26T11:27:19.759Z</time></trkpt><trkpt lat="41.1738266" lon="-7.8990933"><ele>326.79999999999995</ele><time>2026-04-26T11:27:21.755Z</time></trkpt><trkpt lat="41.1737755" lon="-7.898985"><ele>327.4</ele><time>2026-04-26T11:27:23.762Z</time></trkpt><trkpt lat="41.1737432" lon="-7.8988503"><ele>328.0</ele><time>2026-04-26T11:27:25.753Z</time></trkpt><trkpt lat="41.1737702" lon="-7.8987338"><ele>327.99999999999994</ele><time>2026-04-26T11:27:27.751Z</time></trkpt><trkpt lat="41.1738393" lon="-7.8986623"><ele>328.0</ele><time>2026-04-26T11:27:29.754Z</time></trkpt><trkpt lat="41.1739023" lon="-7.8986433"><ele>328.0</ele><time>2026-04-26T11:27:30.758Z</time></trkpt><trkpt lat="41.1739659" lon="-7.8986338"><ele>328.0</ele><time>2026-04-26T11:27:31.752Z</time></trkpt><trkpt lat="41.1740261" lon="-7.8986076"><ele>328.0</ele><time>2026-04-26T11:27:32.757Z</time></trkpt><trkpt lat="41.1740908" lon="-7.8985255"><ele>327.99999999999994</ele><time>2026-04-26T11:27:34.762Z</time></trkpt><trkpt lat="41.1740506" lon="-7.8984335"><ele>328.0</ele><time>2026-04-26T11:27:36.751Z</time></trkpt><trkpt lat="41.1739468" lon="-7.898379"><ele>330.5</ele><time>2026-04-26T11:27:38.752Z</time></trkpt><trkpt lat="41.173875" lon="-7.8983542"><ele>333.0</ele><time>2026-04-26T11:27:39.758Z</time></trkpt><trkpt lat="41.1738002" lon="-7.8983317"><ele>335.5</ele><time>2026-04-26T11:27:40.758Z</time></trkpt><trkpt lat="41.1737188" lon="-7.8983057"><ele>338.0</ele><time>2026-04-26T11:27:41.755Z</time></trkpt><trkpt lat="41.1736336" lon="-7.8982848"><ele>340.5</ele><time>2026-04-26T11:27:42.753Z</time></trkpt><trkpt lat="41.1735539" lon="-7.8982629"><ele>343.0</ele><time>2026-04-26T11:27:43.766Z</time></trkpt><trkpt lat="41.1734686" lon="-7.898249"><ele>343.0</ele><time>2026-04-26T11:27:44.753Z</time></trkpt><trkpt lat="41.1733793" lon="-7.8982426"><ele>343.0</ele><time>2026-04-26T11:27:45.76Z</time></trkpt><trkpt lat="41.1733016" lon="-7.8982445"><ele>343.0</ele><time>2026-04-26T11:27:46.761Z</time></trkpt><trkpt lat="41.1732294" lon="-7.898246"><ele>343.0</ele><time>2026-04-26T11:27:47.754Z</time></trkpt><trkpt lat="41.1731527" lon="-7.8982397"><ele>343.0</ele><time>2026-04-26T11:27:48.75Z</time></trkpt><trkpt lat="41.1730742" lon="-7.8982266"><ele>343.0</ele><time>2026-04-26T11:27:49.755Z</time></trkpt><trkpt lat="41.1729432" lon="-7.8982001"><ele>340.42857142857144</ele><time>2026-04-26T11:27:51.755Z</time></trkpt><trkpt lat="41.1728818" lon="-7.8981725"><ele>337.8571428571429</ele><time>2026-04-26T11:27:52.765Z</time></trkpt><trkpt lat="41.1728192" lon="-7.89814"><ele>335.2857142857143</ele><time>2026-04-26T11:27:53.756Z</time></trkpt><trkpt lat="41.1727598" lon="-7.8981035"><ele>332.7142857142857</ele><time>2026-04-26T11:27:54.752Z</time></trkpt><trkpt lat="41.1726988" lon="-7.8980539"><ele>330.14285714285717</ele><time>2026-04-26T11:27:55.757Z</time></trkpt><trkpt lat="41.1726333" lon="-7.8980012"><ele>327.57142857142856</ele><time>2026-04-26T11:27:56.749Z</time></trkpt><trkpt lat="41.1725696" lon="-7.8979485"><ele>325.0</ele><time>2026-04-26T11:27:57.748Z</time></trkpt><trkpt lat="41.1725099" lon="-7.8978915"><ele>325.0</ele><time>2026-04-26T11:27:58.76Z</time></trkpt><trkpt lat="41.1724504" lon="-7.8978294"><ele>325.0</ele><time>2026-04-26T11:27:59.748Z</time></trkpt><trkpt lat="41.1723884" lon="-7.8977648"><ele>325.0</ele><time>2026-04-26T11:28:00.751Z</time></trkpt><trkpt lat="41.1723206" lon="-7.8976948"><ele>325.0</ele><time>2026-04-26T11:28:01.749Z</time></trkpt><trkpt lat="41.172249" lon="-7.8976211"><ele>325.0</ele><time>2026-04-26T11:28:02.748Z</time></trkpt><trkpt lat="41.1721745" lon="-7.8975476"><ele>325.0</ele><time>2026-04-26T11:28:03.753Z</time></trkpt><trkpt lat="41.1721032" lon="-7.8974759"><ele>324.5</ele><time>2026-04-26T11:28:04.757Z</time></trkpt><trkpt lat="41.1720269" lon="-7.89741"><ele>324.0</ele><time>2026-04-26T11:28:05.753Z</time></trkpt><trkpt lat="41.1719555" lon="-7.8973371"><ele>323.5</ele><time>2026-04-26T11:28:06.748Z</time></trkpt><trkpt lat="41.1718949" lon="-7.8972542"><ele>323.0</ele><time>2026-04-26T11:28:07.751Z</time></trkpt><trkpt lat="41.1718379" lon="-7.8971572"><ele>322.5</ele><time>2026-04-26T11:28:08.749Z</time></trkpt><trkpt lat="41.1717844" lon="-7.8970652"><ele>322.0</ele><time>2026-04-26T11:28:09.748Z</time></trkpt><trkpt lat="41.1717445" lon="-7.8969576"><ele>322.0</ele><time>2026-04-26T11:28:10.749Z</time></trkpt><trkpt lat="41.1717006" lon="-7.8968348"><ele>322.0</ele><time>2026-04-26T11:28:11.754Z</time></trkpt><trkpt lat="41.1716578" lon="-7.8966806"><ele>322.0</ele><time>2026-04-26T11:28:12.747Z</time></trkpt><trkpt lat="41.1716045" lon="-7.8965329"><ele>322.0</ele><time>2026-04-26T11:28:13.753Z</time></trkpt><trkpt lat="41.1715401" lon="-7.8964006"><ele>319.75</ele><time>2026-04-26T11:28:14.751Z</time></trkpt><trkpt lat="41.1714549" lon="-7.8962851"><ele>317.5</ele><time>2026-04-26T11:28:15.747Z</time></trkpt><trkpt lat="41.1713657" lon="-7.8961808"><ele>315.25</ele><time>2026-04-26T11:28:16.75Z</time></trkpt><trkpt lat="41.1712724" lon="-7.8960835"><ele>313.0</ele><time>2026-04-26T11:28:17.769Z</time></trkpt><trkpt lat="41.1711787" lon="-7.8959967"><ele>313.0</ele><time>2026-04-26T11:28:18.754Z</time></trkpt><trkpt lat="41.1710762" lon="-7.8959203"><ele>313.0</ele><time>2026-04-26T11:28:19.749Z</time></trkpt><trkpt lat="41.1709753" lon="-7.8958557"><ele>313.0</ele><time>2026-04-26T11:28:20.754Z</time></trkpt><trkpt lat="41.1708798" lon="-7.8957765"><ele>313.0</ele><time>2026-04-26T11:28:21.749Z</time></trkpt><trkpt lat="41.1707751" lon="-7.8956764"><ele>313.3333333333333</ele><time>2026-04-26T11:28:22.757Z</time></trkpt><trkpt lat="41.1706655" lon="-7.895561"><ele>313.6666666666667</ele><time>2026-04-26T11:28:23.748Z</time></trkpt><trkpt lat="41.1705389" lon="-7.8954521"><ele>314.0</ele><time>2026-04-26T11:28:24.749Z</time></trkpt><trkpt lat="41.1703964" lon="-7.8953516"><ele>314.0</ele><time>2026-04-26T11:28:25.754Z</time></trkpt><trkpt lat="41.1702846" lon="-7.8952862"><ele>314.0</ele><time>2026-04-26T11:28:26.757Z</time></trkpt><trkpt lat="41.1701755" lon="-7.8952331"><ele>314.0</ele><time>2026-04-26T11:28:27.748Z</time></trkpt><trkpt lat="41.1700881" lon="-7.8951867"><ele>314.0</ele><time>2026-04-26T11:28:28.752Z</time></trkpt><trkpt lat="41.1700151" lon="-7.8951457"><ele>314.0</ele><time>2026-04-26T11:28:29.749Z</time></trkpt><trkpt lat="41.1699282" lon="-7.8951175"><ele>315.33333333333337</ele><time>2026-04-26T11:28:31.751Z</time></trkpt><trkpt lat="41.1698795" lon="-7.8950559"><ele>316.6666666666667</ele><time>2026-04-26T11:28:33.747Z</time></trkpt><trkpt lat="41.1697637" lon="-7.8950034"><ele>318.0</ele><time>2026-04-26T11:28:35.749Z</time></trkpt><trkpt lat="41.1696976" lon="-7.894981"><ele>319.3333333333333</ele><time>2026-04-26T11:28:36.749Z</time></trkpt><trkpt lat="41.1696318" lon="-7.8949532"><ele>320.66666666666663</ele><time>2026-04-26T11:28:37.755Z</time></trkpt><trkpt lat="41.169564" lon="-7.8949184"><ele>322.0</ele><time>2026-04-26T11:28:38.749Z</time></trkpt><trkpt lat="41.1694972" lon="-7.89487"><ele>322.0</ele><time>2026-04-26T11:28:39.747Z</time></trkpt><trkpt lat="41.1694313" lon="-7.894815"><ele>322.0</ele><time>2026-04-26T11:28:40.754Z</time></trkpt><trkpt lat="41.1693714" lon="-7.894752"><ele>322.0</ele><time>2026-04-26T11:28:41.747Z</time></trkpt><trkpt lat="41.169315" lon="-7.8946944"><ele>322.0</ele><time>2026-04-26T11:28:42.751Z</time></trkpt><trkpt lat="41.1692664" lon="-7.8946188"><ele>322.0</ele><time>2026-04-26T11:28:43.764Z</time></trkpt><trkpt lat="41.1692331" lon="-7.8945277"><ele>322.0</ele><time>2026-04-26T11:28:44.758Z</time></trkpt><trkpt lat="41.1692158" lon="-7.8944336"><ele>322.0</ele><time>2026-04-26T11:28:45.749Z</time></trkpt><trkpt lat="41.1692114" lon="-7.8943336"><ele>324.42857142857144</ele><time>2026-04-26T11:28:46.749Z</time></trkpt><trkpt lat="41.1692168" lon="-7.894231"><ele>326.8571428571429</ele><time>2026-04-26T11:28:47.749Z</time></trkpt><trkpt lat="41.1692407" lon="-7.8941312"><ele>329.2857142857143</ele><time>2026-04-26T11:28:48.758Z</time></trkpt><trkpt lat="41.1692588" lon="-7.894025"><ele>331.7142857142857</ele><time>2026-04-26T11:28:49.762Z</time></trkpt><trkpt lat="41.1692553" lon="-7.893935"><ele>334.14285714285717</ele><time>2026-04-26T11:28:50.75Z</time></trkpt><trkpt lat="41.1692431" lon="-7.8938521"><ele>336.57142857142856</ele><time>2026-04-26T11:28:51.754Z</time></trkpt><trkpt lat="41.1691889" lon="-7.8937848"><ele>339.0</ele><time>2026-04-26T11:28:52.757Z</time></trkpt><trkpt lat="41.1691324" lon="-7.8937461"><ele>337.0</ele><time>2026-04-26T11:28:53.768Z</time></trkpt><trkpt lat="41.1690134" lon="-7.8937854"><ele>335.0</ele><time>2026-04-26T11:28:55.754Z</time></trkpt><trkpt lat="41.1688934" lon="-7.893821"><ele>333.0</ele><time>2026-04-26T11:28:57.755Z</time></trkpt><trkpt lat="41.1688308" lon="-7.8938303"><ele>331.0</ele><time>2026-04-26T11:28:58.76Z</time></trkpt><trkpt lat="41.1687075" lon="-7.8938291"><ele>329.0</ele><time>2026-04-26T11:29:00.751Z</time></trkpt><trkpt lat="41.1686404" lon="-7.8938306"><ele>329.0</ele><time>2026-04-26T11:29:01.751Z</time></trkpt><trkpt lat="41.1685579" lon="-7.8938451"><ele>329.0</ele><time>2026-04-26T11:29:02.761Z</time></trkpt><trkpt lat="41.1684648" lon="-7.8938644"><ele>329.0</ele><time>2026-04-26T11:29:03.752Z</time></trkpt><trkpt lat="41.1683898" lon="-7.8938707"><ele>329.0</ele><time>2026-04-26T11:29:04.758Z</time></trkpt><trkpt lat="41.1683018" lon="-7.8938807"><ele>329.0</ele><time>2026-04-26T11:29:05.758Z</time></trkpt><trkpt lat="41.1682102" lon="-7.8939044"><ele>329.0</ele><time>2026-04-26T11:29:06.756Z</time></trkpt><trkpt lat="41.1681182" lon="-7.893935"><ele>327.57142857142856</ele><time>2026-04-26T11:29:07.751Z</time></trkpt><trkpt lat="41.168037" lon="-7.8939702"><ele>326.1428571428571</ele><time>2026-04-26T11:29:08.754Z</time></trkpt><trkpt lat="41.1679611" lon="-7.8940049"><ele>324.7142857142857</ele><time>2026-04-26T11:29:09.752Z</time></trkpt><trkpt lat="41.167888" lon="-7.8940391"><ele>323.2857142857143</ele><time>2026-04-26T11:29:10.751Z</time></trkpt><trkpt lat="41.1678229" lon="-7.8940788"><ele>321.85714285714283</ele><time>2026-04-26T11:29:11.759Z</time></trkpt><trkpt lat="41.1677612" lon="-7.8941116"><ele>320.42857142857144</ele><time>2026-04-26T11:29:12.751Z</time></trkpt><trkpt lat="41.1677043" lon="-7.8941557"><ele>319.0</ele><time>2026-04-26T11:29:13.751Z</time></trkpt><trkpt lat="41.1676504" lon="-7.8942813"><ele>317.66666666666663</ele><time>2026-04-26T11:29:15.749Z</time></trkpt><trkpt lat="41.1676549" lon="-7.894368"><ele>316.3333333333333</ele><time>2026-04-26T11:29:24.751Z</time></trkpt><trkpt lat="41.1676982" lon="-7.8944479"><ele>315.0</ele><time>2026-04-26T11:29:45.755Z</time></trkpt><trkpt lat="41.16768" lon="-7.8945502"><ele>313.6666666666667</ele><time>2026-04-26T11:29:47.751Z</time></trkpt><trkpt lat="41.1676506" lon="-7.8946595"><ele>312.33333333333337</ele><time>2026-04-26T11:29:49.752Z</time></trkpt><trkpt lat="41.1675855" lon="-7.8947525"><ele>311.0</ele><time>2026-04-26T11:29:52.752Z</time></trkpt><trkpt lat="41.16751" lon="-7.8948022"><ele>311.0</ele><time>2026-04-26T11:29:54.758Z</time></trkpt><trkpt lat="41.1674114" lon="-7.8947767"><ele>311.0</ele><time>2026-04-26T11:29:56.753Z</time></trkpt><trkpt lat="41.1673142" lon="-7.8946765"><ele>311.0</ele><time>2026-04-26T11:29:58.748Z</time></trkpt><trkpt lat="41.1672531" lon="-7.8946016"><ele>311.0</ele><time>2026-04-26T11:29:59.753Z</time></trkpt><trkpt lat="41.1671917" lon="-7.8945143"><ele>311.0</ele><time>2026-04-26T11:30:00.753Z</time></trkpt><trkpt lat="41.1671238" lon="-7.8944415"><ele>310.40000000000003</ele><time>2026-04-26T11:30:01.751Z</time></trkpt><trkpt lat="41.1670592" lon="-7.8943553"><ele>309.8</ele><time>2026-04-26T11:30:02.756Z</time></trkpt><trkpt lat="41.1669842" lon="-7.8942608"><ele>309.20000000000005</ele><time>2026-04-26T11:30:03.755Z</time></trkpt><trkpt lat="41.1669082" lon="-7.8941737"><ele>308.6</ele><time>2026-04-26T11:30:04.753Z</time></trkpt><trkpt lat="41.1668408" lon="-7.8940864"><ele>308.0</ele><time>2026-04-26T11:30:05.753Z</time></trkpt><trkpt lat="41.16676" lon="-7.8940103"><ele>308.0</ele><time>2026-04-26T11:30:06.751Z</time></trkpt><trkpt lat="41.1666686" lon="-7.8939192"><ele>308.0</ele><time>2026-04-26T11:30:07.753Z</time></trkpt><trkpt lat="41.1665776" lon="-7.8938188"><ele>308.0</ele><time>2026-04-26T11:30:08.754Z</time></trkpt><trkpt lat="41.1664877" lon="-7.8937125"><ele>308.0</ele><time>2026-04-26T11:30:09.759Z</time></trkpt><trkpt lat="41.1663979" lon="-7.8936113"><ele>309.25</ele><time>2026-04-26T11:30:10.756Z</time></trkpt><trkpt lat="41.1663044" lon="-7.893502"><ele>310.5</ele><time>2026-04-26T11:30:11.752Z</time></trkpt><trkpt lat="41.1662095" lon="-7.8933924"><ele>311.75</ele><time>2026-04-26T11:30:12.758Z</time></trkpt><trkpt lat="41.166112" lon="-7.8932847"><ele>313.0</ele><time>2026-04-26T11:30:13.75Z</time></trkpt><trkpt lat="41.1660082" lon="-7.8931707"><ele>313.0</ele><time>2026-04-26T11:30:14.751Z</time></trkpt><trkpt lat="41.1659051" lon="-7.8930555"><ele>313.0</ele><time>2026-04-26T11:30:15.751Z</time></trkpt><trkpt lat="41.1658077" lon="-7.8929459"><ele>313.0</ele><time>2026-04-26T11:30:16.753Z</time></trkpt><trkpt lat="41.165718" lon="-7.8928355"><ele>313.0</ele><time>2026-04-26T11:30:17.752Z</time></trkpt><trkpt lat="41.1656286" lon="-7.8927287"><ele>311.5</ele><time>2026-04-26T11:30:18.755Z</time></trkpt><trkpt lat="41.1655396" lon="-7.8926271"><ele>310.0</ele><time>2026-04-26T11:30:19.759Z</time></trkpt><trkpt lat="41.1654473" lon="-7.8925248"><ele>308.5</ele><time>2026-04-26T11:30:20.752Z</time></trkpt><trkpt lat="41.1653538" lon="-7.8924283"><ele>307.0</ele><time>2026-04-26T11:30:21.752Z</time></trkpt><trkpt lat="41.1652661" lon="-7.892327"><ele>307.0</ele><time>2026-04-26T11:30:22.752Z</time></trkpt><trkpt lat="41.1651754" lon="-7.8922264"><ele>307.0</ele><time>2026-04-26T11:30:23.758Z</time></trkpt><trkpt lat="41.1650906" lon="-7.8921295"><ele>307.0</ele><time>2026-04-26T11:30:24.753Z</time></trkpt><trkpt lat="41.1650093" lon="-7.8920328"><ele>307.0</ele><time>2026-04-26T11:30:25.753Z</time></trkpt><trkpt lat="41.1649236" lon="-7.8919316"><ele>302.6</ele><time>2026-04-26T11:30:26.754Z</time></trkpt><trkpt lat="41.1648402" lon="-7.8918293"><ele>298.2</ele><time>2026-04-26T11:30:27.754Z</time></trkpt><trkpt lat="41.1647629" lon="-7.8917252"><ele>293.8</ele><time>2026-04-26T11:30:28.755Z</time></trkpt><trkpt lat="41.1646923" lon="-7.8916158"><ele>289.4</ele><time>2026-04-26T11:30:29.755Z</time></trkpt><trkpt lat="41.1646301" lon="-7.891501"><ele>285.0</ele><time>2026-04-26T11:30:30.756Z</time></trkpt><trkpt lat="41.1645825" lon="-7.8913733"><ele>285.0</ele><time>2026-04-26T11:30:31.756Z</time></trkpt><trkpt lat="41.1645452" lon="-7.8912453"><ele>285.0</ele><time>2026-04-26T11:30:32.752Z</time></trkpt><trkpt lat="41.1645129" lon="-7.8911151"><ele>285.0</ele><time>2026-04-26T11:30:33.749Z</time></trkpt><trkpt lat="41.1644776" lon="-7.8909763"><ele>285.0</ele><time>2026-04-26T11:30:34.748Z</time></trkpt><trkpt lat="41.1644427" lon="-7.890847"><ele>285.0</ele><time>2026-04-26T11:30:35.751Z</time></trkpt><trkpt lat="41.1644407" lon="-7.8907245"><ele>286.6</ele><time>2026-04-26T11:30:36.763Z</time></trkpt><trkpt lat="41.1644598" lon="-7.890606"><ele>288.2</ele><time>2026-04-26T11:30:37.763Z</time></trkpt><trkpt lat="41.1644751" lon="-7.8904856"><ele>289.8</ele><time>2026-04-26T11:30:38.755Z</time></trkpt><trkpt lat="41.1644908" lon="-7.8903734"><ele>291.4</ele><time>2026-04-26T11:30:39.753Z</time></trkpt><trkpt lat="41.1645135" lon="-7.8902547"><ele>293.0</ele><time>2026-04-26T11:30:40.755Z</time></trkpt><trkpt lat="41.1645302" lon="-7.8901231"><ele>292.75</ele><time>2026-04-26T11:30:41.755Z</time></trkpt><trkpt lat="41.1645513" lon="-7.8899732"><ele>292.5</ele><time>2026-04-26T11:30:42.747Z</time></trkpt><trkpt lat="41.1645647" lon="-7.8898235"><ele>292.25</ele><time>2026-04-26T11:30:43.754Z</time></trkpt><trkpt lat="41.1645712" lon="-7.8896737"><ele>292.0</ele><time>2026-04-26T11:30:44.757Z</time></trkpt><trkpt lat="41.1645725" lon="-7.8895256"><ele>292.0</ele><time>2026-04-26T11:30:45.752Z</time></trkpt><trkpt lat="41.164564" lon="-7.8893892"><ele>292.0</ele><time>2026-04-26T11:30:46.762Z</time></trkpt><trkpt lat="41.1645442" lon="-7.8892579"><ele>292.0</ele><time>2026-04-26T11:30:47.75Z</time></trkpt><trkpt lat="41.1645121" lon="-7.8891294"><ele>292.0</ele><time>2026-04-26T11:30:48.752Z</time></trkpt><trkpt lat="41.1644726" lon="-7.8890023"><ele>292.0</ele><time>2026-04-26T11:30:49.75Z</time></trkpt><trkpt lat="41.1644208" lon="-7.8888783"><ele>294.0</ele><time>2026-04-26T11:30:50.753Z</time></trkpt><trkpt lat="41.164354" lon="-7.8887611"><ele>296.0</ele><time>2026-04-26T11:30:51.747Z</time></trkpt><trkpt lat="41.1642742" lon="-7.8886521"><ele>298.0</ele><time>2026-04-26T11:30:52.754Z</time></trkpt><trkpt lat="41.164182" lon="-7.8885503"><ele>300.0</ele><time>2026-04-26T11:30:53.747Z</time></trkpt><trkpt lat="41.1640853" lon="-7.8884597"><ele>302.0</ele><time>2026-04-26T11:30:54.752Z</time></trkpt><trkpt lat="41.163974" lon="-7.8883861"><ele>304.0</ele><time>2026-04-26T11:30:55.754Z</time></trkpt><trkpt lat="41.16385" lon="-7.8883363"><ele>306.0</ele><time>2026-04-26T11:30:56.75Z</time></trkpt><trkpt lat="41.1637206" lon="-7.8883035"><ele>308.0</ele><time>2026-04-26T11:30:57.753Z</time></trkpt><trkpt lat="41.1635928" lon="-7.8882893"><ele>308.0</ele><time>2026-04-26T11:30:58.753Z</time></trkpt><trkpt lat="41.1634717" lon="-7.8882868"><ele>308.0</ele><time>2026-04-26T11:30:59.756Z</time></trkpt><trkpt lat="41.1633521" lon="-7.8882904"><ele>308.0</ele><time>2026-04-26T11:31:00.754Z</time></trkpt><trkpt lat="41.163229" lon="-7.8882939"><ele>308.0</ele><time>2026-04-26T11:31:01.748Z</time></trkpt><trkpt lat="41.1631066" lon="-7.8882905"><ele>308.75</ele><time>2026-04-26T11:31:02.751Z</time></trkpt><trkpt lat="41.1629896" lon="-7.8882989"><ele>309.5</ele><time>2026-04-26T11:31:03.752Z</time></trkpt><trkpt lat="41.1628757" lon="-7.8883048"><ele>310.25</ele><time>2026-04-26T11:31:04.756Z</time></trkpt><trkpt lat="41.1627577" lon="-7.8883041"><ele>311.0</ele><time>2026-04-26T11:31:05.753Z</time></trkpt><trkpt lat="41.1626434" lon="-7.8883085"><ele>311.0</ele><time>2026-04-26T11:31:06.75Z</time></trkpt><trkpt lat="41.1625341" lon="-7.8883141"><ele>311.0</ele><time>2026-04-26T11:31:07.752Z</time></trkpt><trkpt lat="41.1624103" lon="-7.8883093"><ele>311.0</ele><time>2026-04-26T11:31:08.751Z</time></trkpt><trkpt lat="41.1622972" lon="-7.8883097"><ele>311.0</ele><time>2026-04-26T11:31:09.752Z</time></trkpt><trkpt lat="41.1621858" lon="-7.8883327"><ele>310.6</ele><time>2026-04-26T11:31:10.751Z</time></trkpt><trkpt lat="41.1620748" lon="-7.8883767"><ele>310.20000000000005</ele><time>2026-04-26T11:31:11.762Z</time></trkpt><trkpt lat="41.1619754" lon="-7.8884315"><ele>309.79999999999995</ele><time>2026-04-26T11:31:12.751Z</time></trkpt><trkpt lat="41.1618704" lon="-7.8884821"><ele>309.4</ele><time>2026-04-26T11:31:13.753Z</time></trkpt><trkpt lat="41.1617638" lon="-7.888519"><ele>309.0</ele><time>2026-04-26T11:31:14.756Z</time></trkpt><trkpt lat="41.1616496" lon="-7.8885441"><ele>306.5</ele><time>2026-04-26T11:31:15.749Z</time></trkpt><trkpt lat="41.1615321" lon="-7.8885515"><ele>304.0</ele><time>2026-04-26T11:31:16.754Z</time></trkpt><trkpt lat="41.1614064" lon="-7.8885603"><ele>301.5</ele><time>2026-04-26T11:31:17.76Z</time></trkpt><trkpt lat="41.1612818" lon="-7.8885691"><ele>299.0</ele><time>2026-04-26T11:31:18.753Z</time></trkpt><trkpt lat="41.1611635" lon="-7.888581"><ele>299.0</ele><time>2026-04-26T11:31:19.749Z</time></trkpt><trkpt lat="41.1610528" lon="-7.8886061"><ele>299.0</ele><time>2026-04-26T11:31:20.755Z</time></trkpt><trkpt lat="41.1609418" lon="-7.8886485"><ele>299.0</ele><time>2026-04-26T11:31:21.749Z</time></trkpt><trkpt lat="41.160843" lon="-7.888711"><ele>299.0</ele><time>2026-04-26T11:31:22.749Z</time></trkpt><trkpt lat="41.1607471" lon="-7.8888"><ele>301.0</ele><time>2026-04-26T11:31:23.752Z</time></trkpt><trkpt lat="41.1606618" lon="-7.8888972"><ele>303.0</ele><time>2026-04-26T11:31:24.761Z</time></trkpt><trkpt lat="41.1606061" lon="-7.8890169"><ele>305.0</ele><time>2026-04-26T11:31:25.766Z</time></trkpt><trkpt lat="41.1605862" lon="-7.8891613"><ele>307.0</ele><time>2026-04-26T11:31:26.752Z</time></trkpt><trkpt lat="41.160593" lon="-7.8893166"><ele>309.0</ele><time>2026-04-26T11:31:27.749Z</time></trkpt><trkpt lat="41.1606083" lon="-7.8894757"><ele>309.0</ele><time>2026-04-26T11:31:28.752Z</time></trkpt><trkpt lat="41.16062" lon="-7.8896283"><ele>309.0</ele><time>2026-04-26T11:31:29.759Z</time></trkpt><trkpt lat="41.1606229" lon="-7.8897698"><ele>309.0</ele><time>2026-04-26T11:31:30.747Z</time></trkpt><trkpt lat="41.1606337" lon="-7.8899196"><ele>309.0</ele><time>2026-04-26T11:31:31.752Z</time></trkpt><trkpt lat="41.1606392" lon="-7.8900789"><ele>308.5</ele><time>2026-04-26T11:31:32.758Z</time></trkpt><trkpt lat="41.1606344" lon="-7.8902275"><ele>308.0</ele><time>2026-04-26T11:31:33.757Z</time></trkpt><trkpt lat="41.1606273" lon="-7.890382"><ele>307.5</ele><time>2026-04-26T11:31:34.752Z</time></trkpt><trkpt lat="41.1606361" lon="-7.8905386"><ele>307.0</ele><time>2026-04-26T11:31:35.761Z</time></trkpt><trkpt lat="41.1606392" lon="-7.8906935"><ele>307.0</ele><time>2026-04-26T11:31:36.75Z</time></trkpt><trkpt lat="41.1606414" lon="-7.8908471"><ele>307.0</ele><time>2026-04-26T11:31:37.748Z</time></trkpt><trkpt lat="41.1606436" lon="-7.8910025"><ele>307.0</ele><time>2026-04-26T11:31:38.757Z</time></trkpt><trkpt lat="41.1606393" lon="-7.8911568"><ele>307.0</ele><time>2026-04-26T11:31:39.752Z</time></trkpt><trkpt lat="41.1606314" lon="-7.8912965"><ele>304.2</ele><time>2026-04-26T11:31:40.753Z</time></trkpt><trkpt lat="41.1606312" lon="-7.8914337"><ele>301.4</ele><time>2026-04-26T11:31:41.773Z</time></trkpt><trkpt lat="41.1606515" lon="-7.8915619"><ele>298.6</ele><time>2026-04-26T11:31:42.752Z</time></trkpt><trkpt lat="41.1606545" lon="-7.8916718"><ele>295.8</ele><time>2026-04-26T11:31:43.753Z</time></trkpt><trkpt lat="41.1606366" lon="-7.891764"><ele>293.0</ele><time>2026-04-26T11:31:44.761Z</time></trkpt><trkpt lat="41.1605391" lon="-7.8918174"><ele>290.2</ele><time>2026-04-26T11:31:46.752Z</time></trkpt><trkpt lat="41.1605115" lon="-7.8919376"><ele>287.4</ele><time>2026-04-26T11:31:48.753Z</time></trkpt><trkpt lat="41.160598" lon="-7.8919628"><ele>284.59999999999997</ele><time>2026-04-26T11:31:50.76Z</time></trkpt><trkpt lat="41.1606655" lon="-7.8919235"><ele>281.8</ele><time>2026-04-26T11:31:51.754Z</time></trkpt><trkpt lat="41.1607474" lon="-7.8918289"><ele>279.0</ele><time>2026-04-26T11:31:52.75Z</time></trkpt><trkpt lat="41.1608105" lon="-7.8916924"><ele>279.0</ele><time>2026-04-26T11:31:53.757Z</time></trkpt><trkpt lat="41.1608508" lon="-7.8915357"><ele>279.0</ele><time>2026-04-26T11:31:54.752Z</time></trkpt><trkpt lat="41.1608848" lon="-7.8913806"><ele>279.0</ele><time>2026-04-26T11:31:55.754Z</time></trkpt><trkpt lat="41.1609256" lon="-7.8912322"><ele>279.0</ele><time>2026-04-26T11:31:56.746Z</time></trkpt><trkpt lat="41.1609615" lon="-7.891092"><ele>279.0</ele><time>2026-04-26T11:31:57.751Z</time></trkpt><trkpt lat="41.1609971" lon="-7.8909572"><ele>279.0</ele><time>2026-04-26T11:31:58.752Z</time></trkpt><trkpt lat="41.1610423" lon="-7.8908395"><ele>279.0</ele><time>2026-04-26T11:31:59.756Z</time></trkpt><trkpt lat="41.1610913" lon="-7.8907239"><ele>279.0</ele><time>2026-04-26T11:32:00.76Z</time></trkpt><trkpt lat="41.1611675" lon="-7.8906374"><ele>279.0</ele><time>2026-04-26T11:32:01.751Z</time></trkpt><trkpt lat="41.1612646" lon="-7.8905908"><ele>280.2</ele><time>2026-04-26T11:32:02.751Z</time></trkpt><trkpt lat="41.1613766" lon="-7.8905765"><ele>281.4</ele><time>2026-04-26T11:32:03.757Z</time></trkpt><trkpt lat="41.1614848" lon="-7.890575"><ele>282.6</ele><time>2026-04-26T11:32:04.75Z</time></trkpt><trkpt lat="41.1615791" lon="-7.8905616"><ele>283.8</ele><time>2026-04-26T11:32:05.753Z</time></trkpt><trkpt lat="41.1616725" lon="-7.8905799"><ele>285.0</ele><time>2026-04-26T11:32:06.757Z</time></trkpt><trkpt lat="41.1617648" lon="-7.8906065"><ele>281.6</ele><time>2026-04-26T11:32:07.754Z</time></trkpt><trkpt lat="41.1618671" lon="-7.8906067"><ele>278.2</ele><time>2026-04-26T11:32:08.751Z</time></trkpt><trkpt lat="41.161963" lon="-7.8905854"><ele>274.8</ele><time>2026-04-26T11:32:09.748Z</time></trkpt><trkpt lat="41.162036" lon="-7.890513"><ele>271.4</ele><time>2026-04-26T11:32:10.75Z</time></trkpt><trkpt lat="41.1620994" lon="-7.8904319"><ele>268.0</ele><time>2026-04-26T11:32:11.75Z</time></trkpt><trkpt lat="41.1621652" lon="-7.8903499"><ele>268.0</ele><time>2026-04-26T11:32:12.753Z</time></trkpt><trkpt lat="41.162229" lon="-7.890264"><ele>268.0</ele><time>2026-04-26T11:32:13.75Z</time></trkpt><trkpt lat="41.1622917" lon="-7.8901769"><ele>268.0</ele><time>2026-04-26T11:32:14.751Z</time></trkpt><trkpt lat="41.1623516" lon="-7.890079"><ele>268.0</ele><time>2026-04-26T11:32:15.745Z</time></trkpt><trkpt lat="41.162399" lon="-7.8899749"><ele>268.0</ele><time>2026-04-26T11:32:16.751Z</time></trkpt><trkpt lat="41.16244" lon="-7.8898661"><ele>268.3333333333333</ele><time>2026-04-26T11:32:17.752Z</time></trkpt><trkpt lat="41.1624882" lon="-7.8897691"><ele>268.66666666666663</ele><time>2026-04-26T11:32:18.753Z</time></trkpt><trkpt lat="41.1625475" lon="-7.8896729"><ele>269.0</ele><time>2026-04-26T11:32:19.758Z</time></trkpt><trkpt lat="41.162605" lon="-7.8895714"><ele>269.3333333333333</ele><time>2026-04-26T11:32:20.752Z</time></trkpt><trkpt lat="41.1626591" lon="-7.8894767"><ele>269.6666666666667</ele><time>2026-04-26T11:32:21.751Z</time></trkpt><trkpt lat="41.1627167" lon="-7.8894014"><ele>270.0</ele><time>2026-04-26T11:32:22.754Z</time></trkpt><trkpt lat="41.1627791" lon="-7.8893243"><ele>271.4</ele><time>2026-04-26T11:32:23.75Z</time></trkpt><trkpt lat="41.1628747" lon="-7.8892447"><ele>272.8</ele><time>2026-04-26T11:32:25.754Z</time></trkpt><trkpt lat="41.1629582" lon="-7.8892258"><ele>274.2</ele><time>2026-04-26T11:32:27.749Z</time></trkpt><trkpt lat="41.1630313" lon="-7.8892037"><ele>275.6</ele><time>2026-04-26T11:32:29.756Z</time></trkpt><trkpt lat="41.1631244" lon="-7.8891816"><ele>277.0</ele><time>2026-04-26T11:32:31.752Z</time></trkpt><trkpt lat="41.1632214" lon="-7.8891559"><ele>277.0</ele><time>2026-04-26T11:32:33.76Z</time></trkpt><trkpt lat="41.1633226" lon="-7.8891629"><ele>277.0</ele><time>2026-04-26T11:32:35.759Z</time></trkpt><trkpt lat="41.1634253" lon="-7.8892363"><ele>277.0</ele><time>2026-04-26T11:32:37.749Z</time></trkpt><trkpt lat="41.1635085" lon="-7.8893435"><ele>277.0</ele><time>2026-04-26T11:32:39.75Z</time></trkpt><trkpt lat="41.1635162" lon="-7.8894416"><ele>277.0</ele><time>2026-04-26T11:32:41.753Z</time></trkpt><trkpt lat="41.1635218" lon="-7.8895697"><ele>275.5</ele><time>2026-04-26T11:32:46.755Z</time></trkpt><trkpt lat="41.1635175" lon="-7.8896632"><ele>274.0</ele><time>2026-04-26T11:32:48.757Z</time></trkpt><trkpt lat="41.1635073" lon="-7.8897861"><ele>272.5</ele><time>2026-04-26T11:32:51.754Z</time></trkpt><trkpt lat="41.1635072" lon="-7.8898863"><ele>271.0</ele><time>2026-04-26T11:32:54.751Z</time></trkpt><trkpt lat="41.1634642" lon="-7.8898146"><ele>269.5</ele><time>2026-04-26T11:39:44.748Z</time></trkpt><trkpt lat="41.1634783" lon="-7.8897024"><ele>268.0</ele><time>2026-04-26T11:39:57.752Z</time></trkpt><trkpt lat="41.1634674" lon="-7.8896053"><ele>268.0</ele><time>2026-04-26T11:40:00.747Z</time></trkpt><trkpt lat="41.1634553" lon="-7.8895103"><ele>268.0</ele><time>2026-04-26T11:40:13.748Z</time></trkpt><trkpt lat="41.1634095" lon="-7.8894025"><ele>268.0</ele><time>2026-04-26T11:40:16.749Z</time></trkpt><trkpt lat="41.1633502" lon="-7.8893248"><ele>268.0</ele><time>2026-04-26T11:40:18.748Z</time></trkpt><trkpt lat="41.163277" lon="-7.8892658"><ele>268.0</ele><time>2026-04-26T11:40:20.746Z</time></trkpt><trkpt lat="41.1631798" lon="-7.8892478"><ele>268.0</ele><time>2026-04-26T11:40:22.757Z</time></trkpt><trkpt lat="41.1630962" lon="-7.8892675"><ele>268.3333333333333</ele><time>2026-04-26T11:40:24.748Z</time></trkpt><trkpt lat="41.1630265" lon="-7.8892774"><ele>268.66666666666663</ele><time>2026-04-26T11:40:26.749Z</time></trkpt><trkpt lat="41.1629509" lon="-7.889307"><ele>269.0</ele><time>2026-04-26T11:40:28.747Z</time></trkpt><trkpt lat="41.1628807" lon="-7.8893474"><ele>269.3333333333333</ele><time>2026-04-26T11:40:30.753Z</time></trkpt><trkpt lat="41.1628082" lon="-7.8893878"><ele>269.6666666666667</ele><time>2026-04-26T11:40:32.751Z</time></trkpt><trkpt lat="41.1627218" lon="-7.8894222"><ele>270.0</ele><time>2026-04-26T11:40:34.747Z</time></trkpt><trkpt lat="41.162661" lon="-7.8894663"><ele>270.0</ele><time>2026-04-26T11:40:36.748Z</time></trkpt><trkpt lat="41.1626108" lon="-7.8895382"><ele>270.0</ele><time>2026-04-26T11:40:39.756Z</time></trkpt><trkpt lat="41.1625582" lon="-7.8896466"><ele>270.0</ele><time>2026-04-26T11:40:42.75Z</time></trkpt><trkpt lat="41.1624966" lon="-7.889738"><ele>270.0</ele><time>2026-04-26T11:40:44.759Z</time></trkpt><trkpt lat="41.1624314" lon="-7.8898384"><ele>270.0</ele><time>2026-04-26T11:40:46.754Z</time></trkpt><trkpt lat="41.1623686" lon="-7.8899476"><ele>269.6</ele><time>2026-04-26T11:40:48.756Z</time></trkpt><trkpt lat="41.1623236" lon="-7.8900688"><ele>269.2</ele><time>2026-04-26T11:40:50.754Z</time></trkpt><trkpt lat="41.162273" lon="-7.8901796"><ele>268.8</ele><time>2026-04-26T11:40:52.749Z</time></trkpt><trkpt lat="41.1622088" lon="-7.8902618"><ele>268.4</ele><time>2026-04-26T11:40:54.748Z</time></trkpt><trkpt lat="41.1621456" lon="-7.8903372"><ele>268.0</ele><time>2026-04-26T11:40:56.747Z</time></trkpt><trkpt lat="41.1620811" lon="-7.8904388"><ele>268.0</ele><time>2026-04-26T11:40:58.746Z</time></trkpt><trkpt lat="41.1620023" lon="-7.8905208"><ele>268.0</ele><time>2026-04-26T11:41:00.745Z</time></trkpt><trkpt lat="41.1619208" lon="-7.8906107"><ele>268.0</ele><time>2026-04-26T11:41:02.749Z</time></trkpt><trkpt lat="41.1618272" lon="-7.8907026"><ele>268.0</ele><time>2026-04-26T11:41:04.75Z</time></trkpt><trkpt lat="41.1617343" lon="-7.890726"><ele>268.0</ele><time>2026-04-26T11:41:06.752Z</time></trkpt><trkpt lat="41.161667" lon="-7.8907301"><ele>268.0</ele><time>2026-04-26T11:41:08.75Z</time></trkpt><trkpt lat="41.161738" lon="-7.8907382"><ele>268.0</ele><time>2026-04-26T11:41:14.75Z</time></trkpt><trkpt lat="41.1618421" lon="-7.8907272"><ele>268.0</ele><time>2026-04-26T11:41:16.754Z</time></trkpt><trkpt lat="41.161939" lon="-7.8907086"><ele>268.0</ele><time>2026-04-26T11:41:18.75Z</time></trkpt><trkpt lat="41.1620194" lon="-7.8906472"><ele>268.0</ele><time>2026-04-26T11:41:20.75Z</time></trkpt><trkpt lat="41.1620925" lon="-7.890618"><ele>268.0</ele><time>2026-04-26T11:41:22.747Z</time></trkpt><trkpt lat="41.1621785" lon="-7.8906758"><ele>268.0</ele><time>2026-04-26T11:41:24.749Z</time></trkpt><trkpt lat="41.1622313" lon="-7.8907227"><ele>268.0</ele><time>2026-04-26T11:41:25.75Z</time></trkpt><trkpt lat="41.1623161" lon="-7.8907976"><ele>268.0</ele><time>2026-04-26T11:41:27.747Z</time></trkpt><trkpt lat="41.1623694" lon="-7.8908715"><ele>268.0</ele><time>2026-04-26T11:41:29.753Z</time></trkpt><trkpt lat="41.1623646" lon="-7.890955"><ele>268.0</ele><time>2026-04-26T11:41:31.755Z</time></trkpt><trkpt lat="41.1623245" lon="-7.8910499"><ele>268.0</ele><time>2026-04-26T11:41:33.747Z</time></trkpt><trkpt lat="41.1622447" lon="-7.8911493"><ele>266.2</ele><time>2026-04-26T11:41:35.748Z</time></trkpt><trkpt lat="41.1621625" lon="-7.8912575"><ele>264.4</ele><time>2026-04-26T11:41:37.751Z</time></trkpt><trkpt lat="41.1620879" lon="-7.8913511"><ele>262.59999999999997</ele><time>2026-04-26T11:41:39.752Z</time></trkpt><trkpt lat="41.1620686" lon="-7.8914543"><ele>260.8</ele><time>2026-04-26T11:41:41.749Z</time></trkpt><trkpt lat="41.1621212" lon="-7.8915118"><ele>259.0</ele><time>2026-04-26T11:41:43.749Z</time></trkpt><trkpt lat="41.1622116" lon="-7.8915349"><ele>259.0</ele><time>2026-04-26T11:41:45.748Z</time></trkpt><trkpt lat="41.1623082" lon="-7.8915626"><ele>259.0</ele><time>2026-04-26T11:41:47.751Z</time></trkpt><trkpt lat="41.1624095" lon="-7.8916053"><ele>259.0</ele><time>2026-04-26T11:41:49.748Z</time></trkpt><trkpt lat="41.1625304" lon="-7.891687"><ele>259.0</ele><time>2026-04-26T11:41:51.756Z</time></trkpt><trkpt lat="41.1626227" lon="-7.8917558"><ele>259.0</ele><time>2026-04-26T11:41:53.749Z</time></trkpt><trkpt lat="41.1627114" lon="-7.8918502"><ele>260.85714285714283</ele><time>2026-04-26T11:41:55.755Z</time></trkpt><trkpt lat="41.1627651" lon="-7.8919121"><ele>262.7142857142857</ele><time>2026-04-26T11:41:56.747Z</time></trkpt><trkpt lat="41.1628169" lon="-7.8919739"><ele>264.57142857142856</ele><time>2026-04-26T11:41:57.749Z</time></trkpt><trkpt lat="41.162868" lon="-7.8920246"><ele>266.42857142857144</ele><time>2026-04-26T11:41:58.755Z</time></trkpt><trkpt lat="41.1629215" lon="-7.8920791"><ele>268.2857142857143</ele><time>2026-04-26T11:41:59.755Z</time></trkpt><trkpt lat="41.162974" lon="-7.8921332"><ele>270.1428571428571</ele><time>2026-04-26T11:42:00.756Z</time></trkpt><trkpt lat="41.1630233" lon="-7.8921915"><ele>272.0</ele><time>2026-04-26T11:42:01.746Z</time></trkpt><trkpt lat="41.1630774" lon="-7.8923097"><ele>272.0</ele><time>2026-04-26T11:42:03.751Z</time></trkpt><trkpt lat="41.1630991" lon="-7.8924326"><ele>272.0</ele><time>2026-04-26T11:42:05.752Z</time></trkpt><trkpt lat="41.1630967" lon="-7.8925706"><ele>272.0</ele><time>2026-04-26T11:42:07.75Z</time></trkpt><trkpt lat="41.1630821" lon="-7.892722"><ele>272.0</ele><time>2026-04-26T11:42:09.756Z</time></trkpt><trkpt lat="41.1630709" lon="-7.8928754"><ele>272.0</ele><time>2026-04-26T11:42:11.748Z</time></trkpt><trkpt lat="41.1630641" lon="-7.8930302"><ele>274.0</ele><time>2026-04-26T11:42:13.747Z</time></trkpt><trkpt lat="41.1630727" lon="-7.8931779"><ele>276.0</ele><time>2026-04-26T11:42:15.75Z</time></trkpt><trkpt lat="41.1630812" lon="-7.8933339"><ele>278.0</ele><time>2026-04-26T11:42:17.751Z</time></trkpt><trkpt lat="41.1631059" lon="-7.8934852"><ele>280.0</ele><time>2026-04-26T11:42:19.749Z</time></trkpt><trkpt lat="41.1631542" lon="-7.893606"><ele>282.0</ele><time>2026-04-26T11:42:21.747Z</time></trkpt><trkpt lat="41.1631987" lon="-7.8936755"><ele>284.8333333333333</ele><time>2026-04-26T11:42:22.753Z</time></trkpt><trkpt lat="41.1632519" lon="-7.893752"><ele>287.6666666666667</ele><time>2026-04-26T11:42:23.75Z</time></trkpt><trkpt lat="41.1633019" lon="-7.8938291"><ele>290.5</ele><time>2026-04-26T11:42:24.758Z</time></trkpt><trkpt lat="41.1633509" lon="-7.8939143"><ele>293.33333333333337</ele><time>2026-04-26T11:42:25.756Z</time></trkpt><trkpt lat="41.163395" lon="-7.8939992"><ele>296.1666666666667</ele><time>2026-04-26T11:42:26.755Z</time></trkpt><trkpt lat="41.1634309" lon="-7.894088"><ele>299.0</ele><time>2026-04-26T11:42:27.749Z</time></trkpt><trkpt lat="41.1634623" lon="-7.8941765"><ele>301.6666666666667</ele><time>2026-04-26T11:42:28.75Z</time></trkpt><trkpt lat="41.1634914" lon="-7.8942576"><ele>304.33333333333337</ele><time>2026-04-26T11:42:29.748Z</time></trkpt><trkpt lat="41.1635215" lon="-7.8943354"><ele>307.0</ele><time>2026-04-26T11:42:30.752Z</time></trkpt><trkpt lat="41.1635914" lon="-7.8944678"><ele>309.6666666666667</ele><time>2026-04-26T11:42:32.748Z</time></trkpt><trkpt lat="41.1636486" lon="-7.8945692"><ele>312.3333333333333</ele><time>2026-04-26T11:42:34.756Z</time></trkpt><trkpt lat="41.1636988" lon="-7.8946533"><ele>315.0</ele><time>2026-04-26T11:42:36.749Z</time></trkpt><trkpt lat="41.163728" lon="-7.8947462"><ele>315.0</ele><time>2026-04-26T11:42:38.747Z</time></trkpt><trkpt lat="41.1637" lon="-7.8948571"><ele>315.0</ele><time>2026-04-26T11:42:41.75Z</time></trkpt><trkpt lat="41.1636601" lon="-7.8949319"><ele>315.0</ele><time>2026-04-26T11:42:43.75Z</time></trkpt><trkpt lat="41.1636286" lon="-7.8950264"><ele>315.0</ele><time>2026-04-26T11:42:45.75Z</time></trkpt><trkpt lat="41.1636179" lon="-7.8951275"><ele>315.0</ele><time>2026-04-26T11:42:47.75Z</time></trkpt><trkpt lat="41.1635889" lon="-7.895248"><ele>315.0</ele><time>2026-04-26T11:42:49.747Z</time></trkpt><trkpt lat="41.1635461" lon="-7.8953622"><ele>319.5</ele><time>2026-04-26T11:42:51.749Z</time></trkpt><trkpt lat="41.163495" lon="-7.8954833"><ele>324.0</ele><time>2026-04-26T11:42:53.76Z</time></trkpt><trkpt lat="41.1634529" lon="-7.8956148"><ele>328.5</ele><time>2026-04-26T11:42:55.755Z</time></trkpt><trkpt lat="41.1634368" lon="-7.8957676"><ele>333.0</ele><time>2026-04-26T11:42:57.754Z</time></trkpt><trkpt lat="41.1634625" lon="-7.8959329"><ele>337.0</ele><time>2026-04-26T11:42:59.753Z</time></trkpt><trkpt lat="41.1634934" lon="-7.8960107"><ele>341.0</ele><time>2026-04-26T11:43:00.75Z</time></trkpt><trkpt lat="41.163535" lon="-7.896076"><ele>345.0</ele><time>2026-04-26T11:43:01.753Z</time></trkpt><trkpt lat="41.1635862" lon="-7.8961324"><ele>349.0</ele><time>2026-04-26T11:43:02.745Z</time></trkpt><trkpt lat="41.1636445" lon="-7.8961817"><ele>353.0</ele><time>2026-04-26T11:43:03.751Z</time></trkpt><trkpt lat="41.163706" lon="-7.896226"><ele>357.0</ele><time>2026-04-26T11:43:04.746Z</time></trkpt><trkpt lat="41.1637758" lon="-7.8962634"><ele>361.0</ele><time>2026-04-26T11:43:05.755Z</time></trkpt><trkpt lat="41.1638408" lon="-7.8962935"><ele>361.0</ele><time>2026-04-26T11:43:06.747Z</time></trkpt><trkpt lat="41.1639416" lon="-7.8963707"><ele>361.0</ele><time>2026-04-26T11:43:08.753Z</time></trkpt><trkpt lat="41.1640249" lon="-7.8964944"><ele>361.0</ele><time>2026-04-26T11:43:10.745Z</time></trkpt><trkpt lat="41.1640649" lon="-7.8965592"><ele>361.0</ele><time>2026-04-26T11:43:11.749Z</time></trkpt><trkpt lat="41.1641253" lon="-7.8966997"><ele>361.0</ele><time>2026-04-26T11:43:13.755Z</time></trkpt><trkpt lat="41.1641788" lon="-7.8968366"><ele>359.5</ele><time>2026-04-26T11:43:15.749Z</time></trkpt><trkpt lat="41.1642252" lon="-7.8969706"><ele>358.0</ele><time>2026-04-26T11:43:17.747Z</time></trkpt><trkpt lat="41.1642668" lon="-7.8970834"><ele>356.5</ele><time>2026-04-26T11:43:19.748Z</time></trkpt><trkpt lat="41.1642971" lon="-7.8971767"><ele>355.0</ele><time>2026-04-26T11:43:21.748Z</time></trkpt><trkpt lat="41.1643071" lon="-7.897265"><ele>353.5</ele><time>2026-04-26T11:43:23.748Z</time></trkpt><trkpt lat="41.1643096" lon="-7.8973643"><ele>352.0</ele><time>2026-04-26T11:43:25.751Z</time></trkpt><trkpt lat="41.1643236" lon="-7.8974563"><ele>352.0</ele><time>2026-04-26T11:43:27.749Z</time></trkpt><trkpt lat="41.1643245" lon="-7.8975513"><ele>352.0</ele><time>2026-04-26T11:43:29.752Z</time></trkpt><trkpt lat="41.1643729" lon="-7.8976522"><ele>352.0</ele><time>2026-04-26T11:43:31.749Z</time></trkpt><trkpt lat="41.1644291" lon="-7.8977244"><ele>352.0</ele><time>2026-04-26T11:43:33.747Z</time></trkpt><trkpt lat="41.1645087" lon="-7.8977373"><ele>352.0</ele><time>2026-04-26T11:43:35.747Z</time></trkpt><trkpt lat="41.1645717" lon="-7.8977339"><ele>352.0</ele><time>2026-04-26T11:43:37.745Z</time></trkpt><trkpt lat="41.1646536" lon="-7.8977099"><ele>366.0</ele><time>2026-04-26T11:43:41.751Z</time></trkpt><trkpt lat="41.1647234" lon="-7.8976741"><ele>366.0</ele><time>2026-04-26T11:43:45.766Z</time></trkpt><trkpt lat="41.1647861" lon="-7.8976541"><ele>366.0</ele><time>2026-04-26T11:46:49.744Z</time></trkpt></trkseg></trk></gpx>